<?xml version="1.0" encoding="UTF-8" standalone="no" ?>
<gpx xmlns="http://www.topografix.com/GPX/1/1" xmlns:xsi="http://www.w3.org/2001/XMLSchema-instance" xsi:schemaLocation="http://www.topografix.com/GPX/1/1 http://www.topografix.com/GPX/1/1/gpx.xsd" version="1.1" creator="VisuGPX - https://www.visugpx.com">
  <metadata>
    <name>2017-02-12_Petite et Grande Etoile</name>
    <desc><![CDATA[Magnifiques panoramiques - vue sur la baie entière - deux raidillons d'une centaine de mètres. Pistes DFCI, Terrain caillouteux]]></desc>
  </metadata>
  <trk>
    <name><![CDATA[Petite et Grande Étoile]]></name>
    <trkseg>
      <trkpt lat="43.38839" lon="5.3895">
        <ele>328.79998779297</ele>
        <time>2017-02-12T10:09:52.000Z</time>
      </trkpt>
      <trkpt lat="43.38839" lon="5.38951">
        <ele>328.79998779297</ele>
        <time>2017-02-12T10:09:53.000Z</time>
      </trkpt>
      <trkpt lat="43.3884" lon="5.38951">
        <ele>329</ele>
        <time>2017-02-12T10:09:54.000Z</time>
      </trkpt>
      <trkpt lat="43.3884" lon="5.38952">
        <ele>328.79998779297</ele>
        <time>2017-02-12T10:09:55.000Z</time>
      </trkpt>
      <trkpt lat="43.3884" lon="5.38952">
        <ele>328.20001220703</ele>
        <time>2017-02-12T10:09:57.000Z</time>
      </trkpt>
      <trkpt lat="43.38839" lon="5.38955">
        <ele>328.20001220703</ele>
        <time>2017-02-12T10:10:03.000Z</time>
      </trkpt>
      <trkpt lat="43.38838" lon="5.38968">
        <ele>328.39999389648</ele>
        <time>2017-02-12T10:10:14.000Z</time>
      </trkpt>
      <trkpt lat="43.38842" lon="5.38982">
        <ele>329</ele>
        <time>2017-02-12T10:10:25.000Z</time>
      </trkpt>
      <trkpt lat="43.38847" lon="5.38989">
        <ele>329.60000610352</ele>
        <time>2017-02-12T10:10:29.000Z</time>
      </trkpt>
      <trkpt lat="43.3885" lon="5.38994">
        <ele>329.60000610352</ele>
        <time>2017-02-12T10:10:34.000Z</time>
      </trkpt>
      <trkpt lat="43.38853" lon="5.38996">
        <ele>330.39999389648</ele>
        <time>2017-02-12T10:10:41.000Z</time>
      </trkpt>
      <trkpt lat="43.38853" lon="5.38996">
        <ele>330.60000610352</ele>
        <time>2017-02-12T10:10:42.000Z</time>
      </trkpt>
      <trkpt lat="43.38853" lon="5.38997">
        <ele>330.79998779297</ele>
        <time>2017-02-12T10:10:44.000Z</time>
      </trkpt>
      <trkpt lat="43.38852" lon="5.39">
        <ele>331</ele>
        <time>2017-02-12T10:10:48.000Z</time>
      </trkpt>
      <trkpt lat="43.38851" lon="5.39005">
        <ele>330.39999389648</ele>
        <time>2017-02-12T10:10:58.000Z</time>
      </trkpt>
      <trkpt lat="43.38853" lon="5.39019">
        <ele>331.60000610352</ele>
        <time>2017-02-12T10:11:07.000Z</time>
      </trkpt>
      <trkpt lat="43.38851" lon="5.39033">
        <ele>330.60000610352</ele>
        <time>2017-02-12T10:11:15.000Z</time>
      </trkpt>
      <trkpt lat="43.38851" lon="5.39039">
        <ele>330.20001220703</ele>
        <time>2017-02-12T10:11:19.000Z</time>
      </trkpt>
      <trkpt lat="43.38851" lon="5.39042">
        <ele>330</ele>
        <time>2017-02-12T10:11:21.000Z</time>
      </trkpt>
      <trkpt lat="43.38851" lon="5.39046">
        <ele>329.79998779297</ele>
        <time>2017-02-12T10:11:23.000Z</time>
      </trkpt>
      <trkpt lat="43.38854" lon="5.39054">
        <ele>330.60000610352</ele>
        <time>2017-02-12T10:11:28.000Z</time>
      </trkpt>
      <trkpt lat="43.38855" lon="5.39058">
        <ele>331</ele>
        <time>2017-02-12T10:11:30.000Z</time>
      </trkpt>
      <trkpt lat="43.38857" lon="5.39063">
        <ele>330.79998779297</ele>
        <time>2017-02-12T10:11:34.000Z</time>
      </trkpt>
      <trkpt lat="43.38859" lon="5.39071">
        <ele>330.39999389648</ele>
        <time>2017-02-12T10:11:40.000Z</time>
      </trkpt>
      <trkpt lat="43.38859" lon="5.39073">
        <ele>330.20001220703</ele>
        <time>2017-02-12T10:11:42.000Z</time>
      </trkpt>
      <trkpt lat="43.38858" lon="5.39075">
        <ele>330</ele>
        <time>2017-02-12T10:11:44.000Z</time>
      </trkpt>
      <trkpt lat="43.38858" lon="5.3908">
        <ele>329.60000610352</ele>
        <time>2017-02-12T10:11:50.000Z</time>
      </trkpt>
      <trkpt lat="43.38858" lon="5.39081">
        <ele>329</ele>
        <time>2017-02-12T10:11:52.000Z</time>
      </trkpt>
      <trkpt lat="43.3886" lon="5.39084">
        <ele>328.79998779297</ele>
        <time>2017-02-12T10:11:56.000Z</time>
      </trkpt>
      <trkpt lat="43.38861" lon="5.39086">
        <ele>329.20001220703</ele>
        <time>2017-02-12T10:11:58.000Z</time>
      </trkpt>
      <trkpt lat="43.38861" lon="5.39091">
        <ele>328.79998779297</ele>
        <time>2017-02-12T10:12:02.000Z</time>
      </trkpt>
      <trkpt lat="43.38865" lon="5.39101">
        <ele>329.20001220703</ele>
        <time>2017-02-12T10:12:10.000Z</time>
      </trkpt>
      <trkpt lat="43.38867" lon="5.39112">
        <ele>329.60000610352</ele>
        <time>2017-02-12T10:12:18.000Z</time>
      </trkpt>
      <trkpt lat="43.38867" lon="5.39114">
        <ele>330</ele>
        <time>2017-02-12T10:12:20.000Z</time>
      </trkpt>
      <trkpt lat="43.38868" lon="5.39116">
        <ele>330.20001220703</ele>
        <time>2017-02-12T10:12:21.000Z</time>
      </trkpt>
      <trkpt lat="43.38868" lon="5.39119">
        <ele>330.20001220703</ele>
        <time>2017-02-12T10:12:23.000Z</time>
      </trkpt>
      <trkpt lat="43.38869" lon="5.39123">
        <ele>330.20001220703</ele>
        <time>2017-02-12T10:12:25.000Z</time>
      </trkpt>
      <trkpt lat="43.38871" lon="5.39134">
        <ele>330</ele>
        <time>2017-02-12T10:12:33.000Z</time>
      </trkpt>
      <trkpt lat="43.38873" lon="5.39142">
        <ele>330.39999389648</ele>
        <time>2017-02-12T10:12:39.000Z</time>
      </trkpt>
      <trkpt lat="43.38874" lon="5.39149">
        <ele>331.20001220703</ele>
        <time>2017-02-12T10:12:45.000Z</time>
      </trkpt>
      <trkpt lat="43.38876" lon="5.39152">
        <ele>331</ele>
        <time>2017-02-12T10:12:48.000Z</time>
      </trkpt>
      <trkpt lat="43.38876" lon="5.39154">
        <ele>331.60000610352</ele>
        <time>2017-02-12T10:12:50.000Z</time>
      </trkpt>
      <trkpt lat="43.38878" lon="5.39161">
        <ele>332</ele>
        <time>2017-02-12T10:12:56.000Z</time>
      </trkpt>
      <trkpt lat="43.38879" lon="5.39169">
        <ele>332.39999389648</ele>
        <time>2017-02-12T10:13:03.000Z</time>
      </trkpt>
      <trkpt lat="43.3888" lon="5.39173">
        <ele>332.60000610352</ele>
        <time>2017-02-12T10:13:07.000Z</time>
      </trkpt>
      <trkpt lat="43.38881" lon="5.39177">
        <ele>333</ele>
        <time>2017-02-12T10:13:11.000Z</time>
      </trkpt>
      <trkpt lat="43.38883" lon="5.39183">
        <ele>333.79998779297</ele>
        <time>2017-02-12T10:13:16.000Z</time>
      </trkpt>
      <trkpt lat="43.38884" lon="5.39188">
        <ele>333.79998779297</ele>
        <time>2017-02-12T10:13:20.000Z</time>
      </trkpt>
      <trkpt lat="43.38887" lon="5.39196">
        <ele>333.79998779297</ele>
        <time>2017-02-12T10:13:28.000Z</time>
      </trkpt>
      <trkpt lat="43.38889" lon="5.39205">
        <ele>334.60000610352</ele>
        <time>2017-02-12T10:13:35.000Z</time>
      </trkpt>
      <trkpt lat="43.38891" lon="5.39213">
        <ele>334.79998779297</ele>
        <time>2017-02-12T10:13:43.000Z</time>
      </trkpt>
      <trkpt lat="43.38892" lon="5.39217">
        <ele>335</ele>
        <time>2017-02-12T10:13:45.000Z</time>
      </trkpt>
      <trkpt lat="43.38893" lon="5.39223">
        <ele>335.20001220703</ele>
        <time>2017-02-12T10:13:49.000Z</time>
      </trkpt>
      <trkpt lat="43.38896" lon="5.39235">
        <ele>335.79998779297</ele>
        <time>2017-02-12T10:13:58.000Z</time>
      </trkpt>
      <trkpt lat="43.38896" lon="5.39239">
        <ele>336.20001220703</ele>
        <time>2017-02-12T10:14:01.000Z</time>
      </trkpt>
      <trkpt lat="43.38897" lon="5.39244">
        <ele>336.79998779297</ele>
        <time>2017-02-12T10:14:05.000Z</time>
      </trkpt>
      <trkpt lat="43.38898" lon="5.39253">
        <ele>337</ele>
        <time>2017-02-12T10:14:12.000Z</time>
      </trkpt>
      <trkpt lat="43.38899" lon="5.39258">
        <ele>337.20001220703</ele>
        <time>2017-02-12T10:14:16.000Z</time>
      </trkpt>
      <trkpt lat="43.389" lon="5.39262">
        <ele>337.60000610352</ele>
        <time>2017-02-12T10:14:19.000Z</time>
      </trkpt>
      <trkpt lat="43.38902" lon="5.39271">
        <ele>338.20001220703</ele>
        <time>2017-02-12T10:14:27.000Z</time>
      </trkpt>
      <trkpt lat="43.38902" lon="5.39272">
        <ele>338.39999389648</ele>
        <time>2017-02-12T10:14:28.000Z</time>
      </trkpt>
      <trkpt lat="43.38902" lon="5.39274">
        <ele>338.60000610352</ele>
        <time>2017-02-12T10:14:30.000Z</time>
      </trkpt>
      <trkpt lat="43.38903" lon="5.39279">
        <ele>338.79998779297</ele>
        <time>2017-02-12T10:14:34.000Z</time>
      </trkpt>
      <trkpt lat="43.38904" lon="5.39282">
        <ele>339.20001220703</ele>
        <time>2017-02-12T10:14:36.000Z</time>
      </trkpt>
      <trkpt lat="43.38905" lon="5.39288">
        <ele>339</ele>
        <time>2017-02-12T10:14:41.000Z</time>
      </trkpt>
      <trkpt lat="43.38906" lon="5.39296">
        <ele>339.39999389648</ele>
        <time>2017-02-12T10:14:49.000Z</time>
      </trkpt>
      <trkpt lat="43.38906" lon="5.393">
        <ele>339.60000610352</ele>
        <time>2017-02-12T10:14:52.000Z</time>
      </trkpt>
      <trkpt lat="43.38908" lon="5.39305">
        <ele>340.20001220703</ele>
        <time>2017-02-12T10:14:57.000Z</time>
      </trkpt>
      <trkpt lat="43.3891" lon="5.39314">
        <ele>340.20001220703</ele>
        <time>2017-02-12T10:15:06.000Z</time>
      </trkpt>
      <trkpt lat="43.38912" lon="5.39323">
        <ele>340.79998779297</ele>
        <time>2017-02-12T10:15:13.000Z</time>
      </trkpt>
      <trkpt lat="43.38912" lon="5.39325">
        <ele>340.79998779297</ele>
        <time>2017-02-12T10:15:14.000Z</time>
      </trkpt>
      <trkpt lat="43.38914" lon="5.39333">
        <ele>341.39999389648</ele>
        <time>2017-02-12T10:15:20.000Z</time>
      </trkpt>
      <trkpt lat="43.38915" lon="5.39345">
        <ele>340.60000610352</ele>
        <time>2017-02-12T10:15:27.000Z</time>
      </trkpt>
      <trkpt lat="43.38917" lon="5.39357">
        <ele>341.39999389648</ele>
        <time>2017-02-12T10:15:36.000Z</time>
      </trkpt>
      <trkpt lat="43.38918" lon="5.39367">
        <ele>341.60000610352</ele>
        <time>2017-02-12T10:15:44.000Z</time>
      </trkpt>
      <trkpt lat="43.38919" lon="5.39371">
        <ele>342</ele>
        <time>2017-02-12T10:15:48.000Z</time>
      </trkpt>
      <trkpt lat="43.38919" lon="5.39374">
        <ele>342.39999389648</ele>
        <time>2017-02-12T10:15:50.000Z</time>
      </trkpt>
      <trkpt lat="43.38919" lon="5.39375">
        <ele>342.60000610352</ele>
        <time>2017-02-12T10:15:51.000Z</time>
      </trkpt>
      <trkpt lat="43.3892" lon="5.3938">
        <ele>342.79998779297</ele>
        <time>2017-02-12T10:15:58.000Z</time>
      </trkpt>
      <trkpt lat="43.38921" lon="5.39382">
        <ele>342.79998779297</ele>
        <time>2017-02-12T10:16:06.000Z</time>
      </trkpt>
      <trkpt lat="43.38921" lon="5.39383">
        <ele>342.79998779297</ele>
        <time>2017-02-12T10:16:07.000Z</time>
      </trkpt>
      <trkpt lat="43.38922" lon="5.39388">
        <ele>343</ele>
        <time>2017-02-12T10:16:11.000Z</time>
      </trkpt>
      <trkpt lat="43.38923" lon="5.39395">
        <ele>343</ele>
        <time>2017-02-12T10:16:16.000Z</time>
      </trkpt>
      <trkpt lat="43.38924" lon="5.394">
        <ele>343.60000610352</ele>
        <time>2017-02-12T10:16:21.000Z</time>
      </trkpt>
      <trkpt lat="43.38924" lon="5.39405">
        <ele>343.79998779297</ele>
        <time>2017-02-12T10:16:25.000Z</time>
      </trkpt>
      <trkpt lat="43.38925" lon="5.39407">
        <ele>344.20001220703</ele>
        <time>2017-02-12T10:16:27.000Z</time>
      </trkpt>
      <trkpt lat="43.38925" lon="5.39414">
        <ele>344.39999389648</ele>
        <time>2017-02-12T10:16:32.000Z</time>
      </trkpt>
      <trkpt lat="43.38926" lon="5.39424">
        <ele>344.60000610352</ele>
        <time>2017-02-12T10:16:40.000Z</time>
      </trkpt>
      <trkpt lat="43.38927" lon="5.39428">
        <ele>344.79998779297</ele>
        <time>2017-02-12T10:16:43.000Z</time>
      </trkpt>
      <trkpt lat="43.38927" lon="5.39434">
        <ele>344.79998779297</ele>
        <time>2017-02-12T10:16:48.000Z</time>
      </trkpt>
      <trkpt lat="43.3893" lon="5.39443">
        <ele>344.79998779297</ele>
        <time>2017-02-12T10:16:55.000Z</time>
      </trkpt>
      <trkpt lat="43.38933" lon="5.39454">
        <ele>345.20001220703</ele>
        <time>2017-02-12T10:17:03.000Z</time>
      </trkpt>
      <trkpt lat="43.38935" lon="5.39464">
        <ele>345.60000610352</ele>
        <time>2017-02-12T10:17:11.000Z</time>
      </trkpt>
      <trkpt lat="43.38936" lon="5.39469">
        <ele>346</ele>
        <time>2017-02-12T10:17:16.000Z</time>
      </trkpt>
      <trkpt lat="43.38937" lon="5.39474">
        <ele>347.20001220703</ele>
        <time>2017-02-12T10:17:20.000Z</time>
      </trkpt>
      <trkpt lat="43.38938" lon="5.39484">
        <ele>347.20001220703</ele>
        <time>2017-02-12T10:17:28.000Z</time>
      </trkpt>
      <trkpt lat="43.38938" lon="5.39485">
        <ele>347.39999389648</ele>
        <time>2017-02-12T10:17:29.000Z</time>
      </trkpt>
      <trkpt lat="43.38939" lon="5.39493">
        <ele>347.79998779297</ele>
        <time>2017-02-12T10:17:35.000Z</time>
      </trkpt>
      <trkpt lat="43.3894" lon="5.395">
        <ele>348</ele>
        <time>2017-02-12T10:17:41.000Z</time>
      </trkpt>
      <trkpt lat="43.38941" lon="5.39505">
        <ele>348.20001220703</ele>
        <time>2017-02-12T10:17:45.000Z</time>
      </trkpt>
      <trkpt lat="43.38941" lon="5.39508">
        <ele>348.20001220703</ele>
        <time>2017-02-12T10:17:48.000Z</time>
      </trkpt>
      <trkpt lat="43.38942" lon="5.39515">
        <ele>348.39999389648</ele>
        <time>2017-02-12T10:17:55.000Z</time>
      </trkpt>
      <trkpt lat="43.38942" lon="5.39516">
        <ele>348.60000610352</ele>
        <time>2017-02-12T10:17:57.000Z</time>
      </trkpt>
      <trkpt lat="43.38943" lon="5.3952">
        <ele>348.20001220703</ele>
        <time>2017-02-12T10:18:02.000Z</time>
      </trkpt>
      <trkpt lat="43.38944" lon="5.39535">
        <ele>348.60000610352</ele>
        <time>2017-02-12T10:18:14.000Z</time>
      </trkpt>
      <trkpt lat="43.38945" lon="5.39544">
        <ele>348.20001220703</ele>
        <time>2017-02-12T10:18:22.000Z</time>
      </trkpt>
      <trkpt lat="43.38945" lon="5.39547">
        <ele>348.39999389648</ele>
        <time>2017-02-12T10:18:31.000Z</time>
      </trkpt>
      <trkpt lat="43.38945" lon="5.39548">
        <ele>348.39999389648</ele>
        <time>2017-02-12T10:18:32.000Z</time>
      </trkpt>
      <trkpt lat="43.38946" lon="5.39557">
        <ele>348.79998779297</ele>
        <time>2017-02-12T10:18:39.000Z</time>
      </trkpt>
      <trkpt lat="43.38948" lon="5.39572">
        <ele>349</ele>
        <time>2017-02-12T10:18:49.000Z</time>
      </trkpt>
      <trkpt lat="43.38948" lon="5.39578">
        <ele>349.79998779297</ele>
        <time>2017-02-12T10:18:54.000Z</time>
      </trkpt>
      <trkpt lat="43.38949" lon="5.3958">
        <ele>349.60000610352</ele>
        <time>2017-02-12T10:18:56.000Z</time>
      </trkpt>
      <trkpt lat="43.38951" lon="5.3959">
        <ele>349.79998779297</ele>
        <time>2017-02-12T10:19:04.000Z</time>
      </trkpt>
      <trkpt lat="43.38951" lon="5.39593">
        <ele>349.79998779297</ele>
        <time>2017-02-12T10:19:06.000Z</time>
      </trkpt>
      <trkpt lat="43.38953" lon="5.39598">
        <ele>350.39999389648</ele>
        <time>2017-02-12T10:19:11.000Z</time>
      </trkpt>
      <trkpt lat="43.38954" lon="5.39603">
        <ele>351.39999389648</ele>
        <time>2017-02-12T10:19:16.000Z</time>
      </trkpt>
      <trkpt lat="43.38956" lon="5.39607">
        <ele>351.79998779297</ele>
        <time>2017-02-12T10:19:20.000Z</time>
      </trkpt>
      <trkpt lat="43.38958" lon="5.39614">
        <ele>351.79998779297</ele>
        <time>2017-02-12T10:19:27.000Z</time>
      </trkpt>
      <trkpt lat="43.38959" lon="5.39618">
        <ele>353</ele>
        <time>2017-02-12T10:19:32.000Z</time>
      </trkpt>
      <trkpt lat="43.38961" lon="5.39624">
        <ele>353.20001220703</ele>
        <time>2017-02-12T10:19:37.000Z</time>
      </trkpt>
      <trkpt lat="43.38963" lon="5.39632">
        <ele>352.39999389648</ele>
        <time>2017-02-12T10:19:44.000Z</time>
      </trkpt>
      <trkpt lat="43.38963" lon="5.39634">
        <ele>352.20001220703</ele>
        <time>2017-02-12T10:19:45.000Z</time>
      </trkpt>
      <trkpt lat="43.38963" lon="5.39635">
        <ele>352</ele>
        <time>2017-02-12T10:19:46.000Z</time>
      </trkpt>
      <trkpt lat="43.38965" lon="5.39641">
        <ele>352.79998779297</ele>
        <time>2017-02-12T10:19:52.000Z</time>
      </trkpt>
      <trkpt lat="43.38967" lon="5.39648">
        <ele>353.20001220703</ele>
        <time>2017-02-12T10:19:59.000Z</time>
      </trkpt>
      <trkpt lat="43.38967" lon="5.39649">
        <ele>353.39999389648</ele>
        <time>2017-02-12T10:20:00.000Z</time>
      </trkpt>
      <trkpt lat="43.38969" lon="5.39656">
        <ele>354</ele>
        <time>2017-02-12T10:20:07.000Z</time>
      </trkpt>
      <trkpt lat="43.38971" lon="5.39663">
        <ele>354.60000610352</ele>
        <time>2017-02-12T10:20:14.000Z</time>
      </trkpt>
      <trkpt lat="43.38971" lon="5.39664">
        <ele>355.20001220703</ele>
        <time>2017-02-12T10:20:15.000Z</time>
      </trkpt>
      <trkpt lat="43.38971" lon="5.39666">
        <ele>355.79998779297</ele>
        <time>2017-02-12T10:20:16.000Z</time>
      </trkpt>
      <trkpt lat="43.38973" lon="5.39676">
        <ele>356.79998779297</ele>
        <time>2017-02-12T10:20:25.000Z</time>
      </trkpt>
      <trkpt lat="43.38975" lon="5.39682">
        <ele>357.39999389648</ele>
        <time>2017-02-12T10:20:31.000Z</time>
      </trkpt>
      <trkpt lat="43.38975" lon="5.39683">
        <ele>357.79998779297</ele>
        <time>2017-02-12T10:20:34.000Z</time>
      </trkpt>
      <trkpt lat="43.38975" lon="5.39684">
        <ele>359</ele>
        <time>2017-02-12T10:20:41.000Z</time>
      </trkpt>
      <trkpt lat="43.38975" lon="5.39685">
        <ele>358.20001220703</ele>
        <time>2017-02-12T10:20:47.000Z</time>
      </trkpt>
      <trkpt lat="43.38975" lon="5.39685">
        <ele>357.79998779297</ele>
        <time>2017-02-12T10:20:49.000Z</time>
      </trkpt>
      <trkpt lat="43.38975" lon="5.39686">
        <ele>357.79998779297</ele>
        <time>2017-02-12T10:21:04.000Z</time>
      </trkpt>
      <trkpt lat="43.38975" lon="5.39686">
        <ele>357.60000610352</ele>
        <time>2017-02-12T10:21:15.000Z</time>
      </trkpt>
      <trkpt lat="43.38975" lon="5.39687">
        <ele>357.39999389648</ele>
        <time>2017-02-12T10:21:24.000Z</time>
      </trkpt>
      <trkpt lat="43.38977" lon="5.39685">
        <ele>357</ele>
        <time>2017-02-12T10:21:32.000Z</time>
      </trkpt>
      <trkpt lat="43.38976" lon="5.39685">
        <ele>357</ele>
        <time>2017-02-12T10:21:36.000Z</time>
      </trkpt>
      <trkpt lat="43.38975" lon="5.39684">
        <ele>357</ele>
        <time>2017-02-12T10:21:37.000Z</time>
      </trkpt>
      <trkpt lat="43.38973" lon="5.39675">
        <ele>356.39999389648</ele>
        <time>2017-02-12T10:21:45.000Z</time>
      </trkpt>
      <trkpt lat="43.38972" lon="5.39671">
        <ele>356</ele>
        <time>2017-02-12T10:21:49.000Z</time>
      </trkpt>
      <trkpt lat="43.3897" lon="5.39664">
        <ele>355.39999389648</ele>
        <time>2017-02-12T10:21:54.000Z</time>
      </trkpt>
      <trkpt lat="43.3897" lon="5.3966">
        <ele>355</ele>
        <time>2017-02-12T10:21:57.000Z</time>
      </trkpt>
      <trkpt lat="43.38969" lon="5.39654">
        <ele>354.60000610352</ele>
        <time>2017-02-12T10:22:02.000Z</time>
      </trkpt>
      <trkpt lat="43.38968" lon="5.39651">
        <ele>353.79998779297</ele>
        <time>2017-02-12T10:22:05.000Z</time>
      </trkpt>
      <trkpt lat="43.38966" lon="5.39643">
        <ele>353.60000610352</ele>
        <time>2017-02-12T10:22:11.000Z</time>
      </trkpt>
      <trkpt lat="43.38964" lon="5.39635">
        <ele>352.79998779297</ele>
        <time>2017-02-12T10:22:19.000Z</time>
      </trkpt>
      <trkpt lat="43.38962" lon="5.39625">
        <ele>352.20001220703</ele>
        <time>2017-02-12T10:22:27.000Z</time>
      </trkpt>
      <trkpt lat="43.3896" lon="5.39619">
        <ele>351.79998779297</ele>
        <time>2017-02-12T10:22:32.000Z</time>
      </trkpt>
      <trkpt lat="43.38959" lon="5.39616">
        <ele>351.79998779297</ele>
        <time>2017-02-12T10:22:34.000Z</time>
      </trkpt>
      <trkpt lat="43.38957" lon="5.39609">
        <ele>351.20001220703</ele>
        <time>2017-02-12T10:22:41.000Z</time>
      </trkpt>
      <trkpt lat="43.38957" lon="5.39609">
        <ele>351</ele>
        <time>2017-02-12T10:22:46.000Z</time>
      </trkpt>
      <trkpt lat="43.38957" lon="5.39609">
        <ele>351.20001220703</ele>
        <time>2017-02-12T10:22:56.000Z</time>
      </trkpt>
      <trkpt lat="43.38957" lon="5.39605">
        <ele>350.79998779297</ele>
        <time>2017-02-12T10:23:04.000Z</time>
      </trkpt>
      <trkpt lat="43.38957" lon="5.39604">
        <ele>350.39999389648</ele>
        <time>2017-02-12T10:23:12.000Z</time>
      </trkpt>
      <trkpt lat="43.38957" lon="5.39604">
        <ele>350.79998779297</ele>
        <time>2017-02-12T10:23:26.000Z</time>
      </trkpt>
      <trkpt lat="43.38957" lon="5.39608">
        <ele>351.20001220703</ele>
        <time>2017-02-12T10:23:36.000Z</time>
      </trkpt>
      <trkpt lat="43.38957" lon="5.3961">
        <ele>350.79998779297</ele>
        <time>2017-02-12T10:23:45.000Z</time>
      </trkpt>
      <trkpt lat="43.38958" lon="5.39617">
        <ele>350.60000610352</ele>
        <time>2017-02-12T10:23:51.000Z</time>
      </trkpt>
      <trkpt lat="43.38956" lon="5.39617">
        <ele>351.20001220703</ele>
        <time>2017-02-12T10:23:53.000Z</time>
      </trkpt>
      <trkpt lat="43.38953" lon="5.39617">
        <ele>352.20001220703</ele>
        <time>2017-02-12T10:23:57.000Z</time>
      </trkpt>
      <trkpt lat="43.38948" lon="5.39623">
        <ele>352.60000610352</ele>
        <time>2017-02-12T10:24:07.000Z</time>
      </trkpt>
      <trkpt lat="43.38946" lon="5.39632">
        <ele>352.79998779297</ele>
        <time>2017-02-12T10:24:13.000Z</time>
      </trkpt>
      <trkpt lat="43.38946" lon="5.39634">
        <ele>353.20001220703</ele>
        <time>2017-02-12T10:24:15.000Z</time>
      </trkpt>
      <trkpt lat="43.38946" lon="5.3964">
        <ele>353</ele>
        <time>2017-02-12T10:24:19.000Z</time>
      </trkpt>
      <trkpt lat="43.38946" lon="5.39651">
        <ele>352.39999389648</ele>
        <time>2017-02-12T10:24:27.000Z</time>
      </trkpt>
      <trkpt lat="43.38946" lon="5.39652">
        <ele>352.39999389648</ele>
        <time>2017-02-12T10:24:28.000Z</time>
      </trkpt>
      <trkpt lat="43.38948" lon="5.39661">
        <ele>353.60000610352</ele>
        <time>2017-02-12T10:24:34.000Z</time>
      </trkpt>
      <trkpt lat="43.38949" lon="5.39667">
        <ele>354.79998779297</ele>
        <time>2017-02-12T10:24:39.000Z</time>
      </trkpt>
      <trkpt lat="43.3895" lon="5.3967">
        <ele>355.20001220703</ele>
        <time>2017-02-12T10:24:42.000Z</time>
      </trkpt>
      <trkpt lat="43.38951" lon="5.39679">
        <ele>353.79998779297</ele>
        <time>2017-02-12T10:24:51.000Z</time>
      </trkpt>
      <trkpt lat="43.38951" lon="5.39679">
        <ele>353.60000610352</ele>
        <time>2017-02-12T10:24:53.000Z</time>
      </trkpt>
      <trkpt lat="43.38951" lon="5.39679">
        <ele>354.79998779297</ele>
        <time>2017-02-12T10:24:55.000Z</time>
      </trkpt>
      <trkpt lat="43.38951" lon="5.39679">
        <ele>356</ele>
        <time>2017-02-12T10:24:57.000Z</time>
      </trkpt>
      <trkpt lat="43.3895" lon="5.39681">
        <ele>355</ele>
        <time>2017-02-12T10:25:02.000Z</time>
      </trkpt>
      <trkpt lat="43.3895" lon="5.39682">
        <ele>354.20001220703</ele>
        <time>2017-02-12T10:25:03.000Z</time>
      </trkpt>
      <trkpt lat="43.3895" lon="5.39683">
        <ele>354.60000610352</ele>
        <time>2017-02-12T10:25:08.000Z</time>
      </trkpt>
      <trkpt lat="43.3895" lon="5.39682">
        <ele>355.20001220703</ele>
        <time>2017-02-12T10:25:11.000Z</time>
      </trkpt>
      <trkpt lat="43.38951" lon="5.39681">
        <ele>355.79998779297</ele>
        <time>2017-02-12T10:25:17.000Z</time>
      </trkpt>
      <trkpt lat="43.38951" lon="5.3968">
        <ele>354.39999389648</ele>
        <time>2017-02-12T10:25:23.000Z</time>
      </trkpt>
      <trkpt lat="43.3895" lon="5.39677">
        <ele>355</ele>
        <time>2017-02-12T10:25:26.000Z</time>
      </trkpt>
      <trkpt lat="43.38949" lon="5.39674">
        <ele>355.20001220703</ele>
        <time>2017-02-12T10:25:29.000Z</time>
      </trkpt>
      <trkpt lat="43.38948" lon="5.39669">
        <ele>354.79998779297</ele>
        <time>2017-02-12T10:25:33.000Z</time>
      </trkpt>
      <trkpt lat="43.38945" lon="5.39662">
        <ele>354</ele>
        <time>2017-02-12T10:25:39.000Z</time>
      </trkpt>
      <trkpt lat="43.38943" lon="5.39658">
        <ele>354.20001220703</ele>
        <time>2017-02-12T10:25:43.000Z</time>
      </trkpt>
      <trkpt lat="43.38942" lon="5.39655">
        <ele>354.20001220703</ele>
        <time>2017-02-12T10:25:46.000Z</time>
      </trkpt>
      <trkpt lat="43.38939" lon="5.39647">
        <ele>353.60000610352</ele>
        <time>2017-02-12T10:25:54.000Z</time>
      </trkpt>
      <trkpt lat="43.38939" lon="5.39646">
        <ele>353.60000610352</ele>
        <time>2017-02-12T10:25:55.000Z</time>
      </trkpt>
      <trkpt lat="43.3894" lon="5.39639">
        <ele>353.20001220703</ele>
        <time>2017-02-12T10:26:00.000Z</time>
      </trkpt>
      <trkpt lat="43.38941" lon="5.39634">
        <ele>353.20001220703</ele>
        <time>2017-02-12T10:26:04.000Z</time>
      </trkpt>
      <trkpt lat="43.38943" lon="5.3963">
        <ele>353.20001220703</ele>
        <time>2017-02-12T10:26:07.000Z</time>
      </trkpt>
      <trkpt lat="43.38947" lon="5.39624">
        <ele>352.39999389648</ele>
        <time>2017-02-12T10:26:11.000Z</time>
      </trkpt>
      <trkpt lat="43.38949" lon="5.39623">
        <ele>352.20001220703</ele>
        <time>2017-02-12T10:26:12.000Z</time>
      </trkpt>
      <trkpt lat="43.38952" lon="5.39622">
        <ele>352.20001220703</ele>
        <time>2017-02-12T10:26:14.000Z</time>
      </trkpt>
      <trkpt lat="43.38956" lon="5.39623">
        <ele>352.79998779297</ele>
        <time>2017-02-12T10:26:18.000Z</time>
      </trkpt>
      <trkpt lat="43.38959" lon="5.39628">
        <ele>353.39999389648</ele>
        <time>2017-02-12T10:26:24.000Z</time>
      </trkpt>
      <trkpt lat="43.38961" lon="5.39631">
        <ele>353.60000610352</ele>
        <time>2017-02-12T10:26:28.000Z</time>
      </trkpt>
      <trkpt lat="43.38963" lon="5.39638">
        <ele>354.20001220703</ele>
        <time>2017-02-12T10:26:36.000Z</time>
      </trkpt>
      <trkpt lat="43.38965" lon="5.39642">
        <ele>354.60000610352</ele>
        <time>2017-02-12T10:26:40.000Z</time>
      </trkpt>
      <trkpt lat="43.38966" lon="5.39647">
        <ele>355.20001220703</ele>
        <time>2017-02-12T10:26:45.000Z</time>
      </trkpt>
      <trkpt lat="43.38968" lon="5.39653">
        <ele>355.60000610352</ele>
        <time>2017-02-12T10:26:50.000Z</time>
      </trkpt>
      <trkpt lat="43.38968" lon="5.39657">
        <ele>356</ele>
        <time>2017-02-12T10:26:53.000Z</time>
      </trkpt>
      <trkpt lat="43.38969" lon="5.39661">
        <ele>356.39999389648</ele>
        <time>2017-02-12T10:26:57.000Z</time>
      </trkpt>
      <trkpt lat="43.3897" lon="5.39665">
        <ele>356.60000610352</ele>
        <time>2017-02-12T10:27:01.000Z</time>
      </trkpt>
      <trkpt lat="43.38972" lon="5.39675">
        <ele>357.39999389648</ele>
        <time>2017-02-12T10:27:09.000Z</time>
      </trkpt>
      <trkpt lat="43.38972" lon="5.39676">
        <ele>357.39999389648</ele>
        <time>2017-02-12T10:27:10.000Z</time>
      </trkpt>
      <trkpt lat="43.38974" lon="5.39683">
        <ele>358</ele>
        <time>2017-02-12T10:27:17.000Z</time>
      </trkpt>
      <trkpt lat="43.38976" lon="5.39694">
        <ele>358.60000610352</ele>
        <time>2017-02-12T10:27:26.000Z</time>
      </trkpt>
      <trkpt lat="43.38978" lon="5.39702">
        <ele>359.39999389648</ele>
        <time>2017-02-12T10:27:34.000Z</time>
      </trkpt>
      <trkpt lat="43.38979" lon="5.39705">
        <ele>359.60000610352</ele>
        <time>2017-02-12T10:27:36.000Z</time>
      </trkpt>
      <trkpt lat="43.38981" lon="5.3971">
        <ele>360.60000610352</ele>
        <time>2017-02-12T10:27:41.000Z</time>
      </trkpt>
      <trkpt lat="43.38982" lon="5.39712">
        <ele>360.79998779297</ele>
        <time>2017-02-12T10:27:44.000Z</time>
      </trkpt>
      <trkpt lat="43.38987" lon="5.3972">
        <ele>361.20001220703</ele>
        <time>2017-02-12T10:27:53.000Z</time>
      </trkpt>
      <trkpt lat="43.38988" lon="5.39722">
        <ele>361.60000610352</ele>
        <time>2017-02-12T10:27:55.000Z</time>
      </trkpt>
      <trkpt lat="43.38994" lon="5.39728">
        <ele>362.20001220703</ele>
        <time>2017-02-12T10:28:03.000Z</time>
      </trkpt>
      <trkpt lat="43.38996" lon="5.3973">
        <ele>362.39999389648</ele>
        <time>2017-02-12T10:28:06.000Z</time>
      </trkpt>
      <trkpt lat="43.39" lon="5.39736">
        <ele>363.20001220703</ele>
        <time>2017-02-12T10:28:12.000Z</time>
      </trkpt>
      <trkpt lat="43.39001" lon="5.39738">
        <ele>363.39999389648</ele>
        <time>2017-02-12T10:28:14.000Z</time>
      </trkpt>
      <trkpt lat="43.39006" lon="5.39744">
        <ele>364.39999389648</ele>
        <time>2017-02-12T10:28:21.000Z</time>
      </trkpt>
      <trkpt lat="43.39009" lon="5.39749">
        <ele>364.39999389648</ele>
        <time>2017-02-12T10:28:26.000Z</time>
      </trkpt>
      <trkpt lat="43.39012" lon="5.39754">
        <ele>365</ele>
        <time>2017-02-12T10:28:30.000Z</time>
      </trkpt>
      <trkpt lat="43.39015" lon="5.39759">
        <ele>365.39999389648</ele>
        <time>2017-02-12T10:28:35.000Z</time>
      </trkpt>
      <trkpt lat="43.39019" lon="5.39764">
        <ele>365.60000610352</ele>
        <time>2017-02-12T10:28:41.000Z</time>
      </trkpt>
      <trkpt lat="43.39026" lon="5.3977">
        <ele>366</ele>
        <time>2017-02-12T10:28:50.000Z</time>
      </trkpt>
      <trkpt lat="43.39027" lon="5.39771">
        <ele>366.20001220703</ele>
        <time>2017-02-12T10:28:51.000Z</time>
      </trkpt>
      <trkpt lat="43.39033" lon="5.39773">
        <ele>366.20001220703</ele>
        <time>2017-02-12T10:28:58.000Z</time>
      </trkpt>
      <trkpt lat="43.39039" lon="5.39772">
        <ele>366.39999389648</ele>
        <time>2017-02-12T10:29:07.000Z</time>
      </trkpt>
      <trkpt lat="43.39046" lon="5.39769">
        <ele>367</ele>
        <time>2017-02-12T10:29:17.000Z</time>
      </trkpt>
      <trkpt lat="43.39048" lon="5.3977">
        <ele>366.60000610352</ele>
        <time>2017-02-12T10:29:26.000Z</time>
      </trkpt>
      <trkpt lat="43.39048" lon="5.3977">
        <ele>367</ele>
        <time>2017-02-12T10:29:32.000Z</time>
      </trkpt>
      <trkpt lat="43.39049" lon="5.39769">
        <ele>367.39999389648</ele>
        <time>2017-02-12T10:29:36.000Z</time>
      </trkpt>
      <trkpt lat="43.39048" lon="5.3977">
        <ele>367.60000610352</ele>
        <time>2017-02-12T10:29:45.000Z</time>
      </trkpt>
      <trkpt lat="43.39048" lon="5.3977">
        <ele>368.20001220703</ele>
        <time>2017-02-12T10:29:54.000Z</time>
      </trkpt>
      <trkpt lat="43.39048" lon="5.3977">
        <ele>367.79998779297</ele>
        <time>2017-02-12T10:29:56.000Z</time>
      </trkpt>
      <trkpt lat="43.39049" lon="5.39769">
        <ele>367.79998779297</ele>
        <time>2017-02-12T10:30:06.000Z</time>
      </trkpt>
      <trkpt lat="43.39054" lon="5.39765">
        <ele>368</ele>
        <time>2017-02-12T10:30:13.000Z</time>
      </trkpt>
      <trkpt lat="43.39055" lon="5.39765">
        <ele>367.60000610352</ele>
        <time>2017-02-12T10:30:21.000Z</time>
      </trkpt>
      <trkpt lat="43.39057" lon="5.39764">
        <ele>367.79998779297</ele>
        <time>2017-02-12T10:30:33.000Z</time>
      </trkpt>
      <trkpt lat="43.39066" lon="5.39763">
        <ele>368.20001220703</ele>
        <time>2017-02-12T10:30:42.000Z</time>
      </trkpt>
      <trkpt lat="43.39072" lon="5.39766">
        <ele>369</ele>
        <time>2017-02-12T10:30:48.000Z</time>
      </trkpt>
      <trkpt lat="43.39073" lon="5.39766">
        <ele>369</ele>
        <time>2017-02-12T10:30:49.000Z</time>
      </trkpt>
      <trkpt lat="43.39079" lon="5.39769">
        <ele>370</ele>
        <time>2017-02-12T10:30:55.000Z</time>
      </trkpt>
      <trkpt lat="43.39079" lon="5.3977">
        <ele>370</ele>
        <time>2017-02-12T10:30:56.000Z</time>
      </trkpt>
      <trkpt lat="43.39085" lon="5.39774">
        <ele>370.79998779297</ele>
        <time>2017-02-12T10:31:03.000Z</time>
      </trkpt>
      <trkpt lat="43.3909" lon="5.39781">
        <ele>371.20001220703</ele>
        <time>2017-02-12T10:31:11.000Z</time>
      </trkpt>
      <trkpt lat="43.3909" lon="5.39782">
        <ele>371.39999389648</ele>
        <time>2017-02-12T10:31:12.000Z</time>
      </trkpt>
      <trkpt lat="43.39095" lon="5.3979">
        <ele>371</ele>
        <time>2017-02-12T10:31:20.000Z</time>
      </trkpt>
      <trkpt lat="43.391" lon="5.39798">
        <ele>372.20001220703</ele>
        <time>2017-02-12T10:31:29.000Z</time>
      </trkpt>
      <trkpt lat="43.391" lon="5.398">
        <ele>372.20001220703</ele>
        <time>2017-02-12T10:31:30.000Z</time>
      </trkpt>
      <trkpt lat="43.39103" lon="5.39805">
        <ele>372.60000610352</ele>
        <time>2017-02-12T10:31:35.000Z</time>
      </trkpt>
      <trkpt lat="43.39104" lon="5.39809">
        <ele>373</ele>
        <time>2017-02-12T10:31:38.000Z</time>
      </trkpt>
      <trkpt lat="43.39105" lon="5.39812">
        <ele>373.20001220703</ele>
        <time>2017-02-12T10:31:41.000Z</time>
      </trkpt>
      <trkpt lat="43.39107" lon="5.39819">
        <ele>373.79998779297</ele>
        <time>2017-02-12T10:31:46.000Z</time>
      </trkpt>
      <trkpt lat="43.39109" lon="5.39831">
        <ele>374</ele>
        <time>2017-02-12T10:31:55.000Z</time>
      </trkpt>
      <trkpt lat="43.39111" lon="5.39842">
        <ele>374.39999389648</ele>
        <time>2017-02-12T10:32:04.000Z</time>
      </trkpt>
      <trkpt lat="43.39112" lon="5.39851">
        <ele>374.39999389648</ele>
        <time>2017-02-12T10:32:12.000Z</time>
      </trkpt>
      <trkpt lat="43.39112" lon="5.39862">
        <ele>375</ele>
        <time>2017-02-12T10:32:21.000Z</time>
      </trkpt>
      <trkpt lat="43.39112" lon="5.39869">
        <ele>375.20001220703</ele>
        <time>2017-02-12T10:32:26.000Z</time>
      </trkpt>
      <trkpt lat="43.39112" lon="5.39874">
        <ele>375.39999389648</ele>
        <time>2017-02-12T10:32:30.000Z</time>
      </trkpt>
      <trkpt lat="43.39112" lon="5.39876">
        <ele>375.60000610352</ele>
        <time>2017-02-12T10:32:32.000Z</time>
      </trkpt>
      <trkpt lat="43.39112" lon="5.39881">
        <ele>376</ele>
        <time>2017-02-12T10:32:36.000Z</time>
      </trkpt>
      <trkpt lat="43.39112" lon="5.39884">
        <ele>376.20001220703</ele>
        <time>2017-02-12T10:32:38.000Z</time>
      </trkpt>
      <trkpt lat="43.39111" lon="5.39889">
        <ele>376.20001220703</ele>
        <time>2017-02-12T10:32:42.000Z</time>
      </trkpt>
      <trkpt lat="43.39111" lon="5.39892">
        <ele>376.39999389648</ele>
        <time>2017-02-12T10:32:44.000Z</time>
      </trkpt>
      <trkpt lat="43.39112" lon="5.39905">
        <ele>376.60000610352</ele>
        <time>2017-02-12T10:32:53.000Z</time>
      </trkpt>
      <trkpt lat="43.39111" lon="5.39915">
        <ele>377</ele>
        <time>2017-02-12T10:33:01.000Z</time>
      </trkpt>
      <trkpt lat="43.39112" lon="5.39917">
        <ele>377.20001220703</ele>
        <time>2017-02-12T10:33:02.000Z</time>
      </trkpt>
      <trkpt lat="43.39112" lon="5.39922">
        <ele>377.20001220703</ele>
        <time>2017-02-12T10:33:05.000Z</time>
      </trkpt>
      <trkpt lat="43.39113" lon="5.39924">
        <ele>377.39999389648</ele>
        <time>2017-02-12T10:33:07.000Z</time>
      </trkpt>
      <trkpt lat="43.39113" lon="5.39935">
        <ele>378</ele>
        <time>2017-02-12T10:33:14.000Z</time>
      </trkpt>
      <trkpt lat="43.39113" lon="5.39938">
        <ele>378.20001220703</ele>
        <time>2017-02-12T10:33:16.000Z</time>
      </trkpt>
      <trkpt lat="43.39114" lon="5.39942">
        <ele>378.20001220703</ele>
        <time>2017-02-12T10:33:19.000Z</time>
      </trkpt>
      <trkpt lat="43.39114" lon="5.39943">
        <ele>378</ele>
        <time>2017-02-12T10:33:20.000Z</time>
      </trkpt>
      <trkpt lat="43.39113" lon="5.39951">
        <ele>378.60000610352</ele>
        <time>2017-02-12T10:33:27.000Z</time>
      </trkpt>
      <trkpt lat="43.39113" lon="5.3996">
        <ele>378.20001220703</ele>
        <time>2017-02-12T10:33:37.000Z</time>
      </trkpt>
      <trkpt lat="43.39113" lon="5.3997">
        <ele>378.60000610352</ele>
        <time>2017-02-12T10:33:47.000Z</time>
      </trkpt>
      <trkpt lat="43.39113" lon="5.39976">
        <ele>379.39999389648</ele>
        <time>2017-02-12T10:33:51.000Z</time>
      </trkpt>
      <trkpt lat="43.39114" lon="5.39981">
        <ele>379.60000610352</ele>
        <time>2017-02-12T10:33:55.000Z</time>
      </trkpt>
      <trkpt lat="43.39114" lon="5.39991">
        <ele>380.20001220703</ele>
        <time>2017-02-12T10:34:04.000Z</time>
      </trkpt>
      <trkpt lat="43.39114" lon="5.39996">
        <ele>380.39999389648</ele>
        <time>2017-02-12T10:34:08.000Z</time>
      </trkpt>
      <trkpt lat="43.39115" lon="5.4">
        <ele>381.60000610352</ele>
        <time>2017-02-12T10:34:12.000Z</time>
      </trkpt>
      <trkpt lat="43.39115" lon="5.40004">
        <ele>382.20001220703</ele>
        <time>2017-02-12T10:34:15.000Z</time>
      </trkpt>
      <trkpt lat="43.39115" lon="5.40014">
        <ele>382.20001220703</ele>
        <time>2017-02-12T10:34:24.000Z</time>
      </trkpt>
      <trkpt lat="43.39115" lon="5.40024">
        <ele>382.20001220703</ele>
        <time>2017-02-12T10:34:33.000Z</time>
      </trkpt>
      <trkpt lat="43.39116" lon="5.40028">
        <ele>382.39999389648</ele>
        <time>2017-02-12T10:34:36.000Z</time>
      </trkpt>
      <trkpt lat="43.39115" lon="5.40037">
        <ele>382.60000610352</ele>
        <time>2017-02-12T10:34:43.000Z</time>
      </trkpt>
      <trkpt lat="43.39115" lon="5.40046">
        <ele>383.79998779297</ele>
        <time>2017-02-12T10:34:51.000Z</time>
      </trkpt>
      <trkpt lat="43.39115" lon="5.40057">
        <ele>384.20001220703</ele>
        <time>2017-02-12T10:35:00.000Z</time>
      </trkpt>
      <trkpt lat="43.39118" lon="5.40067">
        <ele>384.20001220703</ele>
        <time>2017-02-12T10:35:09.000Z</time>
      </trkpt>
      <trkpt lat="43.3912" lon="5.40077">
        <ele>384</ele>
        <time>2017-02-12T10:35:18.000Z</time>
      </trkpt>
      <trkpt lat="43.39123" lon="5.40088">
        <ele>384.60000610352</ele>
        <time>2017-02-12T10:35:25.000Z</time>
      </trkpt>
      <trkpt lat="43.39123" lon="5.4009">
        <ele>384.79998779297</ele>
        <time>2017-02-12T10:35:26.000Z</time>
      </trkpt>
      <trkpt lat="43.39125" lon="5.40096">
        <ele>385.60000610352</ele>
        <time>2017-02-12T10:35:32.000Z</time>
      </trkpt>
      <trkpt lat="43.39126" lon="5.40099">
        <ele>386</ele>
        <time>2017-02-12T10:35:35.000Z</time>
      </trkpt>
      <trkpt lat="43.39129" lon="5.4011">
        <ele>386.60000610352</ele>
        <time>2017-02-12T10:35:44.000Z</time>
      </trkpt>
      <trkpt lat="43.39134" lon="5.4012">
        <ele>386.39999389648</ele>
        <time>2017-02-12T10:35:52.000Z</time>
      </trkpt>
      <trkpt lat="43.39136" lon="5.40122">
        <ele>386.39999389648</ele>
        <time>2017-02-12T10:35:54.000Z</time>
      </trkpt>
      <trkpt lat="43.39139" lon="5.40126">
        <ele>386.39999389648</ele>
        <time>2017-02-12T10:35:58.000Z</time>
      </trkpt>
      <trkpt lat="43.39145" lon="5.40133">
        <ele>386.60000610352</ele>
        <time>2017-02-12T10:36:05.000Z</time>
      </trkpt>
      <trkpt lat="43.39146" lon="5.40134">
        <ele>386.79998779297</ele>
        <time>2017-02-12T10:36:06.000Z</time>
      </trkpt>
      <trkpt lat="43.39149" lon="5.40138">
        <ele>386.60000610352</ele>
        <time>2017-02-12T10:36:10.000Z</time>
      </trkpt>
      <trkpt lat="43.39151" lon="5.4014">
        <ele>386.79998779297</ele>
        <time>2017-02-12T10:36:12.000Z</time>
      </trkpt>
      <trkpt lat="43.3916" lon="5.40146">
        <ele>386.79998779297</ele>
        <time>2017-02-12T10:36:21.000Z</time>
      </trkpt>
      <trkpt lat="43.39169" lon="5.40149">
        <ele>386.79998779297</ele>
        <time>2017-02-12T10:36:31.000Z</time>
      </trkpt>
      <trkpt lat="43.39175" lon="5.40148">
        <ele>387</ele>
        <time>2017-02-12T10:36:38.000Z</time>
      </trkpt>
      <trkpt lat="43.39178" lon="5.40146">
        <ele>386.79998779297</ele>
        <time>2017-02-12T10:36:44.000Z</time>
      </trkpt>
      <trkpt lat="43.39179" lon="5.40145">
        <ele>386.79998779297</ele>
        <time>2017-02-12T10:36:46.000Z</time>
      </trkpt>
      <trkpt lat="43.39182" lon="5.40138">
        <ele>385.79998779297</ele>
        <time>2017-02-12T10:36:55.000Z</time>
      </trkpt>
      <trkpt lat="43.39182" lon="5.40136">
        <ele>385.39999389648</ele>
        <time>2017-02-12T10:36:57.000Z</time>
      </trkpt>
      <trkpt lat="43.39184" lon="5.40129">
        <ele>385.39999389648</ele>
        <time>2017-02-12T10:37:04.000Z</time>
      </trkpt>
      <trkpt lat="43.3919" lon="5.40123">
        <ele>386.39999389648</ele>
        <time>2017-02-12T10:37:10.000Z</time>
      </trkpt>
      <trkpt lat="43.39193" lon="5.4012">
        <ele>387</ele>
        <time>2017-02-12T10:37:13.000Z</time>
      </trkpt>
      <trkpt lat="43.39198" lon="5.40119">
        <ele>387.20001220703</ele>
        <time>2017-02-12T10:37:17.000Z</time>
      </trkpt>
      <trkpt lat="43.392" lon="5.40119">
        <ele>387</ele>
        <time>2017-02-12T10:37:19.000Z</time>
      </trkpt>
      <trkpt lat="43.39201" lon="5.4012">
        <ele>386.79998779297</ele>
        <time>2017-02-12T10:37:20.000Z</time>
      </trkpt>
      <trkpt lat="43.39204" lon="5.40121">
        <ele>386.60000610352</ele>
        <time>2017-02-12T10:37:23.000Z</time>
      </trkpt>
      <trkpt lat="43.39211" lon="5.40125">
        <ele>386.39999389648</ele>
        <time>2017-02-12T10:37:30.000Z</time>
      </trkpt>
      <trkpt lat="43.39213" lon="5.40127">
        <ele>386.60000610352</ele>
        <time>2017-02-12T10:37:33.000Z</time>
      </trkpt>
      <trkpt lat="43.39215" lon="5.40129">
        <ele>386.60000610352</ele>
        <time>2017-02-12T10:37:36.000Z</time>
      </trkpt>
      <trkpt lat="43.39221" lon="5.40136">
        <ele>386.60000610352</ele>
        <time>2017-02-12T10:37:44.000Z</time>
      </trkpt>
      <trkpt lat="43.39226" lon="5.40142">
        <ele>387.20001220703</ele>
        <time>2017-02-12T10:37:51.000Z</time>
      </trkpt>
      <trkpt lat="43.39227" lon="5.40143">
        <ele>387.60000610352</ele>
        <time>2017-02-12T10:37:52.000Z</time>
      </trkpt>
      <trkpt lat="43.39232" lon="5.4015">
        <ele>387.39999389648</ele>
        <time>2017-02-12T10:38:00.000Z</time>
      </trkpt>
      <trkpt lat="43.39239" lon="5.40155">
        <ele>387.79998779297</ele>
        <time>2017-02-12T10:38:08.000Z</time>
      </trkpt>
      <trkpt lat="43.39247" lon="5.40159">
        <ele>388</ele>
        <time>2017-02-12T10:38:16.000Z</time>
      </trkpt>
      <trkpt lat="43.39253" lon="5.40162">
        <ele>387.60000610352</ele>
        <time>2017-02-12T10:38:23.000Z</time>
      </trkpt>
      <trkpt lat="43.39259" lon="5.40166">
        <ele>387.20001220703</ele>
        <time>2017-02-12T10:38:30.000Z</time>
      </trkpt>
      <trkpt lat="43.39261" lon="5.40168">
        <ele>387.20001220703</ele>
        <time>2017-02-12T10:38:32.000Z</time>
      </trkpt>
      <trkpt lat="43.39263" lon="5.40173">
        <ele>387.39999389648</ele>
        <time>2017-02-12T10:38:36.000Z</time>
      </trkpt>
      <trkpt lat="43.39266" lon="5.40183">
        <ele>388.39999389648</ele>
        <time>2017-02-12T10:38:44.000Z</time>
      </trkpt>
      <trkpt lat="43.39268" lon="5.40189">
        <ele>388.79998779297</ele>
        <time>2017-02-12T10:38:49.000Z</time>
      </trkpt>
      <trkpt lat="43.39268" lon="5.40192">
        <ele>389</ele>
        <time>2017-02-12T10:38:52.000Z</time>
      </trkpt>
      <trkpt lat="43.39269" lon="5.40193">
        <ele>389</ele>
        <time>2017-02-12T10:38:53.000Z</time>
      </trkpt>
      <trkpt lat="43.39269" lon="5.40198">
        <ele>389.20001220703</ele>
        <time>2017-02-12T10:38:58.000Z</time>
      </trkpt>
      <trkpt lat="43.39269" lon="5.40207">
        <ele>389.60000610352</ele>
        <time>2017-02-12T10:39:03.000Z</time>
      </trkpt>
      <trkpt lat="43.39271" lon="5.40215">
        <ele>390</ele>
        <time>2017-02-12T10:39:09.000Z</time>
      </trkpt>
      <trkpt lat="43.39272" lon="5.40217">
        <ele>390</ele>
        <time>2017-02-12T10:39:10.000Z</time>
      </trkpt>
      <trkpt lat="43.39277" lon="5.40223">
        <ele>390.20001220703</ele>
        <time>2017-02-12T10:39:17.000Z</time>
      </trkpt>
      <trkpt lat="43.39285" lon="5.40225">
        <ele>390</ele>
        <time>2017-02-12T10:39:25.000Z</time>
      </trkpt>
      <trkpt lat="43.39293" lon="5.40225">
        <ele>389.79998779297</ele>
        <time>2017-02-12T10:39:33.000Z</time>
      </trkpt>
      <trkpt lat="43.39301" lon="5.40224">
        <ele>390.20001220703</ele>
        <time>2017-02-12T10:39:41.000Z</time>
      </trkpt>
      <trkpt lat="43.39309" lon="5.40222">
        <ele>390.39999389648</ele>
        <time>2017-02-12T10:39:49.000Z</time>
      </trkpt>
      <trkpt lat="43.39309" lon="5.40221">
        <ele>390.60000610352</ele>
        <time>2017-02-12T10:39:50.000Z</time>
      </trkpt>
      <trkpt lat="43.39314" lon="5.40218">
        <ele>378.20001220703</ele>
        <time>2017-02-12T10:39:56.000Z</time>
      </trkpt>
      <trkpt lat="43.39315" lon="5.40217">
        <ele>391.20001220703</ele>
        <time>2017-02-12T10:39:57.000Z</time>
      </trkpt>
      <trkpt lat="43.39318" lon="5.40211">
        <ele>391.39999389648</ele>
        <time>2017-02-12T10:40:04.000Z</time>
      </trkpt>
      <trkpt lat="43.39322" lon="5.40202">
        <ele>392</ele>
        <time>2017-02-12T10:40:14.000Z</time>
      </trkpt>
      <trkpt lat="43.39324" lon="5.402">
        <ele>392.20001220703</ele>
        <time>2017-02-12T10:40:16.000Z</time>
      </trkpt>
      <trkpt lat="43.39329" lon="5.40196">
        <ele>392.39999389648</ele>
        <time>2017-02-12T10:40:22.000Z</time>
      </trkpt>
      <trkpt lat="43.39336" lon="5.40192">
        <ele>393</ele>
        <time>2017-02-12T10:40:29.000Z</time>
      </trkpt>
      <trkpt lat="43.39337" lon="5.40192">
        <ele>393</ele>
        <time>2017-02-12T10:40:30.000Z</time>
      </trkpt>
      <trkpt lat="43.39343" lon="5.40187">
        <ele>393.39999389648</ele>
        <time>2017-02-12T10:40:38.000Z</time>
      </trkpt>
      <trkpt lat="43.39348" lon="5.40184">
        <ele>393.39999389648</ele>
        <time>2017-02-12T10:40:44.000Z</time>
      </trkpt>
      <trkpt lat="43.3935" lon="5.40183">
        <ele>393.39999389648</ele>
        <time>2017-02-12T10:40:47.000Z</time>
      </trkpt>
      <trkpt lat="43.39354" lon="5.40183">
        <ele>393.79998779297</ele>
        <time>2017-02-12T10:40:51.000Z</time>
      </trkpt>
      <trkpt lat="43.39359" lon="5.40183">
        <ele>393.60000610352</ele>
        <time>2017-02-12T10:40:57.000Z</time>
      </trkpt>
      <trkpt lat="43.3936" lon="5.40184">
        <ele>393.79998779297</ele>
        <time>2017-02-12T10:40:58.000Z</time>
      </trkpt>
      <trkpt lat="43.39365" lon="5.40187">
        <ele>394.39999389648</ele>
        <time>2017-02-12T10:41:04.000Z</time>
      </trkpt>
      <trkpt lat="43.39366" lon="5.40189">
        <ele>394.79998779297</ele>
        <time>2017-02-12T10:41:06.000Z</time>
      </trkpt>
      <trkpt lat="43.39366" lon="5.40189">
        <ele>395</ele>
        <time>2017-02-12T10:41:08.000Z</time>
      </trkpt>
      <trkpt lat="43.39366" lon="5.40193">
        <ele>395.20001220703</ele>
        <time>2017-02-12T10:41:15.000Z</time>
      </trkpt>
      <trkpt lat="43.39363" lon="5.40205">
        <ele>394.39999389648</ele>
        <time>2017-02-12T10:41:26.000Z</time>
      </trkpt>
      <trkpt lat="43.39359" lon="5.40218">
        <ele>393.60000610352</ele>
        <time>2017-02-12T10:41:38.000Z</time>
      </trkpt>
      <trkpt lat="43.39357" lon="5.40224">
        <ele>394.79998779297</ele>
        <time>2017-02-12T10:41:43.000Z</time>
      </trkpt>
      <trkpt lat="43.39357" lon="5.40225">
        <ele>396.20001220703</ele>
        <time>2017-02-12T10:41:45.000Z</time>
      </trkpt>
      <trkpt lat="43.39357" lon="5.40227">
        <ele>397.60000610352</ele>
        <time>2017-02-12T10:41:47.000Z</time>
      </trkpt>
      <trkpt lat="43.39356" lon="5.40228">
        <ele>398.39999389648</ele>
        <time>2017-02-12T10:41:48.000Z</time>
      </trkpt>
      <trkpt lat="43.39356" lon="5.40229">
        <ele>399</ele>
        <time>2017-02-12T10:41:49.000Z</time>
      </trkpt>
      <trkpt lat="43.39353" lon="5.4024">
        <ele>400</ele>
        <time>2017-02-12T10:41:58.000Z</time>
      </trkpt>
      <trkpt lat="43.39352" lon="5.40246">
        <ele>400.20001220703</ele>
        <time>2017-02-12T10:42:03.000Z</time>
      </trkpt>
      <trkpt lat="43.39351" lon="5.40255">
        <ele>400.79998779297</ele>
        <time>2017-02-12T10:42:10.000Z</time>
      </trkpt>
      <trkpt lat="43.39352" lon="5.40265">
        <ele>401.39999389648</ele>
        <time>2017-02-12T10:42:17.000Z</time>
      </trkpt>
      <trkpt lat="43.39354" lon="5.40266">
        <ele>401.39999389648</ele>
        <time>2017-02-12T10:42:19.000Z</time>
      </trkpt>
      <trkpt lat="43.3936" lon="5.4027">
        <ele>402.39999389648</ele>
        <time>2017-02-12T10:42:25.000Z</time>
      </trkpt>
      <trkpt lat="43.39361" lon="5.4027">
        <ele>402.39999389648</ele>
        <time>2017-02-12T10:42:26.000Z</time>
      </trkpt>
      <trkpt lat="43.39366" lon="5.40269">
        <ele>402.79998779297</ele>
        <time>2017-02-12T10:42:31.000Z</time>
      </trkpt>
      <trkpt lat="43.39367" lon="5.40269">
        <ele>403</ele>
        <time>2017-02-12T10:42:32.000Z</time>
      </trkpt>
      <trkpt lat="43.3937" lon="5.40267">
        <ele>403.60000610352</ele>
        <time>2017-02-12T10:42:36.000Z</time>
      </trkpt>
      <trkpt lat="43.39373" lon="5.40264">
        <ele>403.79998779297</ele>
        <time>2017-02-12T10:42:41.000Z</time>
      </trkpt>
      <trkpt lat="43.39375" lon="5.4026">
        <ele>404.79998779297</ele>
        <time>2017-02-12T10:42:44.000Z</time>
      </trkpt>
      <trkpt lat="43.39378" lon="5.40258">
        <ele>405.20001220703</ele>
        <time>2017-02-12T10:42:47.000Z</time>
      </trkpt>
      <trkpt lat="43.39379" lon="5.40256">
        <ele>405.60000610352</ele>
        <time>2017-02-12T10:42:49.000Z</time>
      </trkpt>
      <trkpt lat="43.39384" lon="5.4025">
        <ele>405.20001220703</ele>
        <time>2017-02-12T10:42:57.000Z</time>
      </trkpt>
      <trkpt lat="43.39391" lon="5.40247">
        <ele>405</ele>
        <time>2017-02-12T10:43:05.000Z</time>
      </trkpt>
      <trkpt lat="43.39398" lon="5.40247">
        <ele>405.20001220703</ele>
        <time>2017-02-12T10:43:13.000Z</time>
      </trkpt>
      <trkpt lat="43.39403" lon="5.40248">
        <ele>405.79998779297</ele>
        <time>2017-02-12T10:43:19.000Z</time>
      </trkpt>
      <trkpt lat="43.39403" lon="5.40248">
        <ele>406</ele>
        <time>2017-02-12T10:43:20.000Z</time>
      </trkpt>
      <trkpt lat="43.39406" lon="5.4025">
        <ele>406.20001220703</ele>
        <time>2017-02-12T10:43:28.000Z</time>
      </trkpt>
      <trkpt lat="43.39411" lon="5.40255">
        <ele>406.39999389648</ele>
        <time>2017-02-12T10:43:36.000Z</time>
      </trkpt>
      <trkpt lat="43.39415" lon="5.40262">
        <ele>406.60000610352</ele>
        <time>2017-02-12T10:43:44.000Z</time>
      </trkpt>
      <trkpt lat="43.39417" lon="5.40268">
        <ele>406.79998779297</ele>
        <time>2017-02-12T10:43:52.000Z</time>
      </trkpt>
      <trkpt lat="43.39417" lon="5.40268">
        <ele>407</ele>
        <time>2017-02-12T10:44:02.000Z</time>
      </trkpt>
      <trkpt lat="43.39417" lon="5.40267">
        <ele>407.20001220703</ele>
        <time>2017-02-12T10:44:03.000Z</time>
      </trkpt>
      <trkpt lat="43.39418" lon="5.40269">
        <ele>407.20001220703</ele>
        <time>2017-02-12T10:44:08.000Z</time>
      </trkpt>
      <trkpt lat="43.39418" lon="5.40269">
        <ele>406.60000610352</ele>
        <time>2017-02-12T10:44:16.000Z</time>
      </trkpt>
      <trkpt lat="43.39419" lon="5.4027">
        <ele>406.60000610352</ele>
        <time>2017-02-12T10:44:27.000Z</time>
      </trkpt>
      <trkpt lat="43.39419" lon="5.4027">
        <ele>406.20001220703</ele>
        <time>2017-02-12T10:44:36.000Z</time>
      </trkpt>
      <trkpt lat="43.39419" lon="5.4027">
        <ele>406</ele>
        <time>2017-02-12T10:44:37.000Z</time>
      </trkpt>
      <trkpt lat="43.39419" lon="5.4027">
        <ele>405.79998779297</ele>
        <time>2017-02-12T10:44:57.000Z</time>
      </trkpt>
      <trkpt lat="43.39419" lon="5.40277">
        <ele>406.79998779297</ele>
        <time>2017-02-12T10:45:04.000Z</time>
      </trkpt>
      <trkpt lat="43.39418" lon="5.40282">
        <ele>407.20001220703</ele>
        <time>2017-02-12T10:45:08.000Z</time>
      </trkpt>
      <trkpt lat="43.39418" lon="5.40287">
        <ele>408.39999389648</ele>
        <time>2017-02-12T10:45:13.000Z</time>
      </trkpt>
      <trkpt lat="43.39417" lon="5.40291">
        <ele>408.79998779297</ele>
        <time>2017-02-12T10:45:18.000Z</time>
      </trkpt>
      <trkpt lat="43.39418" lon="5.40293">
        <ele>409.39999389648</ele>
        <time>2017-02-12T10:45:22.000Z</time>
      </trkpt>
      <trkpt lat="43.39418" lon="5.40293">
        <ele>408.60000610352</ele>
        <time>2017-02-12T10:45:26.000Z</time>
      </trkpt>
      <trkpt lat="43.39416" lon="5.403">
        <ele>409.79998779297</ele>
        <time>2017-02-12T10:45:33.000Z</time>
      </trkpt>
      <trkpt lat="43.39413" lon="5.40307">
        <ele>409.60000610352</ele>
        <time>2017-02-12T10:45:40.000Z</time>
      </trkpt>
      <trkpt lat="43.3941" lon="5.40314">
        <ele>410.60000610352</ele>
        <time>2017-02-12T10:45:46.000Z</time>
      </trkpt>
      <trkpt lat="43.3941" lon="5.40315">
        <ele>410.79998779297</ele>
        <time>2017-02-12T10:45:47.000Z</time>
      </trkpt>
      <trkpt lat="43.39409" lon="5.40319">
        <ele>411.60000610352</ele>
        <time>2017-02-12T10:45:51.000Z</time>
      </trkpt>
      <trkpt lat="43.39407" lon="5.40324">
        <ele>412</ele>
        <time>2017-02-12T10:45:55.000Z</time>
      </trkpt>
      <trkpt lat="43.39407" lon="5.40324">
        <ele>412.20001220703</ele>
        <time>2017-02-12T10:45:56.000Z</time>
      </trkpt>
      <trkpt lat="43.39404" lon="5.40331">
        <ele>412.39999389648</ele>
        <time>2017-02-12T10:46:01.000Z</time>
      </trkpt>
      <trkpt lat="43.39402" lon="5.40335">
        <ele>412.79998779297</ele>
        <time>2017-02-12T10:46:06.000Z</time>
      </trkpt>
      <trkpt lat="43.394" lon="5.40337">
        <ele>413</ele>
        <time>2017-02-12T10:46:11.000Z</time>
      </trkpt>
      <trkpt lat="43.394" lon="5.40341">
        <ele>413.20001220703</ele>
        <time>2017-02-12T10:46:18.000Z</time>
      </trkpt>
      <trkpt lat="43.394" lon="5.40341">
        <ele>412.60000610352</ele>
        <time>2017-02-12T10:46:25.000Z</time>
      </trkpt>
      <trkpt lat="43.39399" lon="5.40341">
        <ele>412.60000610352</ele>
        <time>2017-02-12T10:46:26.000Z</time>
      </trkpt>
      <trkpt lat="43.39397" lon="5.40345">
        <ele>412.79998779297</ele>
        <time>2017-02-12T10:46:30.000Z</time>
      </trkpt>
      <trkpt lat="43.39397" lon="5.40346">
        <ele>413</ele>
        <time>2017-02-12T10:46:31.000Z</time>
      </trkpt>
      <trkpt lat="43.39395" lon="5.40348">
        <ele>413.60000610352</ele>
        <time>2017-02-12T10:46:36.000Z</time>
      </trkpt>
      <trkpt lat="43.39395" lon="5.40348">
        <ele>414</ele>
        <time>2017-02-12T10:46:41.000Z</time>
      </trkpt>
      <trkpt lat="43.39395" lon="5.40351">
        <ele>414.39999389648</ele>
        <time>2017-02-12T10:46:49.000Z</time>
      </trkpt>
      <trkpt lat="43.39391" lon="5.40355">
        <ele>414.39999389648</ele>
        <time>2017-02-12T10:46:54.000Z</time>
      </trkpt>
      <trkpt lat="43.3939" lon="5.40356">
        <ele>414.39999389648</ele>
        <time>2017-02-12T10:46:56.000Z</time>
      </trkpt>
      <trkpt lat="43.39387" lon="5.4036">
        <ele>415</ele>
        <time>2017-02-12T10:47:01.000Z</time>
      </trkpt>
      <trkpt lat="43.39385" lon="5.40361">
        <ele>415.39999389648</ele>
        <time>2017-02-12T10:47:05.000Z</time>
      </trkpt>
      <trkpt lat="43.39381" lon="5.40364">
        <ele>415.79998779297</ele>
        <time>2017-02-12T10:47:12.000Z</time>
      </trkpt>
      <trkpt lat="43.39377" lon="5.40367">
        <ele>416.20001220703</ele>
        <time>2017-02-12T10:47:17.000Z</time>
      </trkpt>
      <trkpt lat="43.39375" lon="5.40369">
        <ele>416.39999389648</ele>
        <time>2017-02-12T10:47:20.000Z</time>
      </trkpt>
      <trkpt lat="43.39368" lon="5.40374">
        <ele>417</ele>
        <time>2017-02-12T10:47:28.000Z</time>
      </trkpt>
      <trkpt lat="43.39363" lon="5.40376">
        <ele>417.39999389648</ele>
        <time>2017-02-12T10:47:33.000Z</time>
      </trkpt>
      <trkpt lat="43.39362" lon="5.40378">
        <ele>417.60000610352</ele>
        <time>2017-02-12T10:47:35.000Z</time>
      </trkpt>
      <trkpt lat="43.39358" lon="5.40383">
        <ele>418.39999389648</ele>
        <time>2017-02-12T10:47:42.000Z</time>
      </trkpt>
      <trkpt lat="43.39352" lon="5.40386">
        <ele>419</ele>
        <time>2017-02-12T10:47:49.000Z</time>
      </trkpt>
      <trkpt lat="43.39351" lon="5.40387">
        <ele>419.39999389648</ele>
        <time>2017-02-12T10:47:51.000Z</time>
      </trkpt>
      <trkpt lat="43.39346" lon="5.40391">
        <ele>419.79998779297</ele>
        <time>2017-02-12T10:47:57.000Z</time>
      </trkpt>
      <trkpt lat="43.39344" lon="5.40392">
        <ele>420.20001220703</ele>
        <time>2017-02-12T10:48:04.000Z</time>
      </trkpt>
      <trkpt lat="43.39342" lon="5.40394">
        <ele>419.79998779297</ele>
        <time>2017-02-12T10:48:19.000Z</time>
      </trkpt>
      <trkpt lat="43.39337" lon="5.40396">
        <ele>420.60000610352</ele>
        <time>2017-02-12T10:48:25.000Z</time>
      </trkpt>
      <trkpt lat="43.39335" lon="5.40396">
        <ele>420.79998779297</ele>
        <time>2017-02-12T10:48:27.000Z</time>
      </trkpt>
      <trkpt lat="43.3933" lon="5.40398">
        <ele>421.79998779297</ele>
        <time>2017-02-12T10:48:32.000Z</time>
      </trkpt>
      <trkpt lat="43.3933" lon="5.40398">
        <ele>421.79998779297</ele>
        <time>2017-02-12T10:48:33.000Z</time>
      </trkpt>
      <trkpt lat="43.39324" lon="5.40399">
        <ele>422.79998779297</ele>
        <time>2017-02-12T10:48:39.000Z</time>
      </trkpt>
      <trkpt lat="43.39322" lon="5.404">
        <ele>423</ele>
        <time>2017-02-12T10:48:41.000Z</time>
      </trkpt>
      <trkpt lat="43.39318" lon="5.40401">
        <ele>423.79998779297</ele>
        <time>2017-02-12T10:48:46.000Z</time>
      </trkpt>
      <trkpt lat="43.39315" lon="5.40402">
        <ele>424.39999389648</ele>
        <time>2017-02-12T10:48:50.000Z</time>
      </trkpt>
      <trkpt lat="43.3931" lon="5.40404">
        <ele>424.79998779297</ele>
        <time>2017-02-12T10:48:56.000Z</time>
      </trkpt>
      <trkpt lat="43.39308" lon="5.40404">
        <ele>425</ele>
        <time>2017-02-12T10:48:58.000Z</time>
      </trkpt>
      <trkpt lat="43.39307" lon="5.40405">
        <ele>425</ele>
        <time>2017-02-12T10:49:06.000Z</time>
      </trkpt>
      <trkpt lat="43.39303" lon="5.40407">
        <ele>425</ele>
        <time>2017-02-12T10:49:15.000Z</time>
      </trkpt>
      <trkpt lat="43.39298" lon="5.40411">
        <ele>425.39999389648</ele>
        <time>2017-02-12T10:49:22.000Z</time>
      </trkpt>
      <trkpt lat="43.39297" lon="5.40411">
        <ele>426.20001220703</ele>
        <time>2017-02-12T10:49:24.000Z</time>
      </trkpt>
      <trkpt lat="43.39294" lon="5.40413">
        <ele>426.60000610352</ele>
        <time>2017-02-12T10:49:28.000Z</time>
      </trkpt>
      <trkpt lat="43.39292" lon="5.40413">
        <ele>427.39999389648</ele>
        <time>2017-02-12T10:49:32.000Z</time>
      </trkpt>
      <trkpt lat="43.39289" lon="5.40415">
        <ele>428.20001220703</ele>
        <time>2017-02-12T10:49:36.000Z</time>
      </trkpt>
      <trkpt lat="43.39287" lon="5.40415">
        <ele>428.39999389648</ele>
        <time>2017-02-12T10:49:38.000Z</time>
      </trkpt>
      <trkpt lat="43.39283" lon="5.40416">
        <ele>428.39999389648</ele>
        <time>2017-02-12T10:49:42.000Z</time>
      </trkpt>
      <trkpt lat="43.39282" lon="5.40415">
        <ele>428.39999389648</ele>
        <time>2017-02-12T10:49:49.000Z</time>
      </trkpt>
      <trkpt lat="43.39279" lon="5.40417">
        <ele>428.20001220703</ele>
        <time>2017-02-12T10:49:55.000Z</time>
      </trkpt>
      <trkpt lat="43.39277" lon="5.40416">
        <ele>428.60000610352</ele>
        <time>2017-02-12T10:50:04.000Z</time>
      </trkpt>
      <trkpt lat="43.39276" lon="5.40417">
        <ele>428.60000610352</ele>
        <time>2017-02-12T10:50:10.000Z</time>
      </trkpt>
      <trkpt lat="43.39275" lon="5.40417">
        <ele>428.60000610352</ele>
        <time>2017-02-12T10:50:11.000Z</time>
      </trkpt>
      <trkpt lat="43.39267" lon="5.4042">
        <ele>429.60000610352</ele>
        <time>2017-02-12T10:50:21.000Z</time>
      </trkpt>
      <trkpt lat="43.39265" lon="5.40421">
        <ele>429.60000610352</ele>
        <time>2017-02-12T10:50:24.000Z</time>
      </trkpt>
      <trkpt lat="43.39256" lon="5.40422">
        <ele>430.60000610352</ele>
        <time>2017-02-12T10:50:34.000Z</time>
      </trkpt>
      <trkpt lat="43.39255" lon="5.40421">
        <ele>429.79998779297</ele>
        <time>2017-02-12T10:50:42.000Z</time>
      </trkpt>
      <trkpt lat="43.39255" lon="5.4042">
        <ele>429.39999389648</ele>
        <time>2017-02-12T10:50:46.000Z</time>
      </trkpt>
      <trkpt lat="43.39252" lon="5.40421">
        <ele>429.39999389648</ele>
        <time>2017-02-12T10:50:53.000Z</time>
      </trkpt>
      <trkpt lat="43.39246" lon="5.40423">
        <ele>430.79998779297</ele>
        <time>2017-02-12T10:51:00.000Z</time>
      </trkpt>
      <trkpt lat="43.39241" lon="5.40424">
        <ele>430.60000610352</ele>
        <time>2017-02-12T10:51:05.000Z</time>
      </trkpt>
      <trkpt lat="43.3923" lon="5.40419">
        <ele>431</ele>
        <time>2017-02-12T10:51:17.000Z</time>
      </trkpt>
      <trkpt lat="43.39223" lon="5.40414">
        <ele>431.79998779297</ele>
        <time>2017-02-12T10:51:25.000Z</time>
      </trkpt>
      <trkpt lat="43.3922" lon="5.40411">
        <ele>432</ele>
        <time>2017-02-12T10:51:29.000Z</time>
      </trkpt>
      <trkpt lat="43.39215" lon="5.40407">
        <ele>432.79998779297</ele>
        <time>2017-02-12T10:51:35.000Z</time>
      </trkpt>
      <trkpt lat="43.39209" lon="5.40404">
        <ele>433.39999389648</ele>
        <time>2017-02-12T10:51:41.000Z</time>
      </trkpt>
      <trkpt lat="43.39202" lon="5.40403">
        <ele>432.79998779297</ele>
        <time>2017-02-12T10:51:49.000Z</time>
      </trkpt>
      <trkpt lat="43.39195" lon="5.40403">
        <ele>433.60000610352</ele>
        <time>2017-02-12T10:51:56.000Z</time>
      </trkpt>
      <trkpt lat="43.39189" lon="5.40403">
        <ele>433.79998779297</ele>
        <time>2017-02-12T10:52:03.000Z</time>
      </trkpt>
      <trkpt lat="43.39179" lon="5.40404">
        <ele>433.79998779297</ele>
        <time>2017-02-12T10:52:15.000Z</time>
      </trkpt>
      <trkpt lat="43.39177" lon="5.4041">
        <ele>435</ele>
        <time>2017-02-12T10:52:23.000Z</time>
      </trkpt>
      <trkpt lat="43.39177" lon="5.4041">
        <ele>435.39999389648</ele>
        <time>2017-02-12T10:52:24.000Z</time>
      </trkpt>
      <trkpt lat="43.39179" lon="5.40414">
        <ele>436.20001220703</ele>
        <time>2017-02-12T10:52:28.000Z</time>
      </trkpt>
      <trkpt lat="43.39181" lon="5.40416">
        <ele>437.20001220703</ele>
        <time>2017-02-12T10:52:32.000Z</time>
      </trkpt>
      <trkpt lat="43.39182" lon="5.40418">
        <ele>437.79998779297</ele>
        <time>2017-02-12T10:52:34.000Z</time>
      </trkpt>
      <trkpt lat="43.39187" lon="5.40419">
        <ele>438.39999389648</ele>
        <time>2017-02-12T10:52:39.000Z</time>
      </trkpt>
      <trkpt lat="43.39192" lon="5.4042">
        <ele>439.39999389648</ele>
        <time>2017-02-12T10:52:44.000Z</time>
      </trkpt>
      <trkpt lat="43.39194" lon="5.40421">
        <ele>440</ele>
        <time>2017-02-12T10:52:47.000Z</time>
      </trkpt>
      <trkpt lat="43.39201" lon="5.40424">
        <ele>440.39999389648</ele>
        <time>2017-02-12T10:52:56.000Z</time>
      </trkpt>
      <trkpt lat="43.39206" lon="5.40427">
        <ele>441</ele>
        <time>2017-02-12T10:53:03.000Z</time>
      </trkpt>
      <trkpt lat="43.39209" lon="5.40429">
        <ele>441.20001220703</ele>
        <time>2017-02-12T10:53:06.000Z</time>
      </trkpt>
      <trkpt lat="43.39216" lon="5.40437">
        <ele>442.20001220703</ele>
        <time>2017-02-12T10:53:15.000Z</time>
      </trkpt>
      <trkpt lat="43.39217" lon="5.40438">
        <ele>442.20001220703</ele>
        <time>2017-02-12T10:53:16.000Z</time>
      </trkpt>
      <trkpt lat="43.39223" lon="5.40449">
        <ele>442.39999389648</ele>
        <time>2017-02-12T10:53:28.000Z</time>
      </trkpt>
      <trkpt lat="43.39228" lon="5.40458">
        <ele>443.20001220703</ele>
        <time>2017-02-12T10:53:39.000Z</time>
      </trkpt>
      <trkpt lat="43.39229" lon="5.4046">
        <ele>443.39999389648</ele>
        <time>2017-02-12T10:53:41.000Z</time>
      </trkpt>
      <trkpt lat="43.39231" lon="5.40463">
        <ele>444.20001220703</ele>
        <time>2017-02-12T10:53:46.000Z</time>
      </trkpt>
      <trkpt lat="43.39235" lon="5.40465">
        <ele>445.20001220703</ele>
        <time>2017-02-12T10:53:52.000Z</time>
      </trkpt>
      <trkpt lat="43.39236" lon="5.40465">
        <ele>445.39999389648</ele>
        <time>2017-02-12T10:53:53.000Z</time>
      </trkpt>
      <trkpt lat="43.39244" lon="5.40468">
        <ele>446</ele>
        <time>2017-02-12T10:54:02.000Z</time>
      </trkpt>
      <trkpt lat="43.39247" lon="5.40469">
        <ele>446.39999389648</ele>
        <time>2017-02-12T10:54:06.000Z</time>
      </trkpt>
      <trkpt lat="43.39252" lon="5.40472">
        <ele>446.60000610352</ele>
        <time>2017-02-12T10:54:13.000Z</time>
      </trkpt>
      <trkpt lat="43.39259" lon="5.40478">
        <ele>447.39999389648</ele>
        <time>2017-02-12T10:54:24.000Z</time>
      </trkpt>
      <trkpt lat="43.3926" lon="5.40478">
        <ele>447.60000610352</ele>
        <time>2017-02-12T10:54:25.000Z</time>
      </trkpt>
      <trkpt lat="43.39264" lon="5.40482">
        <ele>448.60000610352</ele>
        <time>2017-02-12T10:54:32.000Z</time>
      </trkpt>
      <trkpt lat="43.39266" lon="5.40483">
        <ele>449.39999389648</ele>
        <time>2017-02-12T10:54:35.000Z</time>
      </trkpt>
      <trkpt lat="43.39267" lon="5.40483">
        <ele>449.79998779297</ele>
        <time>2017-02-12T10:54:36.000Z</time>
      </trkpt>
      <trkpt lat="43.39272" lon="5.40488">
        <ele>450.79998779297</ele>
        <time>2017-02-12T10:54:44.000Z</time>
      </trkpt>
      <trkpt lat="43.39275" lon="5.40494">
        <ele>451.79998779297</ele>
        <time>2017-02-12T10:54:52.000Z</time>
      </trkpt>
      <trkpt lat="43.39285" lon="5.40498">
        <ele>453.39999389648</ele>
        <time>2017-02-12T10:55:05.000Z</time>
      </trkpt>
      <trkpt lat="43.3929" lon="5.40499">
        <ele>454.39999389648</ele>
        <time>2017-02-12T10:55:14.000Z</time>
      </trkpt>
      <trkpt lat="43.39296" lon="5.40501">
        <ele>454.20001220703</ele>
        <time>2017-02-12T10:55:23.000Z</time>
      </trkpt>
      <trkpt lat="43.39298" lon="5.40502">
        <ele>454.20001220703</ele>
        <time>2017-02-12T10:55:33.000Z</time>
      </trkpt>
      <trkpt lat="43.39301" lon="5.40503">
        <ele>455.60000610352</ele>
        <time>2017-02-12T10:55:39.000Z</time>
      </trkpt>
      <trkpt lat="43.39304" lon="5.40503">
        <ele>455.79998779297</ele>
        <time>2017-02-12T10:55:42.000Z</time>
      </trkpt>
      <trkpt lat="43.3931" lon="5.40505">
        <ele>456.79998779297</ele>
        <time>2017-02-12T10:55:50.000Z</time>
      </trkpt>
      <trkpt lat="43.39313" lon="5.40505">
        <ele>457.20001220703</ele>
        <time>2017-02-12T10:55:53.000Z</time>
      </trkpt>
      <trkpt lat="43.39315" lon="5.40507">
        <ele>458</ele>
        <time>2017-02-12T10:55:56.000Z</time>
      </trkpt>
      <trkpt lat="43.3932" lon="5.40511">
        <ele>458.20001220703</ele>
        <time>2017-02-12T10:56:04.000Z</time>
      </trkpt>
      <trkpt lat="43.39328" lon="5.40518">
        <ele>459</ele>
        <time>2017-02-12T10:56:15.000Z</time>
      </trkpt>
      <trkpt lat="43.39336" lon="5.4052">
        <ele>459.20001220703</ele>
        <time>2017-02-12T10:56:24.000Z</time>
      </trkpt>
      <trkpt lat="43.39337" lon="5.40522">
        <ele>459.20001220703</ele>
        <time>2017-02-12T10:56:28.000Z</time>
      </trkpt>
      <trkpt lat="43.39337" lon="5.40523">
        <ele>460.20001220703</ele>
        <time>2017-02-12T10:56:33.000Z</time>
      </trkpt>
      <trkpt lat="43.39337" lon="5.40524">
        <ele>460.39999389648</ele>
        <time>2017-02-12T10:56:34.000Z</time>
      </trkpt>
      <trkpt lat="43.39337" lon="5.40523">
        <ele>461.39999389648</ele>
        <time>2017-02-12T10:56:43.000Z</time>
      </trkpt>
      <trkpt lat="43.39337" lon="5.40523">
        <ele>461.39999389648</ele>
        <time>2017-02-12T10:56:46.000Z</time>
      </trkpt>
      <trkpt lat="43.39337" lon="5.40524">
        <ele>461.79998779297</ele>
        <time>2017-02-12T10:56:54.000Z</time>
      </trkpt>
      <trkpt lat="43.39337" lon="5.40523">
        <ele>461.39999389648</ele>
        <time>2017-02-12T10:57:02.000Z</time>
      </trkpt>
      <trkpt lat="43.39337" lon="5.40524">
        <ele>461.39999389648</ele>
        <time>2017-02-12T10:57:18.000Z</time>
      </trkpt>
      <trkpt lat="43.39342" lon="5.40526">
        <ele>461.39999389648</ele>
        <time>2017-02-12T10:57:25.000Z</time>
      </trkpt>
      <trkpt lat="43.39347" lon="5.4053">
        <ele>463</ele>
        <time>2017-02-12T10:57:32.000Z</time>
      </trkpt>
      <trkpt lat="43.3935" lon="5.40532">
        <ele>463.60000610352</ele>
        <time>2017-02-12T10:57:36.000Z</time>
      </trkpt>
      <trkpt lat="43.39358" lon="5.40535">
        <ele>463.60000610352</ele>
        <time>2017-02-12T10:57:47.000Z</time>
      </trkpt>
      <trkpt lat="43.39363" lon="5.40537">
        <ele>463.79998779297</ele>
        <time>2017-02-12T10:57:55.000Z</time>
      </trkpt>
      <trkpt lat="43.39364" lon="5.40539">
        <ele>463.60000610352</ele>
        <time>2017-02-12T10:58:02.000Z</time>
      </trkpt>
      <trkpt lat="43.39365" lon="5.40539">
        <ele>463.60000610352</ele>
        <time>2017-02-12T10:58:09.000Z</time>
      </trkpt>
      <trkpt lat="43.39373" lon="5.40544">
        <ele>464</ele>
        <time>2017-02-12T10:58:19.000Z</time>
      </trkpt>
      <trkpt lat="43.39374" lon="5.40545">
        <ele>464.20001220703</ele>
        <time>2017-02-12T10:58:20.000Z</time>
      </trkpt>
      <trkpt lat="43.39374" lon="5.40547">
        <ele>464.20001220703</ele>
        <time>2017-02-12T10:58:22.000Z</time>
      </trkpt>
      <trkpt lat="43.39375" lon="5.40549">
        <ele>464.60000610352</ele>
        <time>2017-02-12T10:58:24.000Z</time>
      </trkpt>
      <trkpt lat="43.39378" lon="5.40551">
        <ele>465.39999389648</ele>
        <time>2017-02-12T10:58:28.000Z</time>
      </trkpt>
      <trkpt lat="43.39379" lon="5.40552">
        <ele>466.39999389648</ele>
        <time>2017-02-12T10:58:30.000Z</time>
      </trkpt>
      <trkpt lat="43.3938" lon="5.40553">
        <ele>466.60000610352</ele>
        <time>2017-02-12T10:58:31.000Z</time>
      </trkpt>
      <trkpt lat="43.3938" lon="5.40555">
        <ele>467</ele>
        <time>2017-02-12T10:58:33.000Z</time>
      </trkpt>
      <trkpt lat="43.39382" lon="5.4056">
        <ele>467.79998779297</ele>
        <time>2017-02-12T10:58:38.000Z</time>
      </trkpt>
      <trkpt lat="43.39383" lon="5.40566">
        <ele>467</ele>
        <time>2017-02-12T10:58:44.000Z</time>
      </trkpt>
      <trkpt lat="43.39382" lon="5.40567">
        <ele>467.79998779297</ele>
        <time>2017-02-12T10:58:52.000Z</time>
      </trkpt>
      <trkpt lat="43.39382" lon="5.40569">
        <ele>467.60000610352</ele>
        <time>2017-02-12T10:59:03.000Z</time>
      </trkpt>
      <trkpt lat="43.39387" lon="5.4058">
        <ele>468.79998779297</ele>
        <time>2017-02-12T10:59:14.000Z</time>
      </trkpt>
      <trkpt lat="43.39388" lon="5.40582">
        <ele>469</ele>
        <time>2017-02-12T10:59:16.000Z</time>
      </trkpt>
      <trkpt lat="43.3939" lon="5.40588">
        <ele>470</ele>
        <time>2017-02-12T10:59:22.000Z</time>
      </trkpt>
      <trkpt lat="43.39391" lon="5.4059">
        <ele>470.60000610352</ele>
        <time>2017-02-12T10:59:25.000Z</time>
      </trkpt>
      <trkpt lat="43.3939" lon="5.40591">
        <ele>471.20001220703</ele>
        <time>2017-02-12T10:59:29.000Z</time>
      </trkpt>
      <trkpt lat="43.3939" lon="5.40591">
        <ele>471</ele>
        <time>2017-02-12T10:59:33.000Z</time>
      </trkpt>
      <trkpt lat="43.39391" lon="5.40599">
        <ele>472.39999389648</ele>
        <time>2017-02-12T10:59:41.000Z</time>
      </trkpt>
      <trkpt lat="43.39393" lon="5.40606">
        <ele>472.79998779297</ele>
        <time>2017-02-12T10:59:49.000Z</time>
      </trkpt>
      <trkpt lat="43.394" lon="5.40618">
        <ele>473.60000610352</ele>
        <time>2017-02-12T11:00:00.000Z</time>
      </trkpt>
      <trkpt lat="43.39404" lon="5.40627">
        <ele>474.60000610352</ele>
        <time>2017-02-12T11:00:09.000Z</time>
      </trkpt>
      <trkpt lat="43.39405" lon="5.40628">
        <ele>474.79998779297</ele>
        <time>2017-02-12T11:00:10.000Z</time>
      </trkpt>
      <trkpt lat="43.3941" lon="5.40638">
        <ele>475.20001220703</ele>
        <time>2017-02-12T11:00:20.000Z</time>
      </trkpt>
      <trkpt lat="43.39412" lon="5.40641">
        <ele>475.79998779297</ele>
        <time>2017-02-12T11:00:23.000Z</time>
      </trkpt>
      <trkpt lat="43.39416" lon="5.40646">
        <ele>477</ele>
        <time>2017-02-12T11:00:30.000Z</time>
      </trkpt>
      <trkpt lat="43.39416" lon="5.40646">
        <ele>477</ele>
        <time>2017-02-12T11:00:31.000Z</time>
      </trkpt>
      <trkpt lat="43.39421" lon="5.40654">
        <ele>477.60000610352</ele>
        <time>2017-02-12T11:00:40.000Z</time>
      </trkpt>
      <trkpt lat="43.39424" lon="5.40658">
        <ele>478.39999389648</ele>
        <time>2017-02-12T11:00:45.000Z</time>
      </trkpt>
      <trkpt lat="43.39427" lon="5.4066">
        <ele>479.60000610352</ele>
        <time>2017-02-12T11:00:48.000Z</time>
      </trkpt>
      <trkpt lat="43.3943" lon="5.40664">
        <ele>480.20001220703</ele>
        <time>2017-02-12T11:00:52.000Z</time>
      </trkpt>
      <trkpt lat="43.39439" lon="5.40673">
        <ele>479.60000610352</ele>
        <time>2017-02-12T11:01:03.000Z</time>
      </trkpt>
      <trkpt lat="43.39444" lon="5.40679">
        <ele>480</ele>
        <time>2017-02-12T11:01:12.000Z</time>
      </trkpt>
      <trkpt lat="43.39449" lon="5.40683">
        <ele>481.39999389648</ele>
        <time>2017-02-12T11:01:18.000Z</time>
      </trkpt>
      <trkpt lat="43.39453" lon="5.40686">
        <ele>482.39999389648</ele>
        <time>2017-02-12T11:01:23.000Z</time>
      </trkpt>
      <trkpt lat="43.39454" lon="5.40698">
        <ele>482.60000610352</ele>
        <time>2017-02-12T11:01:33.000Z</time>
      </trkpt>
      <trkpt lat="43.39451" lon="5.40705">
        <ele>482.60000610352</ele>
        <time>2017-02-12T11:01:42.000Z</time>
      </trkpt>
      <trkpt lat="43.39452" lon="5.40708">
        <ele>482.39999389648</ele>
        <time>2017-02-12T11:01:49.000Z</time>
      </trkpt>
      <trkpt lat="43.39452" lon="5.40708">
        <ele>483.79998779297</ele>
        <time>2017-02-12T11:01:54.000Z</time>
      </trkpt>
      <trkpt lat="43.39451" lon="5.40708">
        <ele>484.79998779297</ele>
        <time>2017-02-12T11:01:56.000Z</time>
      </trkpt>
      <trkpt lat="43.39451" lon="5.40708">
        <ele>484.20001220703</ele>
        <time>2017-02-12T11:01:58.000Z</time>
      </trkpt>
      <trkpt lat="43.39451" lon="5.40708">
        <ele>483.60000610352</ele>
        <time>2017-02-12T11:02:00.000Z</time>
      </trkpt>
      <trkpt lat="43.39451" lon="5.40707">
        <ele>484.20001220703</ele>
        <time>2017-02-12T11:02:07.000Z</time>
      </trkpt>
      <trkpt lat="43.39451" lon="5.40707">
        <ele>483.60000610352</ele>
        <time>2017-02-12T11:02:18.000Z</time>
      </trkpt>
      <trkpt lat="43.39451" lon="5.40706">
        <ele>484.60000610352</ele>
        <time>2017-02-12T11:02:30.000Z</time>
      </trkpt>
      <trkpt lat="43.39452" lon="5.40706">
        <ele>482.60000610352</ele>
        <time>2017-02-12T11:02:37.000Z</time>
      </trkpt>
      <trkpt lat="43.39453" lon="5.40706">
        <ele>482</ele>
        <time>2017-02-12T11:02:43.000Z</time>
      </trkpt>
      <trkpt lat="43.3945" lon="5.40707">
        <ele>482.60000610352</ele>
        <time>2017-02-12T11:02:52.000Z</time>
      </trkpt>
      <trkpt lat="43.39444" lon="5.40706">
        <ele>483.79998779297</ele>
        <time>2017-02-12T11:03:01.000Z</time>
      </trkpt>
      <trkpt lat="43.39443" lon="5.40706">
        <ele>483.79998779297</ele>
        <time>2017-02-12T11:03:02.000Z</time>
      </trkpt>
      <trkpt lat="43.39442" lon="5.40706">
        <ele>485.60000610352</ele>
        <time>2017-02-12T11:03:10.000Z</time>
      </trkpt>
      <trkpt lat="43.39442" lon="5.40706">
        <ele>484.60000610352</ele>
        <time>2017-02-12T11:03:22.000Z</time>
      </trkpt>
      <trkpt lat="43.39439" lon="5.40707">
        <ele>484.79998779297</ele>
        <time>2017-02-12T11:03:31.000Z</time>
      </trkpt>
      <trkpt lat="43.39439" lon="5.40707">
        <ele>486</ele>
        <time>2017-02-12T11:03:42.000Z</time>
      </trkpt>
      <trkpt lat="43.39439" lon="5.40707">
        <ele>486</ele>
        <time>2017-02-12T11:03:43.000Z</time>
      </trkpt>
      <trkpt lat="43.39436" lon="5.40706">
        <ele>487.20001220703</ele>
        <time>2017-02-12T11:03:47.000Z</time>
      </trkpt>
      <trkpt lat="43.39432" lon="5.40705">
        <ele>487.60000610352</ele>
        <time>2017-02-12T11:03:53.000Z</time>
      </trkpt>
      <trkpt lat="43.39426" lon="5.40704">
        <ele>488.20001220703</ele>
        <time>2017-02-12T11:04:00.000Z</time>
      </trkpt>
      <trkpt lat="43.39424" lon="5.40704">
        <ele>487.79998779297</ele>
        <time>2017-02-12T11:04:04.000Z</time>
      </trkpt>
      <trkpt lat="43.39421" lon="5.40703">
        <ele>487.39999389648</ele>
        <time>2017-02-12T11:04:08.000Z</time>
      </trkpt>
      <trkpt lat="43.39415" lon="5.40703">
        <ele>487.79998779297</ele>
        <time>2017-02-12T11:04:16.000Z</time>
      </trkpt>
      <trkpt lat="43.39409" lon="5.40705">
        <ele>488.39999389648</ele>
        <time>2017-02-12T11:04:23.000Z</time>
      </trkpt>
      <trkpt lat="43.39407" lon="5.40705">
        <ele>489</ele>
        <time>2017-02-12T11:04:26.000Z</time>
      </trkpt>
      <trkpt lat="43.39406" lon="5.40704">
        <ele>489.60000610352</ele>
        <time>2017-02-12T11:04:28.000Z</time>
      </trkpt>
      <trkpt lat="43.39405" lon="5.40703">
        <ele>490.20001220703</ele>
        <time>2017-02-12T11:04:35.000Z</time>
      </trkpt>
      <trkpt lat="43.39403" lon="5.40704">
        <ele>490.60000610352</ele>
        <time>2017-02-12T11:04:39.000Z</time>
      </trkpt>
      <trkpt lat="43.39401" lon="5.40704">
        <ele>491.20001220703</ele>
        <time>2017-02-12T11:04:41.000Z</time>
      </trkpt>
      <trkpt lat="43.39399" lon="5.40705">
        <ele>492</ele>
        <time>2017-02-12T11:04:44.000Z</time>
      </trkpt>
      <trkpt lat="43.39396" lon="5.40708">
        <ele>493.20001220703</ele>
        <time>2017-02-12T11:04:49.000Z</time>
      </trkpt>
      <trkpt lat="43.39392" lon="5.40707">
        <ele>493.79998779297</ele>
        <time>2017-02-12T11:04:53.000Z</time>
      </trkpt>
      <trkpt lat="43.39391" lon="5.40707">
        <ele>494.20001220703</ele>
        <time>2017-02-12T11:04:56.000Z</time>
      </trkpt>
      <trkpt lat="43.39388" lon="5.40708">
        <ele>495.60000610352</ele>
        <time>2017-02-12T11:05:01.000Z</time>
      </trkpt>
      <trkpt lat="43.39387" lon="5.40708">
        <ele>496.79998779297</ele>
        <time>2017-02-12T11:05:03.000Z</time>
      </trkpt>
      <trkpt lat="43.39386" lon="5.40709">
        <ele>497.39999389648</ele>
        <time>2017-02-12T11:05:05.000Z</time>
      </trkpt>
      <trkpt lat="43.39381" lon="5.40709">
        <ele>497.39999389648</ele>
        <time>2017-02-12T11:05:15.000Z</time>
      </trkpt>
      <trkpt lat="43.39375" lon="5.40708">
        <ele>497.79998779297</ele>
        <time>2017-02-12T11:05:27.000Z</time>
      </trkpt>
      <trkpt lat="43.39375" lon="5.40709">
        <ele>498.20001220703</ele>
        <time>2017-02-12T11:05:38.000Z</time>
      </trkpt>
      <trkpt lat="43.39371" lon="5.40708">
        <ele>498.79998779297</ele>
        <time>2017-02-12T11:05:47.000Z</time>
      </trkpt>
      <trkpt lat="43.39371" lon="5.40708">
        <ele>499</ele>
        <time>2017-02-12T11:05:48.000Z</time>
      </trkpt>
      <trkpt lat="43.39368" lon="5.40709">
        <ele>500.39999389648</ele>
        <time>2017-02-12T11:05:54.000Z</time>
      </trkpt>
      <trkpt lat="43.39367" lon="5.40708">
        <ele>501</ele>
        <time>2017-02-12T11:05:57.000Z</time>
      </trkpt>
      <trkpt lat="43.39364" lon="5.40707">
        <ele>501.60000610352</ele>
        <time>2017-02-12T11:06:03.000Z</time>
      </trkpt>
      <trkpt lat="43.39361" lon="5.40705">
        <ele>502.39999389648</ele>
        <time>2017-02-12T11:06:09.000Z</time>
      </trkpt>
      <trkpt lat="43.39359" lon="5.40703">
        <ele>502.79998779297</ele>
        <time>2017-02-12T11:06:13.000Z</time>
      </trkpt>
      <trkpt lat="43.39358" lon="5.40702">
        <ele>504</ele>
        <time>2017-02-12T11:06:17.000Z</time>
      </trkpt>
      <trkpt lat="43.39356" lon="5.40701">
        <ele>504.39999389648</ele>
        <time>2017-02-12T11:06:19.000Z</time>
      </trkpt>
      <trkpt lat="43.39352" lon="5.407">
        <ele>505.20001220703</ele>
        <time>2017-02-12T11:06:25.000Z</time>
      </trkpt>
      <trkpt lat="43.3935" lon="5.40699">
        <ele>506.60000610352</ele>
        <time>2017-02-12T11:06:29.000Z</time>
      </trkpt>
      <trkpt lat="43.39349" lon="5.40698">
        <ele>507.60000610352</ele>
        <time>2017-02-12T11:06:32.000Z</time>
      </trkpt>
      <trkpt lat="43.39343" lon="5.40696">
        <ele>508.60000610352</ele>
        <time>2017-02-12T11:06:40.000Z</time>
      </trkpt>
      <trkpt lat="43.39341" lon="5.40695">
        <ele>508.79998779297</ele>
        <time>2017-02-12T11:06:42.000Z</time>
      </trkpt>
      <trkpt lat="43.39336" lon="5.40695">
        <ele>509.20001220703</ele>
        <time>2017-02-12T11:06:51.000Z</time>
      </trkpt>
      <trkpt lat="43.39334" lon="5.40695">
        <ele>510</ele>
        <time>2017-02-12T11:06:56.000Z</time>
      </trkpt>
      <trkpt lat="43.39332" lon="5.40696">
        <ele>511</ele>
        <time>2017-02-12T11:06:59.000Z</time>
      </trkpt>
      <trkpt lat="43.3933" lon="5.40696">
        <ele>511.60000610352</ele>
        <time>2017-02-12T11:07:03.000Z</time>
      </trkpt>
      <trkpt lat="43.39326" lon="5.40696">
        <ele>512.20001220703</ele>
        <time>2017-02-12T11:07:12.000Z</time>
      </trkpt>
      <trkpt lat="43.39324" lon="5.40696">
        <ele>512.40002441406</ele>
        <time>2017-02-12T11:07:16.000Z</time>
      </trkpt>
      <trkpt lat="43.39322" lon="5.40697">
        <ele>513.40002441406</ele>
        <time>2017-02-12T11:07:19.000Z</time>
      </trkpt>
      <trkpt lat="43.3932" lon="5.40698">
        <ele>514.59997558594</ele>
        <time>2017-02-12T11:07:23.000Z</time>
      </trkpt>
      <trkpt lat="43.39319" lon="5.40698">
        <ele>514.79998779297</ele>
        <time>2017-02-12T11:07:24.000Z</time>
      </trkpt>
      <trkpt lat="43.39315" lon="5.40697">
        <ele>515.79998779297</ele>
        <time>2017-02-12T11:07:32.000Z</time>
      </trkpt>
      <trkpt lat="43.39314" lon="5.40696">
        <ele>515.79998779297</ele>
        <time>2017-02-12T11:07:33.000Z</time>
      </trkpt>
      <trkpt lat="43.39312" lon="5.40692">
        <ele>517</ele>
        <time>2017-02-12T11:07:39.000Z</time>
      </trkpt>
      <trkpt lat="43.39312" lon="5.40691">
        <ele>517</ele>
        <time>2017-02-12T11:07:40.000Z</time>
      </trkpt>
      <trkpt lat="43.39313" lon="5.40688">
        <ele>516</ele>
        <time>2017-02-12T11:07:47.000Z</time>
      </trkpt>
      <trkpt lat="43.39313" lon="5.40688">
        <ele>516</ele>
        <time>2017-02-12T11:07:48.000Z</time>
      </trkpt>
      <trkpt lat="43.39312" lon="5.40688">
        <ele>515.59997558594</ele>
        <time>2017-02-12T11:08:02.000Z</time>
      </trkpt>
      <trkpt lat="43.39312" lon="5.40693">
        <ele>516</ele>
        <time>2017-02-12T11:08:09.000Z</time>
      </trkpt>
      <trkpt lat="43.39313" lon="5.40696">
        <ele>516.20001220703</ele>
        <time>2017-02-12T11:08:18.000Z</time>
      </trkpt>
      <trkpt lat="43.39313" lon="5.40697">
        <ele>516.79998779297</ele>
        <time>2017-02-12T11:08:28.000Z</time>
      </trkpt>
      <trkpt lat="43.39313" lon="5.407">
        <ele>517.20001220703</ele>
        <time>2017-02-12T11:08:37.000Z</time>
      </trkpt>
      <trkpt lat="43.39313" lon="5.407">
        <ele>517.40002441406</ele>
        <time>2017-02-12T11:08:38.000Z</time>
      </trkpt>
      <trkpt lat="43.39313" lon="5.40699">
        <ele>518.20001220703</ele>
        <time>2017-02-12T11:08:43.000Z</time>
      </trkpt>
      <trkpt lat="43.39312" lon="5.40699">
        <ele>518</ele>
        <time>2017-02-12T11:08:52.000Z</time>
      </trkpt>
      <trkpt lat="43.39311" lon="5.40701">
        <ele>517.59997558594</ele>
        <time>2017-02-12T11:09:00.000Z</time>
      </trkpt>
      <trkpt lat="43.39309" lon="5.40704">
        <ele>518.79998779297</ele>
        <time>2017-02-12T11:09:06.000Z</time>
      </trkpt>
      <trkpt lat="43.39308" lon="5.40705">
        <ele>519</ele>
        <time>2017-02-12T11:09:07.000Z</time>
      </trkpt>
      <trkpt lat="43.39297" lon="5.40709">
        <ele>519.20001220703</ele>
        <time>2017-02-12T11:09:20.000Z</time>
      </trkpt>
      <trkpt lat="43.39293" lon="5.40708">
        <ele>519.79998779297</ele>
        <time>2017-02-12T11:09:24.000Z</time>
      </trkpt>
      <trkpt lat="43.39292" lon="5.40709">
        <ele>521.20001220703</ele>
        <time>2017-02-12T11:09:26.000Z</time>
      </trkpt>
      <trkpt lat="43.39291" lon="5.4071">
        <ele>521.79998779297</ele>
        <time>2017-02-12T11:09:28.000Z</time>
      </trkpt>
      <trkpt lat="43.39281" lon="5.40712">
        <ele>522.20001220703</ele>
        <time>2017-02-12T11:09:39.000Z</time>
      </trkpt>
      <trkpt lat="43.39274" lon="5.40714">
        <ele>522.59997558594</ele>
        <time>2017-02-12T11:09:47.000Z</time>
      </trkpt>
      <trkpt lat="43.39274" lon="5.40715">
        <ele>522.59997558594</ele>
        <time>2017-02-12T11:09:48.000Z</time>
      </trkpt>
      <trkpt lat="43.3927" lon="5.40718">
        <ele>521.40002441406</ele>
        <time>2017-02-12T11:09:53.000Z</time>
      </trkpt>
      <trkpt lat="43.39266" lon="5.40717">
        <ele>521.79998779297</ele>
        <time>2017-02-12T11:09:58.000Z</time>
      </trkpt>
      <trkpt lat="43.39262" lon="5.40718">
        <ele>522.59997558594</ele>
        <time>2017-02-12T11:10:02.000Z</time>
      </trkpt>
      <trkpt lat="43.39258" lon="5.40718">
        <ele>524</ele>
        <time>2017-02-12T11:10:06.000Z</time>
      </trkpt>
      <trkpt lat="43.39257" lon="5.40717">
        <ele>524.40002441406</ele>
        <time>2017-02-12T11:10:08.000Z</time>
      </trkpt>
      <trkpt lat="43.39256" lon="5.40717">
        <ele>525.40002441406</ele>
        <time>2017-02-12T11:10:10.000Z</time>
      </trkpt>
      <trkpt lat="43.39249" lon="5.40715">
        <ele>525.40002441406</ele>
        <time>2017-02-12T11:10:18.000Z</time>
      </trkpt>
      <trkpt lat="43.39246" lon="5.40714">
        <ele>524.40002441406</ele>
        <time>2017-02-12T11:10:22.000Z</time>
      </trkpt>
      <trkpt lat="43.39244" lon="5.40713">
        <ele>523</ele>
        <time>2017-02-12T11:10:25.000Z</time>
      </trkpt>
      <trkpt lat="43.39244" lon="5.40712">
        <ele>522.59997558594</ele>
        <time>2017-02-12T11:10:28.000Z</time>
      </trkpt>
      <trkpt lat="43.39244" lon="5.40712">
        <ele>521.79998779297</ele>
        <time>2017-02-12T11:10:36.000Z</time>
      </trkpt>
      <trkpt lat="43.39244" lon="5.40712">
        <ele>521.79998779297</ele>
        <time>2017-02-12T11:10:38.000Z</time>
      </trkpt>
      <trkpt lat="43.39243" lon="5.40712">
        <ele>522.59997558594</ele>
        <time>2017-02-12T11:10:49.000Z</time>
      </trkpt>
      <trkpt lat="43.39243" lon="5.40712">
        <ele>523</ele>
        <time>2017-02-12T11:10:51.000Z</time>
      </trkpt>
      <trkpt lat="43.39244" lon="5.40712">
        <ele>524.40002441406</ele>
        <time>2017-02-12T11:10:57.000Z</time>
      </trkpt>
      <trkpt lat="43.39244" lon="5.40712">
        <ele>524.79998779297</ele>
        <time>2017-02-12T11:10:58.000Z</time>
      </trkpt>
      <trkpt lat="43.39244" lon="5.40712">
        <ele>525.40002441406</ele>
        <time>2017-02-12T11:11:09.000Z</time>
      </trkpt>
      <trkpt lat="43.39243" lon="5.40712">
        <ele>526</ele>
        <time>2017-02-12T11:11:10.000Z</time>
      </trkpt>
      <trkpt lat="43.3924" lon="5.4071">
        <ele>525.59997558594</ele>
        <time>2017-02-12T11:11:16.000Z</time>
      </trkpt>
      <trkpt lat="43.39238" lon="5.4071">
        <ele>524.79998779297</ele>
        <time>2017-02-12T11:11:18.000Z</time>
      </trkpt>
      <trkpt lat="43.39232" lon="5.40709">
        <ele>525.20001220703</ele>
        <time>2017-02-12T11:11:28.000Z</time>
      </trkpt>
      <trkpt lat="43.39228" lon="5.4071">
        <ele>526</ele>
        <time>2017-02-12T11:11:34.000Z</time>
      </trkpt>
      <trkpt lat="43.39228" lon="5.4071">
        <ele>526.20001220703</ele>
        <time>2017-02-12T11:11:35.000Z</time>
      </trkpt>
      <trkpt lat="43.39225" lon="5.40709">
        <ele>526.79998779297</ele>
        <time>2017-02-12T11:11:40.000Z</time>
      </trkpt>
      <trkpt lat="43.39221" lon="5.40707">
        <ele>527.20001220703</ele>
        <time>2017-02-12T11:11:46.000Z</time>
      </trkpt>
      <trkpt lat="43.39221" lon="5.40707">
        <ele>527.20001220703</ele>
        <time>2017-02-12T11:11:47.000Z</time>
      </trkpt>
      <trkpt lat="43.39216" lon="5.40707">
        <ele>528.40002441406</ele>
        <time>2017-02-12T11:11:54.000Z</time>
      </trkpt>
      <trkpt lat="43.39215" lon="5.40706">
        <ele>528.59997558594</ele>
        <time>2017-02-12T11:11:56.000Z</time>
      </trkpt>
      <trkpt lat="43.39211" lon="5.40706">
        <ele>529.20001220703</ele>
        <time>2017-02-12T11:12:01.000Z</time>
      </trkpt>
      <trkpt lat="43.3921" lon="5.40706">
        <ele>529.59997558594</ele>
        <time>2017-02-12T11:12:03.000Z</time>
      </trkpt>
      <trkpt lat="43.39207" lon="5.40705">
        <ele>530.59997558594</ele>
        <time>2017-02-12T11:12:09.000Z</time>
      </trkpt>
      <trkpt lat="43.39207" lon="5.40705">
        <ele>530.79998779297</ele>
        <time>2017-02-12T11:12:10.000Z</time>
      </trkpt>
      <trkpt lat="43.39203" lon="5.40706">
        <ele>531.40002441406</ele>
        <time>2017-02-12T11:12:15.000Z</time>
      </trkpt>
      <trkpt lat="43.39201" lon="5.40706">
        <ele>532</ele>
        <time>2017-02-12T11:12:18.000Z</time>
      </trkpt>
      <trkpt lat="43.39198" lon="5.40709">
        <ele>533</ele>
        <time>2017-02-12T11:12:23.000Z</time>
      </trkpt>
      <trkpt lat="43.39196" lon="5.40711">
        <ele>533.20001220703</ele>
        <time>2017-02-12T11:12:26.000Z</time>
      </trkpt>
      <trkpt lat="43.39192" lon="5.40712">
        <ele>534.20001220703</ele>
        <time>2017-02-12T11:12:32.000Z</time>
      </trkpt>
      <trkpt lat="43.3919" lon="5.40715">
        <ele>534.40002441406</ele>
        <time>2017-02-12T11:12:36.000Z</time>
      </trkpt>
      <trkpt lat="43.39186" lon="5.4072">
        <ele>535.59997558594</ele>
        <time>2017-02-12T11:12:44.000Z</time>
      </trkpt>
      <trkpt lat="43.39183" lon="5.40722">
        <ele>536.20001220703</ele>
        <time>2017-02-12T11:12:47.000Z</time>
      </trkpt>
      <trkpt lat="43.3918" lon="5.40726">
        <ele>536.79998779297</ele>
        <time>2017-02-12T11:12:54.000Z</time>
      </trkpt>
      <trkpt lat="43.39177" lon="5.40728">
        <ele>537</ele>
        <time>2017-02-12T11:12:58.000Z</time>
      </trkpt>
      <trkpt lat="43.39175" lon="5.40731">
        <ele>538</ele>
        <time>2017-02-12T11:13:04.000Z</time>
      </trkpt>
      <trkpt lat="43.39174" lon="5.40734">
        <ele>539</ele>
        <time>2017-02-12T11:13:08.000Z</time>
      </trkpt>
      <trkpt lat="43.39175" lon="5.40734">
        <ele>539</ele>
        <time>2017-02-12T11:13:10.000Z</time>
      </trkpt>
      <trkpt lat="43.39175" lon="5.40735">
        <ele>539.79998779297</ele>
        <time>2017-02-12T11:13:22.000Z</time>
      </trkpt>
      <trkpt lat="43.39171" lon="5.40737">
        <ele>539.20001220703</ele>
        <time>2017-02-12T11:13:29.000Z</time>
      </trkpt>
      <trkpt lat="43.39169" lon="5.40738">
        <ele>540.20001220703</ele>
        <time>2017-02-12T11:13:32.000Z</time>
      </trkpt>
      <trkpt lat="43.39167" lon="5.40738">
        <ele>540.40002441406</ele>
        <time>2017-02-12T11:13:36.000Z</time>
      </trkpt>
      <trkpt lat="43.39164" lon="5.40741">
        <ele>540.59997558594</ele>
        <time>2017-02-12T11:13:42.000Z</time>
      </trkpt>
      <trkpt lat="43.39161" lon="5.40744">
        <ele>541.59997558594</ele>
        <time>2017-02-12T11:13:49.000Z</time>
      </trkpt>
      <trkpt lat="43.39158" lon="5.40746">
        <ele>542.59997558594</ele>
        <time>2017-02-12T11:13:54.000Z</time>
      </trkpt>
      <trkpt lat="43.39157" lon="5.40748">
        <ele>543</ele>
        <time>2017-02-12T11:13:56.000Z</time>
      </trkpt>
      <trkpt lat="43.39151" lon="5.40751">
        <ele>543.20001220703</ele>
        <time>2017-02-12T11:14:08.000Z</time>
      </trkpt>
      <trkpt lat="43.3915" lon="5.40751">
        <ele>543.59997558594</ele>
        <time>2017-02-12T11:14:10.000Z</time>
      </trkpt>
      <trkpt lat="43.39147" lon="5.40754">
        <ele>544.59997558594</ele>
        <time>2017-02-12T11:14:16.000Z</time>
      </trkpt>
      <trkpt lat="43.39146" lon="5.40754">
        <ele>545.20001220703</ele>
        <time>2017-02-12T11:14:17.000Z</time>
      </trkpt>
      <trkpt lat="43.39141" lon="5.40755">
        <ele>546</ele>
        <time>2017-02-12T11:14:24.000Z</time>
      </trkpt>
      <trkpt lat="43.39139" lon="5.40758">
        <ele>547.20001220703</ele>
        <time>2017-02-12T11:14:28.000Z</time>
      </trkpt>
      <trkpt lat="43.39132" lon="5.40762">
        <ele>547.59997558594</ele>
        <time>2017-02-12T11:14:40.000Z</time>
      </trkpt>
      <trkpt lat="43.39129" lon="5.40765">
        <ele>548.40002441406</ele>
        <time>2017-02-12T11:14:48.000Z</time>
      </trkpt>
      <trkpt lat="43.39129" lon="5.40765">
        <ele>548.59997558594</ele>
        <time>2017-02-12T11:14:49.000Z</time>
      </trkpt>
      <trkpt lat="43.39128" lon="5.40768">
        <ele>549.59997558594</ele>
        <time>2017-02-12T11:14:53.000Z</time>
      </trkpt>
      <trkpt lat="43.39125" lon="5.40771">
        <ele>550</ele>
        <time>2017-02-12T11:15:00.000Z</time>
      </trkpt>
      <trkpt lat="43.39122" lon="5.40772">
        <ele>551</ele>
        <time>2017-02-12T11:15:06.000Z</time>
      </trkpt>
      <trkpt lat="43.3912" lon="5.40773">
        <ele>551.59997558594</ele>
        <time>2017-02-12T11:15:10.000Z</time>
      </trkpt>
      <trkpt lat="43.39118" lon="5.40773">
        <ele>552.20001220703</ele>
        <time>2017-02-12T11:15:13.000Z</time>
      </trkpt>
      <trkpt lat="43.39114" lon="5.40775">
        <ele>553.20001220703</ele>
        <time>2017-02-12T11:15:19.000Z</time>
      </trkpt>
      <trkpt lat="43.39112" lon="5.40775">
        <ele>553.59997558594</ele>
        <time>2017-02-12T11:15:22.000Z</time>
      </trkpt>
      <trkpt lat="43.39109" lon="5.40777">
        <ele>554.79998779297</ele>
        <time>2017-02-12T11:15:29.000Z</time>
      </trkpt>
      <trkpt lat="43.39106" lon="5.40784">
        <ele>555.59997558594</ele>
        <time>2017-02-12T11:15:39.000Z</time>
      </trkpt>
      <trkpt lat="43.39103" lon="5.40787">
        <ele>555.40002441406</ele>
        <time>2017-02-12T11:15:46.000Z</time>
      </trkpt>
      <trkpt lat="43.39101" lon="5.40788">
        <ele>556.20001220703</ele>
        <time>2017-02-12T11:15:50.000Z</time>
      </trkpt>
      <trkpt lat="43.39099" lon="5.40789">
        <ele>557.79998779297</ele>
        <time>2017-02-12T11:15:52.000Z</time>
      </trkpt>
      <trkpt lat="43.39099" lon="5.4079">
        <ele>559</ele>
        <time>2017-02-12T11:15:53.000Z</time>
      </trkpt>
      <trkpt lat="43.39097" lon="5.40791">
        <ele>558.40002441406</ele>
        <time>2017-02-12T11:15:57.000Z</time>
      </trkpt>
      <trkpt lat="43.39093" lon="5.40798">
        <ele>558.40002441406</ele>
        <time>2017-02-12T11:16:08.000Z</time>
      </trkpt>
      <trkpt lat="43.39093" lon="5.40798">
        <ele>558</ele>
        <time>2017-02-12T11:16:09.000Z</time>
      </trkpt>
      <trkpt lat="43.39093" lon="5.40799">
        <ele>557.59997558594</ele>
        <time>2017-02-12T11:16:16.000Z</time>
      </trkpt>
      <trkpt lat="43.39093" lon="5.40793">
        <ele>557.40002441406</ele>
        <time>2017-02-12T11:16:23.000Z</time>
      </trkpt>
      <trkpt lat="43.39094" lon="5.40785">
        <ele>559.40002441406</ele>
        <time>2017-02-12T11:16:32.000Z</time>
      </trkpt>
      <trkpt lat="43.39095" lon="5.40782">
        <ele>560.59997558594</ele>
        <time>2017-02-12T11:16:35.000Z</time>
      </trkpt>
      <trkpt lat="43.39097" lon="5.40776">
        <ele>561.59997558594</ele>
        <time>2017-02-12T11:16:40.000Z</time>
      </trkpt>
      <trkpt lat="43.39097" lon="5.40775">
        <ele>562</ele>
        <time>2017-02-12T11:16:41.000Z</time>
      </trkpt>
      <trkpt lat="43.391" lon="5.40769">
        <ele>562.79998779297</ele>
        <time>2017-02-12T11:16:48.000Z</time>
      </trkpt>
      <trkpt lat="43.39101" lon="5.40767">
        <ele>563.40002441406</ele>
        <time>2017-02-12T11:16:50.000Z</time>
      </trkpt>
      <trkpt lat="43.39104" lon="5.40756">
        <ele>563.79998779297</ele>
        <time>2017-02-12T11:17:02.000Z</time>
      </trkpt>
      <trkpt lat="43.39105" lon="5.40755">
        <ele>564.20001220703</ele>
        <time>2017-02-12T11:17:04.000Z</time>
      </trkpt>
      <trkpt lat="43.39107" lon="5.40753">
        <ele>565.40002441406</ele>
        <time>2017-02-12T11:17:07.000Z</time>
      </trkpt>
      <trkpt lat="43.39108" lon="5.40747">
        <ele>566.40002441406</ele>
        <time>2017-02-12T11:17:14.000Z</time>
      </trkpt>
      <trkpt lat="43.39108" lon="5.40746">
        <ele>567</ele>
        <time>2017-02-12T11:17:15.000Z</time>
      </trkpt>
      <trkpt lat="43.39106" lon="5.40742">
        <ele>567.20001220703</ele>
        <time>2017-02-12T11:17:22.000Z</time>
      </trkpt>
      <trkpt lat="43.39104" lon="5.40737">
        <ele>566.79998779297</ele>
        <time>2017-02-12T11:17:31.000Z</time>
      </trkpt>
      <trkpt lat="43.39105" lon="5.40736">
        <ele>566.40002441406</ele>
        <time>2017-02-12T11:17:41.000Z</time>
      </trkpt>
      <trkpt lat="43.39105" lon="5.40735">
        <ele>567.20001220703</ele>
        <time>2017-02-12T11:17:49.000Z</time>
      </trkpt>
      <trkpt lat="43.39105" lon="5.40736">
        <ele>567.20001220703</ele>
        <time>2017-02-12T11:18:00.000Z</time>
      </trkpt>
      <trkpt lat="43.39104" lon="5.40736">
        <ele>568</ele>
        <time>2017-02-12T11:18:03.000Z</time>
      </trkpt>
      <trkpt lat="43.39105" lon="5.40736">
        <ele>568</ele>
        <time>2017-02-12T11:18:07.000Z</time>
      </trkpt>
      <trkpt lat="43.39105" lon="5.40736">
        <ele>568.20001220703</ele>
        <time>2017-02-12T11:18:09.000Z</time>
      </trkpt>
      <trkpt lat="43.39105" lon="5.40736">
        <ele>567.20001220703</ele>
        <time>2017-02-12T11:18:17.000Z</time>
      </trkpt>
      <trkpt lat="43.39105" lon="5.40736">
        <ele>567.20001220703</ele>
        <time>2017-02-12T11:18:18.000Z</time>
      </trkpt>
      <trkpt lat="43.39105" lon="5.40736">
        <ele>568.20001220703</ele>
        <time>2017-02-12T11:18:22.000Z</time>
      </trkpt>
      <trkpt lat="43.39104" lon="5.40736">
        <ele>568.40002441406</ele>
        <time>2017-02-12T11:18:26.000Z</time>
      </trkpt>
      <trkpt lat="43.39104" lon="5.40736">
        <ele>567.59997558594</ele>
        <time>2017-02-12T11:18:37.000Z</time>
      </trkpt>
      <trkpt lat="43.39104" lon="5.40736">
        <ele>568.20001220703</ele>
        <time>2017-02-12T11:18:49.000Z</time>
      </trkpt>
      <trkpt lat="43.39105" lon="5.40736">
        <ele>569</ele>
        <time>2017-02-12T11:19:02.000Z</time>
      </trkpt>
      <trkpt lat="43.39105" lon="5.40735">
        <ele>569</ele>
        <time>2017-02-12T11:19:14.000Z</time>
      </trkpt>
      <trkpt lat="43.39105" lon="5.40736">
        <ele>567.20001220703</ele>
        <time>2017-02-12T11:19:23.000Z</time>
      </trkpt>
      <trkpt lat="43.39105" lon="5.40736">
        <ele>566.20001220703</ele>
        <time>2017-02-12T11:19:26.000Z</time>
      </trkpt>
      <trkpt lat="43.39105" lon="5.40736">
        <ele>567</ele>
        <time>2017-02-12T11:19:29.000Z</time>
      </trkpt>
      <trkpt lat="43.39105" lon="5.40736">
        <ele>567.40002441406</ele>
        <time>2017-02-12T11:19:31.000Z</time>
      </trkpt>
      <trkpt lat="43.39105" lon="5.40736">
        <ele>568.40002441406</ele>
        <time>2017-02-12T11:19:36.000Z</time>
      </trkpt>
      <trkpt lat="43.39105" lon="5.40736">
        <ele>568</ele>
        <time>2017-02-12T11:19:41.000Z</time>
      </trkpt>
      <trkpt lat="43.39105" lon="5.40736">
        <ele>567.59997558594</ele>
        <time>2017-02-12T11:19:42.000Z</time>
      </trkpt>
      <trkpt lat="43.39104" lon="5.40736">
        <ele>567.20001220703</ele>
        <time>2017-02-12T11:19:51.000Z</time>
      </trkpt>
      <trkpt lat="43.39105" lon="5.40736">
        <ele>566.40002441406</ele>
        <time>2017-02-12T11:20:00.000Z</time>
      </trkpt>
      <trkpt lat="43.39104" lon="5.40736">
        <ele>566.79998779297</ele>
        <time>2017-02-12T11:20:03.000Z</time>
      </trkpt>
      <trkpt lat="43.39104" lon="5.40736">
        <ele>566.59997558594</ele>
        <time>2017-02-12T11:20:22.000Z</time>
      </trkpt>
      <trkpt lat="43.39104" lon="5.40736">
        <ele>568</ele>
        <time>2017-02-12T11:20:28.000Z</time>
      </trkpt>
      <trkpt lat="43.39103" lon="5.40735">
        <ele>568.20001220703</ele>
        <time>2017-02-12T11:20:46.000Z</time>
      </trkpt>
      <trkpt lat="43.39102" lon="5.40735">
        <ele>567</ele>
        <time>2017-02-12T11:20:53.000Z</time>
      </trkpt>
      <trkpt lat="43.39102" lon="5.40735">
        <ele>567</ele>
        <time>2017-02-12T11:20:54.000Z</time>
      </trkpt>
      <trkpt lat="43.39098" lon="5.40731">
        <ele>568.20001220703</ele>
        <time>2017-02-12T11:21:01.000Z</time>
      </trkpt>
      <trkpt lat="43.39098" lon="5.40731">
        <ele>568.40002441406</ele>
        <time>2017-02-12T11:21:03.000Z</time>
      </trkpt>
      <trkpt lat="43.39098" lon="5.40731">
        <ele>569.40002441406</ele>
        <time>2017-02-12T11:21:07.000Z</time>
      </trkpt>
      <trkpt lat="43.39097" lon="5.40731">
        <ele>570.59997558594</ele>
        <time>2017-02-12T11:21:12.000Z</time>
      </trkpt>
      <trkpt lat="43.39098" lon="5.40731">
        <ele>569.59997558594</ele>
        <time>2017-02-12T11:21:17.000Z</time>
      </trkpt>
      <trkpt lat="43.39097" lon="5.40731">
        <ele>568.79998779297</ele>
        <time>2017-02-12T11:21:22.000Z</time>
      </trkpt>
      <trkpt lat="43.39097" lon="5.40731">
        <ele>568.40002441406</ele>
        <time>2017-02-12T11:21:25.000Z</time>
      </trkpt>
      <trkpt lat="43.39097" lon="5.4073">
        <ele>567.40002441406</ele>
        <time>2017-02-12T11:21:32.000Z</time>
      </trkpt>
      <trkpt lat="43.39097" lon="5.4073">
        <ele>566.40002441406</ele>
        <time>2017-02-12T11:21:37.000Z</time>
      </trkpt>
      <trkpt lat="43.39098" lon="5.40732">
        <ele>567.59997558594</ele>
        <time>2017-02-12T11:21:41.000Z</time>
      </trkpt>
      <trkpt lat="43.39102" lon="5.40737">
        <ele>569.20001220703</ele>
        <time>2017-02-12T11:21:49.000Z</time>
      </trkpt>
      <trkpt lat="43.39104" lon="5.40739">
        <ele>570.40002441406</ele>
        <time>2017-02-12T11:21:52.000Z</time>
      </trkpt>
      <trkpt lat="43.39106" lon="5.40743">
        <ele>568.20001220703</ele>
        <time>2017-02-12T11:21:57.000Z</time>
      </trkpt>
      <trkpt lat="43.39105" lon="5.40747">
        <ele>568.79998779297</ele>
        <time>2017-02-12T11:22:01.000Z</time>
      </trkpt>
      <trkpt lat="43.39104" lon="5.40752">
        <ele>567.40002441406</ele>
        <time>2017-02-12T11:22:09.000Z</time>
      </trkpt>
      <trkpt lat="43.39104" lon="5.40756">
        <ele>567</ele>
        <time>2017-02-12T11:22:12.000Z</time>
      </trkpt>
      <trkpt lat="43.39104" lon="5.40757">
        <ele>566.20001220703</ele>
        <time>2017-02-12T11:22:15.000Z</time>
      </trkpt>
      <trkpt lat="43.39104" lon="5.40758">
        <ele>565</ele>
        <time>2017-02-12T11:22:18.000Z</time>
      </trkpt>
      <trkpt lat="43.39104" lon="5.40758">
        <ele>564</ele>
        <time>2017-02-12T11:22:21.000Z</time>
      </trkpt>
      <trkpt lat="43.39104" lon="5.40758">
        <ele>563.40002441406</ele>
        <time>2017-02-12T11:22:27.000Z</time>
      </trkpt>
      <trkpt lat="43.39102" lon="5.40756">
        <ele>563.79998779297</ele>
        <time>2017-02-12T11:22:36.000Z</time>
      </trkpt>
      <trkpt lat="43.391" lon="5.40754">
        <ele>565.20001220703</ele>
        <time>2017-02-12T11:22:44.000Z</time>
      </trkpt>
      <trkpt lat="43.39096" lon="5.40758">
        <ele>566</ele>
        <time>2017-02-12T11:22:53.000Z</time>
      </trkpt>
      <trkpt lat="43.39095" lon="5.40758">
        <ele>566.20001220703</ele>
        <time>2017-02-12T11:22:55.000Z</time>
      </trkpt>
      <trkpt lat="43.39095" lon="5.40757">
        <ele>567.20001220703</ele>
        <time>2017-02-12T11:23:03.000Z</time>
      </trkpt>
      <trkpt lat="43.39092" lon="5.40754">
        <ele>567</ele>
        <time>2017-02-12T11:23:12.000Z</time>
      </trkpt>
      <trkpt lat="43.39092" lon="5.40752">
        <ele>567</ele>
        <time>2017-02-12T11:23:14.000Z</time>
      </trkpt>
      <trkpt lat="43.39091" lon="5.40748">
        <ele>567.20001220703</ele>
        <time>2017-02-12T11:23:21.000Z</time>
      </trkpt>
      <trkpt lat="43.39091" lon="5.40748">
        <ele>567.59997558594</ele>
        <time>2017-02-12T11:23:24.000Z</time>
      </trkpt>
      <trkpt lat="43.39091" lon="5.40748">
        <ele>567.40002441406</ele>
        <time>2017-02-12T11:23:33.000Z</time>
      </trkpt>
      <trkpt lat="43.39091" lon="5.40748">
        <ele>567.20001220703</ele>
        <time>2017-02-12T11:23:43.000Z</time>
      </trkpt>
      <trkpt lat="43.39091" lon="5.40748">
        <ele>567.20001220703</ele>
        <time>2017-02-12T11:23:51.000Z</time>
      </trkpt>
      <trkpt lat="43.39091" lon="5.40748">
        <ele>566.79998779297</ele>
        <time>2017-02-12T11:24:03.000Z</time>
      </trkpt>
      <trkpt lat="43.39091" lon="5.40749">
        <ele>566.59997558594</ele>
        <time>2017-02-12T11:24:04.000Z</time>
      </trkpt>
      <trkpt lat="43.39091" lon="5.40752">
        <ele>566.40002441406</ele>
        <time>2017-02-12T11:24:06.000Z</time>
      </trkpt>
      <trkpt lat="43.39092" lon="5.40755">
        <ele>566.59997558594</ele>
        <time>2017-02-12T11:24:09.000Z</time>
      </trkpt>
      <trkpt lat="43.39094" lon="5.40757">
        <ele>565.40002441406</ele>
        <time>2017-02-12T11:24:16.000Z</time>
      </trkpt>
      <trkpt lat="43.39094" lon="5.40757">
        <ele>565</ele>
        <time>2017-02-12T11:24:18.000Z</time>
      </trkpt>
      <trkpt lat="43.39096" lon="5.40758">
        <ele>566.79998779297</ele>
        <time>2017-02-12T11:24:26.000Z</time>
      </trkpt>
      <trkpt lat="43.39096" lon="5.40758">
        <ele>568.59997558594</ele>
        <time>2017-02-12T11:24:28.000Z</time>
      </trkpt>
      <trkpt lat="43.39096" lon="5.40759">
        <ele>569.59997558594</ele>
        <time>2017-02-12T11:24:31.000Z</time>
      </trkpt>
      <trkpt lat="43.39098" lon="5.40758">
        <ele>569</ele>
        <time>2017-02-12T11:24:36.000Z</time>
      </trkpt>
      <trkpt lat="43.391" lon="5.40756">
        <ele>568.40002441406</ele>
        <time>2017-02-12T11:24:40.000Z</time>
      </trkpt>
      <trkpt lat="43.39101" lon="5.40755">
        <ele>567.40002441406</ele>
        <time>2017-02-12T11:24:43.000Z</time>
      </trkpt>
      <trkpt lat="43.39102" lon="5.40753">
        <ele>566.59997558594</ele>
        <time>2017-02-12T11:24:46.000Z</time>
      </trkpt>
      <trkpt lat="43.39105" lon="5.4075">
        <ele>566.20001220703</ele>
        <time>2017-02-12T11:24:54.000Z</time>
      </trkpt>
      <trkpt lat="43.39106" lon="5.40751">
        <ele>565.79998779297</ele>
        <time>2017-02-12T11:24:55.000Z</time>
      </trkpt>
      <trkpt lat="43.39106" lon="5.40755">
        <ele>565</ele>
        <time>2017-02-12T11:25:01.000Z</time>
      </trkpt>
      <trkpt lat="43.39106" lon="5.40756">
        <ele>564.79998779297</ele>
        <time>2017-02-12T11:25:02.000Z</time>
      </trkpt>
      <trkpt lat="43.39105" lon="5.40759">
        <ele>564.20001220703</ele>
        <time>2017-02-12T11:25:06.000Z</time>
      </trkpt>
      <trkpt lat="43.39103" lon="5.40764">
        <ele>563.79998779297</ele>
        <time>2017-02-12T11:25:11.000Z</time>
      </trkpt>
      <trkpt lat="43.391" lon="5.40773">
        <ele>563.20001220703</ele>
        <time>2017-02-12T11:25:19.000Z</time>
      </trkpt>
      <trkpt lat="43.39099" lon="5.40776">
        <ele>562</ele>
        <time>2017-02-12T11:25:22.000Z</time>
      </trkpt>
      <trkpt lat="43.39095" lon="5.40785">
        <ele>561</ele>
        <time>2017-02-12T11:25:31.000Z</time>
      </trkpt>
      <trkpt lat="43.39091" lon="5.40793">
        <ele>560.20001220703</ele>
        <time>2017-02-12T11:25:39.000Z</time>
      </trkpt>
      <trkpt lat="43.3909" lon="5.40794">
        <ele>560</ele>
        <time>2017-02-12T11:25:40.000Z</time>
      </trkpt>
      <trkpt lat="43.39088" lon="5.40801">
        <ele>558.79998779297</ele>
        <time>2017-02-12T11:25:46.000Z</time>
      </trkpt>
      <trkpt lat="43.39085" lon="5.40808">
        <ele>559.40002441406</ele>
        <time>2017-02-12T11:25:52.000Z</time>
      </trkpt>
      <trkpt lat="43.39085" lon="5.40809">
        <ele>560</ele>
        <time>2017-02-12T11:25:53.000Z</time>
      </trkpt>
      <trkpt lat="43.3908" lon="5.40819">
        <ele>560</ele>
        <time>2017-02-12T11:26:02.000Z</time>
      </trkpt>
      <trkpt lat="43.39077" lon="5.40825">
        <ele>558.79998779297</ele>
        <time>2017-02-12T11:26:09.000Z</time>
      </trkpt>
      <trkpt lat="43.39075" lon="5.4083">
        <ele>557.59997558594</ele>
        <time>2017-02-12T11:26:14.000Z</time>
      </trkpt>
      <trkpt lat="43.39074" lon="5.40835">
        <ele>556.59997558594</ele>
        <time>2017-02-12T11:26:18.000Z</time>
      </trkpt>
      <trkpt lat="43.39071" lon="5.4084">
        <ele>555.59997558594</ele>
        <time>2017-02-12T11:26:24.000Z</time>
      </trkpt>
      <trkpt lat="43.39069" lon="5.40845">
        <ele>555.40002441406</ele>
        <time>2017-02-12T11:26:30.000Z</time>
      </trkpt>
      <trkpt lat="43.39068" lon="5.40848">
        <ele>555</ele>
        <time>2017-02-12T11:26:34.000Z</time>
      </trkpt>
      <trkpt lat="43.39065" lon="5.40855">
        <ele>554.59997558594</ele>
        <time>2017-02-12T11:26:40.000Z</time>
      </trkpt>
      <trkpt lat="43.39064" lon="5.40859">
        <ele>554.40002441406</ele>
        <time>2017-02-12T11:26:46.000Z</time>
      </trkpt>
      <trkpt lat="43.3906" lon="5.40871">
        <ele>553.59997558594</ele>
        <time>2017-02-12T11:26:57.000Z</time>
      </trkpt>
      <trkpt lat="43.39059" lon="5.40873">
        <ele>552.79998779297</ele>
        <time>2017-02-12T11:26:59.000Z</time>
      </trkpt>
      <trkpt lat="43.39059" lon="5.40874">
        <ele>552.40002441406</ele>
        <time>2017-02-12T11:27:00.000Z</time>
      </trkpt>
      <trkpt lat="43.39058" lon="5.40877">
        <ele>551.40002441406</ele>
        <time>2017-02-12T11:27:03.000Z</time>
      </trkpt>
      <trkpt lat="43.39057" lon="5.40883">
        <ele>552</ele>
        <time>2017-02-12T11:27:10.000Z</time>
      </trkpt>
      <trkpt lat="43.39054" lon="5.40894">
        <ele>550.59997558594</ele>
        <time>2017-02-12T11:27:20.000Z</time>
      </trkpt>
      <trkpt lat="43.39052" lon="5.40901">
        <ele>549.59997558594</ele>
        <time>2017-02-12T11:27:29.000Z</time>
      </trkpt>
      <trkpt lat="43.39052" lon="5.40902">
        <ele>549.40002441406</ele>
        <time>2017-02-12T11:27:30.000Z</time>
      </trkpt>
      <trkpt lat="43.3905" lon="5.40911">
        <ele>549.59997558594</ele>
        <time>2017-02-12T11:27:39.000Z</time>
      </trkpt>
      <trkpt lat="43.39046" lon="5.40923">
        <ele>549.40002441406</ele>
        <time>2017-02-12T11:27:48.000Z</time>
      </trkpt>
      <trkpt lat="43.39046" lon="5.40925">
        <ele>549.20001220703</ele>
        <time>2017-02-12T11:27:50.000Z</time>
      </trkpt>
      <trkpt lat="43.39045" lon="5.40927">
        <ele>549.20001220703</ele>
        <time>2017-02-12T11:27:52.000Z</time>
      </trkpt>
      <trkpt lat="43.39045" lon="5.40932">
        <ele>549.40002441406</ele>
        <time>2017-02-12T11:27:56.000Z</time>
      </trkpt>
      <trkpt lat="43.39045" lon="5.40939">
        <ele>548.79998779297</ele>
        <time>2017-02-12T11:28:01.000Z</time>
      </trkpt>
      <trkpt lat="43.39044" lon="5.4094">
        <ele>548.40002441406</ele>
        <time>2017-02-12T11:28:03.000Z</time>
      </trkpt>
      <trkpt lat="43.3904" lon="5.40948">
        <ele>548.59997558594</ele>
        <time>2017-02-12T11:28:10.000Z</time>
      </trkpt>
      <trkpt lat="43.39037" lon="5.40959">
        <ele>547.79998779297</ele>
        <time>2017-02-12T11:28:20.000Z</time>
      </trkpt>
      <trkpt lat="43.39036" lon="5.40961">
        <ele>547.40002441406</ele>
        <time>2017-02-12T11:28:22.000Z</time>
      </trkpt>
      <trkpt lat="43.39034" lon="5.40969">
        <ele>547.59997558594</ele>
        <time>2017-02-12T11:28:30.000Z</time>
      </trkpt>
      <trkpt lat="43.39031" lon="5.40983">
        <ele>547.79998779297</ele>
        <time>2017-02-12T11:28:41.000Z</time>
      </trkpt>
      <trkpt lat="43.39032" lon="5.40997">
        <ele>547.79998779297</ele>
        <time>2017-02-12T11:28:51.000Z</time>
      </trkpt>
      <trkpt lat="43.39032" lon="5.41012">
        <ele>547.79998779297</ele>
        <time>2017-02-12T11:29:03.000Z</time>
      </trkpt>
      <trkpt lat="43.39033" lon="5.41018">
        <ele>546.59997558594</ele>
        <time>2017-02-12T11:29:08.000Z</time>
      </trkpt>
      <trkpt lat="43.39033" lon="5.41024">
        <ele>547</ele>
        <time>2017-02-12T11:29:15.000Z</time>
      </trkpt>
      <trkpt lat="43.39032" lon="5.41032">
        <ele>546.79998779297</ele>
        <time>2017-02-12T11:29:24.000Z</time>
      </trkpt>
      <trkpt lat="43.39033" lon="5.41044">
        <ele>545.79998779297</ele>
        <time>2017-02-12T11:29:35.000Z</time>
      </trkpt>
      <trkpt lat="43.39033" lon="5.41052">
        <ele>545.59997558594</ele>
        <time>2017-02-12T11:29:46.000Z</time>
      </trkpt>
      <trkpt lat="43.39032" lon="5.41058">
        <ele>546</ele>
        <time>2017-02-12T11:29:54.000Z</time>
      </trkpt>
      <trkpt lat="43.39027" lon="5.41066">
        <ele>545.59997558594</ele>
        <time>2017-02-12T11:30:05.000Z</time>
      </trkpt>
      <trkpt lat="43.39024" lon="5.41077">
        <ele>545.20001220703</ele>
        <time>2017-02-12T11:30:15.000Z</time>
      </trkpt>
      <trkpt lat="43.39023" lon="5.4108">
        <ele>544.79998779297</ele>
        <time>2017-02-12T11:30:17.000Z</time>
      </trkpt>
      <trkpt lat="43.39021" lon="5.41088">
        <ele>543.79998779297</ele>
        <time>2017-02-12T11:30:25.000Z</time>
      </trkpt>
      <trkpt lat="43.39019" lon="5.41099">
        <ele>542.79998779297</ele>
        <time>2017-02-12T11:30:36.000Z</time>
      </trkpt>
      <trkpt lat="43.39018" lon="5.41101">
        <ele>542.59997558594</ele>
        <time>2017-02-12T11:30:37.000Z</time>
      </trkpt>
      <trkpt lat="43.39018" lon="5.41104">
        <ele>541.59997558594</ele>
        <time>2017-02-12T11:30:40.000Z</time>
      </trkpt>
      <trkpt lat="43.39016" lon="5.41108">
        <ele>540.40002441406</ele>
        <time>2017-02-12T11:30:45.000Z</time>
      </trkpt>
      <trkpt lat="43.39016" lon="5.41111">
        <ele>540</ele>
        <time>2017-02-12T11:30:48.000Z</time>
      </trkpt>
      <trkpt lat="43.39015" lon="5.41119">
        <ele>539.79998779297</ele>
        <time>2017-02-12T11:30:56.000Z</time>
      </trkpt>
      <trkpt lat="43.39015" lon="5.41126">
        <ele>539.40002441406</ele>
        <time>2017-02-12T11:31:00.000Z</time>
      </trkpt>
      <trkpt lat="43.39014" lon="5.41135">
        <ele>539.20001220703</ele>
        <time>2017-02-12T11:31:06.000Z</time>
      </trkpt>
      <trkpt lat="43.39014" lon="5.41143">
        <ele>538.40002441406</ele>
        <time>2017-02-12T11:31:18.000Z</time>
      </trkpt>
      <trkpt lat="43.39013" lon="5.41148">
        <ele>537.59997558594</ele>
        <time>2017-02-12T11:31:24.000Z</time>
      </trkpt>
      <trkpt lat="43.39013" lon="5.4115">
        <ele>537.79998779297</ele>
        <time>2017-02-12T11:31:28.000Z</time>
      </trkpt>
      <trkpt lat="43.39013" lon="5.41152">
        <ele>537.79998779297</ele>
        <time>2017-02-12T11:31:30.000Z</time>
      </trkpt>
      <trkpt lat="43.39012" lon="5.41158">
        <ele>537.20001220703</ele>
        <time>2017-02-12T11:31:35.000Z</time>
      </trkpt>
      <trkpt lat="43.39012" lon="5.41174">
        <ele>537</ele>
        <time>2017-02-12T11:31:44.000Z</time>
      </trkpt>
      <trkpt lat="43.39012" lon="5.4118">
        <ele>536.59997558594</ele>
        <time>2017-02-12T11:31:48.000Z</time>
      </trkpt>
      <trkpt lat="43.39013" lon="5.41185">
        <ele>538</ele>
        <time>2017-02-12T11:31:52.000Z</time>
      </trkpt>
      <trkpt lat="43.39014" lon="5.41188">
        <ele>539.40002441406</ele>
        <time>2017-02-12T11:31:55.000Z</time>
      </trkpt>
      <trkpt lat="43.39015" lon="5.41196">
        <ele>538.20001220703</ele>
        <time>2017-02-12T11:32:01.000Z</time>
      </trkpt>
      <trkpt lat="43.39016" lon="5.412">
        <ele>537.79998779297</ele>
        <time>2017-02-12T11:32:05.000Z</time>
      </trkpt>
      <trkpt lat="43.39015" lon="5.4121">
        <ele>538.40002441406</ele>
        <time>2017-02-12T11:32:13.000Z</time>
      </trkpt>
      <trkpt lat="43.39021" lon="5.41223">
        <ele>539</ele>
        <time>2017-02-12T11:32:26.000Z</time>
      </trkpt>
      <trkpt lat="43.39022" lon="5.41224">
        <ele>539.59997558594</ele>
        <time>2017-02-12T11:32:28.000Z</time>
      </trkpt>
      <trkpt lat="43.39026" lon="5.41234">
        <ele>540.79998779297</ele>
        <time>2017-02-12T11:32:38.000Z</time>
      </trkpt>
      <trkpt lat="43.39028" lon="5.41247">
        <ele>540</ele>
        <time>2017-02-12T11:32:48.000Z</time>
      </trkpt>
      <trkpt lat="43.39028" lon="5.41249">
        <ele>541.40002441406</ele>
        <time>2017-02-12T11:32:50.000Z</time>
      </trkpt>
      <trkpt lat="43.39028" lon="5.41251">
        <ele>542.79998779297</ele>
        <time>2017-02-12T11:32:53.000Z</time>
      </trkpt>
      <trkpt lat="43.39028" lon="5.41261">
        <ele>542</ele>
        <time>2017-02-12T11:33:00.000Z</time>
      </trkpt>
      <trkpt lat="43.39028" lon="5.41263">
        <ele>541.79998779297</ele>
        <time>2017-02-12T11:33:02.000Z</time>
      </trkpt>
      <trkpt lat="43.39027" lon="5.41273">
        <ele>541.79998779297</ele>
        <time>2017-02-12T11:33:09.000Z</time>
      </trkpt>
      <trkpt lat="43.39025" lon="5.41284">
        <ele>542</ele>
        <time>2017-02-12T11:33:20.000Z</time>
      </trkpt>
      <trkpt lat="43.39024" lon="5.41292">
        <ele>541.40002441406</ele>
        <time>2017-02-12T11:33:29.000Z</time>
      </trkpt>
      <trkpt lat="43.39024" lon="5.41291">
        <ele>541.20001220703</ele>
        <time>2017-02-12T11:33:31.000Z</time>
      </trkpt>
      <trkpt lat="43.39024" lon="5.41291">
        <ele>541</ele>
        <time>2017-02-12T11:33:41.000Z</time>
      </trkpt>
      <trkpt lat="43.39024" lon="5.41291">
        <ele>541</ele>
        <time>2017-02-12T11:33:49.000Z</time>
      </trkpt>
      <trkpt lat="43.39024" lon="5.41291">
        <ele>541.40002441406</ele>
        <time>2017-02-12T11:33:57.000Z</time>
      </trkpt>
      <trkpt lat="43.39025" lon="5.41291">
        <ele>540.79998779297</ele>
        <time>2017-02-12T11:34:06.000Z</time>
      </trkpt>
      <trkpt lat="43.39025" lon="5.41291">
        <ele>540.40002441406</ele>
        <time>2017-02-12T11:34:08.000Z</time>
      </trkpt>
      <trkpt lat="43.39025" lon="5.41291">
        <ele>540.79998779297</ele>
        <time>2017-02-12T11:34:17.000Z</time>
      </trkpt>
      <trkpt lat="43.39026" lon="5.41291">
        <ele>541.20001220703</ele>
        <time>2017-02-12T11:34:26.000Z</time>
      </trkpt>
      <trkpt lat="43.39026" lon="5.41291">
        <ele>540.59997558594</ele>
        <time>2017-02-12T11:34:35.000Z</time>
      </trkpt>
      <trkpt lat="43.39027" lon="5.41291">
        <ele>540.40002441406</ele>
        <time>2017-02-12T11:34:43.000Z</time>
      </trkpt>
      <trkpt lat="43.39027" lon="5.41291">
        <ele>540</ele>
        <time>2017-02-12T11:34:51.000Z</time>
      </trkpt>
      <trkpt lat="43.39027" lon="5.41293">
        <ele>541</ele>
        <time>2017-02-12T11:35:01.000Z</time>
      </trkpt>
      <trkpt lat="43.39026" lon="5.41296">
        <ele>542</ele>
        <time>2017-02-12T11:35:03.000Z</time>
      </trkpt>
      <trkpt lat="43.39024" lon="5.41307">
        <ele>542.40002441406</ele>
        <time>2017-02-12T11:35:10.000Z</time>
      </trkpt>
      <trkpt lat="43.39017" lon="5.4132">
        <ele>541.20001220703</ele>
        <time>2017-02-12T11:35:19.000Z</time>
      </trkpt>
      <trkpt lat="43.39017" lon="5.41321">
        <ele>541</ele>
        <time>2017-02-12T11:35:20.000Z</time>
      </trkpt>
      <trkpt lat="43.39015" lon="5.41324">
        <ele>541</ele>
        <time>2017-02-12T11:35:23.000Z</time>
      </trkpt>
      <trkpt lat="43.39014" lon="5.41325">
        <ele>541.20001220703</ele>
        <time>2017-02-12T11:35:25.000Z</time>
      </trkpt>
      <trkpt lat="43.39009" lon="5.41336">
        <ele>540.59997558594</ele>
        <time>2017-02-12T11:35:35.000Z</time>
      </trkpt>
      <trkpt lat="43.39003" lon="5.41342">
        <ele>540.20001220703</ele>
        <time>2017-02-12T11:35:42.000Z</time>
      </trkpt>
      <trkpt lat="43.39001" lon="5.41344">
        <ele>540</ele>
        <time>2017-02-12T11:35:46.000Z</time>
      </trkpt>
      <trkpt lat="43.38997" lon="5.41349">
        <ele>538.79998779297</ele>
        <time>2017-02-12T11:35:53.000Z</time>
      </trkpt>
      <trkpt lat="43.38997" lon="5.41349">
        <ele>538</ele>
        <time>2017-02-12T11:35:55.000Z</time>
      </trkpt>
      <trkpt lat="43.38992" lon="5.41353">
        <ele>538.40002441406</ele>
        <time>2017-02-12T11:36:03.000Z</time>
      </trkpt>
      <trkpt lat="43.38985" lon="5.4136">
        <ele>539.40002441406</ele>
        <time>2017-02-12T11:36:12.000Z</time>
      </trkpt>
      <trkpt lat="43.38983" lon="5.41364">
        <ele>540</ele>
        <time>2017-02-12T11:36:16.000Z</time>
      </trkpt>
      <trkpt lat="43.38979" lon="5.41374">
        <ele>540.59997558594</ele>
        <time>2017-02-12T11:36:22.000Z</time>
      </trkpt>
      <trkpt lat="43.38976" lon="5.41382">
        <ele>541.20001220703</ele>
        <time>2017-02-12T11:36:27.000Z</time>
      </trkpt>
      <trkpt lat="43.38973" lon="5.41386">
        <ele>542.40002441406</ele>
        <time>2017-02-12T11:36:31.000Z</time>
      </trkpt>
      <trkpt lat="43.38971" lon="5.4139">
        <ele>543</ele>
        <time>2017-02-12T11:36:35.000Z</time>
      </trkpt>
      <trkpt lat="43.38968" lon="5.41397">
        <ele>543.40002441406</ele>
        <time>2017-02-12T11:36:43.000Z</time>
      </trkpt>
      <trkpt lat="43.38963" lon="5.41404">
        <ele>543.20001220703</ele>
        <time>2017-02-12T11:36:53.000Z</time>
      </trkpt>
      <trkpt lat="43.38961" lon="5.41407">
        <ele>543.79998779297</ele>
        <time>2017-02-12T11:36:58.000Z</time>
      </trkpt>
      <trkpt lat="43.38961" lon="5.41411">
        <ele>544.79998779297</ele>
        <time>2017-02-12T11:37:01.000Z</time>
      </trkpt>
      <trkpt lat="43.38959" lon="5.41413">
        <ele>545.20001220703</ele>
        <time>2017-02-12T11:37:04.000Z</time>
      </trkpt>
      <trkpt lat="43.38958" lon="5.41417">
        <ele>546</ele>
        <time>2017-02-12T11:37:08.000Z</time>
      </trkpt>
      <trkpt lat="43.38958" lon="5.4142">
        <ele>547.20001220703</ele>
        <time>2017-02-12T11:37:12.000Z</time>
      </trkpt>
      <trkpt lat="43.38958" lon="5.41421">
        <ele>547.40002441406</ele>
        <time>2017-02-12T11:37:13.000Z</time>
      </trkpt>
      <trkpt lat="43.38955" lon="5.4143">
        <ele>546.79998779297</ele>
        <time>2017-02-12T11:37:23.000Z</time>
      </trkpt>
      <trkpt lat="43.38954" lon="5.41432">
        <ele>546.40002441406</ele>
        <time>2017-02-12T11:37:26.000Z</time>
      </trkpt>
      <trkpt lat="43.38952" lon="5.41439">
        <ele>547.20001220703</ele>
        <time>2017-02-12T11:37:33.000Z</time>
      </trkpt>
      <trkpt lat="43.38951" lon="5.41441">
        <ele>547.79998779297</ele>
        <time>2017-02-12T11:37:35.000Z</time>
      </trkpt>
      <trkpt lat="43.3895" lon="5.41445">
        <ele>548.79998779297</ele>
        <time>2017-02-12T11:37:41.000Z</time>
      </trkpt>
      <trkpt lat="43.38949" lon="5.41449">
        <ele>548.79998779297</ele>
        <time>2017-02-12T11:37:45.000Z</time>
      </trkpt>
      <trkpt lat="43.38946" lon="5.41461">
        <ele>549.20001220703</ele>
        <time>2017-02-12T11:37:57.000Z</time>
      </trkpt>
      <trkpt lat="43.38947" lon="5.41469">
        <ele>550</ele>
        <time>2017-02-12T11:38:03.000Z</time>
      </trkpt>
      <trkpt lat="43.38947" lon="5.41476">
        <ele>551</ele>
        <time>2017-02-12T11:38:08.000Z</time>
      </trkpt>
      <trkpt lat="43.38946" lon="5.41477">
        <ele>551</ele>
        <time>2017-02-12T11:38:09.000Z</time>
      </trkpt>
      <trkpt lat="43.38946" lon="5.4149">
        <ele>550.20001220703</ele>
        <time>2017-02-12T11:38:18.000Z</time>
      </trkpt>
      <trkpt lat="43.38946" lon="5.415">
        <ele>551.40002441406</ele>
        <time>2017-02-12T11:38:28.000Z</time>
      </trkpt>
      <trkpt lat="43.38945" lon="5.41506">
        <ele>552.40002441406</ele>
        <time>2017-02-12T11:38:33.000Z</time>
      </trkpt>
      <trkpt lat="43.38944" lon="5.41509">
        <ele>553.79998779297</ele>
        <time>2017-02-12T11:38:36.000Z</time>
      </trkpt>
      <trkpt lat="43.38943" lon="5.41513">
        <ele>554.20001220703</ele>
        <time>2017-02-12T11:38:39.000Z</time>
      </trkpt>
      <trkpt lat="43.38939" lon="5.41525">
        <ele>554</ele>
        <time>2017-02-12T11:38:50.000Z</time>
      </trkpt>
      <trkpt lat="43.38938" lon="5.4153">
        <ele>553</ele>
        <time>2017-02-12T11:38:54.000Z</time>
      </trkpt>
      <trkpt lat="43.38935" lon="5.41536">
        <ele>552</ele>
        <time>2017-02-12T11:38:59.000Z</time>
      </trkpt>
      <trkpt lat="43.38932" lon="5.41544">
        <ele>552.79998779297</ele>
        <time>2017-02-12T11:39:07.000Z</time>
      </trkpt>
      <trkpt lat="43.38931" lon="5.4155">
        <ele>554</ele>
        <time>2017-02-12T11:39:12.000Z</time>
      </trkpt>
      <trkpt lat="43.3893" lon="5.41551">
        <ele>555.20001220703</ele>
        <time>2017-02-12T11:39:16.000Z</time>
      </trkpt>
      <trkpt lat="43.38929" lon="5.41552">
        <ele>555.59997558594</ele>
        <time>2017-02-12T11:39:18.000Z</time>
      </trkpt>
      <trkpt lat="43.38927" lon="5.41552">
        <ele>556.59997558594</ele>
        <time>2017-02-12T11:39:21.000Z</time>
      </trkpt>
      <trkpt lat="43.38924" lon="5.41552">
        <ele>555.59997558594</ele>
        <time>2017-02-12T11:39:28.000Z</time>
      </trkpt>
      <trkpt lat="43.38924" lon="5.41552">
        <ele>555.59997558594</ele>
        <time>2017-02-12T11:39:30.000Z</time>
      </trkpt>
      <trkpt lat="43.38923" lon="5.41552">
        <ele>555.59997558594</ele>
        <time>2017-02-12T11:39:35.000Z</time>
      </trkpt>
      <trkpt lat="43.38923" lon="5.41552">
        <ele>556</ele>
        <time>2017-02-12T11:39:44.000Z</time>
      </trkpt>
      <trkpt lat="43.38923" lon="5.41552">
        <ele>554.79998779297</ele>
        <time>2017-02-12T11:39:57.000Z</time>
      </trkpt>
      <trkpt lat="43.38922" lon="5.41552">
        <ele>554.59997558594</ele>
        <time>2017-02-12T11:40:00.000Z</time>
      </trkpt>
      <trkpt lat="43.38922" lon="5.41553">
        <ele>554.59997558594</ele>
        <time>2017-02-12T11:40:06.000Z</time>
      </trkpt>
      <trkpt lat="43.38922" lon="5.41553">
        <ele>554.59997558594</ele>
        <time>2017-02-12T11:40:16.000Z</time>
      </trkpt>
      <trkpt lat="43.38922" lon="5.41558">
        <ele>554.79998779297</ele>
        <time>2017-02-12T11:40:26.000Z</time>
      </trkpt>
      <trkpt lat="43.38921" lon="5.4156">
        <ele>555.59997558594</ele>
        <time>2017-02-12T11:40:28.000Z</time>
      </trkpt>
      <trkpt lat="43.38919" lon="5.41567">
        <ele>555.40002441406</ele>
        <time>2017-02-12T11:40:36.000Z</time>
      </trkpt>
      <trkpt lat="43.38915" lon="5.41576">
        <ele>554.79998779297</ele>
        <time>2017-02-12T11:40:45.000Z</time>
      </trkpt>
      <trkpt lat="43.38914" lon="5.41577">
        <ele>554.40002441406</ele>
        <time>2017-02-12T11:40:47.000Z</time>
      </trkpt>
      <trkpt lat="43.3891" lon="5.41586">
        <ele>554.40002441406</ele>
        <time>2017-02-12T11:40:56.000Z</time>
      </trkpt>
      <trkpt lat="43.38909" lon="5.41589">
        <ele>554.40002441406</ele>
        <time>2017-02-12T11:41:03.000Z</time>
      </trkpt>
      <trkpt lat="43.38905" lon="5.41595">
        <ele>554</ele>
        <time>2017-02-12T11:41:11.000Z</time>
      </trkpt>
      <trkpt lat="43.389" lon="5.41602">
        <ele>554</ele>
        <time>2017-02-12T11:41:20.000Z</time>
      </trkpt>
      <trkpt lat="43.38894" lon="5.41608">
        <ele>554</ele>
        <time>2017-02-12T11:41:27.000Z</time>
      </trkpt>
      <trkpt lat="43.38891" lon="5.41612">
        <ele>553.59997558594</ele>
        <time>2017-02-12T11:41:31.000Z</time>
      </trkpt>
      <trkpt lat="43.38889" lon="5.41615">
        <ele>553.20001220703</ele>
        <time>2017-02-12T11:41:34.000Z</time>
      </trkpt>
      <trkpt lat="43.38883" lon="5.41621">
        <ele>552.20001220703</ele>
        <time>2017-02-12T11:41:41.000Z</time>
      </trkpt>
      <trkpt lat="43.38882" lon="5.41621">
        <ele>552</ele>
        <time>2017-02-12T11:41:42.000Z</time>
      </trkpt>
      <trkpt lat="43.38877" lon="5.41625">
        <ele>551.40002441406</ele>
        <time>2017-02-12T11:41:48.000Z</time>
      </trkpt>
      <trkpt lat="43.38876" lon="5.41625">
        <ele>551</ele>
        <time>2017-02-12T11:41:49.000Z</time>
      </trkpt>
      <trkpt lat="43.38871" lon="5.41627">
        <ele>551.40002441406</ele>
        <time>2017-02-12T11:41:55.000Z</time>
      </trkpt>
      <trkpt lat="43.38865" lon="5.4163">
        <ele>551.59997558594</ele>
        <time>2017-02-12T11:42:02.000Z</time>
      </trkpt>
      <trkpt lat="43.38862" lon="5.41632">
        <ele>550.40002441406</ele>
        <time>2017-02-12T11:42:09.000Z</time>
      </trkpt>
      <trkpt lat="43.38861" lon="5.41634">
        <ele>550.20001220703</ele>
        <time>2017-02-12T11:42:11.000Z</time>
      </trkpt>
      <trkpt lat="43.38858" lon="5.41638">
        <ele>550.40002441406</ele>
        <time>2017-02-12T11:42:15.000Z</time>
      </trkpt>
      <trkpt lat="43.38857" lon="5.41639">
        <ele>550.20001220703</ele>
        <time>2017-02-12T11:42:16.000Z</time>
      </trkpt>
      <trkpt lat="43.38856" lon="5.41643">
        <ele>549</ele>
        <time>2017-02-12T11:42:20.000Z</time>
      </trkpt>
      <trkpt lat="43.38855" lon="5.41647">
        <ele>548.20001220703</ele>
        <time>2017-02-12T11:42:23.000Z</time>
      </trkpt>
      <trkpt lat="43.38852" lon="5.41656">
        <ele>547.79998779297</ele>
        <time>2017-02-12T11:42:32.000Z</time>
      </trkpt>
      <trkpt lat="43.3885" lon="5.41668">
        <ele>547.40002441406</ele>
        <time>2017-02-12T11:42:43.000Z</time>
      </trkpt>
      <trkpt lat="43.38849" lon="5.41671">
        <ele>546.79998779297</ele>
        <time>2017-02-12T11:42:47.000Z</time>
      </trkpt>
      <trkpt lat="43.38848" lon="5.41675">
        <ele>546.20001220703</ele>
        <time>2017-02-12T11:42:52.000Z</time>
      </trkpt>
      <trkpt lat="43.38847" lon="5.41679">
        <ele>545.79998779297</ele>
        <time>2017-02-12T11:42:56.000Z</time>
      </trkpt>
      <trkpt lat="43.38844" lon="5.41687">
        <ele>544.59997558594</ele>
        <time>2017-02-12T11:43:04.000Z</time>
      </trkpt>
      <trkpt lat="43.38843" lon="5.41693">
        <ele>543.40002441406</ele>
        <time>2017-02-12T11:43:10.000Z</time>
      </trkpt>
      <trkpt lat="43.3884" lon="5.41696">
        <ele>542</ele>
        <time>2017-02-12T11:43:14.000Z</time>
      </trkpt>
      <trkpt lat="43.3884" lon="5.41697">
        <ele>541.79998779297</ele>
        <time>2017-02-12T11:43:15.000Z</time>
      </trkpt>
      <trkpt lat="43.38837" lon="5.41702">
        <ele>540.79998779297</ele>
        <time>2017-02-12T11:43:21.000Z</time>
      </trkpt>
      <trkpt lat="43.38834" lon="5.41705">
        <ele>540.79998779297</ele>
        <time>2017-02-12T11:43:25.000Z</time>
      </trkpt>
      <trkpt lat="43.38827" lon="5.41714">
        <ele>541.40002441406</ele>
        <time>2017-02-12T11:43:36.000Z</time>
      </trkpt>
      <trkpt lat="43.38818" lon="5.4172">
        <ele>540.59997558594</ele>
        <time>2017-02-12T11:43:47.000Z</time>
      </trkpt>
      <trkpt lat="43.38816" lon="5.41719">
        <ele>542</ele>
        <time>2017-02-12T11:43:49.000Z</time>
      </trkpt>
      <trkpt lat="43.38816" lon="5.41718">
        <ele>543.40002441406</ele>
        <time>2017-02-12T11:43:51.000Z</time>
      </trkpt>
      <trkpt lat="43.38814" lon="5.41718">
        <ele>543.20001220703</ele>
        <time>2017-02-12T11:43:55.000Z</time>
      </trkpt>
      <trkpt lat="43.38814" lon="5.41718">
        <ele>542</ele>
        <time>2017-02-12T11:43:57.000Z</time>
      </trkpt>
      <trkpt lat="43.38814" lon="5.41716">
        <ele>540.79998779297</ele>
        <time>2017-02-12T11:44:01.000Z</time>
      </trkpt>
      <trkpt lat="43.38814" lon="5.41714">
        <ele>541</ele>
        <time>2017-02-12T11:44:03.000Z</time>
      </trkpt>
      <trkpt lat="43.38815" lon="5.41703">
        <ele>541</ele>
        <time>2017-02-12T11:44:13.000Z</time>
      </trkpt>
      <trkpt lat="43.38818" lon="5.4169">
        <ele>540.79998779297</ele>
        <time>2017-02-12T11:44:24.000Z</time>
      </trkpt>
      <trkpt lat="43.38821" lon="5.41681">
        <ele>540</ele>
        <time>2017-02-12T11:44:32.000Z</time>
      </trkpt>
      <trkpt lat="43.38821" lon="5.41678">
        <ele>539.79998779297</ele>
        <time>2017-02-12T11:44:34.000Z</time>
      </trkpt>
      <trkpt lat="43.38823" lon="5.41664">
        <ele>540.20001220703</ele>
        <time>2017-02-12T11:44:45.000Z</time>
      </trkpt>
      <trkpt lat="43.38825" lon="5.4165">
        <ele>539.20001220703</ele>
        <time>2017-02-12T11:44:56.000Z</time>
      </trkpt>
      <trkpt lat="43.38825" lon="5.41647">
        <ele>538.59997558594</ele>
        <time>2017-02-12T11:44:58.000Z</time>
      </trkpt>
      <trkpt lat="43.38825" lon="5.41639">
        <ele>538</ele>
        <time>2017-02-12T11:45:04.000Z</time>
      </trkpt>
      <trkpt lat="43.38827" lon="5.41631">
        <ele>537.40002441406</ele>
        <time>2017-02-12T11:45:11.000Z</time>
      </trkpt>
      <trkpt lat="43.38827" lon="5.41627">
        <ele>537.59997558594</ele>
        <time>2017-02-12T11:45:14.000Z</time>
      </trkpt>
      <trkpt lat="43.38828" lon="5.41622">
        <ele>537.40002441406</ele>
        <time>2017-02-12T11:45:18.000Z</time>
      </trkpt>
      <trkpt lat="43.38828" lon="5.41621">
        <ele>537.40002441406</ele>
        <time>2017-02-12T11:45:19.000Z</time>
      </trkpt>
      <trkpt lat="43.38828" lon="5.41619">
        <ele>537.40002441406</ele>
        <time>2017-02-12T11:45:21.000Z</time>
      </trkpt>
      <trkpt lat="43.3883" lon="5.41612">
        <ele>536.79998779297</ele>
        <time>2017-02-12T11:45:27.000Z</time>
      </trkpt>
      <trkpt lat="43.38833" lon="5.41602">
        <ele>538.40002441406</ele>
        <time>2017-02-12T11:45:35.000Z</time>
      </trkpt>
      <trkpt lat="43.38836" lon="5.41596">
        <ele>539.59997558594</ele>
        <time>2017-02-12T11:45:41.000Z</time>
      </trkpt>
      <trkpt lat="43.38838" lon="5.41594">
        <ele>539.40002441406</ele>
        <time>2017-02-12T11:45:43.000Z</time>
      </trkpt>
      <trkpt lat="43.38841" lon="5.41589">
        <ele>538.40002441406</ele>
        <time>2017-02-12T11:45:48.000Z</time>
      </trkpt>
      <trkpt lat="43.38842" lon="5.41585">
        <ele>538</ele>
        <time>2017-02-12T11:45:51.000Z</time>
      </trkpt>
      <trkpt lat="43.38845" lon="5.4158">
        <ele>537.20001220703</ele>
        <time>2017-02-12T11:45:56.000Z</time>
      </trkpt>
      <trkpt lat="43.38847" lon="5.41576">
        <ele>537.40002441406</ele>
        <time>2017-02-12T11:46:00.000Z</time>
      </trkpt>
      <trkpt lat="43.3885" lon="5.4157">
        <ele>536</ele>
        <time>2017-02-12T11:46:05.000Z</time>
      </trkpt>
      <trkpt lat="43.38851" lon="5.41568">
        <ele>536.20001220703</ele>
        <time>2017-02-12T11:46:07.000Z</time>
      </trkpt>
      <trkpt lat="43.38853" lon="5.41562">
        <ele>536.59997558594</ele>
        <time>2017-02-12T11:46:13.000Z</time>
      </trkpt>
      <trkpt lat="43.38854" lon="5.41561">
        <ele>536.59997558594</ele>
        <time>2017-02-12T11:46:14.000Z</time>
      </trkpt>
      <trkpt lat="43.38857" lon="5.41551">
        <ele>536.59997558594</ele>
        <time>2017-02-12T11:46:23.000Z</time>
      </trkpt>
      <trkpt lat="43.3886" lon="5.41542">
        <ele>535.59997558594</ele>
        <time>2017-02-12T11:46:30.000Z</time>
      </trkpt>
      <trkpt lat="43.38861" lon="5.41532">
        <ele>535.79998779297</ele>
        <time>2017-02-12T11:46:38.000Z</time>
      </trkpt>
      <trkpt lat="43.38863" lon="5.41521">
        <ele>535.59997558594</ele>
        <time>2017-02-12T11:46:47.000Z</time>
      </trkpt>
      <trkpt lat="43.38864" lon="5.41516">
        <ele>535</ele>
        <time>2017-02-12T11:46:51.000Z</time>
      </trkpt>
      <trkpt lat="43.38865" lon="5.4151">
        <ele>534.59997558594</ele>
        <time>2017-02-12T11:46:57.000Z</time>
      </trkpt>
      <trkpt lat="43.38864" lon="5.41506">
        <ele>533.40002441406</ele>
        <time>2017-02-12T11:47:01.000Z</time>
      </trkpt>
      <trkpt lat="43.38863" lon="5.41499">
        <ele>533.59997558594</ele>
        <time>2017-02-12T11:47:07.000Z</time>
      </trkpt>
      <trkpt lat="43.38861" lon="5.41492">
        <ele>532.40002441406</ele>
        <time>2017-02-12T11:47:14.000Z</time>
      </trkpt>
      <trkpt lat="43.3886" lon="5.41487">
        <ele>531.79998779297</ele>
        <time>2017-02-12T11:47:18.000Z</time>
      </trkpt>
      <trkpt lat="43.38855" lon="5.41477">
        <ele>531.79998779297</ele>
        <time>2017-02-12T11:47:29.000Z</time>
      </trkpt>
      <trkpt lat="43.38852" lon="5.4147">
        <ele>531.20001220703</ele>
        <time>2017-02-12T11:47:34.000Z</time>
      </trkpt>
      <trkpt lat="43.38849" lon="5.41464">
        <ele>530.40002441406</ele>
        <time>2017-02-12T11:47:39.000Z</time>
      </trkpt>
      <trkpt lat="43.38844" lon="5.41456">
        <ele>531.20001220703</ele>
        <time>2017-02-12T11:47:47.000Z</time>
      </trkpt>
      <trkpt lat="43.38841" lon="5.41449">
        <ele>532</ele>
        <time>2017-02-12T11:47:54.000Z</time>
      </trkpt>
      <trkpt lat="43.3884" lon="5.41448">
        <ele>532.20001220703</ele>
        <time>2017-02-12T11:47:55.000Z</time>
      </trkpt>
      <trkpt lat="43.38837" lon="5.41439">
        <ele>532.59997558594</ele>
        <time>2017-02-12T11:48:04.000Z</time>
      </trkpt>
      <trkpt lat="43.38834" lon="5.41428">
        <ele>532</ele>
        <time>2017-02-12T11:48:13.000Z</time>
      </trkpt>
      <trkpt lat="43.38832" lon="5.41421">
        <ele>531.20001220703</ele>
        <time>2017-02-12T11:48:18.000Z</time>
      </trkpt>
      <trkpt lat="43.38832" lon="5.41418">
        <ele>531.20001220703</ele>
        <time>2017-02-12T11:48:20.000Z</time>
      </trkpt>
      <trkpt lat="43.38831" lon="5.41412">
        <ele>531</ele>
        <time>2017-02-12T11:48:25.000Z</time>
      </trkpt>
      <trkpt lat="43.3883" lon="5.41411">
        <ele>530.79998779297</ele>
        <time>2017-02-12T11:48:26.000Z</time>
      </trkpt>
      <trkpt lat="43.3883" lon="5.41402">
        <ele>530</ele>
        <time>2017-02-12T11:48:33.000Z</time>
      </trkpt>
      <trkpt lat="43.3883" lon="5.41398">
        <ele>529.59997558594</ele>
        <time>2017-02-12T11:48:36.000Z</time>
      </trkpt>
      <trkpt lat="43.3883" lon="5.41396">
        <ele>529.59997558594</ele>
        <time>2017-02-12T11:48:37.000Z</time>
      </trkpt>
      <trkpt lat="43.38829" lon="5.4139">
        <ele>531</ele>
        <time>2017-02-12T11:48:42.000Z</time>
      </trkpt>
      <trkpt lat="43.38829" lon="5.41389">
        <ele>531</ele>
        <time>2017-02-12T11:48:43.000Z</time>
      </trkpt>
      <trkpt lat="43.38829" lon="5.41382">
        <ele>531.20001220703</ele>
        <time>2017-02-12T11:48:49.000Z</time>
      </trkpt>
      <trkpt lat="43.38829" lon="5.41372">
        <ele>531</ele>
        <time>2017-02-12T11:48:57.000Z</time>
      </trkpt>
      <trkpt lat="43.38828" lon="5.41361">
        <ele>529.79998779297</ele>
        <time>2017-02-12T11:49:06.000Z</time>
      </trkpt>
      <trkpt lat="43.38828" lon="5.4136">
        <ele>529.79998779297</ele>
        <time>2017-02-12T11:49:07.000Z</time>
      </trkpt>
      <trkpt lat="43.38826" lon="5.41353">
        <ele>529.59997558594</ele>
        <time>2017-02-12T11:49:12.000Z</time>
      </trkpt>
      <trkpt lat="43.38826" lon="5.41352">
        <ele>529.59997558594</ele>
        <time>2017-02-12T11:49:13.000Z</time>
      </trkpt>
      <trkpt lat="43.38821" lon="5.41344">
        <ele>528.59997558594</ele>
        <time>2017-02-12T11:49:21.000Z</time>
      </trkpt>
      <trkpt lat="43.38816" lon="5.41338">
        <ele>528.59997558594</ele>
        <time>2017-02-12T11:49:27.000Z</time>
      </trkpt>
      <trkpt lat="43.38809" lon="5.41335">
        <ele>527.79998779297</ele>
        <time>2017-02-12T11:49:34.000Z</time>
      </trkpt>
      <trkpt lat="43.38807" lon="5.41334">
        <ele>527.79998779297</ele>
        <time>2017-02-12T11:49:37.000Z</time>
      </trkpt>
      <trkpt lat="43.38804" lon="5.41333">
        <ele>527.79998779297</ele>
        <time>2017-02-12T11:49:41.000Z</time>
      </trkpt>
      <trkpt lat="43.38803" lon="5.41333">
        <ele>527.59997558594</ele>
        <time>2017-02-12T11:49:42.000Z</time>
      </trkpt>
      <trkpt lat="43.38797" lon="5.41333">
        <ele>528.79998779297</ele>
        <time>2017-02-12T11:49:49.000Z</time>
      </trkpt>
      <trkpt lat="43.38793" lon="5.41333">
        <ele>528.59997558594</ele>
        <time>2017-02-12T11:49:53.000Z</time>
      </trkpt>
      <trkpt lat="43.38786" lon="5.41334">
        <ele>527.40002441406</ele>
        <time>2017-02-12T11:50:01.000Z</time>
      </trkpt>
      <trkpt lat="43.38784" lon="5.41333">
        <ele>527</ele>
        <time>2017-02-12T11:50:04.000Z</time>
      </trkpt>
      <trkpt lat="43.38784" lon="5.41333">
        <ele>527.20001220703</ele>
        <time>2017-02-12T11:50:16.000Z</time>
      </trkpt>
      <trkpt lat="43.38784" lon="5.41333">
        <ele>527</ele>
        <time>2017-02-12T11:50:27.000Z</time>
      </trkpt>
      <trkpt lat="43.38784" lon="5.41333">
        <ele>528</ele>
        <time>2017-02-12T11:50:38.000Z</time>
      </trkpt>
      <trkpt lat="43.38782" lon="5.41333">
        <ele>527.79998779297</ele>
        <time>2017-02-12T11:50:48.000Z</time>
      </trkpt>
      <trkpt lat="43.38775" lon="5.41333">
        <ele>527.79998779297</ele>
        <time>2017-02-12T11:50:57.000Z</time>
      </trkpt>
      <trkpt lat="43.38772" lon="5.41333">
        <ele>526.59997558594</ele>
        <time>2017-02-12T11:51:07.000Z</time>
      </trkpt>
      <trkpt lat="43.38772" lon="5.41333">
        <ele>526</ele>
        <time>2017-02-12T11:51:09.000Z</time>
      </trkpt>
      <trkpt lat="43.38772" lon="5.41332">
        <ele>525.79998779297</ele>
        <time>2017-02-12T11:51:15.000Z</time>
      </trkpt>
      <trkpt lat="43.38772" lon="5.41332">
        <ele>526.79998779297</ele>
        <time>2017-02-12T11:51:28.000Z</time>
      </trkpt>
      <trkpt lat="43.38772" lon="5.41332">
        <ele>527.20001220703</ele>
        <time>2017-02-12T11:51:46.000Z</time>
      </trkpt>
      <trkpt lat="43.38772" lon="5.41332">
        <ele>527.79998779297</ele>
        <time>2017-02-12T11:51:54.000Z</time>
      </trkpt>
      <trkpt lat="43.38772" lon="5.41332">
        <ele>526</ele>
        <time>2017-02-12T11:52:31.000Z</time>
      </trkpt>
      <trkpt lat="43.38772" lon="5.41332">
        <ele>525.79998779297</ele>
        <time>2017-02-12T11:52:33.000Z</time>
      </trkpt>
      <trkpt lat="43.38772" lon="5.41332">
        <ele>527</ele>
        <time>2017-02-12T11:52:45.000Z</time>
      </trkpt>
      <trkpt lat="43.38772" lon="5.41332">
        <ele>527.59997558594</ele>
        <time>2017-02-12T11:52:52.000Z</time>
      </trkpt>
      <trkpt lat="43.38772" lon="5.41332">
        <ele>526.79998779297</ele>
        <time>2017-02-12T11:53:07.000Z</time>
      </trkpt>
      <trkpt lat="43.38774" lon="5.41332">
        <ele>526.40002441406</ele>
        <time>2017-02-12T11:53:13.000Z</time>
      </trkpt>
      <trkpt lat="43.38775" lon="5.41332">
        <ele>526.40002441406</ele>
        <time>2017-02-12T11:53:14.000Z</time>
      </trkpt>
      <trkpt lat="43.38784" lon="5.41335">
        <ele>527.59997558594</ele>
        <time>2017-02-12T11:53:23.000Z</time>
      </trkpt>
      <trkpt lat="43.38793" lon="5.41335">
        <ele>527.79998779297</ele>
        <time>2017-02-12T11:53:32.000Z</time>
      </trkpt>
      <trkpt lat="43.38795" lon="5.41335">
        <ele>528</ele>
        <time>2017-02-12T11:53:34.000Z</time>
      </trkpt>
      <trkpt lat="43.38803" lon="5.41333">
        <ele>529</ele>
        <time>2017-02-12T11:53:43.000Z</time>
      </trkpt>
      <trkpt lat="43.38804" lon="5.41334">
        <ele>529</ele>
        <time>2017-02-12T11:53:44.000Z</time>
      </trkpt>
      <trkpt lat="43.38816" lon="5.41335">
        <ele>528.79998779297</ele>
        <time>2017-02-12T11:53:55.000Z</time>
      </trkpt>
      <trkpt lat="43.38824" lon="5.41343">
        <ele>529.40002441406</ele>
        <time>2017-02-12T11:54:05.000Z</time>
      </trkpt>
      <trkpt lat="43.38829" lon="5.41354">
        <ele>529.79998779297</ele>
        <time>2017-02-12T11:54:14.000Z</time>
      </trkpt>
      <trkpt lat="43.3883" lon="5.41358">
        <ele>530</ele>
        <time>2017-02-12T11:54:17.000Z</time>
      </trkpt>
      <trkpt lat="43.38831" lon="5.41366">
        <ele>531</ele>
        <time>2017-02-12T11:54:23.000Z</time>
      </trkpt>
      <trkpt lat="43.38832" lon="5.41381">
        <ele>530.79998779297</ele>
        <time>2017-02-12T11:54:33.000Z</time>
      </trkpt>
      <trkpt lat="43.38832" lon="5.41383">
        <ele>531.40002441406</ele>
        <time>2017-02-12T11:54:35.000Z</time>
      </trkpt>
      <trkpt lat="43.38831" lon="5.41386">
        <ele>532.20001220703</ele>
        <time>2017-02-12T11:54:37.000Z</time>
      </trkpt>
      <trkpt lat="43.38831" lon="5.41387">
        <ele>532.40002441406</ele>
        <time>2017-02-12T11:54:38.000Z</time>
      </trkpt>
      <trkpt lat="43.38831" lon="5.41389">
        <ele>532.59997558594</ele>
        <time>2017-02-12T11:54:39.000Z</time>
      </trkpt>
      <trkpt lat="43.38831" lon="5.41393">
        <ele>533.40002441406</ele>
        <time>2017-02-12T11:54:42.000Z</time>
      </trkpt>
      <trkpt lat="43.38831" lon="5.41399">
        <ele>533.40002441406</ele>
        <time>2017-02-12T11:54:46.000Z</time>
      </trkpt>
      <trkpt lat="43.38831" lon="5.41401">
        <ele>531.79998779297</ele>
        <time>2017-02-12T11:54:48.000Z</time>
      </trkpt>
      <trkpt lat="43.38832" lon="5.41404">
        <ele>530.59997558594</ele>
        <time>2017-02-12T11:54:50.000Z</time>
      </trkpt>
      <trkpt lat="43.38832" lon="5.41409">
        <ele>530.40002441406</ele>
        <time>2017-02-12T11:54:53.000Z</time>
      </trkpt>
      <trkpt lat="43.38833" lon="5.41418">
        <ele>530.79998779297</ele>
        <time>2017-02-12T11:54:59.000Z</time>
      </trkpt>
      <trkpt lat="43.38836" lon="5.41425">
        <ele>530.79998779297</ele>
        <time>2017-02-12T11:55:06.000Z</time>
      </trkpt>
      <trkpt lat="43.38838" lon="5.41433">
        <ele>531</ele>
        <time>2017-02-12T11:55:12.000Z</time>
      </trkpt>
      <trkpt lat="43.3884" lon="5.41438">
        <ele>531.79998779297</ele>
        <time>2017-02-12T11:55:16.000Z</time>
      </trkpt>
      <trkpt lat="43.38842" lon="5.41442">
        <ele>532</ele>
        <time>2017-02-12T11:55:19.000Z</time>
      </trkpt>
      <trkpt lat="43.38847" lon="5.41452">
        <ele>532</ele>
        <time>2017-02-12T11:55:27.000Z</time>
      </trkpt>
      <trkpt lat="43.38847" lon="5.41453">
        <ele>531.79998779297</ele>
        <time>2017-02-12T11:55:28.000Z</time>
      </trkpt>
      <trkpt lat="43.3885" lon="5.41457">
        <ele>532.40002441406</ele>
        <time>2017-02-12T11:55:33.000Z</time>
      </trkpt>
      <trkpt lat="43.38851" lon="5.41458">
        <ele>532.59997558594</ele>
        <time>2017-02-12T11:55:34.000Z</time>
      </trkpt>
      <trkpt lat="43.38854" lon="5.41463">
        <ele>532.79998779297</ele>
        <time>2017-02-12T11:55:38.000Z</time>
      </trkpt>
      <trkpt lat="43.38855" lon="5.41465">
        <ele>532.79998779297</ele>
        <time>2017-02-12T11:55:40.000Z</time>
      </trkpt>
      <trkpt lat="43.38859" lon="5.41474">
        <ele>533</ele>
        <time>2017-02-12T11:55:48.000Z</time>
      </trkpt>
      <trkpt lat="43.38861" lon="5.41479">
        <ele>533.79998779297</ele>
        <time>2017-02-12T11:55:55.000Z</time>
      </trkpt>
      <trkpt lat="43.38861" lon="5.4148">
        <ele>534</ele>
        <time>2017-02-12T11:55:56.000Z</time>
      </trkpt>
      <trkpt lat="43.38865" lon="5.41488">
        <ele>534.20001220703</ele>
        <time>2017-02-12T11:56:05.000Z</time>
      </trkpt>
      <trkpt lat="43.38867" lon="5.41498">
        <ele>534.20001220703</ele>
        <time>2017-02-12T11:56:14.000Z</time>
      </trkpt>
      <trkpt lat="43.38868" lon="5.41502">
        <ele>534.79998779297</ele>
        <time>2017-02-12T11:56:17.000Z</time>
      </trkpt>
      <trkpt lat="43.38867" lon="5.41508">
        <ele>535.20001220703</ele>
        <time>2017-02-12T11:56:21.000Z</time>
      </trkpt>
      <trkpt lat="43.38866" lon="5.41517">
        <ele>534.59997558594</ele>
        <time>2017-02-12T11:56:28.000Z</time>
      </trkpt>
      <trkpt lat="43.38863" lon="5.41528">
        <ele>535</ele>
        <time>2017-02-12T11:56:36.000Z</time>
      </trkpt>
      <trkpt lat="43.38863" lon="5.4153">
        <ele>535.40002441406</ele>
        <time>2017-02-12T11:56:38.000Z</time>
      </trkpt>
      <trkpt lat="43.38862" lon="5.41531">
        <ele>535.79998779297</ele>
        <time>2017-02-12T11:56:39.000Z</time>
      </trkpt>
      <trkpt lat="43.38861" lon="5.41534">
        <ele>536.20001220703</ele>
        <time>2017-02-12T11:56:41.000Z</time>
      </trkpt>
      <trkpt lat="43.38856" lon="5.41542">
        <ele>536.79998779297</ele>
        <time>2017-02-12T11:56:48.000Z</time>
      </trkpt>
      <trkpt lat="43.38855" lon="5.41544">
        <ele>536.79998779297</ele>
        <time>2017-02-12T11:56:49.000Z</time>
      </trkpt>
      <trkpt lat="43.38852" lon="5.41553">
        <ele>537.40002441406</ele>
        <time>2017-02-12T11:56:56.000Z</time>
      </trkpt>
      <trkpt lat="43.38849" lon="5.41556">
        <ele>537.59997558594</ele>
        <time>2017-02-12T11:56:59.000Z</time>
      </trkpt>
      <trkpt lat="43.38847" lon="5.41563">
        <ele>537.79998779297</ele>
        <time>2017-02-12T11:57:04.000Z</time>
      </trkpt>
      <trkpt lat="43.38845" lon="5.41566">
        <ele>537.79998779297</ele>
        <time>2017-02-12T11:57:07.000Z</time>
      </trkpt>
      <trkpt lat="43.38842" lon="5.41571">
        <ele>538.59997558594</ele>
        <time>2017-02-12T11:57:11.000Z</time>
      </trkpt>
      <trkpt lat="43.38839" lon="5.41579">
        <ele>538.20001220703</ele>
        <time>2017-02-12T11:57:18.000Z</time>
      </trkpt>
      <trkpt lat="43.38834" lon="5.41588">
        <ele>539</ele>
        <time>2017-02-12T11:57:25.000Z</time>
      </trkpt>
      <trkpt lat="43.38834" lon="5.41589">
        <ele>539.20001220703</ele>
        <time>2017-02-12T11:57:26.000Z</time>
      </trkpt>
      <trkpt lat="43.38829" lon="5.41599">
        <ele>539.79998779297</ele>
        <time>2017-02-12T11:57:34.000Z</time>
      </trkpt>
      <trkpt lat="43.38827" lon="5.41604">
        <ele>540</ele>
        <time>2017-02-12T11:57:38.000Z</time>
      </trkpt>
      <trkpt lat="43.38826" lon="5.4161">
        <ele>539.59997558594</ele>
        <time>2017-02-12T11:57:42.000Z</time>
      </trkpt>
      <trkpt lat="43.38825" lon="5.41614">
        <ele>539.40002441406</ele>
        <time>2017-02-12T11:57:45.000Z</time>
      </trkpt>
      <trkpt lat="43.38825" lon="5.41619">
        <ele>539.40002441406</ele>
        <time>2017-02-12T11:57:48.000Z</time>
      </trkpt>
      <trkpt lat="43.38824" lon="5.41627">
        <ele>539.40002441406</ele>
        <time>2017-02-12T11:57:53.000Z</time>
      </trkpt>
      <trkpt lat="43.38824" lon="5.41632">
        <ele>539.40002441406</ele>
        <time>2017-02-12T11:57:56.000Z</time>
      </trkpt>
      <trkpt lat="43.38823" lon="5.4164">
        <ele>538.59997558594</ele>
        <time>2017-02-12T11:58:02.000Z</time>
      </trkpt>
      <trkpt lat="43.38823" lon="5.41645">
        <ele>538</ele>
        <time>2017-02-12T11:58:05.000Z</time>
      </trkpt>
      <trkpt lat="43.38823" lon="5.41655">
        <ele>538.40002441406</ele>
        <time>2017-02-12T11:58:12.000Z</time>
      </trkpt>
      <trkpt lat="43.38822" lon="5.41667">
        <ele>539.20001220703</ele>
        <time>2017-02-12T11:58:21.000Z</time>
      </trkpt>
      <trkpt lat="43.38821" lon="5.41673">
        <ele>539.40002441406</ele>
        <time>2017-02-12T11:58:25.000Z</time>
      </trkpt>
      <trkpt lat="43.3882" lon="5.41681">
        <ele>540.20001220703</ele>
        <time>2017-02-12T11:58:31.000Z</time>
      </trkpt>
      <trkpt lat="43.3882" lon="5.41682">
        <ele>540.40002441406</ele>
        <time>2017-02-12T11:58:32.000Z</time>
      </trkpt>
      <trkpt lat="43.38819" lon="5.41687">
        <ele>540.59997558594</ele>
        <time>2017-02-12T11:58:36.000Z</time>
      </trkpt>
      <trkpt lat="43.38819" lon="5.41688">
        <ele>541</ele>
        <time>2017-02-12T11:58:37.000Z</time>
      </trkpt>
      <trkpt lat="43.38817" lon="5.41695">
        <ele>541.20001220703</ele>
        <time>2017-02-12T11:58:42.000Z</time>
      </trkpt>
      <trkpt lat="43.38816" lon="5.41699">
        <ele>540.79998779297</ele>
        <time>2017-02-12T11:58:45.000Z</time>
      </trkpt>
      <trkpt lat="43.38813" lon="5.41712">
        <ele>540.40002441406</ele>
        <time>2017-02-12T11:58:55.000Z</time>
      </trkpt>
      <trkpt lat="43.3881" lon="5.41723">
        <ele>541.40002441406</ele>
        <time>2017-02-12T11:59:03.000Z</time>
      </trkpt>
      <trkpt lat="43.3881" lon="5.41725">
        <ele>541.59997558594</ele>
        <time>2017-02-12T11:59:04.000Z</time>
      </trkpt>
      <trkpt lat="43.38806" lon="5.41733">
        <ele>542</ele>
        <time>2017-02-12T11:59:11.000Z</time>
      </trkpt>
      <trkpt lat="43.38805" lon="5.41734">
        <ele>542.20001220703</ele>
        <time>2017-02-12T11:59:12.000Z</time>
      </trkpt>
      <trkpt lat="43.38804" lon="5.41734">
        <ele>542.59997558594</ele>
        <time>2017-02-12T11:59:13.000Z</time>
      </trkpt>
      <trkpt lat="43.38799" lon="5.4174">
        <ele>543.40002441406</ele>
        <time>2017-02-12T11:59:20.000Z</time>
      </trkpt>
      <trkpt lat="43.38791" lon="5.41746">
        <ele>542.40002441406</ele>
        <time>2017-02-12T11:59:28.000Z</time>
      </trkpt>
      <trkpt lat="43.38788" lon="5.41748">
        <ele>542.40002441406</ele>
        <time>2017-02-12T11:59:31.000Z</time>
      </trkpt>
      <trkpt lat="43.38785" lon="5.41751">
        <ele>542</ele>
        <time>2017-02-12T11:59:34.000Z</time>
      </trkpt>
      <trkpt lat="43.38783" lon="5.41754">
        <ele>541.59997558594</ele>
        <time>2017-02-12T11:59:37.000Z</time>
      </trkpt>
      <trkpt lat="43.38779" lon="5.41759">
        <ele>541.20001220703</ele>
        <time>2017-02-12T11:59:42.000Z</time>
      </trkpt>
      <trkpt lat="43.38775" lon="5.41763">
        <ele>541.20001220703</ele>
        <time>2017-02-12T11:59:47.000Z</time>
      </trkpt>
      <trkpt lat="43.38774" lon="5.41765">
        <ele>541.79998779297</ele>
        <time>2017-02-12T11:59:49.000Z</time>
      </trkpt>
      <trkpt lat="43.38772" lon="5.41767">
        <ele>542</ele>
        <time>2017-02-12T11:59:51.000Z</time>
      </trkpt>
      <trkpt lat="43.38768" lon="5.41771">
        <ele>541.40002441406</ele>
        <time>2017-02-12T11:59:56.000Z</time>
      </trkpt>
      <trkpt lat="43.38767" lon="5.41772">
        <ele>541.20001220703</ele>
        <time>2017-02-12T11:59:57.000Z</time>
      </trkpt>
      <trkpt lat="43.38763" lon="5.41776">
        <ele>541.40002441406</ele>
        <time>2017-02-12T12:00:02.000Z</time>
      </trkpt>
      <trkpt lat="43.38761" lon="5.41779">
        <ele>541.59997558594</ele>
        <time>2017-02-12T12:00:05.000Z</time>
      </trkpt>
      <trkpt lat="43.38756" lon="5.41785">
        <ele>542</ele>
        <time>2017-02-12T12:00:12.000Z</time>
      </trkpt>
      <trkpt lat="43.38755" lon="5.41785">
        <ele>542.40002441406</ele>
        <time>2017-02-12T12:00:13.000Z</time>
      </trkpt>
      <trkpt lat="43.38751" lon="5.4179">
        <ele>543.40002441406</ele>
        <time>2017-02-12T12:00:18.000Z</time>
      </trkpt>
      <trkpt lat="43.38747" lon="5.41796">
        <ele>543</ele>
        <time>2017-02-12T12:00:24.000Z</time>
      </trkpt>
      <trkpt lat="43.38738" lon="5.4181">
        <ele>544</ele>
        <time>2017-02-12T12:00:38.000Z</time>
      </trkpt>
      <trkpt lat="43.38734" lon="5.41816">
        <ele>544.40002441406</ele>
        <time>2017-02-12T12:00:44.000Z</time>
      </trkpt>
      <trkpt lat="43.38732" lon="5.41819">
        <ele>545</ele>
        <time>2017-02-12T12:00:48.000Z</time>
      </trkpt>
      <trkpt lat="43.38731" lon="5.4182">
        <ele>545.20001220703</ele>
        <time>2017-02-12T12:00:49.000Z</time>
      </trkpt>
      <trkpt lat="43.38723" lon="5.41827">
        <ele>546.20001220703</ele>
        <time>2017-02-12T12:00:59.000Z</time>
      </trkpt>
      <trkpt lat="43.38723" lon="5.41828">
        <ele>546.40002441406</ele>
        <time>2017-02-12T12:01:00.000Z</time>
      </trkpt>
      <trkpt lat="43.38714" lon="5.41838">
        <ele>547.20001220703</ele>
        <time>2017-02-12T12:01:11.000Z</time>
      </trkpt>
      <trkpt lat="43.38713" lon="5.4184">
        <ele>547.59997558594</ele>
        <time>2017-02-12T12:01:13.000Z</time>
      </trkpt>
      <trkpt lat="43.38708" lon="5.41846">
        <ele>548.79998779297</ele>
        <time>2017-02-12T12:01:20.000Z</time>
      </trkpt>
      <trkpt lat="43.38707" lon="5.41848">
        <ele>549.59997558594</ele>
        <time>2017-02-12T12:01:23.000Z</time>
      </trkpt>
      <trkpt lat="43.38701" lon="5.41854">
        <ele>547.40002441406</ele>
        <time>2017-02-12T12:01:29.000Z</time>
      </trkpt>
      <trkpt lat="43.38697" lon="5.4186">
        <ele>547.59997558594</ele>
        <time>2017-02-12T12:01:35.000Z</time>
      </trkpt>
      <trkpt lat="43.38692" lon="5.41873">
        <ele>547.59997558594</ele>
        <time>2017-02-12T12:01:45.000Z</time>
      </trkpt>
      <trkpt lat="43.38686" lon="5.41881">
        <ele>548.20001220703</ele>
        <time>2017-02-12T12:01:53.000Z</time>
      </trkpt>
      <trkpt lat="43.38685" lon="5.41882">
        <ele>548.20001220703</ele>
        <time>2017-02-12T12:01:54.000Z</time>
      </trkpt>
      <trkpt lat="43.3868" lon="5.41889">
        <ele>548.79998779297</ele>
        <time>2017-02-12T12:02:01.000Z</time>
      </trkpt>
      <trkpt lat="43.38678" lon="5.41892">
        <ele>549.40002441406</ele>
        <time>2017-02-12T12:02:04.000Z</time>
      </trkpt>
      <trkpt lat="43.38675" lon="5.41896">
        <ele>550.40002441406</ele>
        <time>2017-02-12T12:02:08.000Z</time>
      </trkpt>
      <trkpt lat="43.38675" lon="5.41897">
        <ele>550.40002441406</ele>
        <time>2017-02-12T12:02:09.000Z</time>
      </trkpt>
      <trkpt lat="43.38669" lon="5.41905">
        <ele>550.20001220703</ele>
        <time>2017-02-12T12:02:16.000Z</time>
      </trkpt>
      <trkpt lat="43.38665" lon="5.41909">
        <ele>549.40002441406</ele>
        <time>2017-02-12T12:02:21.000Z</time>
      </trkpt>
      <trkpt lat="43.38665" lon="5.4191">
        <ele>549.40002441406</ele>
        <time>2017-02-12T12:02:22.000Z</time>
      </trkpt>
      <trkpt lat="43.38664" lon="5.41911">
        <ele>549.40002441406</ele>
        <time>2017-02-12T12:02:23.000Z</time>
      </trkpt>
      <trkpt lat="43.38657" lon="5.41918">
        <ele>550.20001220703</ele>
        <time>2017-02-12T12:02:32.000Z</time>
      </trkpt>
      <trkpt lat="43.38656" lon="5.4192">
        <ele>549.79998779297</ele>
        <time>2017-02-12T12:02:34.000Z</time>
      </trkpt>
      <trkpt lat="43.38652" lon="5.41924">
        <ele>549.20001220703</ele>
        <time>2017-02-12T12:02:39.000Z</time>
      </trkpt>
      <trkpt lat="43.38646" lon="5.41929">
        <ele>549.79998779297</ele>
        <time>2017-02-12T12:02:46.000Z</time>
      </trkpt>
      <trkpt lat="43.38642" lon="5.41935">
        <ele>549.79998779297</ele>
        <time>2017-02-12T12:02:53.000Z</time>
      </trkpt>
      <trkpt lat="43.38633" lon="5.41945">
        <ele>549.20001220703</ele>
        <time>2017-02-12T12:03:04.000Z</time>
      </trkpt>
      <trkpt lat="43.38627" lon="5.41953">
        <ele>549</ele>
        <time>2017-02-12T12:03:14.000Z</time>
      </trkpt>
      <trkpt lat="43.3862" lon="5.41962">
        <ele>548.20001220703</ele>
        <time>2017-02-12T12:03:23.000Z</time>
      </trkpt>
      <trkpt lat="43.38618" lon="5.41966">
        <ele>547.79998779297</ele>
        <time>2017-02-12T12:03:26.000Z</time>
      </trkpt>
      <trkpt lat="43.38618" lon="5.41968">
        <ele>547.79998779297</ele>
        <time>2017-02-12T12:03:27.000Z</time>
      </trkpt>
      <trkpt lat="43.38618" lon="5.41972">
        <ele>548</ele>
        <time>2017-02-12T12:03:30.000Z</time>
      </trkpt>
      <trkpt lat="43.38616" lon="5.41975">
        <ele>548.79998779297</ele>
        <time>2017-02-12T12:03:33.000Z</time>
      </trkpt>
      <trkpt lat="43.38615" lon="5.41979">
        <ele>549.59997558594</ele>
        <time>2017-02-12T12:03:37.000Z</time>
      </trkpt>
      <trkpt lat="43.38616" lon="5.41982">
        <ele>548.59997558594</ele>
        <time>2017-02-12T12:03:45.000Z</time>
      </trkpt>
      <trkpt lat="43.38617" lon="5.41983">
        <ele>547.40002441406</ele>
        <time>2017-02-12T12:03:49.000Z</time>
      </trkpt>
      <trkpt lat="43.38616" lon="5.41985">
        <ele>547</ele>
        <time>2017-02-12T12:03:52.000Z</time>
      </trkpt>
      <trkpt lat="43.38616" lon="5.41984">
        <ele>547.59997558594</ele>
        <time>2017-02-12T12:03:55.000Z</time>
      </trkpt>
      <trkpt lat="43.38615" lon="5.41984">
        <ele>547.59997558594</ele>
        <time>2017-02-12T12:04:02.000Z</time>
      </trkpt>
      <trkpt lat="43.38614" lon="5.41984">
        <ele>547.59997558594</ele>
        <time>2017-02-12T12:04:10.000Z</time>
      </trkpt>
      <trkpt lat="43.38609" lon="5.41986">
        <ele>548.20001220703</ele>
        <time>2017-02-12T12:04:15.000Z</time>
      </trkpt>
      <trkpt lat="43.38605" lon="5.41988">
        <ele>548.79998779297</ele>
        <time>2017-02-12T12:04:19.000Z</time>
      </trkpt>
      <trkpt lat="43.38603" lon="5.41992">
        <ele>549.40002441406</ele>
        <time>2017-02-12T12:04:23.000Z</time>
      </trkpt>
      <trkpt lat="43.38602" lon="5.41993">
        <ele>549.20001220703</ele>
        <time>2017-02-12T12:04:24.000Z</time>
      </trkpt>
      <trkpt lat="43.38598" lon="5.42001">
        <ele>549</ele>
        <time>2017-02-12T12:04:31.000Z</time>
      </trkpt>
      <trkpt lat="43.38593" lon="5.42008">
        <ele>549.79998779297</ele>
        <time>2017-02-12T12:04:38.000Z</time>
      </trkpt>
      <trkpt lat="43.3859" lon="5.42014">
        <ele>550.40002441406</ele>
        <time>2017-02-12T12:04:43.000Z</time>
      </trkpt>
      <trkpt lat="43.38588" lon="5.42017">
        <ele>550.59997558594</ele>
        <time>2017-02-12T12:04:46.000Z</time>
      </trkpt>
      <trkpt lat="43.38585" lon="5.42021">
        <ele>551.40002441406</ele>
        <time>2017-02-12T12:04:50.000Z</time>
      </trkpt>
      <trkpt lat="43.38584" lon="5.42025">
        <ele>551.79998779297</ele>
        <time>2017-02-12T12:04:53.000Z</time>
      </trkpt>
      <trkpt lat="43.38582" lon="5.42033">
        <ele>551.40002441406</ele>
        <time>2017-02-12T12:04:59.000Z</time>
      </trkpt>
      <trkpt lat="43.38581" lon="5.42042">
        <ele>551.20001220703</ele>
        <time>2017-02-12T12:05:06.000Z</time>
      </trkpt>
      <trkpt lat="43.38581" lon="5.42043">
        <ele>551.40002441406</ele>
        <time>2017-02-12T12:05:07.000Z</time>
      </trkpt>
      <trkpt lat="43.38579" lon="5.42052">
        <ele>551.59997558594</ele>
        <time>2017-02-12T12:05:14.000Z</time>
      </trkpt>
      <trkpt lat="43.38578" lon="5.42062">
        <ele>551.59997558594</ele>
        <time>2017-02-12T12:05:22.000Z</time>
      </trkpt>
      <trkpt lat="43.38573" lon="5.4207">
        <ele>551.40002441406</ele>
        <time>2017-02-12T12:05:31.000Z</time>
      </trkpt>
      <trkpt lat="43.38571" lon="5.42078">
        <ele>552.20001220703</ele>
        <time>2017-02-12T12:05:37.000Z</time>
      </trkpt>
      <trkpt lat="43.38569" lon="5.42084">
        <ele>553</ele>
        <time>2017-02-12T12:05:41.000Z</time>
      </trkpt>
      <trkpt lat="43.38565" lon="5.42094">
        <ele>552.79998779297</ele>
        <time>2017-02-12T12:05:50.000Z</time>
      </trkpt>
      <trkpt lat="43.38563" lon="5.42102">
        <ele>553.40002441406</ele>
        <time>2017-02-12T12:05:57.000Z</time>
      </trkpt>
      <trkpt lat="43.38562" lon="5.42108">
        <ele>552.79998779297</ele>
        <time>2017-02-12T12:06:02.000Z</time>
      </trkpt>
      <trkpt lat="43.3856" lon="5.42115">
        <ele>554.40002441406</ele>
        <time>2017-02-12T12:06:08.000Z</time>
      </trkpt>
      <trkpt lat="43.3856" lon="5.42118">
        <ele>554.59997558594</ele>
        <time>2017-02-12T12:06:11.000Z</time>
      </trkpt>
      <trkpt lat="43.38556" lon="5.42128">
        <ele>554.20001220703</ele>
        <time>2017-02-12T12:06:21.000Z</time>
      </trkpt>
      <trkpt lat="43.38551" lon="5.42138">
        <ele>554.40002441406</ele>
        <time>2017-02-12T12:06:31.000Z</time>
      </trkpt>
      <trkpt lat="43.38548" lon="5.42151">
        <ele>555.20001220703</ele>
        <time>2017-02-12T12:06:41.000Z</time>
      </trkpt>
      <trkpt lat="43.38546" lon="5.42156">
        <ele>555.59997558594</ele>
        <time>2017-02-12T12:06:45.000Z</time>
      </trkpt>
      <trkpt lat="43.38546" lon="5.42165">
        <ele>556.20001220703</ele>
        <time>2017-02-12T12:06:52.000Z</time>
      </trkpt>
      <trkpt lat="43.38545" lon="5.42169">
        <ele>556.79998779297</ele>
        <time>2017-02-12T12:06:55.000Z</time>
      </trkpt>
      <trkpt lat="43.38543" lon="5.42176">
        <ele>557.79998779297</ele>
        <time>2017-02-12T12:07:01.000Z</time>
      </trkpt>
      <trkpt lat="43.38541" lon="5.42179">
        <ele>558</ele>
        <time>2017-02-12T12:07:04.000Z</time>
      </trkpt>
      <trkpt lat="43.38537" lon="5.42191">
        <ele>558</ele>
        <time>2017-02-12T12:07:14.000Z</time>
      </trkpt>
      <trkpt lat="43.38531" lon="5.42203">
        <ele>559</ele>
        <time>2017-02-12T12:07:24.000Z</time>
      </trkpt>
      <trkpt lat="43.3853" lon="5.42206">
        <ele>559.40002441406</ele>
        <time>2017-02-12T12:07:27.000Z</time>
      </trkpt>
      <trkpt lat="43.38525" lon="5.42214">
        <ele>560.40002441406</ele>
        <time>2017-02-12T12:07:35.000Z</time>
      </trkpt>
      <trkpt lat="43.38524" lon="5.42216">
        <ele>561.79998779297</ele>
        <time>2017-02-12T12:07:37.000Z</time>
      </trkpt>
      <trkpt lat="43.38523" lon="5.42218">
        <ele>562</ele>
        <time>2017-02-12T12:07:39.000Z</time>
      </trkpt>
      <trkpt lat="43.38521" lon="5.42223">
        <ele>560.59997558594</ele>
        <time>2017-02-12T12:07:44.000Z</time>
      </trkpt>
      <trkpt lat="43.38518" lon="5.4223">
        <ele>561.20001220703</ele>
        <time>2017-02-12T12:07:51.000Z</time>
      </trkpt>
      <trkpt lat="43.38518" lon="5.42232">
        <ele>561.59997558594</ele>
        <time>2017-02-12T12:07:53.000Z</time>
      </trkpt>
      <trkpt lat="43.38516" lon="5.42235">
        <ele>562.79998779297</ele>
        <time>2017-02-12T12:07:58.000Z</time>
      </trkpt>
      <trkpt lat="43.38513" lon="5.4224">
        <ele>563.79998779297</ele>
        <time>2017-02-12T12:08:04.000Z</time>
      </trkpt>
      <trkpt lat="43.38513" lon="5.42242">
        <ele>564.79998779297</ele>
        <time>2017-02-12T12:08:05.000Z</time>
      </trkpt>
      <trkpt lat="43.38513" lon="5.42243">
        <ele>565.20001220703</ele>
        <time>2017-02-12T12:08:06.000Z</time>
      </trkpt>
      <trkpt lat="43.38512" lon="5.42246">
        <ele>566.59997558594</ele>
        <time>2017-02-12T12:08:09.000Z</time>
      </trkpt>
      <trkpt lat="43.38511" lon="5.42249">
        <ele>567.79998779297</ele>
        <time>2017-02-12T12:08:12.000Z</time>
      </trkpt>
      <trkpt lat="43.3851" lon="5.4225">
        <ele>568.79998779297</ele>
        <time>2017-02-12T12:08:13.000Z</time>
      </trkpt>
      <trkpt lat="43.38508" lon="5.42254">
        <ele>569.40002441406</ele>
        <time>2017-02-12T12:08:17.000Z</time>
      </trkpt>
      <trkpt lat="43.38507" lon="5.42258">
        <ele>567.59997558594</ele>
        <time>2017-02-12T12:08:21.000Z</time>
      </trkpt>
      <trkpt lat="43.38505" lon="5.4226">
        <ele>566.59997558594</ele>
        <time>2017-02-12T12:08:24.000Z</time>
      </trkpt>
      <trkpt lat="43.38503" lon="5.42264">
        <ele>566.59997558594</ele>
        <time>2017-02-12T12:08:28.000Z</time>
      </trkpt>
      <trkpt lat="43.38502" lon="5.42269">
        <ele>567.59997558594</ele>
        <time>2017-02-12T12:08:32.000Z</time>
      </trkpt>
      <trkpt lat="43.38498" lon="5.42274">
        <ele>567.79998779297</ele>
        <time>2017-02-12T12:08:37.000Z</time>
      </trkpt>
      <trkpt lat="43.38495" lon="5.42282">
        <ele>568.79998779297</ele>
        <time>2017-02-12T12:08:45.000Z</time>
      </trkpt>
      <trkpt lat="43.38494" lon="5.42285">
        <ele>568.79998779297</ele>
        <time>2017-02-12T12:08:48.000Z</time>
      </trkpt>
      <trkpt lat="43.38488" lon="5.42298">
        <ele>569.79998779297</ele>
        <time>2017-02-12T12:09:00.000Z</time>
      </trkpt>
      <trkpt lat="43.38485" lon="5.42308">
        <ele>570.59997558594</ele>
        <time>2017-02-12T12:09:11.000Z</time>
      </trkpt>
      <trkpt lat="43.38485" lon="5.42309">
        <ele>571</ele>
        <time>2017-02-12T12:09:12.000Z</time>
      </trkpt>
      <trkpt lat="43.38485" lon="5.4231">
        <ele>572.40002441406</ele>
        <time>2017-02-12T12:09:15.000Z</time>
      </trkpt>
      <trkpt lat="43.38483" lon="5.42314">
        <ele>572</ele>
        <time>2017-02-12T12:09:21.000Z</time>
      </trkpt>
      <trkpt lat="43.38478" lon="5.42324">
        <ele>573.40002441406</ele>
        <time>2017-02-12T12:09:31.000Z</time>
      </trkpt>
      <trkpt lat="43.38477" lon="5.42328">
        <ele>573.79998779297</ele>
        <time>2017-02-12T12:09:34.000Z</time>
      </trkpt>
      <trkpt lat="43.38475" lon="5.42337">
        <ele>574.59997558594</ele>
        <time>2017-02-12T12:09:42.000Z</time>
      </trkpt>
      <trkpt lat="43.38474" lon="5.42341">
        <ele>574.79998779297</ele>
        <time>2017-02-12T12:09:46.000Z</time>
      </trkpt>
      <trkpt lat="43.38473" lon="5.42344">
        <ele>575</ele>
        <time>2017-02-12T12:09:50.000Z</time>
      </trkpt>
      <trkpt lat="43.38471" lon="5.4235">
        <ele>575.59997558594</ele>
        <time>2017-02-12T12:09:56.000Z</time>
      </trkpt>
      <trkpt lat="43.3847" lon="5.42352">
        <ele>575.59997558594</ele>
        <time>2017-02-12T12:09:58.000Z</time>
      </trkpt>
      <trkpt lat="43.38469" lon="5.42356">
        <ele>576.59997558594</ele>
        <time>2017-02-12T12:10:02.000Z</time>
      </trkpt>
      <trkpt lat="43.38467" lon="5.42362">
        <ele>577.59997558594</ele>
        <time>2017-02-12T12:10:09.000Z</time>
      </trkpt>
      <trkpt lat="43.38467" lon="5.42362">
        <ele>577.20001220703</ele>
        <time>2017-02-12T12:10:17.000Z</time>
      </trkpt>
      <trkpt lat="43.38461" lon="5.42373">
        <ele>577.40002441406</ele>
        <time>2017-02-12T12:10:28.000Z</time>
      </trkpt>
      <trkpt lat="43.3846" lon="5.42378">
        <ele>578</ele>
        <time>2017-02-12T12:10:33.000Z</time>
      </trkpt>
      <trkpt lat="43.38459" lon="5.42382">
        <ele>578.79998779297</ele>
        <time>2017-02-12T12:10:37.000Z</time>
      </trkpt>
      <trkpt lat="43.38459" lon="5.42385">
        <ele>579</ele>
        <time>2017-02-12T12:10:40.000Z</time>
      </trkpt>
      <trkpt lat="43.38459" lon="5.42391">
        <ele>580</ele>
        <time>2017-02-12T12:10:46.000Z</time>
      </trkpt>
      <trkpt lat="43.38458" lon="5.42392">
        <ele>580.20001220703</ele>
        <time>2017-02-12T12:10:47.000Z</time>
      </trkpt>
      <trkpt lat="43.38453" lon="5.42402">
        <ele>581.20001220703</ele>
        <time>2017-02-12T12:10:57.000Z</time>
      </trkpt>
      <trkpt lat="43.3845" lon="5.42407">
        <ele>580</ele>
        <time>2017-02-12T12:11:02.000Z</time>
      </trkpt>
      <trkpt lat="43.38447" lon="5.42409">
        <ele>578.79998779297</ele>
        <time>2017-02-12T12:11:05.000Z</time>
      </trkpt>
      <trkpt lat="43.38445" lon="5.42413">
        <ele>579.20001220703</ele>
        <time>2017-02-12T12:11:08.000Z</time>
      </trkpt>
      <trkpt lat="43.38441" lon="5.42419">
        <ele>579.79998779297</ele>
        <time>2017-02-12T12:11:15.000Z</time>
      </trkpt>
      <trkpt lat="43.38439" lon="5.42422">
        <ele>580.79998779297</ele>
        <time>2017-02-12T12:11:19.000Z</time>
      </trkpt>
      <trkpt lat="43.38436" lon="5.42425">
        <ele>581</ele>
        <time>2017-02-12T12:11:23.000Z</time>
      </trkpt>
      <trkpt lat="43.38433" lon="5.4243">
        <ele>581</ele>
        <time>2017-02-12T12:11:29.000Z</time>
      </trkpt>
      <trkpt lat="43.38431" lon="5.42434">
        <ele>581.79998779297</ele>
        <time>2017-02-12T12:11:35.000Z</time>
      </trkpt>
      <trkpt lat="43.38429" lon="5.42435">
        <ele>582</ele>
        <time>2017-02-12T12:11:38.000Z</time>
      </trkpt>
      <trkpt lat="43.38427" lon="5.42437">
        <ele>580.40002441406</ele>
        <time>2017-02-12T12:11:42.000Z</time>
      </trkpt>
      <trkpt lat="43.38427" lon="5.42437">
        <ele>580.20001220703</ele>
        <time>2017-02-12T12:11:47.000Z</time>
      </trkpt>
      <trkpt lat="43.38425" lon="5.42437">
        <ele>579.79998779297</ele>
        <time>2017-02-12T12:11:57.000Z</time>
      </trkpt>
      <trkpt lat="43.38424" lon="5.42438">
        <ele>579.20001220703</ele>
        <time>2017-02-12T12:12:00.000Z</time>
      </trkpt>
      <trkpt lat="43.38419" lon="5.42441">
        <ele>578.59997558594</ele>
        <time>2017-02-12T12:12:06.000Z</time>
      </trkpt>
      <trkpt lat="43.38416" lon="5.42442">
        <ele>578.20001220703</ele>
        <time>2017-02-12T12:12:13.000Z</time>
      </trkpt>
      <trkpt lat="43.38416" lon="5.42442">
        <ele>577.59997558594</ele>
        <time>2017-02-12T12:12:14.000Z</time>
      </trkpt>
      <trkpt lat="43.38417" lon="5.42442">
        <ele>577</ele>
        <time>2017-02-12T12:12:16.000Z</time>
      </trkpt>
      <trkpt lat="43.38417" lon="5.42442">
        <ele>577.79998779297</ele>
        <time>2017-02-12T12:12:26.000Z</time>
      </trkpt>
      <trkpt lat="43.38416" lon="5.42441">
        <ele>577.20001220703</ele>
        <time>2017-02-12T12:12:38.000Z</time>
      </trkpt>
      <trkpt lat="43.38409" lon="5.42442">
        <ele>575.79998779297</ele>
        <time>2017-02-12T12:12:45.000Z</time>
      </trkpt>
      <trkpt lat="43.38408" lon="5.42441">
        <ele>575.20001220703</ele>
        <time>2017-02-12T12:12:46.000Z</time>
      </trkpt>
      <trkpt lat="43.38407" lon="5.42442">
        <ele>574.40002441406</ele>
        <time>2017-02-12T12:12:47.000Z</time>
      </trkpt>
      <trkpt lat="43.38401" lon="5.42441">
        <ele>573.20001220703</ele>
        <time>2017-02-12T12:12:52.000Z</time>
      </trkpt>
      <trkpt lat="43.38396" lon="5.42442">
        <ele>572</ele>
        <time>2017-02-12T12:12:56.000Z</time>
      </trkpt>
      <trkpt lat="43.38391" lon="5.42442">
        <ele>571</ele>
        <time>2017-02-12T12:13:01.000Z</time>
      </trkpt>
      <trkpt lat="43.38389" lon="5.42442">
        <ele>571</ele>
        <time>2017-02-12T12:13:02.000Z</time>
      </trkpt>
      <trkpt lat="43.38385" lon="5.42442">
        <ele>572.59997558594</ele>
        <time>2017-02-12T12:13:08.000Z</time>
      </trkpt>
      <trkpt lat="43.3838" lon="5.42442">
        <ele>573.79998779297</ele>
        <time>2017-02-12T12:13:12.000Z</time>
      </trkpt>
      <trkpt lat="43.38378" lon="5.42442">
        <ele>574.79998779297</ele>
        <time>2017-02-12T12:13:15.000Z</time>
      </trkpt>
      <trkpt lat="43.38377" lon="5.42442">
        <ele>575</ele>
        <time>2017-02-12T12:13:16.000Z</time>
      </trkpt>
      <trkpt lat="43.38373" lon="5.42443">
        <ele>575.79998779297</ele>
        <time>2017-02-12T12:13:21.000Z</time>
      </trkpt>
      <trkpt lat="43.3837" lon="5.42442">
        <ele>577</ele>
        <time>2017-02-12T12:13:26.000Z</time>
      </trkpt>
      <trkpt lat="43.38369" lon="5.42442">
        <ele>577</ele>
        <time>2017-02-12T12:13:27.000Z</time>
      </trkpt>
      <trkpt lat="43.38365" lon="5.42438">
        <ele>575.79998779297</ele>
        <time>2017-02-12T12:13:32.000Z</time>
      </trkpt>
      <trkpt lat="43.38362" lon="5.42436">
        <ele>576</ele>
        <time>2017-02-12T12:13:36.000Z</time>
      </trkpt>
      <trkpt lat="43.38358" lon="5.42432">
        <ele>575.40002441406</ele>
        <time>2017-02-12T12:13:45.000Z</time>
      </trkpt>
      <trkpt lat="43.38357" lon="5.42432">
        <ele>574.79998779297</ele>
        <time>2017-02-12T12:13:49.000Z</time>
      </trkpt>
      <trkpt lat="43.38356" lon="5.42432">
        <ele>575.40002441406</ele>
        <time>2017-02-12T12:14:01.000Z</time>
      </trkpt>
      <trkpt lat="43.38354" lon="5.42429">
        <ele>575.40002441406</ele>
        <time>2017-02-12T12:14:12.000Z</time>
      </trkpt>
      <trkpt lat="43.38349" lon="5.42421">
        <ele>574.79998779297</ele>
        <time>2017-02-12T12:14:22.000Z</time>
      </trkpt>
      <trkpt lat="43.38343" lon="5.42412">
        <ele>574.20001220703</ele>
        <time>2017-02-12T12:14:32.000Z</time>
      </trkpt>
      <trkpt lat="43.3834" lon="5.42407">
        <ele>573.59997558594</ele>
        <time>2017-02-12T12:14:38.000Z</time>
      </trkpt>
      <trkpt lat="43.38338" lon="5.42406">
        <ele>573</ele>
        <time>2017-02-12T12:14:41.000Z</time>
      </trkpt>
      <trkpt lat="43.38333" lon="5.42399">
        <ele>573</ele>
        <time>2017-02-12T12:14:50.000Z</time>
      </trkpt>
      <trkpt lat="43.3833" lon="5.42391">
        <ele>572.59997558594</ele>
        <time>2017-02-12T12:14:57.000Z</time>
      </trkpt>
      <trkpt lat="43.38327" lon="5.42386">
        <ele>571.59997558594</ele>
        <time>2017-02-12T12:15:02.000Z</time>
      </trkpt>
      <trkpt lat="43.38321" lon="5.4238">
        <ele>571.40002441406</ele>
        <time>2017-02-12T12:15:10.000Z</time>
      </trkpt>
      <trkpt lat="43.38319" lon="5.42377">
        <ele>571</ele>
        <time>2017-02-12T12:15:13.000Z</time>
      </trkpt>
      <trkpt lat="43.38318" lon="5.42375">
        <ele>570.40002441406</ele>
        <time>2017-02-12T12:15:15.000Z</time>
      </trkpt>
      <trkpt lat="43.38313" lon="5.42367">
        <ele>569.79998779297</ele>
        <time>2017-02-12T12:15:24.000Z</time>
      </trkpt>
      <trkpt lat="43.38312" lon="5.42364">
        <ele>570</ele>
        <time>2017-02-12T12:15:34.000Z</time>
      </trkpt>
      <trkpt lat="43.38311" lon="5.42361">
        <ele>570.20001220703</ele>
        <time>2017-02-12T12:15:37.000Z</time>
      </trkpt>
      <trkpt lat="43.38309" lon="5.42358">
        <ele>570.20001220703</ele>
        <time>2017-02-12T12:15:40.000Z</time>
      </trkpt>
      <trkpt lat="43.38302" lon="5.42352">
        <ele>570.59997558594</ele>
        <time>2017-02-12T12:15:48.000Z</time>
      </trkpt>
      <trkpt lat="43.38294" lon="5.42349">
        <ele>570.20001220703</ele>
        <time>2017-02-12T12:15:57.000Z</time>
      </trkpt>
      <trkpt lat="43.3829" lon="5.4235">
        <ele>570.79998779297</ele>
        <time>2017-02-12T12:16:05.000Z</time>
      </trkpt>
      <trkpt lat="43.3829" lon="5.42351">
        <ele>571.40002441406</ele>
        <time>2017-02-12T12:16:10.000Z</time>
      </trkpt>
      <trkpt lat="43.3829" lon="5.42351">
        <ele>570.79998779297</ele>
        <time>2017-02-12T12:16:15.000Z</time>
      </trkpt>
      <trkpt lat="43.3829" lon="5.4235">
        <ele>570.40002441406</ele>
        <time>2017-02-12T12:16:19.000Z</time>
      </trkpt>
      <trkpt lat="43.3829" lon="5.4235">
        <ele>570.59997558594</ele>
        <time>2017-02-12T12:16:23.000Z</time>
      </trkpt>
      <trkpt lat="43.3829" lon="5.4235">
        <ele>571.59997558594</ele>
        <time>2017-02-12T12:16:25.000Z</time>
      </trkpt>
      <trkpt lat="43.3829" lon="5.4235">
        <ele>572.59997558594</ele>
        <time>2017-02-12T12:16:28.000Z</time>
      </trkpt>
      <trkpt lat="43.3829" lon="5.4235">
        <ele>573.40002441406</ele>
        <time>2017-02-12T12:16:32.000Z</time>
      </trkpt>
      <trkpt lat="43.38292" lon="5.42348">
        <ele>571.40002441406</ele>
        <time>2017-02-12T12:16:37.000Z</time>
      </trkpt>
      <trkpt lat="43.38292" lon="5.42348">
        <ele>570.40002441406</ele>
        <time>2017-02-12T12:16:39.000Z</time>
      </trkpt>
      <trkpt lat="43.38293" lon="5.42348">
        <ele>570</ele>
        <time>2017-02-12T12:16:40.000Z</time>
      </trkpt>
      <trkpt lat="43.38295" lon="5.42348">
        <ele>569.20001220703</ele>
        <time>2017-02-12T12:16:42.000Z</time>
      </trkpt>
      <trkpt lat="43.383" lon="5.4235">
        <ele>570</ele>
        <time>2017-02-12T12:16:49.000Z</time>
      </trkpt>
      <trkpt lat="43.38302" lon="5.42351">
        <ele>570</ele>
        <time>2017-02-12T12:16:55.000Z</time>
      </trkpt>
      <trkpt lat="43.38303" lon="5.42352">
        <ele>570.20001220703</ele>
        <time>2017-02-12T12:16:57.000Z</time>
      </trkpt>
      <trkpt lat="43.38305" lon="5.42353">
        <ele>570.79998779297</ele>
        <time>2017-02-12T12:17:03.000Z</time>
      </trkpt>
      <trkpt lat="43.38305" lon="5.42354">
        <ele>569.79998779297</ele>
        <time>2017-02-12T12:17:11.000Z</time>
      </trkpt>
      <trkpt lat="43.38301" lon="5.42353">
        <ele>570</ele>
        <time>2017-02-12T12:17:17.000Z</time>
      </trkpt>
      <trkpt lat="43.38296" lon="5.42354">
        <ele>571.59997558594</ele>
        <time>2017-02-12T12:17:21.000Z</time>
      </trkpt>
      <trkpt lat="43.38294" lon="5.42356">
        <ele>572.20001220703</ele>
        <time>2017-02-12T12:17:24.000Z</time>
      </trkpt>
      <trkpt lat="43.38294" lon="5.42359">
        <ele>571.59997558594</ele>
        <time>2017-02-12T12:17:31.000Z</time>
      </trkpt>
      <trkpt lat="43.38293" lon="5.42359">
        <ele>570.79998779297</ele>
        <time>2017-02-12T12:17:39.000Z</time>
      </trkpt>
      <trkpt lat="43.38294" lon="5.42359">
        <ele>571.20001220703</ele>
        <time>2017-02-12T12:17:49.000Z</time>
      </trkpt>
      <trkpt lat="43.38294" lon="5.4236">
        <ele>570.40002441406</ele>
        <time>2017-02-12T12:17:53.000Z</time>
      </trkpt>
      <trkpt lat="43.38294" lon="5.4236">
        <ele>571</ele>
        <time>2017-02-12T12:17:57.000Z</time>
      </trkpt>
      <trkpt lat="43.38294" lon="5.42359">
        <ele>571.79998779297</ele>
        <time>2017-02-12T12:17:59.000Z</time>
      </trkpt>
      <trkpt lat="43.38294" lon="5.4236">
        <ele>573</ele>
        <time>2017-02-12T12:18:04.000Z</time>
      </trkpt>
      <trkpt lat="43.38294" lon="5.4236">
        <ele>572.59997558594</ele>
        <time>2017-02-12T12:18:06.000Z</time>
      </trkpt>
      <trkpt lat="43.38294" lon="5.4236">
        <ele>574</ele>
        <time>2017-02-12T12:18:13.000Z</time>
      </trkpt>
      <trkpt lat="43.38294" lon="5.4236">
        <ele>573.40002441406</ele>
        <time>2017-02-12T12:18:16.000Z</time>
      </trkpt>
      <trkpt lat="43.38294" lon="5.4236">
        <ele>572.79998779297</ele>
        <time>2017-02-12T12:18:18.000Z</time>
      </trkpt>
      <trkpt lat="43.38294" lon="5.42359">
        <ele>571.59997558594</ele>
        <time>2017-02-12T12:18:25.000Z</time>
      </trkpt>
      <trkpt lat="43.38294" lon="5.42359">
        <ele>571.59997558594</ele>
        <time>2017-02-12T12:18:26.000Z</time>
      </trkpt>
      <trkpt lat="43.38294" lon="5.42358">
        <ele>571.59997558594</ele>
        <time>2017-02-12T12:18:27.000Z</time>
      </trkpt>
      <trkpt lat="43.38295" lon="5.42353">
        <ele>570.40002441406</ele>
        <time>2017-02-12T12:18:30.000Z</time>
      </trkpt>
      <trkpt lat="43.38296" lon="5.42352">
        <ele>570</ele>
        <time>2017-02-12T12:18:31.000Z</time>
      </trkpt>
      <trkpt lat="43.383" lon="5.4235">
        <ele>569.20001220703</ele>
        <time>2017-02-12T12:18:34.000Z</time>
      </trkpt>
      <trkpt lat="43.38303" lon="5.42351">
        <ele>569.40002441406</ele>
        <time>2017-02-12T12:18:36.000Z</time>
      </trkpt>
      <trkpt lat="43.38307" lon="5.42353">
        <ele>570.40002441406</ele>
        <time>2017-02-12T12:18:41.000Z</time>
      </trkpt>
      <trkpt lat="43.38307" lon="5.42354">
        <ele>570.59997558594</ele>
        <time>2017-02-12T12:18:42.000Z</time>
      </trkpt>
      <trkpt lat="43.38307" lon="5.42355">
        <ele>570.59997558594</ele>
        <time>2017-02-12T12:18:51.000Z</time>
      </trkpt>
      <trkpt lat="43.38307" lon="5.42354">
        <ele>569.20001220703</ele>
        <time>2017-02-12T12:18:55.000Z</time>
      </trkpt>
      <trkpt lat="43.38307" lon="5.42355">
        <ele>568.79998779297</ele>
        <time>2017-02-12T12:19:02.000Z</time>
      </trkpt>
      <trkpt lat="43.38307" lon="5.42354">
        <ele>569.40002441406</ele>
        <time>2017-02-12T12:19:14.000Z</time>
      </trkpt>
      <trkpt lat="43.38307" lon="5.42354">
        <ele>569.59997558594</ele>
        <time>2017-02-12T12:19:30.000Z</time>
      </trkpt>
      <trkpt lat="43.38307" lon="5.42355">
        <ele>569.20001220703</ele>
        <time>2017-02-12T12:19:40.000Z</time>
      </trkpt>
      <trkpt lat="43.38307" lon="5.42355">
        <ele>568.20001220703</ele>
        <time>2017-02-12T12:20:02.000Z</time>
      </trkpt>
      <trkpt lat="43.38307" lon="5.42355">
        <ele>569</ele>
        <time>2017-02-12T12:20:06.000Z</time>
      </trkpt>
      <trkpt lat="43.38307" lon="5.42363">
        <ele>572.59997558594</ele>
        <time>2017-02-12T12:38:08.000Z</time>
      </trkpt>
      <trkpt lat="43.38309" lon="5.42364">
        <ele>572</ele>
        <time>2017-02-12T12:38:12.000Z</time>
      </trkpt>
      <trkpt lat="43.3831" lon="5.42365">
        <ele>572</ele>
        <time>2017-02-12T12:38:13.000Z</time>
      </trkpt>
      <trkpt lat="43.38314" lon="5.42373">
        <ele>572.59997558594</ele>
        <time>2017-02-12T12:38:19.000Z</time>
      </trkpt>
      <trkpt lat="43.38319" lon="5.42379">
        <ele>572.79998779297</ele>
        <time>2017-02-12T12:38:24.000Z</time>
      </trkpt>
      <trkpt lat="43.38321" lon="5.4238">
        <ele>573</ele>
        <time>2017-02-12T12:38:25.000Z</time>
      </trkpt>
      <trkpt lat="43.38324" lon="5.42383">
        <ele>573.79998779297</ele>
        <time>2017-02-12T12:38:28.000Z</time>
      </trkpt>
      <trkpt lat="43.38327" lon="5.42388">
        <ele>573.79998779297</ele>
        <time>2017-02-12T12:38:33.000Z</time>
      </trkpt>
      <trkpt lat="43.38331" lon="5.42396">
        <ele>574.40002441406</ele>
        <time>2017-02-12T12:38:45.000Z</time>
      </trkpt>
      <trkpt lat="43.38331" lon="5.42399">
        <ele>575</ele>
        <time>2017-02-12T12:38:50.000Z</time>
      </trkpt>
      <trkpt lat="43.38333" lon="5.42404">
        <ele>575.59997558594</ele>
        <time>2017-02-12T12:38:54.000Z</time>
      </trkpt>
      <trkpt lat="43.38334" lon="5.42405">
        <ele>576</ele>
        <time>2017-02-12T12:38:57.000Z</time>
      </trkpt>
      <trkpt lat="43.38335" lon="5.42407">
        <ele>576.20001220703</ele>
        <time>2017-02-12T12:38:59.000Z</time>
      </trkpt>
      <trkpt lat="43.38342" lon="5.42415">
        <ele>576</ele>
        <time>2017-02-12T12:39:10.000Z</time>
      </trkpt>
      <trkpt lat="43.38344" lon="5.42418">
        <ele>575.79998779297</ele>
        <time>2017-02-12T12:39:19.000Z</time>
      </trkpt>
      <trkpt lat="43.38347" lon="5.42423">
        <ele>577.20001220703</ele>
        <time>2017-02-12T12:39:27.000Z</time>
      </trkpt>
      <trkpt lat="43.38348" lon="5.42424">
        <ele>577.20001220703</ele>
        <time>2017-02-12T12:39:28.000Z</time>
      </trkpt>
      <trkpt lat="43.38354" lon="5.42433">
        <ele>577.79998779297</ele>
        <time>2017-02-12T12:39:37.000Z</time>
      </trkpt>
      <trkpt lat="43.38355" lon="5.42434">
        <ele>578.79998779297</ele>
        <time>2017-02-12T12:39:39.000Z</time>
      </trkpt>
      <trkpt lat="43.38358" lon="5.42436">
        <ele>579.79998779297</ele>
        <time>2017-02-12T12:39:41.000Z</time>
      </trkpt>
      <trkpt lat="43.38365" lon="5.4244">
        <ele>580.59997558594</ele>
        <time>2017-02-12T12:39:47.000Z</time>
      </trkpt>
      <trkpt lat="43.3837" lon="5.42444">
        <ele>580</ele>
        <time>2017-02-12T12:39:56.000Z</time>
      </trkpt>
      <trkpt lat="43.38375" lon="5.42445">
        <ele>579.59997558594</ele>
        <time>2017-02-12T12:40:05.000Z</time>
      </trkpt>
      <trkpt lat="43.38377" lon="5.42446">
        <ele>579</ele>
        <time>2017-02-12T12:40:10.000Z</time>
      </trkpt>
      <trkpt lat="43.38379" lon="5.42447">
        <ele>577.79998779297</ele>
        <time>2017-02-12T12:40:14.000Z</time>
      </trkpt>
      <trkpt lat="43.3838" lon="5.42448">
        <ele>577.40002441406</ele>
        <time>2017-02-12T12:40:17.000Z</time>
      </trkpt>
      <trkpt lat="43.38385" lon="5.42447">
        <ele>576.59997558594</ele>
        <time>2017-02-12T12:40:27.000Z</time>
      </trkpt>
      <trkpt lat="43.38386" lon="5.42447">
        <ele>576.40002441406</ele>
        <time>2017-02-12T12:40:28.000Z</time>
      </trkpt>
      <trkpt lat="43.38388" lon="5.42447">
        <ele>575.40002441406</ele>
        <time>2017-02-12T12:40:31.000Z</time>
      </trkpt>
      <trkpt lat="43.38394" lon="5.42447">
        <ele>575.20001220703</ele>
        <time>2017-02-12T12:40:38.000Z</time>
      </trkpt>
      <trkpt lat="43.38401" lon="5.42447">
        <ele>576</ele>
        <time>2017-02-12T12:40:47.000Z</time>
      </trkpt>
      <trkpt lat="43.38403" lon="5.42448">
        <ele>576.79998779297</ele>
        <time>2017-02-12T12:40:50.000Z</time>
      </trkpt>
      <trkpt lat="43.38406" lon="5.42448">
        <ele>578</ele>
        <time>2017-02-12T12:40:56.000Z</time>
      </trkpt>
      <trkpt lat="43.38408" lon="5.4245">
        <ele>578.20001220703</ele>
        <time>2017-02-12T12:40:58.000Z</time>
      </trkpt>
      <trkpt lat="43.38411" lon="5.42451">
        <ele>579</ele>
        <time>2017-02-12T12:41:03.000Z</time>
      </trkpt>
      <trkpt lat="43.38414" lon="5.4245">
        <ele>578.59997558594</ele>
        <time>2017-02-12T12:41:09.000Z</time>
      </trkpt>
      <trkpt lat="43.38418" lon="5.42448">
        <ele>580.40002441406</ele>
        <time>2017-02-12T12:41:13.000Z</time>
      </trkpt>
      <trkpt lat="43.3842" lon="5.42444">
        <ele>580</ele>
        <time>2017-02-12T12:41:17.000Z</time>
      </trkpt>
      <trkpt lat="43.38428" lon="5.42442">
        <ele>581.40002441406</ele>
        <time>2017-02-12T12:41:26.000Z</time>
      </trkpt>
      <trkpt lat="43.38435" lon="5.42434">
        <ele>582.40002441406</ele>
        <time>2017-02-12T12:41:36.000Z</time>
      </trkpt>
      <trkpt lat="43.38436" lon="5.42431">
        <ele>583.59997558594</ele>
        <time>2017-02-12T12:41:39.000Z</time>
      </trkpt>
      <trkpt lat="43.38438" lon="5.42427">
        <ele>582.59997558594</ele>
        <time>2017-02-12T12:41:44.000Z</time>
      </trkpt>
      <trkpt lat="43.38439" lon="5.42425">
        <ele>582.79998779297</ele>
        <time>2017-02-12T12:41:47.000Z</time>
      </trkpt>
      <trkpt lat="43.38444" lon="5.42413">
        <ele>583</ele>
        <time>2017-02-12T12:41:58.000Z</time>
      </trkpt>
      <trkpt lat="43.38451" lon="5.42403">
        <ele>581.79998779297</ele>
        <time>2017-02-12T12:42:09.000Z</time>
      </trkpt>
      <trkpt lat="43.38452" lon="5.42402">
        <ele>581</ele>
        <time>2017-02-12T12:42:11.000Z</time>
      </trkpt>
      <trkpt lat="43.38452" lon="5.42402">
        <ele>580.79998779297</ele>
        <time>2017-02-12T12:42:12.000Z</time>
      </trkpt>
      <trkpt lat="43.38453" lon="5.42393">
        <ele>581.79998779297</ele>
        <time>2017-02-12T12:42:21.000Z</time>
      </trkpt>
      <trkpt lat="43.38457" lon="5.42382">
        <ele>581.59997558594</ele>
        <time>2017-02-12T12:42:31.000Z</time>
      </trkpt>
      <trkpt lat="43.38461" lon="5.42372">
        <ele>580.59997558594</ele>
        <time>2017-02-12T12:42:40.000Z</time>
      </trkpt>
      <trkpt lat="43.38463" lon="5.42369">
        <ele>579.40002441406</ele>
        <time>2017-02-12T12:42:44.000Z</time>
      </trkpt>
      <trkpt lat="43.38466" lon="5.42359">
        <ele>579.20001220703</ele>
        <time>2017-02-12T12:42:52.000Z</time>
      </trkpt>
      <trkpt lat="43.3847" lon="5.42347">
        <ele>578.20001220703</ele>
        <time>2017-02-12T12:43:02.000Z</time>
      </trkpt>
      <trkpt lat="43.38471" lon="5.42341">
        <ele>577.20001220703</ele>
        <time>2017-02-12T12:43:06.000Z</time>
      </trkpt>
      <trkpt lat="43.38474" lon="5.42334">
        <ele>576</ele>
        <time>2017-02-12T12:43:12.000Z</time>
      </trkpt>
      <trkpt lat="43.38474" lon="5.42332">
        <ele>575.59997558594</ele>
        <time>2017-02-12T12:43:14.000Z</time>
      </trkpt>
      <trkpt lat="43.38475" lon="5.42328">
        <ele>574.79998779297</ele>
        <time>2017-02-12T12:43:17.000Z</time>
      </trkpt>
      <trkpt lat="43.38478" lon="5.42324">
        <ele>574.79998779297</ele>
        <time>2017-02-12T12:43:21.000Z</time>
      </trkpt>
      <trkpt lat="43.38478" lon="5.42322">
        <ele>574.59997558594</ele>
        <time>2017-02-12T12:43:22.000Z</time>
      </trkpt>
      <trkpt lat="43.3848" lon="5.42317">
        <ele>574.20001220703</ele>
        <time>2017-02-12T12:43:27.000Z</time>
      </trkpt>
      <trkpt lat="43.38482" lon="5.42311">
        <ele>574.40002441406</ele>
        <time>2017-02-12T12:43:32.000Z</time>
      </trkpt>
      <trkpt lat="43.38483" lon="5.4231">
        <ele>574.40002441406</ele>
        <time>2017-02-12T12:43:33.000Z</time>
      </trkpt>
      <trkpt lat="43.38484" lon="5.42308">
        <ele>574.40002441406</ele>
        <time>2017-02-12T12:43:35.000Z</time>
      </trkpt>
      <trkpt lat="43.38486" lon="5.42302">
        <ele>574.79998779297</ele>
        <time>2017-02-12T12:43:40.000Z</time>
      </trkpt>
      <trkpt lat="43.38488" lon="5.42298">
        <ele>574.79998779297</ele>
        <time>2017-02-12T12:43:43.000Z</time>
      </trkpt>
      <trkpt lat="43.3849" lon="5.42295">
        <ele>574.79998779297</ele>
        <time>2017-02-12T12:43:46.000Z</time>
      </trkpt>
      <trkpt lat="43.38494" lon="5.42288">
        <ele>574</ele>
        <time>2017-02-12T12:43:53.000Z</time>
      </trkpt>
      <trkpt lat="43.38495" lon="5.42286">
        <ele>573.59997558594</ele>
        <time>2017-02-12T12:43:55.000Z</time>
      </trkpt>
      <trkpt lat="43.38497" lon="5.42281">
        <ele>572.20001220703</ele>
        <time>2017-02-12T12:43:59.000Z</time>
      </trkpt>
      <trkpt lat="43.38498" lon="5.42279">
        <ele>571.79998779297</ele>
        <time>2017-02-12T12:44:01.000Z</time>
      </trkpt>
      <trkpt lat="43.38503" lon="5.42271">
        <ele>572</ele>
        <time>2017-02-12T12:44:09.000Z</time>
      </trkpt>
      <trkpt lat="43.38506" lon="5.42264">
        <ele>571.79998779297</ele>
        <time>2017-02-12T12:44:16.000Z</time>
      </trkpt>
      <trkpt lat="43.38506" lon="5.42263">
        <ele>571.79998779297</ele>
        <time>2017-02-12T12:44:17.000Z</time>
      </trkpt>
      <trkpt lat="43.38507" lon="5.42259">
        <ele>571</ele>
        <time>2017-02-12T12:44:22.000Z</time>
      </trkpt>
      <trkpt lat="43.3851" lon="5.42252">
        <ele>571</ele>
        <time>2017-02-12T12:44:29.000Z</time>
      </trkpt>
      <trkpt lat="43.38511" lon="5.4225">
        <ele>570.59997558594</ele>
        <time>2017-02-12T12:44:31.000Z</time>
      </trkpt>
      <trkpt lat="43.38512" lon="5.42246">
        <ele>570.20001220703</ele>
        <time>2017-02-12T12:44:35.000Z</time>
      </trkpt>
      <trkpt lat="43.38513" lon="5.42245">
        <ele>569.79998779297</ele>
        <time>2017-02-12T12:44:36.000Z</time>
      </trkpt>
      <trkpt lat="43.38514" lon="5.42241">
        <ele>568.79998779297</ele>
        <time>2017-02-12T12:44:40.000Z</time>
      </trkpt>
      <trkpt lat="43.38516" lon="5.42238">
        <ele>568.20001220703</ele>
        <time>2017-02-12T12:44:43.000Z</time>
      </trkpt>
      <trkpt lat="43.38516" lon="5.42235">
        <ele>567.79998779297</ele>
        <time>2017-02-12T12:44:45.000Z</time>
      </trkpt>
      <trkpt lat="43.38517" lon="5.42232">
        <ele>567.20001220703</ele>
        <time>2017-02-12T12:44:49.000Z</time>
      </trkpt>
      <trkpt lat="43.38521" lon="5.42222">
        <ele>566.79998779297</ele>
        <time>2017-02-12T12:44:58.000Z</time>
      </trkpt>
      <trkpt lat="43.38522" lon="5.4222">
        <ele>566.59997558594</ele>
        <time>2017-02-12T12:45:00.000Z</time>
      </trkpt>
      <trkpt lat="43.38523" lon="5.42216">
        <ele>565.40002441406</ele>
        <time>2017-02-12T12:45:04.000Z</time>
      </trkpt>
      <trkpt lat="43.38525" lon="5.42213">
        <ele>564.79998779297</ele>
        <time>2017-02-12T12:45:07.000Z</time>
      </trkpt>
      <trkpt lat="43.38531" lon="5.42203">
        <ele>564.40002441406</ele>
        <time>2017-02-12T12:45:17.000Z</time>
      </trkpt>
      <trkpt lat="43.38532" lon="5.42202">
        <ele>564.40002441406</ele>
        <time>2017-02-12T12:45:18.000Z</time>
      </trkpt>
      <trkpt lat="43.38536" lon="5.42195">
        <ele>563</ele>
        <time>2017-02-12T12:45:25.000Z</time>
      </trkpt>
      <trkpt lat="43.38537" lon="5.42194">
        <ele>562.59997558594</ele>
        <time>2017-02-12T12:45:26.000Z</time>
      </trkpt>
      <trkpt lat="43.38538" lon="5.42192">
        <ele>561.79998779297</ele>
        <time>2017-02-12T12:45:28.000Z</time>
      </trkpt>
      <trkpt lat="43.38541" lon="5.42181">
        <ele>561.79998779297</ele>
        <time>2017-02-12T12:45:37.000Z</time>
      </trkpt>
      <trkpt lat="43.38543" lon="5.42173">
        <ele>560.79998779297</ele>
        <time>2017-02-12T12:45:44.000Z</time>
      </trkpt>
      <trkpt lat="43.38544" lon="5.42168">
        <ele>559.79998779297</ele>
        <time>2017-02-12T12:45:48.000Z</time>
      </trkpt>
      <trkpt lat="43.38544" lon="5.42165">
        <ele>558.59997558594</ele>
        <time>2017-02-12T12:45:51.000Z</time>
      </trkpt>
      <trkpt lat="43.38546" lon="5.42157">
        <ele>557.79998779297</ele>
        <time>2017-02-12T12:45:58.000Z</time>
      </trkpt>
      <trkpt lat="43.38551" lon="5.42147">
        <ele>557.59997558594</ele>
        <time>2017-02-12T12:46:08.000Z</time>
      </trkpt>
      <trkpt lat="43.38555" lon="5.42137">
        <ele>557.59997558594</ele>
        <time>2017-02-12T12:46:18.000Z</time>
      </trkpt>
      <trkpt lat="43.38556" lon="5.42135">
        <ele>557.59997558594</ele>
        <time>2017-02-12T12:46:19.000Z</time>
      </trkpt>
      <trkpt lat="43.38559" lon="5.42127">
        <ele>556.40002441406</ele>
        <time>2017-02-12T12:46:28.000Z</time>
      </trkpt>
      <trkpt lat="43.3856" lon="5.42125">
        <ele>556.40002441406</ele>
        <time>2017-02-12T12:46:29.000Z</time>
      </trkpt>
      <trkpt lat="43.38564" lon="5.42113">
        <ele>556.79998779297</ele>
        <time>2017-02-12T12:46:40.000Z</time>
      </trkpt>
      <trkpt lat="43.38566" lon="5.42099">
        <ele>555.59997558594</ele>
        <time>2017-02-12T12:46:51.000Z</time>
      </trkpt>
      <trkpt lat="43.38571" lon="5.42085">
        <ele>556.40002441406</ele>
        <time>2017-02-12T12:47:02.000Z</time>
      </trkpt>
      <trkpt lat="43.38573" lon="5.4208">
        <ele>555.40002441406</ele>
        <time>2017-02-12T12:47:06.000Z</time>
      </trkpt>
      <trkpt lat="43.38574" lon="5.42075">
        <ele>554.40002441406</ele>
        <time>2017-02-12T12:47:10.000Z</time>
      </trkpt>
      <trkpt lat="43.38575" lon="5.4207">
        <ele>553.40002441406</ele>
        <time>2017-02-12T12:47:14.000Z</time>
      </trkpt>
      <trkpt lat="43.38575" lon="5.42069">
        <ele>553.40002441406</ele>
        <time>2017-02-12T12:47:15.000Z</time>
      </trkpt>
      <trkpt lat="43.38576" lon="5.42058">
        <ele>553.59997558594</ele>
        <time>2017-02-12T12:47:24.000Z</time>
      </trkpt>
      <trkpt lat="43.38578" lon="5.42052">
        <ele>554.40002441406</ele>
        <time>2017-02-12T12:47:28.000Z</time>
      </trkpt>
      <trkpt lat="43.38579" lon="5.42047">
        <ele>555</ele>
        <time>2017-02-12T12:47:32.000Z</time>
      </trkpt>
      <trkpt lat="43.38579" lon="5.42045">
        <ele>555</ele>
        <time>2017-02-12T12:47:33.000Z</time>
      </trkpt>
      <trkpt lat="43.38581" lon="5.42039">
        <ele>554.59997558594</ele>
        <time>2017-02-12T12:47:37.000Z</time>
      </trkpt>
      <trkpt lat="43.38584" lon="5.42027">
        <ele>554.59997558594</ele>
        <time>2017-02-12T12:47:48.000Z</time>
      </trkpt>
      <trkpt lat="43.38589" lon="5.42013">
        <ele>555</ele>
        <time>2017-02-12T12:47:59.000Z</time>
      </trkpt>
      <trkpt lat="43.38593" lon="5.42006">
        <ele>553.59997558594</ele>
        <time>2017-02-12T12:48:06.000Z</time>
      </trkpt>
      <trkpt lat="43.38595" lon="5.42003">
        <ele>553.20001220703</ele>
        <time>2017-02-12T12:48:09.000Z</time>
      </trkpt>
      <trkpt lat="43.38595" lon="5.42">
        <ele>552.40002441406</ele>
        <time>2017-02-12T12:48:11.000Z</time>
      </trkpt>
      <trkpt lat="43.38596" lon="5.41997">
        <ele>552</ele>
        <time>2017-02-12T12:48:13.000Z</time>
      </trkpt>
      <trkpt lat="43.38601" lon="5.4199">
        <ele>551.79998779297</ele>
        <time>2017-02-12T12:48:21.000Z</time>
      </trkpt>
      <trkpt lat="43.38606" lon="5.41985">
        <ele>551.79998779297</ele>
        <time>2017-02-12T12:48:26.000Z</time>
      </trkpt>
      <trkpt lat="43.38608" lon="5.4198">
        <ele>551.20001220703</ele>
        <time>2017-02-12T12:48:29.000Z</time>
      </trkpt>
      <trkpt lat="43.3861" lon="5.41978">
        <ele>551.20001220703</ele>
        <time>2017-02-12T12:48:32.000Z</time>
      </trkpt>
      <trkpt lat="43.38616" lon="5.41971">
        <ele>551.20001220703</ele>
        <time>2017-02-12T12:48:39.000Z</time>
      </trkpt>
      <trkpt lat="43.38618" lon="5.41968">
        <ele>551.40002441406</ele>
        <time>2017-02-12T12:48:42.000Z</time>
      </trkpt>
      <trkpt lat="43.38621" lon="5.41964">
        <ele>551.79998779297</ele>
        <time>2017-02-12T12:48:46.000Z</time>
      </trkpt>
      <trkpt lat="43.38625" lon="5.41959">
        <ele>552</ele>
        <time>2017-02-12T12:48:52.000Z</time>
      </trkpt>
      <trkpt lat="43.38628" lon="5.41956">
        <ele>552</ele>
        <time>2017-02-12T12:48:55.000Z</time>
      </trkpt>
      <trkpt lat="43.38628" lon="5.41956">
        <ele>551.79998779297</ele>
        <time>2017-02-12T12:48:56.000Z</time>
      </trkpt>
      <trkpt lat="43.38633" lon="5.41949">
        <ele>551.59997558594</ele>
        <time>2017-02-12T12:49:04.000Z</time>
      </trkpt>
      <trkpt lat="43.38636" lon="5.41944">
        <ele>551.20001220703</ele>
        <time>2017-02-12T12:49:12.000Z</time>
      </trkpt>
      <trkpt lat="43.38635" lon="5.41944">
        <ele>552.59997558594</ele>
        <time>2017-02-12T12:49:21.000Z</time>
      </trkpt>
      <trkpt lat="43.38635" lon="5.41944">
        <ele>552.79998779297</ele>
        <time>2017-02-12T12:49:25.000Z</time>
      </trkpt>
      <trkpt lat="43.38636" lon="5.41943">
        <ele>553</ele>
        <time>2017-02-12T12:49:36.000Z</time>
      </trkpt>
      <trkpt lat="43.38642" lon="5.41934">
        <ele>553</ele>
        <time>2017-02-12T12:49:46.000Z</time>
      </trkpt>
      <trkpt lat="43.38646" lon="5.41928">
        <ele>552.40002441406</ele>
        <time>2017-02-12T12:49:53.000Z</time>
      </trkpt>
      <trkpt lat="43.38653" lon="5.41918">
        <ele>551.79998779297</ele>
        <time>2017-02-12T12:50:04.000Z</time>
      </trkpt>
      <trkpt lat="43.38656" lon="5.41915">
        <ele>551.79998779297</ele>
        <time>2017-02-12T12:50:07.000Z</time>
      </trkpt>
      <trkpt lat="43.38661" lon="5.41909">
        <ele>551.79998779297</ele>
        <time>2017-02-12T12:50:15.000Z</time>
      </trkpt>
      <trkpt lat="43.38667" lon="5.41898">
        <ele>551</ele>
        <time>2017-02-12T12:50:25.000Z</time>
      </trkpt>
      <trkpt lat="43.38669" lon="5.41896">
        <ele>550.59997558594</ele>
        <time>2017-02-12T12:50:28.000Z</time>
      </trkpt>
      <trkpt lat="43.38673" lon="5.41889">
        <ele>551.59997558594</ele>
        <time>2017-02-12T12:50:36.000Z</time>
      </trkpt>
      <trkpt lat="43.38675" lon="5.41887">
        <ele>551.79998779297</ele>
        <time>2017-02-12T12:50:37.000Z</time>
      </trkpt>
      <trkpt lat="43.38686" lon="5.41872">
        <ele>551.20001220703</ele>
        <time>2017-02-12T12:50:51.000Z</time>
      </trkpt>
      <trkpt lat="43.38688" lon="5.4187">
        <ele>550.79998779297</ele>
        <time>2017-02-12T12:50:53.000Z</time>
      </trkpt>
      <trkpt lat="43.38691" lon="5.41866">
        <ele>549.79998779297</ele>
        <time>2017-02-12T12:50:57.000Z</time>
      </trkpt>
      <trkpt lat="43.38696" lon="5.4186">
        <ele>549.79998779297</ele>
        <time>2017-02-12T12:51:04.000Z</time>
      </trkpt>
      <trkpt lat="43.38705" lon="5.41845">
        <ele>550.59997558594</ele>
        <time>2017-02-12T12:51:20.000Z</time>
      </trkpt>
      <trkpt lat="43.38711" lon="5.41838">
        <ele>549</ele>
        <time>2017-02-12T12:51:29.000Z</time>
      </trkpt>
      <trkpt lat="43.38715" lon="5.41834">
        <ele>548.79998779297</ele>
        <time>2017-02-12T12:51:33.000Z</time>
      </trkpt>
      <trkpt lat="43.38723" lon="5.41824">
        <ele>549.79998779297</ele>
        <time>2017-02-12T12:51:44.000Z</time>
      </trkpt>
      <trkpt lat="43.38726" lon="5.41819">
        <ele>548.40002441406</ele>
        <time>2017-02-12T12:51:51.000Z</time>
      </trkpt>
      <trkpt lat="43.38727" lon="5.41817">
        <ele>548</ele>
        <time>2017-02-12T12:51:54.000Z</time>
      </trkpt>
      <trkpt lat="43.38729" lon="5.41815">
        <ele>547.20001220703</ele>
        <time>2017-02-12T12:51:57.000Z</time>
      </trkpt>
      <trkpt lat="43.38732" lon="5.4181">
        <ele>546.20001220703</ele>
        <time>2017-02-12T12:52:02.000Z</time>
      </trkpt>
      <trkpt lat="43.38739" lon="5.41804">
        <ele>545.79998779297</ele>
        <time>2017-02-12T12:52:09.000Z</time>
      </trkpt>
      <trkpt lat="43.38744" lon="5.41798">
        <ele>547.40002441406</ele>
        <time>2017-02-12T12:52:16.000Z</time>
      </trkpt>
      <trkpt lat="43.38747" lon="5.41795">
        <ele>547.79998779297</ele>
        <time>2017-02-12T12:52:20.000Z</time>
      </trkpt>
      <trkpt lat="43.38752" lon="5.41787">
        <ele>547.59997558594</ele>
        <time>2017-02-12T12:52:30.000Z</time>
      </trkpt>
      <trkpt lat="43.38758" lon="5.41782">
        <ele>546.40002441406</ele>
        <time>2017-02-12T12:52:35.000Z</time>
      </trkpt>
      <trkpt lat="43.38762" lon="5.41778">
        <ele>545.79998779297</ele>
        <time>2017-02-12T12:52:40.000Z</time>
      </trkpt>
      <trkpt lat="43.38763" lon="5.41776">
        <ele>545.20001220703</ele>
        <time>2017-02-12T12:52:42.000Z</time>
      </trkpt>
      <trkpt lat="43.38766" lon="5.41772">
        <ele>545.20001220703</ele>
        <time>2017-02-12T12:52:47.000Z</time>
      </trkpt>
      <trkpt lat="43.38777" lon="5.4176">
        <ele>544.59997558594</ele>
        <time>2017-02-12T12:52:59.000Z</time>
      </trkpt>
      <trkpt lat="43.38785" lon="5.41752">
        <ele>545</ele>
        <time>2017-02-12T12:53:09.000Z</time>
      </trkpt>
      <trkpt lat="43.38793" lon="5.41746">
        <ele>544.59997558594</ele>
        <time>2017-02-12T12:53:17.000Z</time>
      </trkpt>
      <trkpt lat="43.38793" lon="5.41745">
        <ele>544.40002441406</ele>
        <time>2017-02-12T12:53:18.000Z</time>
      </trkpt>
      <trkpt lat="43.388" lon="5.41739">
        <ele>545.59997558594</ele>
        <time>2017-02-12T12:53:25.000Z</time>
      </trkpt>
      <trkpt lat="43.38801" lon="5.41738">
        <ele>545.59997558594</ele>
        <time>2017-02-12T12:53:26.000Z</time>
      </trkpt>
      <trkpt lat="43.38802" lon="5.41736">
        <ele>545.59997558594</ele>
        <time>2017-02-12T12:53:28.000Z</time>
      </trkpt>
      <trkpt lat="43.38804" lon="5.41732">
        <ele>545.20001220703</ele>
        <time>2017-02-12T12:53:32.000Z</time>
      </trkpt>
      <trkpt lat="43.38809" lon="5.41719">
        <ele>545</ele>
        <time>2017-02-12T12:53:42.000Z</time>
      </trkpt>
      <trkpt lat="43.3881" lon="5.41717">
        <ele>545</ele>
        <time>2017-02-12T12:53:43.000Z</time>
      </trkpt>
      <trkpt lat="43.38812" lon="5.4171">
        <ele>545</ele>
        <time>2017-02-12T12:53:50.000Z</time>
      </trkpt>
      <trkpt lat="43.38812" lon="5.41709">
        <ele>544.59997558594</ele>
        <time>2017-02-12T12:53:51.000Z</time>
      </trkpt>
      <trkpt lat="43.38813" lon="5.41702">
        <ele>543.79998779297</ele>
        <time>2017-02-12T12:53:56.000Z</time>
      </trkpt>
      <trkpt lat="43.38814" lon="5.41699">
        <ele>543.59997558594</ele>
        <time>2017-02-12T12:53:58.000Z</time>
      </trkpt>
      <trkpt lat="43.38814" lon="5.41694">
        <ele>544.40002441406</ele>
        <time>2017-02-12T12:54:03.000Z</time>
      </trkpt>
      <trkpt lat="43.38815" lon="5.41691">
        <ele>544.79998779297</ele>
        <time>2017-02-12T12:54:05.000Z</time>
      </trkpt>
      <trkpt lat="43.38817" lon="5.41682">
        <ele>545.79998779297</ele>
        <time>2017-02-12T12:54:12.000Z</time>
      </trkpt>
      <trkpt lat="43.38818" lon="5.41677">
        <ele>545.20001220703</ele>
        <time>2017-02-12T12:54:16.000Z</time>
      </trkpt>
      <trkpt lat="43.38819" lon="5.41676">
        <ele>544.59997558594</ele>
        <time>2017-02-12T12:54:17.000Z</time>
      </trkpt>
      <trkpt lat="43.3882" lon="5.41668">
        <ele>543.79998779297</ele>
        <time>2017-02-12T12:54:23.000Z</time>
      </trkpt>
      <trkpt lat="43.3882" lon="5.41665">
        <ele>543.40002441406</ele>
        <time>2017-02-12T12:54:25.000Z</time>
      </trkpt>
      <trkpt lat="43.3882" lon="5.4166">
        <ele>543</ele>
        <time>2017-02-12T12:54:29.000Z</time>
      </trkpt>
      <trkpt lat="43.38819" lon="5.41655">
        <ele>543.20001220703</ele>
        <time>2017-02-12T12:54:33.000Z</time>
      </trkpt>
      <trkpt lat="43.38821" lon="5.41644">
        <ele>544.40002441406</ele>
        <time>2017-02-12T12:54:42.000Z</time>
      </trkpt>
      <trkpt lat="43.38823" lon="5.41636">
        <ele>544</ele>
        <time>2017-02-12T12:54:48.000Z</time>
      </trkpt>
      <trkpt lat="43.38823" lon="5.41633">
        <ele>543.59997558594</ele>
        <time>2017-02-12T12:54:50.000Z</time>
      </trkpt>
      <trkpt lat="43.38823" lon="5.4163">
        <ele>543.40002441406</ele>
        <time>2017-02-12T12:54:52.000Z</time>
      </trkpt>
      <trkpt lat="43.38825" lon="5.41626">
        <ele>543.20001220703</ele>
        <time>2017-02-12T12:54:55.000Z</time>
      </trkpt>
      <trkpt lat="43.38824" lon="5.41624">
        <ele>542.79998779297</ele>
        <time>2017-02-12T12:54:58.000Z</time>
      </trkpt>
      <trkpt lat="43.38824" lon="5.41617">
        <ele>543.79998779297</ele>
        <time>2017-02-12T12:55:03.000Z</time>
      </trkpt>
      <trkpt lat="43.38824" lon="5.41615">
        <ele>544</ele>
        <time>2017-02-12T12:55:04.000Z</time>
      </trkpt>
      <trkpt lat="43.38825" lon="5.41608">
        <ele>543.79998779297</ele>
        <time>2017-02-12T12:55:10.000Z</time>
      </trkpt>
      <trkpt lat="43.38827" lon="5.41599">
        <ele>543.59997558594</ele>
        <time>2017-02-12T12:55:17.000Z</time>
      </trkpt>
      <trkpt lat="43.38829" lon="5.41596">
        <ele>542.79998779297</ele>
        <time>2017-02-12T12:55:19.000Z</time>
      </trkpt>
      <trkpt lat="43.38831" lon="5.41593">
        <ele>541.59997558594</ele>
        <time>2017-02-12T12:55:23.000Z</time>
      </trkpt>
      <trkpt lat="43.38831" lon="5.41592">
        <ele>541.20001220703</ele>
        <time>2017-02-12T12:55:24.000Z</time>
      </trkpt>
      <trkpt lat="43.38832" lon="5.41589">
        <ele>541</ele>
        <time>2017-02-12T12:55:25.000Z</time>
      </trkpt>
      <trkpt lat="43.38833" lon="5.41589">
        <ele>541</ele>
        <time>2017-02-12T12:55:27.000Z</time>
      </trkpt>
      <trkpt lat="43.38836" lon="5.41583">
        <ele>541.59997558594</ele>
        <time>2017-02-12T12:55:31.000Z</time>
      </trkpt>
      <trkpt lat="43.38836" lon="5.41583">
        <ele>541.79998779297</ele>
        <time>2017-02-12T12:55:32.000Z</time>
      </trkpt>
      <trkpt lat="43.38838" lon="5.4158">
        <ele>541.59997558594</ele>
        <time>2017-02-12T12:55:35.000Z</time>
      </trkpt>
      <trkpt lat="43.3884" lon="5.41576">
        <ele>542</ele>
        <time>2017-02-12T12:55:39.000Z</time>
      </trkpt>
      <trkpt lat="43.38841" lon="5.41573">
        <ele>542.79998779297</ele>
        <time>2017-02-12T12:55:41.000Z</time>
      </trkpt>
      <trkpt lat="43.38843" lon="5.41568">
        <ele>541.59997558594</ele>
        <time>2017-02-12T12:55:45.000Z</time>
      </trkpt>
      <trkpt lat="43.38844" lon="5.41566">
        <ele>540.40002441406</ele>
        <time>2017-02-12T12:55:47.000Z</time>
      </trkpt>
      <trkpt lat="43.38848" lon="5.4156">
        <ele>540.40002441406</ele>
        <time>2017-02-12T12:55:52.000Z</time>
      </trkpt>
      <trkpt lat="43.3885" lon="5.41555">
        <ele>540.59997558594</ele>
        <time>2017-02-12T12:55:55.000Z</time>
      </trkpt>
      <trkpt lat="43.38852" lon="5.4155">
        <ele>541.20001220703</ele>
        <time>2017-02-12T12:55:59.000Z</time>
      </trkpt>
      <trkpt lat="43.38853" lon="5.41546">
        <ele>541</ele>
        <time>2017-02-12T12:56:03.000Z</time>
      </trkpt>
      <trkpt lat="43.38857" lon="5.41537">
        <ele>540.40002441406</ele>
        <time>2017-02-12T12:56:10.000Z</time>
      </trkpt>
      <trkpt lat="43.38859" lon="5.41531">
        <ele>539.79998779297</ele>
        <time>2017-02-12T12:56:15.000Z</time>
      </trkpt>
      <trkpt lat="43.3886" lon="5.41527">
        <ele>540</ele>
        <time>2017-02-12T12:56:18.000Z</time>
      </trkpt>
      <trkpt lat="43.3886" lon="5.41524">
        <ele>539.40002441406</ele>
        <time>2017-02-12T12:56:22.000Z</time>
      </trkpt>
      <trkpt lat="43.3886" lon="5.41521">
        <ele>538.59997558594</ele>
        <time>2017-02-12T12:56:24.000Z</time>
      </trkpt>
      <trkpt lat="43.3886" lon="5.41508">
        <ele>539.40002441406</ele>
        <time>2017-02-12T12:56:33.000Z</time>
      </trkpt>
      <trkpt lat="43.3886" lon="5.415">
        <ele>540.59997558594</ele>
        <time>2017-02-12T12:56:37.000Z</time>
      </trkpt>
      <trkpt lat="43.38859" lon="5.41496">
        <ele>540</ele>
        <time>2017-02-12T12:56:41.000Z</time>
      </trkpt>
      <trkpt lat="43.38855" lon="5.41485">
        <ele>539.40002441406</ele>
        <time>2017-02-12T12:56:51.000Z</time>
      </trkpt>
      <trkpt lat="43.38855" lon="5.41484">
        <ele>539</ele>
        <time>2017-02-12T12:56:52.000Z</time>
      </trkpt>
      <trkpt lat="43.3885" lon="5.41475">
        <ele>538.79998779297</ele>
        <time>2017-02-12T12:57:00.000Z</time>
      </trkpt>
      <trkpt lat="43.38848" lon="5.41473">
        <ele>538.20001220703</ele>
        <time>2017-02-12T12:57:02.000Z</time>
      </trkpt>
      <trkpt lat="43.38847" lon="5.41469">
        <ele>537</ele>
        <time>2017-02-12T12:57:05.000Z</time>
      </trkpt>
      <trkpt lat="43.38845" lon="5.41465">
        <ele>536.79998779297</ele>
        <time>2017-02-12T12:57:07.000Z</time>
      </trkpt>
      <trkpt lat="43.3884" lon="5.41456">
        <ele>537</ele>
        <time>2017-02-12T12:57:17.000Z</time>
      </trkpt>
      <trkpt lat="43.38835" lon="5.41448">
        <ele>537</ele>
        <time>2017-02-12T12:57:24.000Z</time>
      </trkpt>
      <trkpt lat="43.38831" lon="5.41435">
        <ele>536.40002441406</ele>
        <time>2017-02-12T12:57:34.000Z</time>
      </trkpt>
      <trkpt lat="43.38831" lon="5.41434">
        <ele>536.40002441406</ele>
        <time>2017-02-12T12:57:35.000Z</time>
      </trkpt>
      <trkpt lat="43.38829" lon="5.41427">
        <ele>536.59997558594</ele>
        <time>2017-02-12T12:57:40.000Z</time>
      </trkpt>
      <trkpt lat="43.38826" lon="5.41412">
        <ele>536.79998779297</ele>
        <time>2017-02-12T12:57:50.000Z</time>
      </trkpt>
      <trkpt lat="43.38826" lon="5.41402">
        <ele>536.40002441406</ele>
        <time>2017-02-12T12:57:58.000Z</time>
      </trkpt>
      <trkpt lat="43.38825" lon="5.41397">
        <ele>536.20001220703</ele>
        <time>2017-02-12T12:58:01.000Z</time>
      </trkpt>
      <trkpt lat="43.38825" lon="5.41396">
        <ele>536.20001220703</ele>
        <time>2017-02-12T12:58:02.000Z</time>
      </trkpt>
      <trkpt lat="43.38825" lon="5.4139">
        <ele>536</ele>
        <time>2017-02-12T12:58:06.000Z</time>
      </trkpt>
      <trkpt lat="43.38825" lon="5.41379">
        <ele>536.40002441406</ele>
        <time>2017-02-12T12:58:15.000Z</time>
      </trkpt>
      <trkpt lat="43.38825" lon="5.41367">
        <ele>535.59997558594</ele>
        <time>2017-02-12T12:58:24.000Z</time>
      </trkpt>
      <trkpt lat="43.38824" lon="5.41361">
        <ele>535.20001220703</ele>
        <time>2017-02-12T12:58:28.000Z</time>
      </trkpt>
      <trkpt lat="43.38823" lon="5.41357">
        <ele>534.79998779297</ele>
        <time>2017-02-12T12:58:31.000Z</time>
      </trkpt>
      <trkpt lat="43.38822" lon="5.41355">
        <ele>534.40002441406</ele>
        <time>2017-02-12T12:58:33.000Z</time>
      </trkpt>
      <trkpt lat="43.38821" lon="5.41351">
        <ele>534.20001220703</ele>
        <time>2017-02-12T12:58:35.000Z</time>
      </trkpt>
      <trkpt lat="43.38819" lon="5.41347">
        <ele>533.40002441406</ele>
        <time>2017-02-12T12:58:40.000Z</time>
      </trkpt>
      <trkpt lat="43.38818" lon="5.41346">
        <ele>533.40002441406</ele>
        <time>2017-02-12T12:58:41.000Z</time>
      </trkpt>
      <trkpt lat="43.38813" lon="5.4134">
        <ele>533.59997558594</ele>
        <time>2017-02-12T12:58:46.000Z</time>
      </trkpt>
      <trkpt lat="43.38813" lon="5.4134">
        <ele>533.59997558594</ele>
        <time>2017-02-12T12:58:47.000Z</time>
      </trkpt>
      <trkpt lat="43.38812" lon="5.41339">
        <ele>533.20001220703</ele>
        <time>2017-02-12T12:58:48.000Z</time>
      </trkpt>
      <trkpt lat="43.3881" lon="5.41339">
        <ele>533</ele>
        <time>2017-02-12T12:58:49.000Z</time>
      </trkpt>
      <trkpt lat="43.38807" lon="5.41336">
        <ele>532.40002441406</ele>
        <time>2017-02-12T12:58:54.000Z</time>
      </trkpt>
      <trkpt lat="43.388" lon="5.41333">
        <ele>534</ele>
        <time>2017-02-12T12:59:01.000Z</time>
      </trkpt>
      <trkpt lat="43.38799" lon="5.41333">
        <ele>533.79998779297</ele>
        <time>2017-02-12T12:59:03.000Z</time>
      </trkpt>
      <trkpt lat="43.38793" lon="5.41333">
        <ele>534</ele>
        <time>2017-02-12T12:59:09.000Z</time>
      </trkpt>
      <trkpt lat="43.38783" lon="5.41335">
        <ele>532.59997558594</ele>
        <time>2017-02-12T12:59:16.000Z</time>
      </trkpt>
      <trkpt lat="43.38773" lon="5.41336">
        <ele>532</ele>
        <time>2017-02-12T12:59:28.000Z</time>
      </trkpt>
      <trkpt lat="43.38772" lon="5.41335">
        <ele>531.79998779297</ele>
        <time>2017-02-12T12:59:30.000Z</time>
      </trkpt>
      <trkpt lat="43.38764" lon="5.41333">
        <ele>532.20001220703</ele>
        <time>2017-02-12T12:59:38.000Z</time>
      </trkpt>
      <trkpt lat="43.38757" lon="5.41328">
        <ele>532</ele>
        <time>2017-02-12T12:59:46.000Z</time>
      </trkpt>
      <trkpt lat="43.38755" lon="5.41326">
        <ele>531.79998779297</ele>
        <time>2017-02-12T12:59:48.000Z</time>
      </trkpt>
      <trkpt lat="43.38751" lon="5.4132">
        <ele>531.79998779297</ele>
        <time>2017-02-12T12:59:54.000Z</time>
      </trkpt>
      <trkpt lat="43.38746" lon="5.41314">
        <ele>532.40002441406</ele>
        <time>2017-02-12T13:00:01.000Z</time>
      </trkpt>
      <trkpt lat="43.38742" lon="5.41309">
        <ele>531.40002441406</ele>
        <time>2017-02-12T13:00:08.000Z</time>
      </trkpt>
      <trkpt lat="43.3874" lon="5.41307">
        <ele>531.20001220703</ele>
        <time>2017-02-12T13:00:11.000Z</time>
      </trkpt>
      <trkpt lat="43.38733" lon="5.41299">
        <ele>531.59997558594</ele>
        <time>2017-02-12T13:00:18.000Z</time>
      </trkpt>
      <trkpt lat="43.38725" lon="5.41294">
        <ele>530.79998779297</ele>
        <time>2017-02-12T13:00:26.000Z</time>
      </trkpt>
      <trkpt lat="43.38723" lon="5.41293">
        <ele>530</ele>
        <time>2017-02-12T13:00:29.000Z</time>
      </trkpt>
      <trkpt lat="43.3872" lon="5.4129">
        <ele>529.79998779297</ele>
        <time>2017-02-12T13:00:32.000Z</time>
      </trkpt>
      <trkpt lat="43.38718" lon="5.41289">
        <ele>529.59997558594</ele>
        <time>2017-02-12T13:00:34.000Z</time>
      </trkpt>
      <trkpt lat="43.38717" lon="5.41288">
        <ele>529.40002441406</ele>
        <time>2017-02-12T13:00:35.000Z</time>
      </trkpt>
      <trkpt lat="43.38714" lon="5.41287">
        <ele>529</ele>
        <time>2017-02-12T13:00:38.000Z</time>
      </trkpt>
      <trkpt lat="43.38712" lon="5.41286">
        <ele>528.59997558594</ele>
        <time>2017-02-12T13:00:41.000Z</time>
      </trkpt>
      <trkpt lat="43.38707" lon="5.41283">
        <ele>529.79998779297</ele>
        <time>2017-02-12T13:00:46.000Z</time>
      </trkpt>
      <trkpt lat="43.38707" lon="5.41283">
        <ele>530.20001220703</ele>
        <time>2017-02-12T13:00:47.000Z</time>
      </trkpt>
      <trkpt lat="43.38704" lon="5.41282">
        <ele>530.59997558594</ele>
        <time>2017-02-12T13:00:49.000Z</time>
      </trkpt>
      <trkpt lat="43.38697" lon="5.4128">
        <ele>530</ele>
        <time>2017-02-12T13:00:57.000Z</time>
      </trkpt>
      <trkpt lat="43.38691" lon="5.41278">
        <ele>530.59997558594</ele>
        <time>2017-02-12T13:01:04.000Z</time>
      </trkpt>
      <trkpt lat="43.38681" lon="5.41275">
        <ele>530.20001220703</ele>
        <time>2017-02-12T13:01:15.000Z</time>
      </trkpt>
      <trkpt lat="43.3868" lon="5.41274">
        <ele>530</ele>
        <time>2017-02-12T13:01:16.000Z</time>
      </trkpt>
      <trkpt lat="43.38674" lon="5.41271">
        <ele>530.20001220703</ele>
        <time>2017-02-12T13:01:22.000Z</time>
      </trkpt>
      <trkpt lat="43.38667" lon="5.41266">
        <ele>530.20001220703</ele>
        <time>2017-02-12T13:01:33.000Z</time>
      </trkpt>
      <trkpt lat="43.38663" lon="5.41257">
        <ele>530.40002441406</ele>
        <time>2017-02-12T13:01:38.000Z</time>
      </trkpt>
      <trkpt lat="43.38661" lon="5.41254">
        <ele>530.20001220703</ele>
        <time>2017-02-12T13:01:40.000Z</time>
      </trkpt>
      <trkpt lat="43.38659" lon="5.41249">
        <ele>529.40002441406</ele>
        <time>2017-02-12T13:01:45.000Z</time>
      </trkpt>
      <trkpt lat="43.38657" lon="5.41242">
        <ele>529.20001220703</ele>
        <time>2017-02-12T13:01:50.000Z</time>
      </trkpt>
      <trkpt lat="43.38654" lon="5.41227">
        <ele>528.59997558594</ele>
        <time>2017-02-12T13:02:01.000Z</time>
      </trkpt>
      <trkpt lat="43.38653" lon="5.41217">
        <ele>528.79998779297</ele>
        <time>2017-02-12T13:02:08.000Z</time>
      </trkpt>
      <trkpt lat="43.38653" lon="5.41212">
        <ele>528.79998779297</ele>
        <time>2017-02-12T13:02:12.000Z</time>
      </trkpt>
      <trkpt lat="43.38653" lon="5.41209">
        <ele>528.59997558594</ele>
        <time>2017-02-12T13:02:15.000Z</time>
      </trkpt>
      <trkpt lat="43.38653" lon="5.412">
        <ele>528.20001220703</ele>
        <time>2017-02-12T13:02:20.000Z</time>
      </trkpt>
      <trkpt lat="43.38653" lon="5.41187">
        <ele>529</ele>
        <time>2017-02-12T13:02:30.000Z</time>
      </trkpt>
      <trkpt lat="43.38653" lon="5.41185">
        <ele>529.79998779297</ele>
        <time>2017-02-12T13:02:32.000Z</time>
      </trkpt>
      <trkpt lat="43.38652" lon="5.41179">
        <ele>529.79998779297</ele>
        <time>2017-02-12T13:02:36.000Z</time>
      </trkpt>
      <trkpt lat="43.38652" lon="5.41176">
        <ele>529.40002441406</ele>
        <time>2017-02-12T13:02:38.000Z</time>
      </trkpt>
      <trkpt lat="43.38651" lon="5.41168">
        <ele>528.79998779297</ele>
        <time>2017-02-12T13:02:43.000Z</time>
      </trkpt>
      <trkpt lat="43.38651" lon="5.41164">
        <ele>528.40002441406</ele>
        <time>2017-02-12T13:02:46.000Z</time>
      </trkpt>
      <trkpt lat="43.38649" lon="5.41156">
        <ele>527.59997558594</ele>
        <time>2017-02-12T13:02:52.000Z</time>
      </trkpt>
      <trkpt lat="43.38648" lon="5.41153">
        <ele>527.59997558594</ele>
        <time>2017-02-12T13:02:54.000Z</time>
      </trkpt>
      <trkpt lat="43.38647" lon="5.41146">
        <ele>527.20001220703</ele>
        <time>2017-02-12T13:03:00.000Z</time>
      </trkpt>
      <trkpt lat="43.38645" lon="5.41141">
        <ele>526.40002441406</ele>
        <time>2017-02-12T13:03:05.000Z</time>
      </trkpt>
      <trkpt lat="43.38645" lon="5.41136">
        <ele>525.79998779297</ele>
        <time>2017-02-12T13:03:07.000Z</time>
      </trkpt>
      <trkpt lat="43.38644" lon="5.41135">
        <ele>525.20001220703</ele>
        <time>2017-02-12T13:03:09.000Z</time>
      </trkpt>
      <trkpt lat="43.3864" lon="5.41125">
        <ele>525.20001220703</ele>
        <time>2017-02-12T13:03:16.000Z</time>
      </trkpt>
      <trkpt lat="43.38637" lon="5.41119">
        <ele>526.40002441406</ele>
        <time>2017-02-12T13:03:22.000Z</time>
      </trkpt>
      <trkpt lat="43.38635" lon="5.41117">
        <ele>527.40002441406</ele>
        <time>2017-02-12T13:03:24.000Z</time>
      </trkpt>
      <trkpt lat="43.38635" lon="5.41116">
        <ele>527.59997558594</ele>
        <time>2017-02-12T13:03:25.000Z</time>
      </trkpt>
      <trkpt lat="43.38633" lon="5.41113">
        <ele>528.20001220703</ele>
        <time>2017-02-12T13:03:28.000Z</time>
      </trkpt>
      <trkpt lat="43.38632" lon="5.41112">
        <ele>528.40002441406</ele>
        <time>2017-02-12T13:03:29.000Z</time>
      </trkpt>
      <trkpt lat="43.3863" lon="5.41109">
        <ele>528.59997558594</ele>
        <time>2017-02-12T13:03:32.000Z</time>
      </trkpt>
      <trkpt lat="43.38628" lon="5.41107">
        <ele>528.20001220703</ele>
        <time>2017-02-12T13:03:35.000Z</time>
      </trkpt>
      <trkpt lat="43.38623" lon="5.41103">
        <ele>527.79998779297</ele>
        <time>2017-02-12T13:03:41.000Z</time>
      </trkpt>
      <trkpt lat="43.3862" lon="5.41101">
        <ele>528.20001220703</ele>
        <time>2017-02-12T13:03:48.000Z</time>
      </trkpt>
      <trkpt lat="43.3862" lon="5.411">
        <ele>528.20001220703</ele>
        <time>2017-02-12T13:03:58.000Z</time>
      </trkpt>
      <trkpt lat="43.38614" lon="5.41096">
        <ele>526.79998779297</ele>
        <time>2017-02-12T13:04:07.000Z</time>
      </trkpt>
      <trkpt lat="43.38603" lon="5.4109">
        <ele>526.79998779297</ele>
        <time>2017-02-12T13:04:19.000Z</time>
      </trkpt>
      <trkpt lat="43.38593" lon="5.41087">
        <ele>526.59997558594</ele>
        <time>2017-02-12T13:04:32.000Z</time>
      </trkpt>
      <trkpt lat="43.38593" lon="5.41087">
        <ele>525.59997558594</ele>
        <time>2017-02-12T13:04:43.000Z</time>
      </trkpt>
      <trkpt lat="43.38592" lon="5.41087">
        <ele>525.59997558594</ele>
        <time>2017-02-12T13:04:44.000Z</time>
      </trkpt>
      <trkpt lat="43.38587" lon="5.41086">
        <ele>525.79998779297</ele>
        <time>2017-02-12T13:04:50.000Z</time>
      </trkpt>
      <trkpt lat="43.38582" lon="5.41084">
        <ele>524.59997558594</ele>
        <time>2017-02-12T13:04:57.000Z</time>
      </trkpt>
      <trkpt lat="43.38579" lon="5.41084">
        <ele>524.59997558594</ele>
        <time>2017-02-12T13:05:00.000Z</time>
      </trkpt>
      <trkpt lat="43.38576" lon="5.41084">
        <ele>525.79998779297</ele>
        <time>2017-02-12T13:05:04.000Z</time>
      </trkpt>
      <trkpt lat="43.3857" lon="5.41083">
        <ele>526.20001220703</ele>
        <time>2017-02-12T13:05:11.000Z</time>
      </trkpt>
      <trkpt lat="43.38561" lon="5.41083">
        <ele>525.20001220703</ele>
        <time>2017-02-12T13:05:19.000Z</time>
      </trkpt>
      <trkpt lat="43.38554" lon="5.41082">
        <ele>526.20001220703</ele>
        <time>2017-02-12T13:05:27.000Z</time>
      </trkpt>
      <trkpt lat="43.38542" lon="5.41081">
        <ele>525.40002441406</ele>
        <time>2017-02-12T13:05:36.000Z</time>
      </trkpt>
      <trkpt lat="43.38535" lon="5.41081">
        <ele>527</ele>
        <time>2017-02-12T13:05:42.000Z</time>
      </trkpt>
      <trkpt lat="43.38534" lon="5.41081">
        <ele>527</ele>
        <time>2017-02-12T13:05:43.000Z</time>
      </trkpt>
      <trkpt lat="43.38524" lon="5.41081">
        <ele>526.40002441406</ele>
        <time>2017-02-12T13:05:52.000Z</time>
      </trkpt>
      <trkpt lat="43.38524" lon="5.41081">
        <ele>525.59997558594</ele>
        <time>2017-02-12T13:05:53.000Z</time>
      </trkpt>
      <trkpt lat="43.38521" lon="5.4108">
        <ele>524.59997558594</ele>
        <time>2017-02-12T13:05:55.000Z</time>
      </trkpt>
      <trkpt lat="43.38516" lon="5.4108">
        <ele>525.59997558594</ele>
        <time>2017-02-12T13:06:00.000Z</time>
      </trkpt>
      <trkpt lat="43.38514" lon="5.4108">
        <ele>526</ele>
        <time>2017-02-12T13:06:01.000Z</time>
      </trkpt>
      <trkpt lat="43.38511" lon="5.4108">
        <ele>527</ele>
        <time>2017-02-12T13:06:04.000Z</time>
      </trkpt>
      <trkpt lat="43.38507" lon="5.4108">
        <ele>527.79998779297</ele>
        <time>2017-02-12T13:06:08.000Z</time>
      </trkpt>
      <trkpt lat="43.38507" lon="5.4108">
        <ele>528</ele>
        <time>2017-02-12T13:06:09.000Z</time>
      </trkpt>
      <trkpt lat="43.38505" lon="5.41079">
        <ele>528</ele>
        <time>2017-02-12T13:06:10.000Z</time>
      </trkpt>
      <trkpt lat="43.38495" lon="5.41077">
        <ele>527</ele>
        <time>2017-02-12T13:06:19.000Z</time>
      </trkpt>
      <trkpt lat="43.38494" lon="5.41077">
        <ele>526.79998779297</ele>
        <time>2017-02-12T13:06:20.000Z</time>
      </trkpt>
      <trkpt lat="43.38484" lon="5.41074">
        <ele>526.79998779297</ele>
        <time>2017-02-12T13:06:30.000Z</time>
      </trkpt>
      <trkpt lat="43.38476" lon="5.41069">
        <ele>528</ele>
        <time>2017-02-12T13:06:38.000Z</time>
      </trkpt>
      <trkpt lat="43.38471" lon="5.41068">
        <ele>528.20001220703</ele>
        <time>2017-02-12T13:06:45.000Z</time>
      </trkpt>
      <trkpt lat="43.38467" lon="5.41067">
        <ele>528</ele>
        <time>2017-02-12T13:06:48.000Z</time>
      </trkpt>
      <trkpt lat="43.38458" lon="5.41065">
        <ele>529.40002441406</ele>
        <time>2017-02-12T13:06:56.000Z</time>
      </trkpt>
      <trkpt lat="43.38457" lon="5.41065">
        <ele>529.59997558594</ele>
        <time>2017-02-12T13:06:57.000Z</time>
      </trkpt>
      <trkpt lat="43.3845" lon="5.41064">
        <ele>528.59997558594</ele>
        <time>2017-02-12T13:07:05.000Z</time>
      </trkpt>
      <trkpt lat="43.38449" lon="5.41064">
        <ele>528.40002441406</ele>
        <time>2017-02-12T13:07:06.000Z</time>
      </trkpt>
      <trkpt lat="43.38443" lon="5.41062">
        <ele>529.59997558594</ele>
        <time>2017-02-12T13:07:12.000Z</time>
      </trkpt>
      <trkpt lat="43.38441" lon="5.41061">
        <ele>530</ele>
        <time>2017-02-12T13:07:14.000Z</time>
      </trkpt>
      <trkpt lat="43.38432" lon="5.41055">
        <ele>530.20001220703</ele>
        <time>2017-02-12T13:07:25.000Z</time>
      </trkpt>
      <trkpt lat="43.38425" lon="5.41046">
        <ele>529.79998779297</ele>
        <time>2017-02-12T13:07:35.000Z</time>
      </trkpt>
      <trkpt lat="43.38424" lon="5.41044">
        <ele>530</ele>
        <time>2017-02-12T13:07:37.000Z</time>
      </trkpt>
      <trkpt lat="43.38424" lon="5.41038">
        <ele>530</ele>
        <time>2017-02-12T13:07:41.000Z</time>
      </trkpt>
      <trkpt lat="43.38426" lon="5.41029">
        <ele>528.40002441406</ele>
        <time>2017-02-12T13:07:48.000Z</time>
      </trkpt>
      <trkpt lat="43.38426" lon="5.41029">
        <ele>528.20001220703</ele>
        <time>2017-02-12T13:07:50.000Z</time>
      </trkpt>
      <trkpt lat="43.38428" lon="5.41024">
        <ele>527.40002441406</ele>
        <time>2017-02-12T13:07:59.000Z</time>
      </trkpt>
      <trkpt lat="43.38433" lon="5.41009">
        <ele>527.40002441406</ele>
        <time>2017-02-12T13:08:10.000Z</time>
      </trkpt>
      <trkpt lat="43.38436" lon="5.41001">
        <ele>526.40002441406</ele>
        <time>2017-02-12T13:08:17.000Z</time>
      </trkpt>
      <trkpt lat="43.38437" lon="5.41">
        <ele>526.20001220703</ele>
        <time>2017-02-12T13:08:18.000Z</time>
      </trkpt>
      <trkpt lat="43.38439" lon="5.40997">
        <ele>526.59997558594</ele>
        <time>2017-02-12T13:08:25.000Z</time>
      </trkpt>
      <trkpt lat="43.3844" lon="5.40994">
        <ele>525.40002441406</ele>
        <time>2017-02-12T13:08:32.000Z</time>
      </trkpt>
      <trkpt lat="43.38442" lon="5.4099">
        <ele>525.20001220703</ele>
        <time>2017-02-12T13:08:35.000Z</time>
      </trkpt>
      <trkpt lat="43.38444" lon="5.40984">
        <ele>525.59997558594</ele>
        <time>2017-02-12T13:08:40.000Z</time>
      </trkpt>
      <trkpt lat="43.38449" lon="5.40976">
        <ele>525.20001220703</ele>
        <time>2017-02-12T13:08:47.000Z</time>
      </trkpt>
      <trkpt lat="43.3845" lon="5.40973">
        <ele>524.79998779297</ele>
        <time>2017-02-12T13:08:49.000Z</time>
      </trkpt>
      <trkpt lat="43.3845" lon="5.40972">
        <ele>524.79998779297</ele>
        <time>2017-02-12T13:08:51.000Z</time>
      </trkpt>
      <trkpt lat="43.38455" lon="5.40963">
        <ele>524.40002441406</ele>
        <time>2017-02-12T13:08:58.000Z</time>
      </trkpt>
      <trkpt lat="43.38457" lon="5.40956">
        <ele>523.79998779297</ele>
        <time>2017-02-12T13:09:05.000Z</time>
      </trkpt>
      <trkpt lat="43.3846" lon="5.40945">
        <ele>523.59997558594</ele>
        <time>2017-02-12T13:09:13.000Z</time>
      </trkpt>
      <trkpt lat="43.38463" lon="5.40936">
        <ele>524</ele>
        <time>2017-02-12T13:09:21.000Z</time>
      </trkpt>
      <trkpt lat="43.38463" lon="5.40932">
        <ele>523.40002441406</ele>
        <time>2017-02-12T13:09:24.000Z</time>
      </trkpt>
      <trkpt lat="43.38464" lon="5.40931">
        <ele>523.40002441406</ele>
        <time>2017-02-12T13:09:25.000Z</time>
      </trkpt>
      <trkpt lat="43.38466" lon="5.40923">
        <ele>523.20001220703</ele>
        <time>2017-02-12T13:09:31.000Z</time>
      </trkpt>
      <trkpt lat="43.38466" lon="5.40922">
        <ele>523.20001220703</ele>
        <time>2017-02-12T13:09:32.000Z</time>
      </trkpt>
      <trkpt lat="43.38468" lon="5.40917">
        <ele>523.20001220703</ele>
        <time>2017-02-12T13:09:36.000Z</time>
      </trkpt>
      <trkpt lat="43.38472" lon="5.40906">
        <ele>525</ele>
        <time>2017-02-12T13:09:44.000Z</time>
      </trkpt>
      <trkpt lat="43.38473" lon="5.40903">
        <ele>525.20001220703</ele>
        <time>2017-02-12T13:09:47.000Z</time>
      </trkpt>
      <trkpt lat="43.38475" lon="5.40898">
        <ele>526</ele>
        <time>2017-02-12T13:09:51.000Z</time>
      </trkpt>
      <trkpt lat="43.38476" lon="5.40896">
        <ele>526</ele>
        <time>2017-02-12T13:09:53.000Z</time>
      </trkpt>
      <trkpt lat="43.38479" lon="5.40885">
        <ele>525.20001220703</ele>
        <time>2017-02-12T13:10:01.000Z</time>
      </trkpt>
      <trkpt lat="43.38483" lon="5.40878">
        <ele>526</ele>
        <time>2017-02-12T13:10:08.000Z</time>
      </trkpt>
      <trkpt lat="43.38484" lon="5.40877">
        <ele>526.20001220703</ele>
        <time>2017-02-12T13:10:09.000Z</time>
      </trkpt>
      <trkpt lat="43.38491" lon="5.4087">
        <ele>525</ele>
        <time>2017-02-12T13:10:18.000Z</time>
      </trkpt>
      <trkpt lat="43.38493" lon="5.4087">
        <ele>525</ele>
        <time>2017-02-12T13:10:20.000Z</time>
      </trkpt>
      <trkpt lat="43.38495" lon="5.40871">
        <ele>524.40002441406</ele>
        <time>2017-02-12T13:10:22.000Z</time>
      </trkpt>
      <trkpt lat="43.38496" lon="5.40872">
        <ele>524.20001220703</ele>
        <time>2017-02-12T13:10:25.000Z</time>
      </trkpt>
      <trkpt lat="43.38502" lon="5.40873">
        <ele>523.79998779297</ele>
        <time>2017-02-12T13:10:32.000Z</time>
      </trkpt>
      <trkpt lat="43.38505" lon="5.40873">
        <ele>523</ele>
        <time>2017-02-12T13:10:35.000Z</time>
      </trkpt>
      <trkpt lat="43.38507" lon="5.40873">
        <ele>523.20001220703</ele>
        <time>2017-02-12T13:10:38.000Z</time>
      </trkpt>
      <trkpt lat="43.38512" lon="5.40873">
        <ele>522</ele>
        <time>2017-02-12T13:10:45.000Z</time>
      </trkpt>
      <trkpt lat="43.38514" lon="5.40874">
        <ele>521.59997558594</ele>
        <time>2017-02-12T13:10:56.000Z</time>
      </trkpt>
      <trkpt lat="43.38522" lon="5.40873">
        <ele>521.40002441406</ele>
        <time>2017-02-12T13:11:05.000Z</time>
      </trkpt>
      <trkpt lat="43.3853" lon="5.40872">
        <ele>521</ele>
        <time>2017-02-12T13:11:13.000Z</time>
      </trkpt>
      <trkpt lat="43.38531" lon="5.40872">
        <ele>520.79998779297</ele>
        <time>2017-02-12T13:11:14.000Z</time>
      </trkpt>
      <trkpt lat="43.38539" lon="5.4087">
        <ele>521.40002441406</ele>
        <time>2017-02-12T13:11:21.000Z</time>
      </trkpt>
      <trkpt lat="43.3854" lon="5.40869">
        <ele>521.79998779297</ele>
        <time>2017-02-12T13:11:22.000Z</time>
      </trkpt>
      <trkpt lat="43.38543" lon="5.40868">
        <ele>523</ele>
        <time>2017-02-12T13:11:25.000Z</time>
      </trkpt>
      <trkpt lat="43.38547" lon="5.40867">
        <ele>523.59997558594</ele>
        <time>2017-02-12T13:11:30.000Z</time>
      </trkpt>
      <trkpt lat="43.38554" lon="5.40863">
        <ele>521.59997558594</ele>
        <time>2017-02-12T13:11:37.000Z</time>
      </trkpt>
      <trkpt lat="43.38557" lon="5.40862">
        <ele>520.40002441406</ele>
        <time>2017-02-12T13:11:40.000Z</time>
      </trkpt>
      <trkpt lat="43.38559" lon="5.4086">
        <ele>521</ele>
        <time>2017-02-12T13:11:45.000Z</time>
      </trkpt>
      <trkpt lat="43.38563" lon="5.40859">
        <ele>520.40002441406</ele>
        <time>2017-02-12T13:11:53.000Z</time>
      </trkpt>
      <trkpt lat="43.38571" lon="5.40854">
        <ele>520.79998779297</ele>
        <time>2017-02-12T13:12:02.000Z</time>
      </trkpt>
      <trkpt lat="43.38578" lon="5.40851">
        <ele>519.40002441406</ele>
        <time>2017-02-12T13:12:09.000Z</time>
      </trkpt>
      <trkpt lat="43.3858" lon="5.40849">
        <ele>518.20001220703</ele>
        <time>2017-02-12T13:12:11.000Z</time>
      </trkpt>
      <trkpt lat="43.38584" lon="5.40847">
        <ele>519.20001220703</ele>
        <time>2017-02-12T13:12:16.000Z</time>
      </trkpt>
      <trkpt lat="43.38586" lon="5.40846">
        <ele>519.79998779297</ele>
        <time>2017-02-12T13:12:17.000Z</time>
      </trkpt>
      <trkpt lat="43.38587" lon="5.40845">
        <ele>520.40002441406</ele>
        <time>2017-02-12T13:12:19.000Z</time>
      </trkpt>
      <trkpt lat="43.3859" lon="5.40843">
        <ele>520.59997558594</ele>
        <time>2017-02-12T13:12:22.000Z</time>
      </trkpt>
      <trkpt lat="43.38596" lon="5.4084">
        <ele>520.59997558594</ele>
        <time>2017-02-12T13:12:28.000Z</time>
      </trkpt>
      <trkpt lat="43.38596" lon="5.4084">
        <ele>520.59997558594</ele>
        <time>2017-02-12T13:12:29.000Z</time>
      </trkpt>
      <trkpt lat="43.386" lon="5.40836">
        <ele>519</ele>
        <time>2017-02-12T13:12:34.000Z</time>
      </trkpt>
      <trkpt lat="43.38602" lon="5.40835">
        <ele>518.79998779297</ele>
        <time>2017-02-12T13:12:36.000Z</time>
      </trkpt>
      <trkpt lat="43.38605" lon="5.40832">
        <ele>518.79998779297</ele>
        <time>2017-02-12T13:12:40.000Z</time>
      </trkpt>
      <trkpt lat="43.38609" lon="5.40828">
        <ele>518.79998779297</ele>
        <time>2017-02-12T13:12:46.000Z</time>
      </trkpt>
      <trkpt lat="43.38614" lon="5.40822">
        <ele>519.20001220703</ele>
        <time>2017-02-12T13:12:52.000Z</time>
      </trkpt>
      <trkpt lat="43.38614" lon="5.40822">
        <ele>519.20001220703</ele>
        <time>2017-02-12T13:12:53.000Z</time>
      </trkpt>
      <trkpt lat="43.38621" lon="5.40815">
        <ele>519.59997558594</ele>
        <time>2017-02-12T13:13:00.000Z</time>
      </trkpt>
      <trkpt lat="43.38622" lon="5.40815">
        <ele>519.59997558594</ele>
        <time>2017-02-12T13:13:01.000Z</time>
      </trkpt>
      <trkpt lat="43.3863" lon="5.40809">
        <ele>518.20001220703</ele>
        <time>2017-02-12T13:13:10.000Z</time>
      </trkpt>
      <trkpt lat="43.38635" lon="5.40805">
        <ele>518</ele>
        <time>2017-02-12T13:13:16.000Z</time>
      </trkpt>
      <trkpt lat="43.38636" lon="5.40804">
        <ele>516.79998779297</ele>
        <time>2017-02-12T13:13:18.000Z</time>
      </trkpt>
      <trkpt lat="43.38639" lon="5.40803">
        <ele>516.40002441406</ele>
        <time>2017-02-12T13:13:21.000Z</time>
      </trkpt>
      <trkpt lat="43.38651" lon="5.40804">
        <ele>516</ele>
        <time>2017-02-12T13:13:32.000Z</time>
      </trkpt>
      <trkpt lat="43.38652" lon="5.40805">
        <ele>515.79998779297</ele>
        <time>2017-02-12T13:13:33.000Z</time>
      </trkpt>
      <trkpt lat="43.38658" lon="5.4081">
        <ele>514.79998779297</ele>
        <time>2017-02-12T13:13:40.000Z</time>
      </trkpt>
      <trkpt lat="43.38663" lon="5.40814">
        <ele>514.79998779297</ele>
        <time>2017-02-12T13:13:46.000Z</time>
      </trkpt>
      <trkpt lat="43.38669" lon="5.40824">
        <ele>514.59997558594</ele>
        <time>2017-02-12T13:13:55.000Z</time>
      </trkpt>
      <trkpt lat="43.38674" lon="5.4083">
        <ele>515.20001220703</ele>
        <time>2017-02-12T13:14:02.000Z</time>
      </trkpt>
      <trkpt lat="43.38678" lon="5.40836">
        <ele>514.59997558594</ele>
        <time>2017-02-12T13:14:08.000Z</time>
      </trkpt>
      <trkpt lat="43.38682" lon="5.40843">
        <ele>514.40002441406</ele>
        <time>2017-02-12T13:14:14.000Z</time>
      </trkpt>
      <trkpt lat="43.38685" lon="5.40848">
        <ele>514.40002441406</ele>
        <time>2017-02-12T13:14:19.000Z</time>
      </trkpt>
      <trkpt lat="43.38686" lon="5.40849">
        <ele>514.20001220703</ele>
        <time>2017-02-12T13:14:20.000Z</time>
      </trkpt>
      <trkpt lat="43.38689" lon="5.40852">
        <ele>513.79998779297</ele>
        <time>2017-02-12T13:14:24.000Z</time>
      </trkpt>
      <trkpt lat="43.3869" lon="5.40854">
        <ele>513.79998779297</ele>
        <time>2017-02-12T13:14:26.000Z</time>
      </trkpt>
      <trkpt lat="43.38694" lon="5.40861">
        <ele>514.40002441406</ele>
        <time>2017-02-12T13:14:32.000Z</time>
      </trkpt>
      <trkpt lat="43.38694" lon="5.40862">
        <ele>514.40002441406</ele>
        <time>2017-02-12T13:14:33.000Z</time>
      </trkpt>
      <trkpt lat="43.38698" lon="5.40867">
        <ele>514.20001220703</ele>
        <time>2017-02-12T13:14:38.000Z</time>
      </trkpt>
      <trkpt lat="43.38701" lon="5.40872">
        <ele>514.20001220703</ele>
        <time>2017-02-12T13:14:42.000Z</time>
      </trkpt>
      <trkpt lat="43.38702" lon="5.40875">
        <ele>514</ele>
        <time>2017-02-12T13:14:45.000Z</time>
      </trkpt>
      <trkpt lat="43.38709" lon="5.40884">
        <ele>513.40002441406</ele>
        <time>2017-02-12T13:14:55.000Z</time>
      </trkpt>
      <trkpt lat="43.38714" lon="5.4089">
        <ele>514</ele>
        <time>2017-02-12T13:15:02.000Z</time>
      </trkpt>
      <trkpt lat="43.38716" lon="5.40894">
        <ele>513.79998779297</ele>
        <time>2017-02-12T13:15:06.000Z</time>
      </trkpt>
      <trkpt lat="43.38718" lon="5.40896">
        <ele>514</ele>
        <time>2017-02-12T13:15:09.000Z</time>
      </trkpt>
      <trkpt lat="43.38723" lon="5.40903">
        <ele>513.79998779297</ele>
        <time>2017-02-12T13:15:16.000Z</time>
      </trkpt>
      <trkpt lat="43.38727" lon="5.4091">
        <ele>512.79998779297</ele>
        <time>2017-02-12T13:15:23.000Z</time>
      </trkpt>
      <trkpt lat="43.38729" lon="5.40912">
        <ele>512.79998779297</ele>
        <time>2017-02-12T13:15:25.000Z</time>
      </trkpt>
      <trkpt lat="43.38734" lon="5.40918">
        <ele>512.79998779297</ele>
        <time>2017-02-12T13:15:31.000Z</time>
      </trkpt>
      <trkpt lat="43.38741" lon="5.4093">
        <ele>513.59997558594</ele>
        <time>2017-02-12T13:15:42.000Z</time>
      </trkpt>
      <trkpt lat="43.38749" lon="5.40942">
        <ele>512.79998779297</ele>
        <time>2017-02-12T13:15:53.000Z</time>
      </trkpt>
      <trkpt lat="43.38752" lon="5.40947">
        <ele>512.20001220703</ele>
        <time>2017-02-12T13:15:58.000Z</time>
      </trkpt>
      <trkpt lat="43.38755" lon="5.40952">
        <ele>511.60000610352</ele>
        <time>2017-02-12T13:16:04.000Z</time>
      </trkpt>
      <trkpt lat="43.38759" lon="5.40956">
        <ele>511.79998779297</ele>
        <time>2017-02-12T13:16:09.000Z</time>
      </trkpt>
      <trkpt lat="43.38765" lon="5.40963">
        <ele>512</ele>
        <time>2017-02-12T13:16:15.000Z</time>
      </trkpt>
      <trkpt lat="43.38767" lon="5.40966">
        <ele>511.60000610352</ele>
        <time>2017-02-12T13:16:18.000Z</time>
      </trkpt>
      <trkpt lat="43.3877" lon="5.4097">
        <ele>511.39999389648</ele>
        <time>2017-02-12T13:16:22.000Z</time>
      </trkpt>
      <trkpt lat="43.38772" lon="5.40972">
        <ele>511.39999389648</ele>
        <time>2017-02-12T13:16:24.000Z</time>
      </trkpt>
      <trkpt lat="43.38775" lon="5.40976">
        <ele>512</ele>
        <time>2017-02-12T13:16:28.000Z</time>
      </trkpt>
      <trkpt lat="43.38777" lon="5.40977">
        <ele>512.59997558594</ele>
        <time>2017-02-12T13:16:30.000Z</time>
      </trkpt>
      <trkpt lat="43.38781" lon="5.40979">
        <ele>513.20001220703</ele>
        <time>2017-02-12T13:16:34.000Z</time>
      </trkpt>
      <trkpt lat="43.38782" lon="5.40981">
        <ele>513.20001220703</ele>
        <time>2017-02-12T13:16:36.000Z</time>
      </trkpt>
      <trkpt lat="43.38787" lon="5.40987">
        <ele>513</ele>
        <time>2017-02-12T13:16:42.000Z</time>
      </trkpt>
      <trkpt lat="43.38788" lon="5.40988">
        <ele>513</ele>
        <time>2017-02-12T13:16:43.000Z</time>
      </trkpt>
      <trkpt lat="43.3879" lon="5.40993">
        <ele>511.39999389648</ele>
        <time>2017-02-12T13:16:47.000Z</time>
      </trkpt>
      <trkpt lat="43.38791" lon="5.40994">
        <ele>510.79998779297</ele>
        <time>2017-02-12T13:16:49.000Z</time>
      </trkpt>
      <trkpt lat="43.38794" lon="5.40996">
        <ele>510.20001220703</ele>
        <time>2017-02-12T13:16:52.000Z</time>
      </trkpt>
      <trkpt lat="43.38794" lon="5.40999">
        <ele>509.60000610352</ele>
        <time>2017-02-12T13:16:57.000Z</time>
      </trkpt>
      <trkpt lat="43.38795" lon="5.40999">
        <ele>509.20001220703</ele>
        <time>2017-02-12T13:17:03.000Z</time>
      </trkpt>
      <trkpt lat="43.38799" lon="5.41001">
        <ele>509.20001220703</ele>
        <time>2017-02-12T13:17:07.000Z</time>
      </trkpt>
      <trkpt lat="43.38802" lon="5.41001">
        <ele>509</ele>
        <time>2017-02-12T13:17:17.000Z</time>
      </trkpt>
      <trkpt lat="43.38802" lon="5.41001">
        <ele>509.20001220703</ele>
        <time>2017-02-12T13:17:24.000Z</time>
      </trkpt>
      <trkpt lat="43.38803" lon="5.41003">
        <ele>509.39999389648</ele>
        <time>2017-02-12T13:17:32.000Z</time>
      </trkpt>
      <trkpt lat="43.38803" lon="5.41003">
        <ele>510.20001220703</ele>
        <time>2017-02-12T13:17:40.000Z</time>
      </trkpt>
      <trkpt lat="43.38803" lon="5.41003">
        <ele>510.39999389648</ele>
        <time>2017-02-12T13:17:41.000Z</time>
      </trkpt>
      <trkpt lat="43.38804" lon="5.41002">
        <ele>511.20001220703</ele>
        <time>2017-02-12T13:17:52.000Z</time>
      </trkpt>
      <trkpt lat="43.38804" lon="5.41002">
        <ele>511.39999389648</ele>
        <time>2017-02-12T13:17:53.000Z</time>
      </trkpt>
      <trkpt lat="43.38804" lon="5.41001">
        <ele>511.79998779297</ele>
        <time>2017-02-12T13:18:03.000Z</time>
      </trkpt>
      <trkpt lat="43.38804" lon="5.41001">
        <ele>510</ele>
        <time>2017-02-12T13:18:07.000Z</time>
      </trkpt>
      <trkpt lat="43.38805" lon="5.41001">
        <ele>509.20001220703</ele>
        <time>2017-02-12T13:18:10.000Z</time>
      </trkpt>
      <trkpt lat="43.38807" lon="5.41003">
        <ele>509.20001220703</ele>
        <time>2017-02-12T13:18:12.000Z</time>
      </trkpt>
      <trkpt lat="43.38815" lon="5.4101">
        <ele>509.39999389648</ele>
        <time>2017-02-12T13:18:22.000Z</time>
      </trkpt>
      <trkpt lat="43.38818" lon="5.41011">
        <ele>508.79998779297</ele>
        <time>2017-02-12T13:18:26.000Z</time>
      </trkpt>
      <trkpt lat="43.38821" lon="5.41012">
        <ele>508.20001220703</ele>
        <time>2017-02-12T13:18:29.000Z</time>
      </trkpt>
      <trkpt lat="43.38827" lon="5.41014">
        <ele>508.39999389648</ele>
        <time>2017-02-12T13:18:36.000Z</time>
      </trkpt>
      <trkpt lat="43.38833" lon="5.41014">
        <ele>509</ele>
        <time>2017-02-12T13:18:42.000Z</time>
      </trkpt>
      <trkpt lat="43.38837" lon="5.41012">
        <ele>507.79998779297</ele>
        <time>2017-02-12T13:18:49.000Z</time>
      </trkpt>
      <trkpt lat="43.38842" lon="5.41005">
        <ele>507.79998779297</ele>
        <time>2017-02-12T13:18:57.000Z</time>
      </trkpt>
      <trkpt lat="43.38844" lon="5.41001">
        <ele>507</ele>
        <time>2017-02-12T13:19:00.000Z</time>
      </trkpt>
      <trkpt lat="43.38846" lon="5.40993">
        <ele>506.39999389648</ele>
        <time>2017-02-12T13:19:06.000Z</time>
      </trkpt>
      <trkpt lat="43.38846" lon="5.4099">
        <ele>506</ele>
        <time>2017-02-12T13:19:08.000Z</time>
      </trkpt>
      <trkpt lat="43.38847" lon="5.40982">
        <ele>506.20001220703</ele>
        <time>2017-02-12T13:19:14.000Z</time>
      </trkpt>
      <trkpt lat="43.38847" lon="5.40976">
        <ele>506.79998779297</ele>
        <time>2017-02-12T13:19:19.000Z</time>
      </trkpt>
      <trkpt lat="43.38847" lon="5.40974">
        <ele>506.79998779297</ele>
        <time>2017-02-12T13:19:21.000Z</time>
      </trkpt>
      <trkpt lat="43.38848" lon="5.40965">
        <ele>506.20001220703</ele>
        <time>2017-02-12T13:19:27.000Z</time>
      </trkpt>
      <trkpt lat="43.38849" lon="5.40961">
        <ele>506</ele>
        <time>2017-02-12T13:19:30.000Z</time>
      </trkpt>
      <trkpt lat="43.3885" lon="5.40956">
        <ele>504.79998779297</ele>
        <time>2017-02-12T13:19:33.000Z</time>
      </trkpt>
      <trkpt lat="43.3885" lon="5.40955">
        <ele>504.60000610352</ele>
        <time>2017-02-12T13:19:34.000Z</time>
      </trkpt>
      <trkpt lat="43.3885" lon="5.40948">
        <ele>503.39999389648</ele>
        <time>2017-02-12T13:19:38.000Z</time>
      </trkpt>
      <trkpt lat="43.3885" lon="5.40946">
        <ele>503</ele>
        <time>2017-02-12T13:19:40.000Z</time>
      </trkpt>
      <trkpt lat="43.3885" lon="5.40944">
        <ele>503</ele>
        <time>2017-02-12T13:19:41.000Z</time>
      </trkpt>
      <trkpt lat="43.38851" lon="5.40935">
        <ele>503.79998779297</ele>
        <time>2017-02-12T13:19:48.000Z</time>
      </trkpt>
      <trkpt lat="43.38853" lon="5.40925">
        <ele>503.20001220703</ele>
        <time>2017-02-12T13:19:55.000Z</time>
      </trkpt>
      <trkpt lat="43.38853" lon="5.40922">
        <ele>502.60000610352</ele>
        <time>2017-02-12T13:19:57.000Z</time>
      </trkpt>
      <trkpt lat="43.38854" lon="5.4092">
        <ele>502.20001220703</ele>
        <time>2017-02-12T13:19:59.000Z</time>
      </trkpt>
      <trkpt lat="43.38854" lon="5.40919">
        <ele>502.20001220703</ele>
        <time>2017-02-12T13:20:00.000Z</time>
      </trkpt>
      <trkpt lat="43.38855" lon="5.40917">
        <ele>502.20001220703</ele>
        <time>2017-02-12T13:20:01.000Z</time>
      </trkpt>
      <trkpt lat="43.38857" lon="5.40909">
        <ele>501</ele>
        <time>2017-02-12T13:20:08.000Z</time>
      </trkpt>
      <trkpt lat="43.3886" lon="5.409">
        <ele>500.20001220703</ele>
        <time>2017-02-12T13:20:16.000Z</time>
      </trkpt>
      <trkpt lat="43.38863" lon="5.40891">
        <ele>500.60000610352</ele>
        <time>2017-02-12T13:20:25.000Z</time>
      </trkpt>
      <trkpt lat="43.38866" lon="5.40887">
        <ele>499.79998779297</ele>
        <time>2017-02-12T13:20:30.000Z</time>
      </trkpt>
      <trkpt lat="43.38871" lon="5.40882">
        <ele>499.39999389648</ele>
        <time>2017-02-12T13:20:36.000Z</time>
      </trkpt>
      <trkpt lat="43.38872" lon="5.40881">
        <ele>498.79998779297</ele>
        <time>2017-02-12T13:20:38.000Z</time>
      </trkpt>
      <trkpt lat="43.38873" lon="5.4088">
        <ele>498.60000610352</ele>
        <time>2017-02-12T13:20:39.000Z</time>
      </trkpt>
      <trkpt lat="43.38875" lon="5.40879">
        <ele>497.79998779297</ele>
        <time>2017-02-12T13:20:42.000Z</time>
      </trkpt>
      <trkpt lat="43.3888" lon="5.40875">
        <ele>499.20001220703</ele>
        <time>2017-02-12T13:20:49.000Z</time>
      </trkpt>
      <trkpt lat="43.38883" lon="5.40875">
        <ele>497.20001220703</ele>
        <time>2017-02-12T13:20:52.000Z</time>
      </trkpt>
      <trkpt lat="43.38885" lon="5.40874">
        <ele>496</ele>
        <time>2017-02-12T13:20:54.000Z</time>
      </trkpt>
      <trkpt lat="43.38887" lon="5.40874">
        <ele>495.60000610352</ele>
        <time>2017-02-12T13:20:56.000Z</time>
      </trkpt>
      <trkpt lat="43.38888" lon="5.40874">
        <ele>495.39999389648</ele>
        <time>2017-02-12T13:20:57.000Z</time>
      </trkpt>
      <trkpt lat="43.38892" lon="5.40873">
        <ele>495</ele>
        <time>2017-02-12T13:21:02.000Z</time>
      </trkpt>
      <trkpt lat="43.38899" lon="5.4087">
        <ele>495.20001220703</ele>
        <time>2017-02-12T13:21:09.000Z</time>
      </trkpt>
      <trkpt lat="43.38901" lon="5.4087">
        <ele>495.20001220703</ele>
        <time>2017-02-12T13:21:11.000Z</time>
      </trkpt>
      <trkpt lat="43.38906" lon="5.40869">
        <ele>494.79998779297</ele>
        <time>2017-02-12T13:21:16.000Z</time>
      </trkpt>
      <trkpt lat="43.38912" lon="5.40865">
        <ele>494.20001220703</ele>
        <time>2017-02-12T13:21:23.000Z</time>
      </trkpt>
      <trkpt lat="43.38913" lon="5.40863">
        <ele>493.79998779297</ele>
        <time>2017-02-12T13:21:25.000Z</time>
      </trkpt>
      <trkpt lat="43.38917" lon="5.40859">
        <ele>492.79998779297</ele>
        <time>2017-02-12T13:21:29.000Z</time>
      </trkpt>
      <trkpt lat="43.38918" lon="5.40859">
        <ele>492.60000610352</ele>
        <time>2017-02-12T13:21:30.000Z</time>
      </trkpt>
      <trkpt lat="43.38922" lon="5.40852">
        <ele>492.20001220703</ele>
        <time>2017-02-12T13:21:36.000Z</time>
      </trkpt>
      <trkpt lat="43.38923" lon="5.4085">
        <ele>492</ele>
        <time>2017-02-12T13:21:38.000Z</time>
      </trkpt>
      <trkpt lat="43.38924" lon="5.40846">
        <ele>491.39999389648</ele>
        <time>2017-02-12T13:21:41.000Z</time>
      </trkpt>
      <trkpt lat="43.38925" lon="5.40845">
        <ele>491</ele>
        <time>2017-02-12T13:21:42.000Z</time>
      </trkpt>
      <trkpt lat="43.38926" lon="5.40839">
        <ele>490.20001220703</ele>
        <time>2017-02-12T13:21:46.000Z</time>
      </trkpt>
      <trkpt lat="43.38927" lon="5.40836">
        <ele>490</ele>
        <time>2017-02-12T13:21:49.000Z</time>
      </trkpt>
      <trkpt lat="43.38928" lon="5.4083">
        <ele>489</ele>
        <time>2017-02-12T13:21:54.000Z</time>
      </trkpt>
      <trkpt lat="43.38929" lon="5.40828">
        <ele>487.60000610352</ele>
        <time>2017-02-12T13:21:56.000Z</time>
      </trkpt>
      <trkpt lat="43.38929" lon="5.40826">
        <ele>487.39999389648</ele>
        <time>2017-02-12T13:21:58.000Z</time>
      </trkpt>
      <trkpt lat="43.38931" lon="5.4082">
        <ele>488</ele>
        <time>2017-02-12T13:22:04.000Z</time>
      </trkpt>
      <trkpt lat="43.38932" lon="5.40805">
        <ele>487.60000610352</ele>
        <time>2017-02-12T13:22:15.000Z</time>
      </trkpt>
      <trkpt lat="43.38934" lon="5.4079">
        <ele>486.79998779297</ele>
        <time>2017-02-12T13:22:26.000Z</time>
      </trkpt>
      <trkpt lat="43.38934" lon="5.40787">
        <ele>486.39999389648</ele>
        <time>2017-02-12T13:22:29.000Z</time>
      </trkpt>
      <trkpt lat="43.38933" lon="5.40779">
        <ele>486.79998779297</ele>
        <time>2017-02-12T13:22:35.000Z</time>
      </trkpt>
      <trkpt lat="43.38933" lon="5.4077">
        <ele>485.39999389648</ele>
        <time>2017-02-12T13:22:42.000Z</time>
      </trkpt>
      <trkpt lat="43.38932" lon="5.40767">
        <ele>485</ele>
        <time>2017-02-12T13:22:44.000Z</time>
      </trkpt>
      <trkpt lat="43.38931" lon="5.40758">
        <ele>484</ele>
        <time>2017-02-12T13:22:51.000Z</time>
      </trkpt>
      <trkpt lat="43.38931" lon="5.40756">
        <ele>484</ele>
        <time>2017-02-12T13:22:52.000Z</time>
      </trkpt>
      <trkpt lat="43.38931" lon="5.40755">
        <ele>483.79998779297</ele>
        <time>2017-02-12T13:22:53.000Z</time>
      </trkpt>
      <trkpt lat="43.3893" lon="5.40749">
        <ele>482.79998779297</ele>
        <time>2017-02-12T13:22:57.000Z</time>
      </trkpt>
      <trkpt lat="43.38929" lon="5.40748">
        <ele>482.39999389648</ele>
        <time>2017-02-12T13:22:58.000Z</time>
      </trkpt>
      <trkpt lat="43.38929" lon="5.40745">
        <ele>481.79998779297</ele>
        <time>2017-02-12T13:23:00.000Z</time>
      </trkpt>
      <trkpt lat="43.38928" lon="5.40744">
        <ele>481.39999389648</ele>
        <time>2017-02-12T13:23:01.000Z</time>
      </trkpt>
      <trkpt lat="43.38927" lon="5.4074">
        <ele>480.60000610352</ele>
        <time>2017-02-12T13:23:04.000Z</time>
      </trkpt>
      <trkpt lat="43.38925" lon="5.40734">
        <ele>480</ele>
        <time>2017-02-12T13:23:09.000Z</time>
      </trkpt>
      <trkpt lat="43.38925" lon="5.40733">
        <ele>480.39999389648</ele>
        <time>2017-02-12T13:23:10.000Z</time>
      </trkpt>
      <trkpt lat="43.38924" lon="5.40725">
        <ele>481.79998779297</ele>
        <time>2017-02-12T13:23:16.000Z</time>
      </trkpt>
      <trkpt lat="43.38923" lon="5.40724">
        <ele>482</ele>
        <time>2017-02-12T13:23:17.000Z</time>
      </trkpt>
      <trkpt lat="43.38922" lon="5.40719">
        <ele>481.39999389648</ele>
        <time>2017-02-12T13:23:21.000Z</time>
      </trkpt>
      <trkpt lat="43.38921" lon="5.40715">
        <ele>481</ele>
        <time>2017-02-12T13:23:25.000Z</time>
      </trkpt>
      <trkpt lat="43.38919" lon="5.40708">
        <ele>481.20001220703</ele>
        <time>2017-02-12T13:23:31.000Z</time>
      </trkpt>
      <trkpt lat="43.38917" lon="5.40699">
        <ele>480.60000610352</ele>
        <time>2017-02-12T13:23:38.000Z</time>
      </trkpt>
      <trkpt lat="43.38917" lon="5.40697">
        <ele>480.60000610352</ele>
        <time>2017-02-12T13:23:39.000Z</time>
      </trkpt>
      <trkpt lat="43.38916" lon="5.40688">
        <ele>480.39999389648</ele>
        <time>2017-02-12T13:23:46.000Z</time>
      </trkpt>
      <trkpt lat="43.38915" lon="5.40682">
        <ele>480.20001220703</ele>
        <time>2017-02-12T13:23:51.000Z</time>
      </trkpt>
      <trkpt lat="43.38915" lon="5.40682">
        <ele>480.39999389648</ele>
        <time>2017-02-12T13:23:54.000Z</time>
      </trkpt>
      <trkpt lat="43.38914" lon="5.40677">
        <ele>479.39999389648</ele>
        <time>2017-02-12T13:24:01.000Z</time>
      </trkpt>
      <trkpt lat="43.38913" lon="5.40675">
        <ele>479</ele>
        <time>2017-02-12T13:24:02.000Z</time>
      </trkpt>
      <trkpt lat="43.38913" lon="5.40666">
        <ele>478.79998779297</ele>
        <time>2017-02-12T13:24:08.000Z</time>
      </trkpt>
      <trkpt lat="43.38913" lon="5.40664">
        <ele>478.79998779297</ele>
        <time>2017-02-12T13:24:09.000Z</time>
      </trkpt>
      <trkpt lat="43.38914" lon="5.40653">
        <ele>478.39999389648</ele>
        <time>2017-02-12T13:24:15.000Z</time>
      </trkpt>
      <trkpt lat="43.38914" lon="5.40651">
        <ele>478</ele>
        <time>2017-02-12T13:24:16.000Z</time>
      </trkpt>
      <trkpt lat="43.38914" lon="5.4065">
        <ele>478</ele>
        <time>2017-02-12T13:24:17.000Z</time>
      </trkpt>
      <trkpt lat="43.38914" lon="5.40644">
        <ele>477.79998779297</ele>
        <time>2017-02-12T13:24:21.000Z</time>
      </trkpt>
      <trkpt lat="43.38914" lon="5.40638">
        <ele>477.20001220703</ele>
        <time>2017-02-12T13:24:26.000Z</time>
      </trkpt>
      <trkpt lat="43.38914" lon="5.40637">
        <ele>476.79998779297</ele>
        <time>2017-02-12T13:24:27.000Z</time>
      </trkpt>
      <trkpt lat="43.38914" lon="5.40634">
        <ele>476.20001220703</ele>
        <time>2017-02-12T13:24:29.000Z</time>
      </trkpt>
      <trkpt lat="43.38915" lon="5.40627">
        <ele>475.79998779297</ele>
        <time>2017-02-12T13:24:35.000Z</time>
      </trkpt>
      <trkpt lat="43.38915" lon="5.40626">
        <ele>475.79998779297</ele>
        <time>2017-02-12T13:24:36.000Z</time>
      </trkpt>
      <trkpt lat="43.38915" lon="5.40616">
        <ele>475.39999389648</ele>
        <time>2017-02-12T13:24:44.000Z</time>
      </trkpt>
      <trkpt lat="43.38914" lon="5.40606">
        <ele>474.79998779297</ele>
        <time>2017-02-12T13:24:52.000Z</time>
      </trkpt>
      <trkpt lat="43.38914" lon="5.40604">
        <ele>474.79998779297</ele>
        <time>2017-02-12T13:24:53.000Z</time>
      </trkpt>
      <trkpt lat="43.38914" lon="5.40601">
        <ele>474.60000610352</ele>
        <time>2017-02-12T13:24:55.000Z</time>
      </trkpt>
      <trkpt lat="43.38914" lon="5.40598">
        <ele>474.60000610352</ele>
        <time>2017-02-12T13:24:57.000Z</time>
      </trkpt>
      <trkpt lat="43.38915" lon="5.40589">
        <ele>475</ele>
        <time>2017-02-12T13:25:04.000Z</time>
      </trkpt>
      <trkpt lat="43.38915" lon="5.40588">
        <ele>475</ele>
        <time>2017-02-12T13:25:05.000Z</time>
      </trkpt>
      <trkpt lat="43.38914" lon="5.40582">
        <ele>474.20001220703</ele>
        <time>2017-02-12T13:25:10.000Z</time>
      </trkpt>
      <trkpt lat="43.38913" lon="5.40579">
        <ele>474</ele>
        <time>2017-02-12T13:25:12.000Z</time>
      </trkpt>
      <trkpt lat="43.38913" lon="5.40576">
        <ele>473.60000610352</ele>
        <time>2017-02-12T13:25:15.000Z</time>
      </trkpt>
      <trkpt lat="43.38912" lon="5.40571">
        <ele>472.39999389648</ele>
        <time>2017-02-12T13:25:18.000Z</time>
      </trkpt>
      <trkpt lat="43.38912" lon="5.4057">
        <ele>472.20001220703</ele>
        <time>2017-02-12T13:25:19.000Z</time>
      </trkpt>
      <trkpt lat="43.38912" lon="5.40563">
        <ele>471.39999389648</ele>
        <time>2017-02-12T13:25:24.000Z</time>
      </trkpt>
      <trkpt lat="43.38911" lon="5.4056">
        <ele>471.39999389648</ele>
        <time>2017-02-12T13:25:26.000Z</time>
      </trkpt>
      <trkpt lat="43.3891" lon="5.4055">
        <ele>471</ele>
        <time>2017-02-12T13:25:34.000Z</time>
      </trkpt>
      <trkpt lat="43.38909" lon="5.40548">
        <ele>470.79998779297</ele>
        <time>2017-02-12T13:25:35.000Z</time>
      </trkpt>
      <trkpt lat="43.38908" lon="5.40542">
        <ele>471</ele>
        <time>2017-02-12T13:25:40.000Z</time>
      </trkpt>
      <trkpt lat="43.38907" lon="5.40541">
        <ele>471</ele>
        <time>2017-02-12T13:25:41.000Z</time>
      </trkpt>
      <trkpt lat="43.38906" lon="5.40536">
        <ele>471</ele>
        <time>2017-02-12T13:25:45.000Z</time>
      </trkpt>
      <trkpt lat="43.38905" lon="5.4053">
        <ele>470.79998779297</ele>
        <time>2017-02-12T13:25:49.000Z</time>
      </trkpt>
      <trkpt lat="43.38904" lon="5.40525">
        <ele>470.79998779297</ele>
        <time>2017-02-12T13:25:53.000Z</time>
      </trkpt>
      <trkpt lat="43.38903" lon="5.40522">
        <ele>470.39999389648</ele>
        <time>2017-02-12T13:25:56.000Z</time>
      </trkpt>
      <trkpt lat="43.389" lon="5.40514">
        <ele>469.60000610352</ele>
        <time>2017-02-12T13:26:03.000Z</time>
      </trkpt>
      <trkpt lat="43.38899" lon="5.40511">
        <ele>469.20001220703</ele>
        <time>2017-02-12T13:26:05.000Z</time>
      </trkpt>
      <trkpt lat="43.38897" lon="5.40505">
        <ele>468.39999389648</ele>
        <time>2017-02-12T13:26:10.000Z</time>
      </trkpt>
      <trkpt lat="43.38896" lon="5.40501">
        <ele>468.39999389648</ele>
        <time>2017-02-12T13:26:13.000Z</time>
      </trkpt>
      <trkpt lat="43.38895" lon="5.405">
        <ele>468.39999389648</ele>
        <time>2017-02-12T13:26:14.000Z</time>
      </trkpt>
      <trkpt lat="43.38894" lon="5.40493">
        <ele>467.60000610352</ele>
        <time>2017-02-12T13:26:19.000Z</time>
      </trkpt>
      <trkpt lat="43.38894" lon="5.40492">
        <ele>467.60000610352</ele>
        <time>2017-02-12T13:26:20.000Z</time>
      </trkpt>
      <trkpt lat="43.3889" lon="5.4048">
        <ele>467</ele>
        <time>2017-02-12T13:26:29.000Z</time>
      </trkpt>
      <trkpt lat="43.38889" lon="5.40479">
        <ele>467</ele>
        <time>2017-02-12T13:26:30.000Z</time>
      </trkpt>
      <trkpt lat="43.38887" lon="5.40474">
        <ele>466.60000610352</ele>
        <time>2017-02-12T13:26:34.000Z</time>
      </trkpt>
      <trkpt lat="43.38886" lon="5.40472">
        <ele>466.60000610352</ele>
        <time>2017-02-12T13:26:36.000Z</time>
      </trkpt>
      <trkpt lat="43.38883" lon="5.40463">
        <ele>467</ele>
        <time>2017-02-12T13:26:43.000Z</time>
      </trkpt>
      <trkpt lat="43.3888" lon="5.40457">
        <ele>466.79998779297</ele>
        <time>2017-02-12T13:26:48.000Z</time>
      </trkpt>
      <trkpt lat="43.38879" lon="5.40454">
        <ele>467.20001220703</ele>
        <time>2017-02-12T13:26:51.000Z</time>
      </trkpt>
      <trkpt lat="43.38876" lon="5.40448">
        <ele>466</ele>
        <time>2017-02-12T13:26:56.000Z</time>
      </trkpt>
      <trkpt lat="43.38874" lon="5.40444">
        <ele>465.20001220703</ele>
        <time>2017-02-12T13:26:59.000Z</time>
      </trkpt>
      <trkpt lat="43.38874" lon="5.40443">
        <ele>465</ele>
        <time>2017-02-12T13:27:00.000Z</time>
      </trkpt>
      <trkpt lat="43.38872" lon="5.40437">
        <ele>466</ele>
        <time>2017-02-12T13:27:05.000Z</time>
      </trkpt>
      <trkpt lat="43.38872" lon="5.40436">
        <ele>466.39999389648</ele>
        <time>2017-02-12T13:27:06.000Z</time>
      </trkpt>
      <trkpt lat="43.38871" lon="5.40433">
        <ele>467</ele>
        <time>2017-02-12T13:27:08.000Z</time>
      </trkpt>
      <trkpt lat="43.38869" lon="5.40424">
        <ele>467</ele>
        <time>2017-02-12T13:27:15.000Z</time>
      </trkpt>
      <trkpt lat="43.38868" lon="5.40421">
        <ele>466</ele>
        <time>2017-02-12T13:27:18.000Z</time>
      </trkpt>
      <trkpt lat="43.38868" lon="5.40411">
        <ele>466</ele>
        <time>2017-02-12T13:27:26.000Z</time>
      </trkpt>
      <trkpt lat="43.38872" lon="5.40406">
        <ele>467.20001220703</ele>
        <time>2017-02-12T13:27:32.000Z</time>
      </trkpt>
      <trkpt lat="43.38874" lon="5.40405">
        <ele>466.39999389648</ele>
        <time>2017-02-12T13:27:34.000Z</time>
      </trkpt>
      <trkpt lat="43.38876" lon="5.40405">
        <ele>466</ele>
        <time>2017-02-12T13:27:36.000Z</time>
      </trkpt>
      <trkpt lat="43.38879" lon="5.40405">
        <ele>465.60000610352</ele>
        <time>2017-02-12T13:27:39.000Z</time>
      </trkpt>
      <trkpt lat="43.3888" lon="5.40405">
        <ele>465.79998779297</ele>
        <time>2017-02-12T13:27:40.000Z</time>
      </trkpt>
      <trkpt lat="43.38884" lon="5.40406">
        <ele>467</ele>
        <time>2017-02-12T13:27:45.000Z</time>
      </trkpt>
      <trkpt lat="43.38886" lon="5.40406">
        <ele>466.60000610352</ele>
        <time>2017-02-12T13:27:47.000Z</time>
      </trkpt>
      <trkpt lat="43.38888" lon="5.40408">
        <ele>465.79998779297</ele>
        <time>2017-02-12T13:27:49.000Z</time>
      </trkpt>
      <trkpt lat="43.3889" lon="5.40409">
        <ele>464.60000610352</ele>
        <time>2017-02-12T13:27:52.000Z</time>
      </trkpt>
      <trkpt lat="43.38891" lon="5.40409">
        <ele>464.39999389648</ele>
        <time>2017-02-12T13:27:54.000Z</time>
      </trkpt>
      <trkpt lat="43.38896" lon="5.40411">
        <ele>464.39999389648</ele>
        <time>2017-02-12T13:28:02.000Z</time>
      </trkpt>
      <trkpt lat="43.38904" lon="5.40411">
        <ele>463.60000610352</ele>
        <time>2017-02-12T13:28:11.000Z</time>
      </trkpt>
      <trkpt lat="43.38912" lon="5.4041">
        <ele>464.39999389648</ele>
        <time>2017-02-12T13:28:18.000Z</time>
      </trkpt>
      <trkpt lat="43.38919" lon="5.40407">
        <ele>464</ele>
        <time>2017-02-12T13:28:26.000Z</time>
      </trkpt>
      <trkpt lat="43.38922" lon="5.40405">
        <ele>464.20001220703</ele>
        <time>2017-02-12T13:28:33.000Z</time>
      </trkpt>
      <trkpt lat="43.3892" lon="5.40403">
        <ele>464.20001220703</ele>
        <time>2017-02-12T13:28:36.000Z</time>
      </trkpt>
      <trkpt lat="43.38918" lon="5.40404">
        <ele>464.20001220703</ele>
        <time>2017-02-12T13:28:39.000Z</time>
      </trkpt>
      <trkpt lat="43.38917" lon="5.40404">
        <ele>464.39999389648</ele>
        <time>2017-02-12T13:28:40.000Z</time>
      </trkpt>
      <trkpt lat="43.38911" lon="5.40407">
        <ele>464.60000610352</ele>
        <time>2017-02-12T13:28:46.000Z</time>
      </trkpt>
      <trkpt lat="43.3891" lon="5.40407">
        <ele>464.39999389648</ele>
        <time>2017-02-12T13:28:47.000Z</time>
      </trkpt>
      <trkpt lat="43.38906" lon="5.40408">
        <ele>464.60000610352</ele>
        <time>2017-02-12T13:28:51.000Z</time>
      </trkpt>
      <trkpt lat="43.38903" lon="5.40407">
        <ele>465.20001220703</ele>
        <time>2017-02-12T13:28:54.000Z</time>
      </trkpt>
      <trkpt lat="43.38902" lon="5.40406">
        <ele>465.60000610352</ele>
        <time>2017-02-12T13:28:55.000Z</time>
      </trkpt>
      <trkpt lat="43.38899" lon="5.40404">
        <ele>465.79998779297</ele>
        <time>2017-02-12T13:28:59.000Z</time>
      </trkpt>
      <trkpt lat="43.38895" lon="5.40398">
        <ele>464.20001220703</ele>
        <time>2017-02-12T13:29:06.000Z</time>
      </trkpt>
      <trkpt lat="43.38895" lon="5.40396">
        <ele>463</ele>
        <time>2017-02-12T13:29:08.000Z</time>
      </trkpt>
      <trkpt lat="43.38891" lon="5.40389">
        <ele>461.60000610352</ele>
        <time>2017-02-12T13:29:16.000Z</time>
      </trkpt>
      <trkpt lat="43.38888" lon="5.40383">
        <ele>460.60000610352</ele>
        <time>2017-02-12T13:29:22.000Z</time>
      </trkpt>
      <trkpt lat="43.38885" lon="5.40376">
        <ele>460</ele>
        <time>2017-02-12T13:29:28.000Z</time>
      </trkpt>
      <trkpt lat="43.38884" lon="5.40369">
        <ele>459.20001220703</ele>
        <time>2017-02-12T13:29:34.000Z</time>
      </trkpt>
      <trkpt lat="43.38884" lon="5.40366">
        <ele>458.60000610352</ele>
        <time>2017-02-12T13:29:37.000Z</time>
      </trkpt>
      <trkpt lat="43.38883" lon="5.40356">
        <ele>459.79998779297</ele>
        <time>2017-02-12T13:29:45.000Z</time>
      </trkpt>
      <trkpt lat="43.38882" lon="5.40351">
        <ele>458</ele>
        <time>2017-02-12T13:29:49.000Z</time>
      </trkpt>
      <trkpt lat="43.38881" lon="5.40348">
        <ele>457.20001220703</ele>
        <time>2017-02-12T13:29:52.000Z</time>
      </trkpt>
      <trkpt lat="43.38881" lon="5.40344">
        <ele>457.20001220703</ele>
        <time>2017-02-12T13:29:56.000Z</time>
      </trkpt>
      <trkpt lat="43.38881" lon="5.40341">
        <ele>457</ele>
        <time>2017-02-12T13:29:58.000Z</time>
      </trkpt>
      <trkpt lat="43.3888" lon="5.40338">
        <ele>456.20001220703</ele>
        <time>2017-02-12T13:30:07.000Z</time>
      </trkpt>
      <trkpt lat="43.3888" lon="5.40336">
        <ele>456</ele>
        <time>2017-02-12T13:30:09.000Z</time>
      </trkpt>
      <trkpt lat="43.38879" lon="5.40332">
        <ele>455.60000610352</ele>
        <time>2017-02-12T13:30:13.000Z</time>
      </trkpt>
      <trkpt lat="43.38879" lon="5.40331">
        <ele>456</ele>
        <time>2017-02-12T13:30:19.000Z</time>
      </trkpt>
      <trkpt lat="43.38878" lon="5.40336">
        <ele>455.60000610352</ele>
        <time>2017-02-12T13:30:28.000Z</time>
      </trkpt>
      <trkpt lat="43.38879" lon="5.40347">
        <ele>456.60000610352</ele>
        <time>2017-02-12T13:30:37.000Z</time>
      </trkpt>
      <trkpt lat="43.3888" lon="5.40349">
        <ele>457</ele>
        <time>2017-02-12T13:30:39.000Z</time>
      </trkpt>
      <trkpt lat="43.3888" lon="5.40353">
        <ele>457.39999389648</ele>
        <time>2017-02-12T13:30:42.000Z</time>
      </trkpt>
      <trkpt lat="43.3888" lon="5.40356">
        <ele>458</ele>
        <time>2017-02-12T13:30:44.000Z</time>
      </trkpt>
      <trkpt lat="43.3888" lon="5.40359">
        <ele>458.39999389648</ele>
        <time>2017-02-12T13:30:46.000Z</time>
      </trkpt>
      <trkpt lat="43.3888" lon="5.40363">
        <ele>459</ele>
        <time>2017-02-12T13:30:49.000Z</time>
      </trkpt>
      <trkpt lat="43.38881" lon="5.40367">
        <ele>459.39999389648</ele>
        <time>2017-02-12T13:30:53.000Z</time>
      </trkpt>
      <trkpt lat="43.38881" lon="5.4037">
        <ele>459.60000610352</ele>
        <time>2017-02-12T13:30:55.000Z</time>
      </trkpt>
      <trkpt lat="43.38882" lon="5.40373">
        <ele>460</ele>
        <time>2017-02-12T13:30:57.000Z</time>
      </trkpt>
      <trkpt lat="43.38883" lon="5.40375">
        <ele>460.39999389648</ele>
        <time>2017-02-12T13:30:59.000Z</time>
      </trkpt>
      <trkpt lat="43.38884" lon="5.40379">
        <ele>460.39999389648</ele>
        <time>2017-02-12T13:31:02.000Z</time>
      </trkpt>
      <trkpt lat="43.38886" lon="5.40385">
        <ele>460.79998779297</ele>
        <time>2017-02-12T13:31:07.000Z</time>
      </trkpt>
      <trkpt lat="43.38887" lon="5.40386">
        <ele>461.20001220703</ele>
        <time>2017-02-12T13:31:08.000Z</time>
      </trkpt>
      <trkpt lat="43.38892" lon="5.40394">
        <ele>462</ele>
        <time>2017-02-12T13:31:17.000Z</time>
      </trkpt>
      <trkpt lat="43.38895" lon="5.40398">
        <ele>463.20001220703</ele>
        <time>2017-02-12T13:31:22.000Z</time>
      </trkpt>
      <trkpt lat="43.38898" lon="5.40402">
        <ele>463.79998779297</ele>
        <time>2017-02-12T13:31:27.000Z</time>
      </trkpt>
      <trkpt lat="43.389" lon="5.40405">
        <ele>464.20001220703</ele>
        <time>2017-02-12T13:31:30.000Z</time>
      </trkpt>
      <trkpt lat="43.38905" lon="5.40407">
        <ele>464</ele>
        <time>2017-02-12T13:31:35.000Z</time>
      </trkpt>
      <trkpt lat="43.3891" lon="5.40409">
        <ele>463.60000610352</ele>
        <time>2017-02-12T13:31:40.000Z</time>
      </trkpt>
      <trkpt lat="43.38913" lon="5.40408">
        <ele>463.20001220703</ele>
        <time>2017-02-12T13:31:44.000Z</time>
      </trkpt>
      <trkpt lat="43.38917" lon="5.40406">
        <ele>463</ele>
        <time>2017-02-12T13:31:48.000Z</time>
      </trkpt>
      <trkpt lat="43.38922" lon="5.40403">
        <ele>464</ele>
        <time>2017-02-12T13:31:53.000Z</time>
      </trkpt>
      <trkpt lat="43.38922" lon="5.40403">
        <ele>464.20001220703</ele>
        <time>2017-02-12T13:31:54.000Z</time>
      </trkpt>
      <trkpt lat="43.38928" lon="5.40399">
        <ele>463</ele>
        <time>2017-02-12T13:32:01.000Z</time>
      </trkpt>
      <trkpt lat="43.38929" lon="5.40398">
        <ele>463</ele>
        <time>2017-02-12T13:32:02.000Z</time>
      </trkpt>
      <trkpt lat="43.38936" lon="5.40392">
        <ele>462.60000610352</ele>
        <time>2017-02-12T13:32:12.000Z</time>
      </trkpt>
      <trkpt lat="43.38939" lon="5.4039">
        <ele>462</ele>
        <time>2017-02-12T13:32:15.000Z</time>
      </trkpt>
      <trkpt lat="43.38944" lon="5.40386">
        <ele>463.20001220703</ele>
        <time>2017-02-12T13:32:21.000Z</time>
      </trkpt>
      <trkpt lat="43.38946" lon="5.40383">
        <ele>463.20001220703</ele>
        <time>2017-02-12T13:32:24.000Z</time>
      </trkpt>
      <trkpt lat="43.38949" lon="5.40381">
        <ele>462.60000610352</ele>
        <time>2017-02-12T13:32:27.000Z</time>
      </trkpt>
      <trkpt lat="43.38952" lon="5.40377">
        <ele>461.79998779297</ele>
        <time>2017-02-12T13:32:31.000Z</time>
      </trkpt>
      <trkpt lat="43.38954" lon="5.40375">
        <ele>461.79998779297</ele>
        <time>2017-02-12T13:32:34.000Z</time>
      </trkpt>
      <trkpt lat="43.38957" lon="5.40372">
        <ele>460.60000610352</ele>
        <time>2017-02-12T13:32:37.000Z</time>
      </trkpt>
      <trkpt lat="43.38963" lon="5.40366">
        <ele>460</ele>
        <time>2017-02-12T13:32:44.000Z</time>
      </trkpt>
      <trkpt lat="43.38972" lon="5.40358">
        <ele>459.79998779297</ele>
        <time>2017-02-12T13:32:57.000Z</time>
      </trkpt>
      <trkpt lat="43.38975" lon="5.40356">
        <ele>459.20001220703</ele>
        <time>2017-02-12T13:32:59.000Z</time>
      </trkpt>
      <trkpt lat="43.38981" lon="5.40348">
        <ele>458</ele>
        <time>2017-02-12T13:33:08.000Z</time>
      </trkpt>
      <trkpt lat="43.38987" lon="5.40341">
        <ele>457.20001220703</ele>
        <time>2017-02-12T13:33:15.000Z</time>
      </trkpt>
      <trkpt lat="43.3899" lon="5.40336">
        <ele>456.79998779297</ele>
        <time>2017-02-12T13:33:20.000Z</time>
      </trkpt>
      <trkpt lat="43.3899" lon="5.40335">
        <ele>456.39999389648</ele>
        <time>2017-02-12T13:33:21.000Z</time>
      </trkpt>
      <trkpt lat="43.38991" lon="5.40333">
        <ele>455.79998779297</ele>
        <time>2017-02-12T13:33:23.000Z</time>
      </trkpt>
      <trkpt lat="43.38996" lon="5.40325">
        <ele>455</ele>
        <time>2017-02-12T13:33:29.000Z</time>
      </trkpt>
      <trkpt lat="43.39001" lon="5.40317">
        <ele>456.39999389648</ele>
        <time>2017-02-12T13:33:36.000Z</time>
      </trkpt>
      <trkpt lat="43.39006" lon="5.40307">
        <ele>455</ele>
        <time>2017-02-12T13:33:45.000Z</time>
      </trkpt>
      <trkpt lat="43.39009" lon="5.40304">
        <ele>454.39999389648</ele>
        <time>2017-02-12T13:33:48.000Z</time>
      </trkpt>
      <trkpt lat="43.39014" lon="5.40297">
        <ele>453.60000610352</ele>
        <time>2017-02-12T13:33:56.000Z</time>
      </trkpt>
      <trkpt lat="43.39022" lon="5.40292">
        <ele>453.20001220703</ele>
        <time>2017-02-12T13:34:03.000Z</time>
      </trkpt>
      <trkpt lat="43.39024" lon="5.4029">
        <ele>453.20001220703</ele>
        <time>2017-02-12T13:34:05.000Z</time>
      </trkpt>
      <trkpt lat="43.39031" lon="5.40289">
        <ele>453</ele>
        <time>2017-02-12T13:34:11.000Z</time>
      </trkpt>
      <trkpt lat="43.39036" lon="5.4029">
        <ele>453.20001220703</ele>
        <time>2017-02-12T13:34:17.000Z</time>
      </trkpt>
      <trkpt lat="43.39043" lon="5.40292">
        <ele>454.20001220703</ele>
        <time>2017-02-12T13:34:24.000Z</time>
      </trkpt>
      <trkpt lat="43.39052" lon="5.40298">
        <ele>452.39999389648</ele>
        <time>2017-02-12T13:34:34.000Z</time>
      </trkpt>
      <trkpt lat="43.39053" lon="5.40299">
        <ele>452.20001220703</ele>
        <time>2017-02-12T13:34:36.000Z</time>
      </trkpt>
      <trkpt lat="43.39058" lon="5.40306">
        <ele>451.20001220703</ele>
        <time>2017-02-12T13:34:44.000Z</time>
      </trkpt>
      <trkpt lat="43.39059" lon="5.40308">
        <ele>451.20001220703</ele>
        <time>2017-02-12T13:34:45.000Z</time>
      </trkpt>
      <trkpt lat="43.39066" lon="5.40315">
        <ele>449.79998779297</ele>
        <time>2017-02-12T13:34:53.000Z</time>
      </trkpt>
      <trkpt lat="43.39067" lon="5.40316">
        <ele>449.60000610352</ele>
        <time>2017-02-12T13:34:54.000Z</time>
      </trkpt>
      <trkpt lat="43.39075" lon="5.40323">
        <ele>449.39999389648</ele>
        <time>2017-02-12T13:35:04.000Z</time>
      </trkpt>
      <trkpt lat="43.39079" lon="5.40328">
        <ele>450.20001220703</ele>
        <time>2017-02-12T13:35:09.000Z</time>
      </trkpt>
      <trkpt lat="43.39081" lon="5.40329">
        <ele>450.39999389648</ele>
        <time>2017-02-12T13:35:11.000Z</time>
      </trkpt>
      <trkpt lat="43.39087" lon="5.40338">
        <ele>449.79998779297</ele>
        <time>2017-02-12T13:35:19.000Z</time>
      </trkpt>
      <trkpt lat="43.39093" lon="5.40345">
        <ele>448.60000610352</ele>
        <time>2017-02-12T13:35:27.000Z</time>
      </trkpt>
      <trkpt lat="43.391" lon="5.4035">
        <ele>448.39999389648</ele>
        <time>2017-02-12T13:35:35.000Z</time>
      </trkpt>
      <trkpt lat="43.39106" lon="5.4036">
        <ele>447.60000610352</ele>
        <time>2017-02-12T13:35:44.000Z</time>
      </trkpt>
      <trkpt lat="43.39107" lon="5.4036">
        <ele>447.39999389648</ele>
        <time>2017-02-12T13:35:45.000Z</time>
      </trkpt>
      <trkpt lat="43.39115" lon="5.40364">
        <ele>447</ele>
        <time>2017-02-12T13:35:53.000Z</time>
      </trkpt>
      <trkpt lat="43.39121" lon="5.40366">
        <ele>447.20001220703</ele>
        <time>2017-02-12T13:36:00.000Z</time>
      </trkpt>
      <trkpt lat="43.3913" lon="5.40368">
        <ele>447.20001220703</ele>
        <time>2017-02-12T13:36:08.000Z</time>
      </trkpt>
      <trkpt lat="43.39136" lon="5.4037">
        <ele>446.39999389648</ele>
        <time>2017-02-12T13:36:14.000Z</time>
      </trkpt>
      <trkpt lat="43.39143" lon="5.40375">
        <ele>446.79998779297</ele>
        <time>2017-02-12T13:36:22.000Z</time>
      </trkpt>
      <trkpt lat="43.39148" lon="5.40377">
        <ele>447.39999389648</ele>
        <time>2017-02-12T13:36:27.000Z</time>
      </trkpt>
      <trkpt lat="43.39149" lon="5.40378">
        <ele>447.20001220703</ele>
        <time>2017-02-12T13:36:28.000Z</time>
      </trkpt>
      <trkpt lat="43.39154" lon="5.40384">
        <ele>447.60000610352</ele>
        <time>2017-02-12T13:36:35.000Z</time>
      </trkpt>
      <trkpt lat="43.39158" lon="5.4039">
        <ele>446.79998779297</ele>
        <time>2017-02-12T13:36:42.000Z</time>
      </trkpt>
      <trkpt lat="43.39159" lon="5.40393">
        <ele>446.60000610352</ele>
        <time>2017-02-12T13:36:50.000Z</time>
      </trkpt>
      <trkpt lat="43.3916" lon="5.40393">
        <ele>446.79998779297</ele>
        <time>2017-02-12T13:36:53.000Z</time>
      </trkpt>
      <trkpt lat="43.39162" lon="5.40394">
        <ele>446.79998779297</ele>
        <time>2017-02-12T13:36:55.000Z</time>
      </trkpt>
      <trkpt lat="43.39167" lon="5.404">
        <ele>446.20001220703</ele>
        <time>2017-02-12T13:37:01.000Z</time>
      </trkpt>
      <trkpt lat="43.39168" lon="5.40403">
        <ele>445.79998779297</ele>
        <time>2017-02-12T13:37:04.000Z</time>
      </trkpt>
      <trkpt lat="43.39171" lon="5.40406">
        <ele>445.39999389648</ele>
        <time>2017-02-12T13:37:08.000Z</time>
      </trkpt>
      <trkpt lat="43.39176" lon="5.40409">
        <ele>444.79998779297</ele>
        <time>2017-02-12T13:37:15.000Z</time>
      </trkpt>
      <trkpt lat="43.39181" lon="5.40409">
        <ele>444.79998779297</ele>
        <time>2017-02-12T13:37:20.000Z</time>
      </trkpt>
      <trkpt lat="43.39185" lon="5.40409">
        <ele>444.39999389648</ele>
        <time>2017-02-12T13:37:23.000Z</time>
      </trkpt>
      <trkpt lat="43.39186" lon="5.40408">
        <ele>444</ele>
        <time>2017-02-12T13:37:24.000Z</time>
      </trkpt>
      <trkpt lat="43.39187" lon="5.40408">
        <ele>443.79998779297</ele>
        <time>2017-02-12T13:37:25.000Z</time>
      </trkpt>
      <trkpt lat="43.39191" lon="5.40406">
        <ele>443.39999389648</ele>
        <time>2017-02-12T13:37:29.000Z</time>
      </trkpt>
      <trkpt lat="43.39196" lon="5.40406">
        <ele>442.79998779297</ele>
        <time>2017-02-12T13:37:33.000Z</time>
      </trkpt>
      <trkpt lat="43.39202" lon="5.40406">
        <ele>442.20001220703</ele>
        <time>2017-02-12T13:37:39.000Z</time>
      </trkpt>
      <trkpt lat="43.39209" lon="5.40408">
        <ele>442</ele>
        <time>2017-02-12T13:37:45.000Z</time>
      </trkpt>
      <trkpt lat="43.3921" lon="5.40409">
        <ele>441.79998779297</ele>
        <time>2017-02-12T13:37:47.000Z</time>
      </trkpt>
      <trkpt lat="43.39216" lon="5.40415">
        <ele>442.20001220703</ele>
        <time>2017-02-12T13:37:54.000Z</time>
      </trkpt>
      <trkpt lat="43.39219" lon="5.40417">
        <ele>442.20001220703</ele>
        <time>2017-02-12T13:37:57.000Z</time>
      </trkpt>
      <trkpt lat="43.39223" lon="5.4042">
        <ele>442.60000610352</ele>
        <time>2017-02-12T13:38:01.000Z</time>
      </trkpt>
      <trkpt lat="43.39223" lon="5.40421">
        <ele>442.60000610352</ele>
        <time>2017-02-12T13:38:02.000Z</time>
      </trkpt>
      <trkpt lat="43.39227" lon="5.40425">
        <ele>442.60000610352</ele>
        <time>2017-02-12T13:38:07.000Z</time>
      </trkpt>
      <trkpt lat="43.39234" lon="5.40429">
        <ele>441.60000610352</ele>
        <time>2017-02-12T13:38:15.000Z</time>
      </trkpt>
      <trkpt lat="43.39237" lon="5.40429">
        <ele>441.39999389648</ele>
        <time>2017-02-12T13:38:17.000Z</time>
      </trkpt>
      <trkpt lat="43.39241" lon="5.40429">
        <ele>441</ele>
        <time>2017-02-12T13:38:21.000Z</time>
      </trkpt>
      <trkpt lat="43.39247" lon="5.40429">
        <ele>441</ele>
        <time>2017-02-12T13:38:28.000Z</time>
      </trkpt>
      <trkpt lat="43.39255" lon="5.40428">
        <ele>440.79998779297</ele>
        <time>2017-02-12T13:38:35.000Z</time>
      </trkpt>
      <trkpt lat="43.39258" lon="5.40427">
        <ele>440.39999389648</ele>
        <time>2017-02-12T13:38:39.000Z</time>
      </trkpt>
      <trkpt lat="43.39263" lon="5.40426">
        <ele>440</ele>
        <time>2017-02-12T13:38:43.000Z</time>
      </trkpt>
      <trkpt lat="43.3927" lon="5.40422">
        <ele>439.60000610352</ele>
        <time>2017-02-12T13:38:51.000Z</time>
      </trkpt>
      <trkpt lat="43.39274" lon="5.4042">
        <ele>439.39999389648</ele>
        <time>2017-02-12T13:38:55.000Z</time>
      </trkpt>
      <trkpt lat="43.39277" lon="5.40419">
        <ele>439</ele>
        <time>2017-02-12T13:38:58.000Z</time>
      </trkpt>
      <trkpt lat="43.39282" lon="5.40413">
        <ele>438.39999389648</ele>
        <time>2017-02-12T13:39:07.000Z</time>
      </trkpt>
      <trkpt lat="43.39283" lon="5.40413">
        <ele>438</ele>
        <time>2017-02-12T13:39:08.000Z</time>
      </trkpt>
      <trkpt lat="43.39289" lon="5.4041">
        <ele>437.20001220703</ele>
        <time>2017-02-12T13:39:16.000Z</time>
      </trkpt>
      <trkpt lat="43.39289" lon="5.40409">
        <ele>437</ele>
        <time>2017-02-12T13:39:17.000Z</time>
      </trkpt>
      <trkpt lat="43.39297" lon="5.40404">
        <ele>436.20001220703</ele>
        <time>2017-02-12T13:39:26.000Z</time>
      </trkpt>
      <trkpt lat="43.39301" lon="5.40403">
        <ele>436</ele>
        <time>2017-02-12T13:39:29.000Z</time>
      </trkpt>
      <trkpt lat="43.39308" lon="5.40401">
        <ele>435.60000610352</ele>
        <time>2017-02-12T13:39:36.000Z</time>
      </trkpt>
      <trkpt lat="43.39315" lon="5.40398">
        <ele>435</ele>
        <time>2017-02-12T13:39:43.000Z</time>
      </trkpt>
      <trkpt lat="43.39317" lon="5.40397">
        <ele>434.79998779297</ele>
        <time>2017-02-12T13:39:45.000Z</time>
      </trkpt>
      <trkpt lat="43.39323" lon="5.40395">
        <ele>434.20001220703</ele>
        <time>2017-02-12T13:39:51.000Z</time>
      </trkpt>
      <trkpt lat="43.39326" lon="5.40395">
        <ele>433.79998779297</ele>
        <time>2017-02-12T13:39:54.000Z</time>
      </trkpt>
      <trkpt lat="43.3933" lon="5.40394">
        <ele>433</ele>
        <time>2017-02-12T13:39:59.000Z</time>
      </trkpt>
      <trkpt lat="43.39333" lon="5.40393">
        <ele>432.79998779297</ele>
        <time>2017-02-12T13:40:01.000Z</time>
      </trkpt>
      <trkpt lat="43.39338" lon="5.40391">
        <ele>432.20001220703</ele>
        <time>2017-02-12T13:40:07.000Z</time>
      </trkpt>
      <trkpt lat="43.39341" lon="5.4039">
        <ele>432</ele>
        <time>2017-02-12T13:40:10.000Z</time>
      </trkpt>
      <trkpt lat="43.39343" lon="5.40389">
        <ele>431.79998779297</ele>
        <time>2017-02-12T13:40:12.000Z</time>
      </trkpt>
      <trkpt lat="43.39344" lon="5.40389">
        <ele>431.60000610352</ele>
        <time>2017-02-12T13:40:13.000Z</time>
      </trkpt>
      <trkpt lat="43.39349" lon="5.40386">
        <ele>431.20001220703</ele>
        <time>2017-02-12T13:40:19.000Z</time>
      </trkpt>
      <trkpt lat="43.39351" lon="5.40385">
        <ele>431.20001220703</ele>
        <time>2017-02-12T13:40:21.000Z</time>
      </trkpt>
      <trkpt lat="43.39354" lon="5.40383">
        <ele>430.79998779297</ele>
        <time>2017-02-12T13:40:25.000Z</time>
      </trkpt>
      <trkpt lat="43.39355" lon="5.40382">
        <ele>430.79998779297</ele>
        <time>2017-02-12T13:40:26.000Z</time>
      </trkpt>
      <trkpt lat="43.3936" lon="5.40378">
        <ele>430.39999389648</ele>
        <time>2017-02-12T13:40:32.000Z</time>
      </trkpt>
      <trkpt lat="43.39365" lon="5.40375">
        <ele>430</ele>
        <time>2017-02-12T13:40:37.000Z</time>
      </trkpt>
      <trkpt lat="43.39366" lon="5.40373">
        <ele>429.20001220703</ele>
        <time>2017-02-12T13:40:39.000Z</time>
      </trkpt>
      <trkpt lat="43.39371" lon="5.4037">
        <ele>428.79998779297</ele>
        <time>2017-02-12T13:40:44.000Z</time>
      </trkpt>
      <trkpt lat="43.39371" lon="5.4037">
        <ele>428.60000610352</ele>
        <time>2017-02-12T13:40:45.000Z</time>
      </trkpt>
      <trkpt lat="43.39375" lon="5.40368">
        <ele>428.20001220703</ele>
        <time>2017-02-12T13:40:49.000Z</time>
      </trkpt>
      <trkpt lat="43.39376" lon="5.40367">
        <ele>428</ele>
        <time>2017-02-12T13:40:50.000Z</time>
      </trkpt>
      <trkpt lat="43.3938" lon="5.40364">
        <ele>427.20001220703</ele>
        <time>2017-02-12T13:40:56.000Z</time>
      </trkpt>
      <trkpt lat="43.39387" lon="5.40357">
        <ele>426.20001220703</ele>
        <time>2017-02-12T13:41:05.000Z</time>
      </trkpt>
      <trkpt lat="43.39388" lon="5.40355">
        <ele>426</ele>
        <time>2017-02-12T13:41:07.000Z</time>
      </trkpt>
      <trkpt lat="43.39392" lon="5.40349">
        <ele>425.39999389648</ele>
        <time>2017-02-12T13:41:13.000Z</time>
      </trkpt>
      <trkpt lat="43.39396" lon="5.40342">
        <ele>425.20001220703</ele>
        <time>2017-02-12T13:41:20.000Z</time>
      </trkpt>
      <trkpt lat="43.39397" lon="5.40339">
        <ele>425</ele>
        <time>2017-02-12T13:41:23.000Z</time>
      </trkpt>
      <trkpt lat="43.39398" lon="5.40336">
        <ele>424.39999389648</ele>
        <time>2017-02-12T13:41:26.000Z</time>
      </trkpt>
      <trkpt lat="43.39399" lon="5.40333">
        <ele>423.79998779297</ele>
        <time>2017-02-12T13:41:28.000Z</time>
      </trkpt>
      <trkpt lat="43.39401" lon="5.40329">
        <ele>422.39999389648</ele>
        <time>2017-02-12T13:41:33.000Z</time>
      </trkpt>
      <trkpt lat="43.39402" lon="5.40327">
        <ele>422</ele>
        <time>2017-02-12T13:41:35.000Z</time>
      </trkpt>
      <trkpt lat="43.39405" lon="5.4032">
        <ele>421.20001220703</ele>
        <time>2017-02-12T13:41:41.000Z</time>
      </trkpt>
      <trkpt lat="43.39408" lon="5.40314">
        <ele>420.39999389648</ele>
        <time>2017-02-12T13:41:46.000Z</time>
      </trkpt>
      <trkpt lat="43.39409" lon="5.40312">
        <ele>420.20001220703</ele>
        <time>2017-02-12T13:41:48.000Z</time>
      </trkpt>
      <trkpt lat="43.39412" lon="5.40306">
        <ele>419.60000610352</ele>
        <time>2017-02-12T13:41:53.000Z</time>
      </trkpt>
      <trkpt lat="43.39413" lon="5.40303">
        <ele>419.20001220703</ele>
        <time>2017-02-12T13:41:56.000Z</time>
      </trkpt>
      <trkpt lat="43.39416" lon="5.40295">
        <ele>419</ele>
        <time>2017-02-12T13:42:03.000Z</time>
      </trkpt>
      <trkpt lat="43.39416" lon="5.40294">
        <ele>419</ele>
        <time>2017-02-12T13:42:04.000Z</time>
      </trkpt>
      <trkpt lat="43.39416" lon="5.40288">
        <ele>418.79998779297</ele>
        <time>2017-02-12T13:42:09.000Z</time>
      </trkpt>
      <trkpt lat="43.39415" lon="5.40278">
        <ele>419.20001220703</ele>
        <time>2017-02-12T13:42:17.000Z</time>
      </trkpt>
      <trkpt lat="43.39412" lon="5.40269">
        <ele>419.79998779297</ele>
        <time>2017-02-12T13:42:25.000Z</time>
      </trkpt>
      <trkpt lat="43.3941" lon="5.40265">
        <ele>419.60000610352</ele>
        <time>2017-02-12T13:42:29.000Z</time>
      </trkpt>
      <trkpt lat="43.39409" lon="5.40263">
        <ele>419</ele>
        <time>2017-02-12T13:42:32.000Z</time>
      </trkpt>
      <trkpt lat="43.39408" lon="5.40259">
        <ele>417.79998779297</ele>
        <time>2017-02-12T13:42:35.000Z</time>
      </trkpt>
      <trkpt lat="43.39406" lon="5.40256">
        <ele>417.20001220703</ele>
        <time>2017-02-12T13:42:38.000Z</time>
      </trkpt>
      <trkpt lat="43.39402" lon="5.40253">
        <ele>416.79998779297</ele>
        <time>2017-02-12T13:42:42.000Z</time>
      </trkpt>
      <trkpt lat="43.39399" lon="5.40252">
        <ele>415.79998779297</ele>
        <time>2017-02-12T13:42:45.000Z</time>
      </trkpt>
      <trkpt lat="43.39393" lon="5.40252">
        <ele>415</ele>
        <time>2017-02-12T13:42:51.000Z</time>
      </trkpt>
      <trkpt lat="43.39392" lon="5.40252">
        <ele>414.79998779297</ele>
        <time>2017-02-12T13:42:52.000Z</time>
      </trkpt>
      <trkpt lat="43.39387" lon="5.40251">
        <ele>414.60000610352</ele>
        <time>2017-02-12T13:42:58.000Z</time>
      </trkpt>
      <trkpt lat="43.39387" lon="5.40248">
        <ele>414.79998779297</ele>
        <time>2017-02-12T13:43:07.000Z</time>
      </trkpt>
      <trkpt lat="43.39387" lon="5.40248">
        <ele>415.20001220703</ele>
        <time>2017-02-12T13:43:18.000Z</time>
      </trkpt>
      <trkpt lat="43.39387" lon="5.40248">
        <ele>414.60000610352</ele>
        <time>2017-02-12T13:43:28.000Z</time>
      </trkpt>
      <trkpt lat="43.39387" lon="5.40249">
        <ele>414.20001220703</ele>
        <time>2017-02-12T13:43:35.000Z</time>
      </trkpt>
      <trkpt lat="43.39384" lon="5.40251">
        <ele>414</ele>
        <time>2017-02-12T13:43:42.000Z</time>
      </trkpt>
      <trkpt lat="43.39377" lon="5.40257">
        <ele>415</ele>
        <time>2017-02-12T13:43:47.000Z</time>
      </trkpt>
      <trkpt lat="43.3937" lon="5.40265">
        <ele>414.39999389648</ele>
        <time>2017-02-12T13:43:53.000Z</time>
      </trkpt>
      <trkpt lat="43.39367" lon="5.40268">
        <ele>414.20001220703</ele>
        <time>2017-02-12T13:43:55.000Z</time>
      </trkpt>
      <trkpt lat="43.39366" lon="5.4027">
        <ele>413.79998779297</ele>
        <time>2017-02-12T13:43:56.000Z</time>
      </trkpt>
      <trkpt lat="43.39362" lon="5.40275">
        <ele>413</ele>
        <time>2017-02-12T13:43:59.000Z</time>
      </trkpt>
      <trkpt lat="43.39358" lon="5.40277">
        <ele>412.60000610352</ele>
        <time>2017-02-12T13:44:02.000Z</time>
      </trkpt>
      <trkpt lat="43.39355" lon="5.40277">
        <ele>412.39999389648</ele>
        <time>2017-02-12T13:44:04.000Z</time>
      </trkpt>
      <trkpt lat="43.39352" lon="5.40276">
        <ele>412.60000610352</ele>
        <time>2017-02-12T13:44:06.000Z</time>
      </trkpt>
      <trkpt lat="43.3935" lon="5.40273">
        <ele>412.60000610352</ele>
        <time>2017-02-12T13:44:08.000Z</time>
      </trkpt>
      <trkpt lat="43.39347" lon="5.40258">
        <ele>412.20001220703</ele>
        <time>2017-02-12T13:44:14.000Z</time>
      </trkpt>
      <trkpt lat="43.39349" lon="5.40245">
        <ele>411.60000610352</ele>
        <time>2017-02-12T13:44:20.000Z</time>
      </trkpt>
      <trkpt lat="43.3935" lon="5.40241">
        <ele>411.20001220703</ele>
        <time>2017-02-12T13:44:22.000Z</time>
      </trkpt>
      <trkpt lat="43.39353" lon="5.40229">
        <ele>410.60000610352</ele>
        <time>2017-02-12T13:44:28.000Z</time>
      </trkpt>
      <trkpt lat="43.39354" lon="5.40227">
        <ele>410.39999389648</ele>
        <time>2017-02-12T13:44:29.000Z</time>
      </trkpt>
      <trkpt lat="43.39356" lon="5.40222">
        <ele>409.39999389648</ele>
        <time>2017-02-12T13:44:32.000Z</time>
      </trkpt>
      <trkpt lat="43.39356" lon="5.40219">
        <ele>409.20001220703</ele>
        <time>2017-02-12T13:44:33.000Z</time>
      </trkpt>
      <trkpt lat="43.39358" lon="5.40213">
        <ele>408.39999389648</ele>
        <time>2017-02-12T13:44:36.000Z</time>
      </trkpt>
      <trkpt lat="43.39359" lon="5.40212">
        <ele>408.39999389648</ele>
        <time>2017-02-12T13:44:37.000Z</time>
      </trkpt>
      <trkpt lat="43.39361" lon="5.40207">
        <ele>407.39999389648</ele>
        <time>2017-02-12T13:44:41.000Z</time>
      </trkpt>
      <trkpt lat="43.39361" lon="5.40206">
        <ele>407</ele>
        <time>2017-02-12T13:44:42.000Z</time>
      </trkpt>
      <trkpt lat="43.39363" lon="5.40197">
        <ele>405.79998779297</ele>
        <time>2017-02-12T13:44:47.000Z</time>
      </trkpt>
      <trkpt lat="43.39363" lon="5.40196">
        <ele>405.79998779297</ele>
        <time>2017-02-12T13:44:48.000Z</time>
      </trkpt>
      <trkpt lat="43.3936" lon="5.40188">
        <ele>404.79998779297</ele>
        <time>2017-02-12T13:44:55.000Z</time>
      </trkpt>
      <trkpt lat="43.39354" lon="5.40187">
        <ele>404.39999389648</ele>
        <time>2017-02-12T13:45:02.000Z</time>
      </trkpt>
      <trkpt lat="43.39349" lon="5.40188">
        <ele>404.79998779297</ele>
        <time>2017-02-12T13:45:06.000Z</time>
      </trkpt>
      <trkpt lat="43.39346" lon="5.40189">
        <ele>404</ele>
        <time>2017-02-12T13:45:09.000Z</time>
      </trkpt>
      <trkpt lat="43.39345" lon="5.40189">
        <ele>403.79998779297</ele>
        <time>2017-02-12T13:45:10.000Z</time>
      </trkpt>
      <trkpt lat="43.39339" lon="5.40192">
        <ele>403</ele>
        <time>2017-02-12T13:45:16.000Z</time>
      </trkpt>
      <trkpt lat="43.39335" lon="5.40192">
        <ele>403.20001220703</ele>
        <time>2017-02-12T13:45:20.000Z</time>
      </trkpt>
      <trkpt lat="43.39333" lon="5.40193">
        <ele>403.39999389648</ele>
        <time>2017-02-12T13:45:23.000Z</time>
      </trkpt>
      <trkpt lat="43.39331" lon="5.40194">
        <ele>403.60000610352</ele>
        <time>2017-02-12T13:45:25.000Z</time>
      </trkpt>
      <trkpt lat="43.39328" lon="5.40196">
        <ele>403</ele>
        <time>2017-02-12T13:45:29.000Z</time>
      </trkpt>
      <trkpt lat="43.39326" lon="5.40198">
        <ele>402.39999389648</ele>
        <time>2017-02-12T13:45:32.000Z</time>
      </trkpt>
      <trkpt lat="43.39322" lon="5.40204">
        <ele>401.79998779297</ele>
        <time>2017-02-12T13:45:38.000Z</time>
      </trkpt>
      <trkpt lat="43.39314" lon="5.40216">
        <ele>401.39999389648</ele>
        <time>2017-02-12T13:45:50.000Z</time>
      </trkpt>
      <trkpt lat="43.39309" lon="5.40222">
        <ele>400.39999389648</ele>
        <time>2017-02-12T13:45:56.000Z</time>
      </trkpt>
      <trkpt lat="43.39309" lon="5.40223">
        <ele>400.20001220703</ele>
        <time>2017-02-12T13:45:57.000Z</time>
      </trkpt>
      <trkpt lat="43.39305" lon="5.40227">
        <ele>399.39999389648</ele>
        <time>2017-02-12T13:46:02.000Z</time>
      </trkpt>
      <trkpt lat="43.39303" lon="5.40228">
        <ele>399</ele>
        <time>2017-02-12T13:46:04.000Z</time>
      </trkpt>
      <trkpt lat="43.393" lon="5.40228">
        <ele>398.79998779297</ele>
        <time>2017-02-12T13:46:06.000Z</time>
      </trkpt>
      <trkpt lat="43.39294" lon="5.4023">
        <ele>398.79998779297</ele>
        <time>2017-02-12T13:46:12.000Z</time>
      </trkpt>
      <trkpt lat="43.3929" lon="5.40231">
        <ele>398.20001220703</ele>
        <time>2017-02-12T13:46:17.000Z</time>
      </trkpt>
      <trkpt lat="43.39289" lon="5.40231">
        <ele>398.20001220703</ele>
        <time>2017-02-12T13:46:18.000Z</time>
      </trkpt>
      <trkpt lat="43.39277" lon="5.4023">
        <ele>398.79998779297</ele>
        <time>2017-02-12T13:46:29.000Z</time>
      </trkpt>
      <trkpt lat="43.39273" lon="5.40228">
        <ele>399.39999389648</ele>
        <time>2017-02-12T13:46:33.000Z</time>
      </trkpt>
      <trkpt lat="43.39269" lon="5.40221">
        <ele>400</ele>
        <time>2017-02-12T13:46:39.000Z</time>
      </trkpt>
      <trkpt lat="43.39267" lon="5.40215">
        <ele>400</ele>
        <time>2017-02-12T13:46:43.000Z</time>
      </trkpt>
      <trkpt lat="43.39267" lon="5.40211">
        <ele>399.60000610352</ele>
        <time>2017-02-12T13:46:46.000Z</time>
      </trkpt>
      <trkpt lat="43.39266" lon="5.402">
        <ele>399.20001220703</ele>
        <time>2017-02-12T13:46:53.000Z</time>
      </trkpt>
      <trkpt lat="43.39265" lon="5.40191">
        <ele>398.79998779297</ele>
        <time>2017-02-12T13:47:00.000Z</time>
      </trkpt>
      <trkpt lat="43.39264" lon="5.40188">
        <ele>398.79998779297</ele>
        <time>2017-02-12T13:47:02.000Z</time>
      </trkpt>
      <trkpt lat="43.39263" lon="5.40184">
        <ele>398.79998779297</ele>
        <time>2017-02-12T13:47:05.000Z</time>
      </trkpt>
      <trkpt lat="43.39261" lon="5.40177">
        <ele>398.39999389648</ele>
        <time>2017-02-12T13:47:10.000Z</time>
      </trkpt>
      <trkpt lat="43.39254" lon="5.40168">
        <ele>398.60000610352</ele>
        <time>2017-02-12T13:47:19.000Z</time>
      </trkpt>
      <trkpt lat="43.39252" lon="5.40167">
        <ele>398</ele>
        <time>2017-02-12T13:47:21.000Z</time>
      </trkpt>
      <trkpt lat="43.39247" lon="5.40166">
        <ele>397.20001220703</ele>
        <time>2017-02-12T13:47:26.000Z</time>
      </trkpt>
      <trkpt lat="43.39238" lon="5.40163">
        <ele>397.20001220703</ele>
        <time>2017-02-12T13:47:35.000Z</time>
      </trkpt>
      <trkpt lat="43.39237" lon="5.40161">
        <ele>397</ele>
        <time>2017-02-12T13:47:37.000Z</time>
      </trkpt>
      <trkpt lat="43.39232" lon="5.40158">
        <ele>395.60000610352</ele>
        <time>2017-02-12T13:47:42.000Z</time>
      </trkpt>
      <trkpt lat="43.3923" lon="5.40155">
        <ele>395.60000610352</ele>
        <time>2017-02-12T13:47:45.000Z</time>
      </trkpt>
      <trkpt lat="43.39228" lon="5.40152">
        <ele>396.39999389648</ele>
        <time>2017-02-12T13:47:48.000Z</time>
      </trkpt>
      <trkpt lat="43.39226" lon="5.4015">
        <ele>396.60000610352</ele>
        <time>2017-02-12T13:47:50.000Z</time>
      </trkpt>
      <trkpt lat="43.39223" lon="5.40146">
        <ele>396.79998779297</ele>
        <time>2017-02-12T13:47:54.000Z</time>
      </trkpt>
      <trkpt lat="43.39218" lon="5.40138">
        <ele>396.60000610352</ele>
        <time>2017-02-12T13:48:01.000Z</time>
      </trkpt>
      <trkpt lat="43.39212" lon="5.40132">
        <ele>397.79998779297</ele>
        <time>2017-02-12T13:48:08.000Z</time>
      </trkpt>
      <trkpt lat="43.39211" lon="5.40131">
        <ele>398</ele>
        <time>2017-02-12T13:48:09.000Z</time>
      </trkpt>
      <trkpt lat="43.39206" lon="5.40126">
        <ele>399</ele>
        <time>2017-02-12T13:48:15.000Z</time>
      </trkpt>
      <trkpt lat="43.39204" lon="5.40124">
        <ele>399.60000610352</ele>
        <time>2017-02-12T13:48:18.000Z</time>
      </trkpt>
      <trkpt lat="43.39199" lon="5.40121">
        <ele>397.60000610352</ele>
        <time>2017-02-12T13:48:23.000Z</time>
      </trkpt>
      <trkpt lat="43.39195" lon="5.40121">
        <ele>396.60000610352</ele>
        <time>2017-02-12T13:48:26.000Z</time>
      </trkpt>
      <trkpt lat="43.39194" lon="5.40121">
        <ele>396.39999389648</ele>
        <time>2017-02-12T13:48:27.000Z</time>
      </trkpt>
      <trkpt lat="43.39187" lon="5.40127">
        <ele>395.79998779297</ele>
        <time>2017-02-12T13:48:34.000Z</time>
      </trkpt>
      <trkpt lat="43.39183" lon="5.40136">
        <ele>396.20001220703</ele>
        <time>2017-02-12T13:48:42.000Z</time>
      </trkpt>
      <trkpt lat="43.39179" lon="5.40146">
        <ele>395.60000610352</ele>
        <time>2017-02-12T13:48:50.000Z</time>
      </trkpt>
      <trkpt lat="43.39175" lon="5.40152">
        <ele>396</ele>
        <time>2017-02-12T13:48:56.000Z</time>
      </trkpt>
      <trkpt lat="43.3917" lon="5.40155">
        <ele>396.20001220703</ele>
        <time>2017-02-12T13:49:02.000Z</time>
      </trkpt>
      <trkpt lat="43.39161" lon="5.40158">
        <ele>396.39999389648</ele>
        <time>2017-02-12T13:49:12.000Z</time>
      </trkpt>
      <trkpt lat="43.39155" lon="5.40157">
        <ele>396.39999389648</ele>
        <time>2017-02-12T13:49:18.000Z</time>
      </trkpt>
      <trkpt lat="43.39154" lon="5.40156">
        <ele>396.39999389648</ele>
        <time>2017-02-12T13:49:19.000Z</time>
      </trkpt>
      <trkpt lat="43.3915" lon="5.40153">
        <ele>396.39999389648</ele>
        <time>2017-02-12T13:49:24.000Z</time>
      </trkpt>
      <trkpt lat="43.39149" lon="5.40152">
        <ele>396.39999389648</ele>
        <time>2017-02-12T13:49:25.000Z</time>
      </trkpt>
      <trkpt lat="43.39145" lon="5.40147">
        <ele>396.39999389648</ele>
        <time>2017-02-12T13:49:30.000Z</time>
      </trkpt>
      <trkpt lat="43.3914" lon="5.40141">
        <ele>396.39999389648</ele>
        <time>2017-02-12T13:49:37.000Z</time>
      </trkpt>
      <trkpt lat="43.39134" lon="5.40133">
        <ele>395.79998779297</ele>
        <time>2017-02-12T13:49:45.000Z</time>
      </trkpt>
      <trkpt lat="43.39131" lon="5.40128">
        <ele>395.39999389648</ele>
        <time>2017-02-12T13:49:50.000Z</time>
      </trkpt>
      <trkpt lat="43.39131" lon="5.40128">
        <ele>395.39999389648</ele>
        <time>2017-02-12T13:49:51.000Z</time>
      </trkpt>
      <trkpt lat="43.39127" lon="5.40123">
        <ele>395</ele>
        <time>2017-02-12T13:49:55.000Z</time>
      </trkpt>
      <trkpt lat="43.39125" lon="5.40119">
        <ele>395</ele>
        <time>2017-02-12T13:50:02.000Z</time>
      </trkpt>
      <trkpt lat="43.39124" lon="5.4012">
        <ele>394.79998779297</ele>
        <time>2017-02-12T13:50:12.000Z</time>
      </trkpt>
      <trkpt lat="43.39124" lon="5.4012">
        <ele>394.79998779297</ele>
        <time>2017-02-12T13:50:25.000Z</time>
      </trkpt>
      <trkpt lat="43.39124" lon="5.40119">
        <ele>394.60000610352</ele>
        <time>2017-02-12T13:50:34.000Z</time>
      </trkpt>
      <trkpt lat="43.39124" lon="5.4012">
        <ele>395.39999389648</ele>
        <time>2017-02-12T13:50:44.000Z</time>
      </trkpt>
      <trkpt lat="43.39125" lon="5.4012">
        <ele>395.20001220703</ele>
        <time>2017-02-12T13:50:52.000Z</time>
      </trkpt>
      <trkpt lat="43.39125" lon="5.40119">
        <ele>395</ele>
        <time>2017-02-12T13:51:04.000Z</time>
      </trkpt>
      <trkpt lat="43.39125" lon="5.40118">
        <ele>395.20001220703</ele>
        <time>2017-02-12T13:51:12.000Z</time>
      </trkpt>
      <trkpt lat="43.39125" lon="5.40117">
        <ele>395</ele>
        <time>2017-02-12T13:51:13.000Z</time>
      </trkpt>
      <trkpt lat="43.39123" lon="5.40111">
        <ele>394.39999389648</ele>
        <time>2017-02-12T13:51:18.000Z</time>
      </trkpt>
      <trkpt lat="43.39122" lon="5.40105">
        <ele>393.60000610352</ele>
        <time>2017-02-12T13:51:24.000Z</time>
      </trkpt>
      <trkpt lat="43.39121" lon="5.40101">
        <ele>393.20001220703</ele>
        <time>2017-02-12T13:51:27.000Z</time>
      </trkpt>
      <trkpt lat="43.3912" lon="5.40088">
        <ele>393</ele>
        <time>2017-02-12T13:51:36.000Z</time>
      </trkpt>
      <trkpt lat="43.3912" lon="5.40076">
        <ele>393.39999389648</ele>
        <time>2017-02-12T13:51:44.000Z</time>
      </trkpt>
      <trkpt lat="43.39119" lon="5.40075">
        <ele>393.39999389648</ele>
        <time>2017-02-12T13:51:45.000Z</time>
      </trkpt>
      <trkpt lat="43.39118" lon="5.40071">
        <ele>393</ele>
        <time>2017-02-12T13:51:48.000Z</time>
      </trkpt>
      <trkpt lat="43.39117" lon="5.40065">
        <ele>392.39999389648</ele>
        <time>2017-02-12T13:51:53.000Z</time>
      </trkpt>
      <trkpt lat="43.39116" lon="5.4006">
        <ele>392</ele>
        <time>2017-02-12T13:51:57.000Z</time>
      </trkpt>
      <trkpt lat="43.39115" lon="5.40049">
        <ele>391.20001220703</ele>
        <time>2017-02-12T13:52:04.000Z</time>
      </trkpt>
      <trkpt lat="43.39115" lon="5.40033">
        <ele>391.20001220703</ele>
        <time>2017-02-12T13:52:15.000Z</time>
      </trkpt>
      <trkpt lat="43.39115" lon="5.4003">
        <ele>390.60000610352</ele>
        <time>2017-02-12T13:52:17.000Z</time>
      </trkpt>
      <trkpt lat="43.39114" lon="5.40025">
        <ele>390.20001220703</ele>
        <time>2017-02-12T13:52:21.000Z</time>
      </trkpt>
      <trkpt lat="43.39114" lon="5.40019">
        <ele>389.60000610352</ele>
        <time>2017-02-12T13:52:25.000Z</time>
      </trkpt>
      <trkpt lat="43.39113" lon="5.40014">
        <ele>389.20001220703</ele>
        <time>2017-02-12T13:52:30.000Z</time>
      </trkpt>
      <trkpt lat="43.39112" lon="5.40004">
        <ele>389.60000610352</ele>
        <time>2017-02-12T13:52:38.000Z</time>
      </trkpt>
      <trkpt lat="43.39111" lon="5.4">
        <ele>389.60000610352</ele>
        <time>2017-02-12T13:52:41.000Z</time>
      </trkpt>
      <trkpt lat="43.3911" lon="5.39994">
        <ele>389.39999389648</ele>
        <time>2017-02-12T13:52:46.000Z</time>
      </trkpt>
      <trkpt lat="43.3911" lon="5.39993">
        <ele>389.39999389648</ele>
        <time>2017-02-12T13:52:47.000Z</time>
      </trkpt>
      <trkpt lat="43.3911" lon="5.39987">
        <ele>389.20001220703</ele>
        <time>2017-02-12T13:52:51.000Z</time>
      </trkpt>
      <trkpt lat="43.3911" lon="5.39985">
        <ele>389.20001220703</ele>
        <time>2017-02-12T13:52:53.000Z</time>
      </trkpt>
      <trkpt lat="43.39109" lon="5.39979">
        <ele>388.79998779297</ele>
        <time>2017-02-12T13:52:57.000Z</time>
      </trkpt>
      <trkpt lat="43.39109" lon="5.39977">
        <ele>388.60000610352</ele>
        <time>2017-02-12T13:52:59.000Z</time>
      </trkpt>
      <trkpt lat="43.39108" lon="5.3997">
        <ele>388.20001220703</ele>
        <time>2017-02-12T13:53:04.000Z</time>
      </trkpt>
      <trkpt lat="43.39108" lon="5.39959">
        <ele>387.60000610352</ele>
        <time>2017-02-12T13:53:12.000Z</time>
      </trkpt>
      <trkpt lat="43.39109" lon="5.39957">
        <ele>387.60000610352</ele>
        <time>2017-02-12T13:53:13.000Z</time>
      </trkpt>
      <trkpt lat="43.3911" lon="5.39949">
        <ele>387.60000610352</ele>
        <time>2017-02-12T13:53:18.000Z</time>
      </trkpt>
      <trkpt lat="43.39109" lon="5.3994">
        <ele>387</ele>
        <time>2017-02-12T13:53:25.000Z</time>
      </trkpt>
      <trkpt lat="43.39109" lon="5.39939">
        <ele>387</ele>
        <time>2017-02-12T13:53:26.000Z</time>
      </trkpt>
      <trkpt lat="43.39109" lon="5.39935">
        <ele>386.20001220703</ele>
        <time>2017-02-12T13:53:29.000Z</time>
      </trkpt>
      <trkpt lat="43.39109" lon="5.39933">
        <ele>386.20001220703</ele>
        <time>2017-02-12T13:53:30.000Z</time>
      </trkpt>
      <trkpt lat="43.39111" lon="5.39931">
        <ele>386</ele>
        <time>2017-02-12T13:53:36.000Z</time>
      </trkpt>
      <trkpt lat="43.3911" lon="5.39926">
        <ele>386</ele>
        <time>2017-02-12T13:53:44.000Z</time>
      </trkpt>
      <trkpt lat="43.3911" lon="5.3991">
        <ele>385.39999389648</ele>
        <time>2017-02-12T13:53:55.000Z</time>
      </trkpt>
      <trkpt lat="43.3911" lon="5.39908">
        <ele>385.20001220703</ele>
        <time>2017-02-12T13:53:56.000Z</time>
      </trkpt>
      <trkpt lat="43.39113" lon="5.39897">
        <ele>385</ele>
        <time>2017-02-12T13:54:03.000Z</time>
      </trkpt>
      <trkpt lat="43.39113" lon="5.39896">
        <ele>385</ele>
        <time>2017-02-12T13:54:04.000Z</time>
      </trkpt>
      <trkpt lat="43.39112" lon="5.3989">
        <ele>384.60000610352</ele>
        <time>2017-02-12T13:54:08.000Z</time>
      </trkpt>
      <trkpt lat="43.39112" lon="5.39888">
        <ele>384.60000610352</ele>
        <time>2017-02-12T13:54:10.000Z</time>
      </trkpt>
      <trkpt lat="43.39111" lon="5.39883">
        <ele>384.39999389648</ele>
        <time>2017-02-12T13:54:14.000Z</time>
      </trkpt>
      <trkpt lat="43.39111" lon="5.3988">
        <ele>384.39999389648</ele>
        <time>2017-02-12T13:54:16.000Z</time>
      </trkpt>
      <trkpt lat="43.39111" lon="5.39879">
        <ele>384.39999389648</ele>
        <time>2017-02-12T13:54:17.000Z</time>
      </trkpt>
      <trkpt lat="43.39112" lon="5.39875">
        <ele>384</ele>
        <time>2017-02-12T13:54:20.000Z</time>
      </trkpt>
      <trkpt lat="43.39112" lon="5.3987">
        <ele>383</ele>
        <time>2017-02-12T13:54:24.000Z</time>
      </trkpt>
      <trkpt lat="43.39112" lon="5.39868">
        <ele>382.79998779297</ele>
        <time>2017-02-12T13:54:25.000Z</time>
      </trkpt>
      <trkpt lat="43.39112" lon="5.39867">
        <ele>382.60000610352</ele>
        <time>2017-02-12T13:54:26.000Z</time>
      </trkpt>
      <trkpt lat="43.39112" lon="5.39861">
        <ele>382.79998779297</ele>
        <time>2017-02-12T13:54:30.000Z</time>
      </trkpt>
      <trkpt lat="43.39112" lon="5.39852">
        <ele>382.20001220703</ele>
        <time>2017-02-12T13:54:36.000Z</time>
      </trkpt>
      <trkpt lat="43.39112" lon="5.39844">
        <ele>382</ele>
        <time>2017-02-12T13:54:42.000Z</time>
      </trkpt>
      <trkpt lat="43.39111" lon="5.39837">
        <ele>381.79998779297</ele>
        <time>2017-02-12T13:54:47.000Z</time>
      </trkpt>
      <trkpt lat="43.39111" lon="5.39835">
        <ele>381.79998779297</ele>
        <time>2017-02-12T13:54:48.000Z</time>
      </trkpt>
      <trkpt lat="43.39109" lon="5.39831">
        <ele>381.60000610352</ele>
        <time>2017-02-12T13:54:51.000Z</time>
      </trkpt>
      <trkpt lat="43.39108" lon="5.39827">
        <ele>381.39999389648</ele>
        <time>2017-02-12T13:54:54.000Z</time>
      </trkpt>
      <trkpt lat="43.39105" lon="5.39818">
        <ele>380.79998779297</ele>
        <time>2017-02-12T13:55:01.000Z</time>
      </trkpt>
      <trkpt lat="43.391" lon="5.39809">
        <ele>380.79998779297</ele>
        <time>2017-02-12T13:55:09.000Z</time>
      </trkpt>
      <trkpt lat="43.39099" lon="5.39808">
        <ele>380.60000610352</ele>
        <time>2017-02-12T13:55:10.000Z</time>
      </trkpt>
      <trkpt lat="43.39096" lon="5.39802">
        <ele>379.60000610352</ele>
        <time>2017-02-12T13:55:15.000Z</time>
      </trkpt>
      <trkpt lat="43.39095" lon="5.39801">
        <ele>379.60000610352</ele>
        <time>2017-02-12T13:55:16.000Z</time>
      </trkpt>
      <trkpt lat="43.3909" lon="5.39791">
        <ele>379.20001220703</ele>
        <time>2017-02-12T13:55:24.000Z</time>
      </trkpt>
      <trkpt lat="43.39086" lon="5.39784">
        <ele>378.60000610352</ele>
        <time>2017-02-12T13:55:31.000Z</time>
      </trkpt>
      <trkpt lat="43.39083" lon="5.39782">
        <ele>378.60000610352</ele>
        <time>2017-02-12T13:55:34.000Z</time>
      </trkpt>
      <trkpt lat="43.3908" lon="5.39779">
        <ele>378.39999389648</ele>
        <time>2017-02-12T13:55:38.000Z</time>
      </trkpt>
      <trkpt lat="43.39073" lon="5.39775">
        <ele>378</ele>
        <time>2017-02-12T13:55:45.000Z</time>
      </trkpt>
      <trkpt lat="43.39065" lon="5.39775">
        <ele>377.79998779297</ele>
        <time>2017-02-12T13:55:52.000Z</time>
      </trkpt>
      <trkpt lat="43.39061" lon="5.39776">
        <ele>377.39999389648</ele>
        <time>2017-02-12T13:55:55.000Z</time>
      </trkpt>
      <trkpt lat="43.39055" lon="5.39779">
        <ele>376.79998779297</ele>
        <time>2017-02-12T13:56:01.000Z</time>
      </trkpt>
      <trkpt lat="43.39046" lon="5.39786">
        <ele>376.39999389648</ele>
        <time>2017-02-12T13:56:11.000Z</time>
      </trkpt>
      <trkpt lat="43.39043" lon="5.39787">
        <ele>376.20001220703</ele>
        <time>2017-02-12T13:56:14.000Z</time>
      </trkpt>
      <trkpt lat="43.39039" lon="5.39791">
        <ele>376</ele>
        <time>2017-02-12T13:56:19.000Z</time>
      </trkpt>
      <trkpt lat="43.39033" lon="5.3979">
        <ele>375.39999389648</ele>
        <time>2017-02-12T13:56:27.000Z</time>
      </trkpt>
      <trkpt lat="43.3903" lon="5.39789">
        <ele>375</ele>
        <time>2017-02-12T13:56:30.000Z</time>
      </trkpt>
      <trkpt lat="43.39024" lon="5.39786">
        <ele>374.20001220703</ele>
        <time>2017-02-12T13:56:37.000Z</time>
      </trkpt>
      <trkpt lat="43.39021" lon="5.39783">
        <ele>374</ele>
        <time>2017-02-12T13:56:40.000Z</time>
      </trkpt>
      <trkpt lat="43.39016" lon="5.39778">
        <ele>373.60000610352</ele>
        <time>2017-02-12T13:56:46.000Z</time>
      </trkpt>
      <trkpt lat="43.3901" lon="5.3977">
        <ele>373</ele>
        <time>2017-02-12T13:56:55.000Z</time>
      </trkpt>
      <trkpt lat="43.39005" lon="5.39762">
        <ele>373.39999389648</ele>
        <time>2017-02-12T13:57:03.000Z</time>
      </trkpt>
      <trkpt lat="43.39" lon="5.39755">
        <ele>373</ele>
        <time>2017-02-12T13:57:10.000Z</time>
      </trkpt>
      <trkpt lat="43.38999" lon="5.39755">
        <ele>372.79998779297</ele>
        <time>2017-02-12T13:57:11.000Z</time>
      </trkpt>
      <trkpt lat="43.38995" lon="5.39749">
        <ele>372</ele>
        <time>2017-02-12T13:57:17.000Z</time>
      </trkpt>
      <trkpt lat="43.38993" lon="5.39747">
        <ele>371.79998779297</ele>
        <time>2017-02-12T13:57:19.000Z</time>
      </trkpt>
      <trkpt lat="43.38989" lon="5.39743">
        <ele>371</ele>
        <time>2017-02-12T13:57:25.000Z</time>
      </trkpt>
      <trkpt lat="43.38987" lon="5.39739">
        <ele>370.39999389648</ele>
        <time>2017-02-12T13:57:29.000Z</time>
      </trkpt>
      <trkpt lat="43.38984" lon="5.39735">
        <ele>369.39999389648</ele>
        <time>2017-02-12T13:57:33.000Z</time>
      </trkpt>
      <trkpt lat="43.38984" lon="5.39734">
        <ele>369.20001220703</ele>
        <time>2017-02-12T13:57:34.000Z</time>
      </trkpt>
      <trkpt lat="43.38981" lon="5.39727">
        <ele>369.20001220703</ele>
        <time>2017-02-12T13:57:41.000Z</time>
      </trkpt>
      <trkpt lat="43.38981" lon="5.39724">
        <ele>369.20001220703</ele>
        <time>2017-02-12T13:57:43.000Z</time>
      </trkpt>
      <trkpt lat="43.38981" lon="5.3972">
        <ele>369</ele>
        <time>2017-02-12T13:57:46.000Z</time>
      </trkpt>
      <trkpt lat="43.3898" lon="5.39717">
        <ele>368.39999389648</ele>
        <time>2017-02-12T13:57:48.000Z</time>
      </trkpt>
      <trkpt lat="43.38978" lon="5.39711">
        <ele>368</ele>
        <time>2017-02-12T13:57:53.000Z</time>
      </trkpt>
      <trkpt lat="43.38977" lon="5.39708">
        <ele>368</ele>
        <time>2017-02-12T13:57:55.000Z</time>
      </trkpt>
      <trkpt lat="43.38977" lon="5.39702">
        <ele>368</ele>
        <time>2017-02-12T13:58:00.000Z</time>
      </trkpt>
      <trkpt lat="43.38976" lon="5.39698">
        <ele>368</ele>
        <time>2017-02-12T13:58:03.000Z</time>
      </trkpt>
      <trkpt lat="43.38975" lon="5.39692">
        <ele>367.20001220703</ele>
        <time>2017-02-12T13:58:07.000Z</time>
      </trkpt>
      <trkpt lat="43.38974" lon="5.39684">
        <ele>366.20001220703</ele>
        <time>2017-02-12T13:58:13.000Z</time>
      </trkpt>
      <trkpt lat="43.38973" lon="5.39681">
        <ele>365.79998779297</ele>
        <time>2017-02-12T13:58:16.000Z</time>
      </trkpt>
      <trkpt lat="43.38971" lon="5.3967">
        <ele>365</ele>
        <time>2017-02-12T13:58:24.000Z</time>
      </trkpt>
      <trkpt lat="43.38971" lon="5.39669">
        <ele>365</ele>
        <time>2017-02-12T13:58:25.000Z</time>
      </trkpt>
      <trkpt lat="43.38969" lon="5.39662">
        <ele>364.39999389648</ele>
        <time>2017-02-12T13:58:31.000Z</time>
      </trkpt>
      <trkpt lat="43.38968" lon="5.39659">
        <ele>364.20001220703</ele>
        <time>2017-02-12T13:58:33.000Z</time>
      </trkpt>
      <trkpt lat="43.38968" lon="5.39657">
        <ele>363.79998779297</ele>
        <time>2017-02-12T13:58:35.000Z</time>
      </trkpt>
      <trkpt lat="43.38967" lon="5.39651">
        <ele>362.79998779297</ele>
        <time>2017-02-12T13:58:40.000Z</time>
      </trkpt>
      <trkpt lat="43.38967" lon="5.3965">
        <ele>362.79998779297</ele>
        <time>2017-02-12T13:58:41.000Z</time>
      </trkpt>
      <trkpt lat="43.38967" lon="5.39648">
        <ele>362.39999389648</ele>
        <time>2017-02-12T13:58:43.000Z</time>
      </trkpt>
      <trkpt lat="43.38966" lon="5.39644">
        <ele>362.20001220703</ele>
        <time>2017-02-12T13:58:46.000Z</time>
      </trkpt>
      <trkpt lat="43.38964" lon="5.39635">
        <ele>361.79998779297</ele>
        <time>2017-02-12T13:58:53.000Z</time>
      </trkpt>
      <trkpt lat="43.38961" lon="5.39624">
        <ele>362</ele>
        <time>2017-02-12T13:59:02.000Z</time>
      </trkpt>
      <trkpt lat="43.38958" lon="5.39615">
        <ele>361.60000610352</ele>
        <time>2017-02-12T13:59:09.000Z</time>
      </trkpt>
      <trkpt lat="43.38956" lon="5.39606">
        <ele>360.20001220703</ele>
        <time>2017-02-12T13:59:16.000Z</time>
      </trkpt>
      <trkpt lat="43.38954" lon="5.39601">
        <ele>359.39999389648</ele>
        <time>2017-02-12T13:59:20.000Z</time>
      </trkpt>
      <trkpt lat="43.38954" lon="5.39598">
        <ele>359</ele>
        <time>2017-02-12T13:59:22.000Z</time>
      </trkpt>
      <trkpt lat="43.38954" lon="5.39597">
        <ele>359</ele>
        <time>2017-02-12T13:59:23.000Z</time>
      </trkpt>
      <trkpt lat="43.38952" lon="5.3959">
        <ele>358.39999389648</ele>
        <time>2017-02-12T13:59:29.000Z</time>
      </trkpt>
      <trkpt lat="43.38949" lon="5.39581">
        <ele>358</ele>
        <time>2017-02-12T13:59:35.000Z</time>
      </trkpt>
      <trkpt lat="43.38949" lon="5.3958">
        <ele>357.79998779297</ele>
        <time>2017-02-12T13:59:36.000Z</time>
      </trkpt>
      <trkpt lat="43.38949" lon="5.39579">
        <ele>357.39999389648</ele>
        <time>2017-02-12T13:59:37.000Z</time>
      </trkpt>
      <trkpt lat="43.38949" lon="5.39575">
        <ele>357</ele>
        <time>2017-02-12T13:59:40.000Z</time>
      </trkpt>
      <trkpt lat="43.38948" lon="5.39572">
        <ele>357.20001220703</ele>
        <time>2017-02-12T13:59:42.000Z</time>
      </trkpt>
      <trkpt lat="43.38948" lon="5.3957">
        <ele>357.39999389648</ele>
        <time>2017-02-12T13:59:44.000Z</time>
      </trkpt>
      <trkpt lat="43.38946" lon="5.39564">
        <ele>358</ele>
        <time>2017-02-12T13:59:48.000Z</time>
      </trkpt>
      <trkpt lat="43.38946" lon="5.39563">
        <ele>358.20001220703</ele>
        <time>2017-02-12T13:59:49.000Z</time>
      </trkpt>
      <trkpt lat="43.38943" lon="5.39551">
        <ele>358</ele>
        <time>2017-02-12T13:59:58.000Z</time>
      </trkpt>
      <trkpt lat="43.38943" lon="5.39543">
        <ele>357.79998779297</ele>
        <time>2017-02-12T14:00:04.000Z</time>
      </trkpt>
      <trkpt lat="43.38942" lon="5.39535">
        <ele>357</ele>
        <time>2017-02-12T14:00:09.000Z</time>
      </trkpt>
      <trkpt lat="43.38942" lon="5.39534">
        <ele>356.60000610352</ele>
        <time>2017-02-12T14:00:10.000Z</time>
      </trkpt>
      <trkpt lat="43.38941" lon="5.39532">
        <ele>356.79998779297</ele>
        <time>2017-02-12T14:00:11.000Z</time>
      </trkpt>
      <trkpt lat="43.3894" lon="5.39525">
        <ele>356.60000610352</ele>
        <time>2017-02-12T14:00:17.000Z</time>
      </trkpt>
      <trkpt lat="43.3894" lon="5.39523">
        <ele>356.60000610352</ele>
        <time>2017-02-12T14:00:18.000Z</time>
      </trkpt>
      <trkpt lat="43.38939" lon="5.39512">
        <ele>356.60000610352</ele>
        <time>2017-02-12T14:00:26.000Z</time>
      </trkpt>
      <trkpt lat="43.38938" lon="5.39505">
        <ele>357.20001220703</ele>
        <time>2017-02-12T14:00:31.000Z</time>
      </trkpt>
      <trkpt lat="43.38936" lon="5.39498">
        <ele>356.60000610352</ele>
        <time>2017-02-12T14:00:36.000Z</time>
      </trkpt>
      <trkpt lat="43.38933" lon="5.3949">
        <ele>356</ele>
        <time>2017-02-12T14:00:43.000Z</time>
      </trkpt>
      <trkpt lat="43.38932" lon="5.39485">
        <ele>355.60000610352</ele>
        <time>2017-02-12T14:00:47.000Z</time>
      </trkpt>
      <trkpt lat="43.38931" lon="5.3948">
        <ele>355.79998779297</ele>
        <time>2017-02-12T14:00:51.000Z</time>
      </trkpt>
      <trkpt lat="43.38931" lon="5.39475">
        <ele>355.20001220703</ele>
        <time>2017-02-12T14:00:55.000Z</time>
      </trkpt>
      <trkpt lat="43.3893" lon="5.39472">
        <ele>354.60000610352</ele>
        <time>2017-02-12T14:00:57.000Z</time>
      </trkpt>
      <trkpt lat="43.38928" lon="5.39462">
        <ele>354</ele>
        <time>2017-02-12T14:01:04.000Z</time>
      </trkpt>
      <trkpt lat="43.38928" lon="5.3946">
        <ele>353.79998779297</ele>
        <time>2017-02-12T14:01:05.000Z</time>
      </trkpt>
      <trkpt lat="43.38928" lon="5.39459">
        <ele>353.79998779297</ele>
        <time>2017-02-12T14:01:06.000Z</time>
      </trkpt>
      <trkpt lat="43.38927" lon="5.39453">
        <ele>353.79998779297</ele>
        <time>2017-02-12T14:01:10.000Z</time>
      </trkpt>
      <trkpt lat="43.38926" lon="5.39443">
        <ele>354.79998779297</ele>
        <time>2017-02-12T14:01:17.000Z</time>
      </trkpt>
      <trkpt lat="43.38926" lon="5.39441">
        <ele>354.79998779297</ele>
        <time>2017-02-12T14:01:18.000Z</time>
      </trkpt>
      <trkpt lat="43.38925" lon="5.39434">
        <ele>355</ele>
        <time>2017-02-12T14:01:23.000Z</time>
      </trkpt>
      <trkpt lat="43.38924" lon="5.39429">
        <ele>355</ele>
        <time>2017-02-12T14:01:27.000Z</time>
      </trkpt>
      <trkpt lat="43.38923" lon="5.39425">
        <ele>354</ele>
        <time>2017-02-12T14:01:30.000Z</time>
      </trkpt>
      <trkpt lat="43.38921" lon="5.39416">
        <ele>353.60000610352</ele>
        <time>2017-02-12T14:01:37.000Z</time>
      </trkpt>
      <trkpt lat="43.3892" lon="5.39414">
        <ele>353.20001220703</ele>
        <time>2017-02-12T14:01:39.000Z</time>
      </trkpt>
      <trkpt lat="43.38919" lon="5.39408">
        <ele>353.20001220703</ele>
        <time>2017-02-12T14:01:43.000Z</time>
      </trkpt>
      <trkpt lat="43.38919" lon="5.39404">
        <ele>353.20001220703</ele>
        <time>2017-02-12T14:01:46.000Z</time>
      </trkpt>
      <trkpt lat="43.38918" lon="5.39398">
        <ele>353</ele>
        <time>2017-02-12T14:01:50.000Z</time>
      </trkpt>
      <trkpt lat="43.38915" lon="5.39388">
        <ele>352.60000610352</ele>
        <time>2017-02-12T14:01:57.000Z</time>
      </trkpt>
      <trkpt lat="43.38915" lon="5.39382">
        <ele>353</ele>
        <time>2017-02-12T14:02:01.000Z</time>
      </trkpt>
      <trkpt lat="43.38914" lon="5.39378">
        <ele>352.79998779297</ele>
        <time>2017-02-12T14:02:04.000Z</time>
      </trkpt>
      <trkpt lat="43.38913" lon="5.39376">
        <ele>352.20001220703</ele>
        <time>2017-02-12T14:02:06.000Z</time>
      </trkpt>
      <trkpt lat="43.38913" lon="5.39374">
        <ele>352</ele>
        <time>2017-02-12T14:02:07.000Z</time>
      </trkpt>
      <trkpt lat="43.38912" lon="5.39369">
        <ele>351.60000610352</ele>
        <time>2017-02-12T14:02:11.000Z</time>
      </trkpt>
      <trkpt lat="43.38912" lon="5.39367">
        <ele>351.20001220703</ele>
        <time>2017-02-12T14:02:12.000Z</time>
      </trkpt>
      <trkpt lat="43.38912" lon="5.39362">
        <ele>350.60000610352</ele>
        <time>2017-02-12T14:02:16.000Z</time>
      </trkpt>
      <trkpt lat="43.38911" lon="5.3936">
        <ele>350.39999389648</ele>
        <time>2017-02-12T14:02:18.000Z</time>
      </trkpt>
      <trkpt lat="43.38911" lon="5.39351">
        <ele>350</ele>
        <time>2017-02-12T14:02:24.000Z</time>
      </trkpt>
      <trkpt lat="43.38911" lon="5.3935">
        <ele>349.79998779297</ele>
        <time>2017-02-12T14:02:25.000Z</time>
      </trkpt>
      <trkpt lat="43.38911" lon="5.39349">
        <ele>349.60000610352</ele>
        <time>2017-02-12T14:02:26.000Z</time>
      </trkpt>
      <trkpt lat="43.38911" lon="5.39342">
        <ele>348.60000610352</ele>
        <time>2017-02-12T14:02:31.000Z</time>
      </trkpt>
      <trkpt lat="43.3891" lon="5.39334">
        <ele>349</ele>
        <time>2017-02-12T14:02:37.000Z</time>
      </trkpt>
      <trkpt lat="43.38908" lon="5.39324">
        <ele>349.39999389648</ele>
        <time>2017-02-12T14:02:44.000Z</time>
      </trkpt>
      <trkpt lat="43.38908" lon="5.39321">
        <ele>349.39999389648</ele>
        <time>2017-02-12T14:02:46.000Z</time>
      </trkpt>
      <trkpt lat="43.38907" lon="5.39316">
        <ele>349.79998779297</ele>
        <time>2017-02-12T14:02:50.000Z</time>
      </trkpt>
      <trkpt lat="43.38906" lon="5.39305">
        <ele>349.60000610352</ele>
        <time>2017-02-12T14:02:58.000Z</time>
      </trkpt>
      <trkpt lat="43.38904" lon="5.39298">
        <ele>348.60000610352</ele>
        <time>2017-02-12T14:03:04.000Z</time>
      </trkpt>
      <trkpt lat="43.38904" lon="5.39296">
        <ele>348.39999389648</ele>
        <time>2017-02-12T14:03:05.000Z</time>
      </trkpt>
      <trkpt lat="43.38903" lon="5.39289">
        <ele>347.39999389648</ele>
        <time>2017-02-12T14:03:10.000Z</time>
      </trkpt>
      <trkpt lat="43.38903" lon="5.39286">
        <ele>347</ele>
        <time>2017-02-12T14:03:12.000Z</time>
      </trkpt>
      <trkpt lat="43.38902" lon="5.39276">
        <ele>346.60000610352</ele>
        <time>2017-02-12T14:03:20.000Z</time>
      </trkpt>
      <trkpt lat="43.38901" lon="5.39273">
        <ele>346.60000610352</ele>
        <time>2017-02-12T14:03:23.000Z</time>
      </trkpt>
      <trkpt lat="43.389" lon="5.3927">
        <ele>346.60000610352</ele>
        <time>2017-02-12T14:03:25.000Z</time>
      </trkpt>
      <trkpt lat="43.389" lon="5.39267">
        <ele>346.60000610352</ele>
        <time>2017-02-12T14:03:27.000Z</time>
      </trkpt>
      <trkpt lat="43.389" lon="5.39265">
        <ele>346.39999389648</ele>
        <time>2017-02-12T14:03:28.000Z</time>
      </trkpt>
      <trkpt lat="43.38899" lon="5.39256">
        <ele>346.39999389648</ele>
        <time>2017-02-12T14:03:35.000Z</time>
      </trkpt>
      <trkpt lat="43.38898" lon="5.39246">
        <ele>345.60000610352</ele>
        <time>2017-02-12T14:03:42.000Z</time>
      </trkpt>
      <trkpt lat="43.38897" lon="5.39243">
        <ele>345.39999389648</ele>
        <time>2017-02-12T14:03:44.000Z</time>
      </trkpt>
      <trkpt lat="43.38896" lon="5.39235">
        <ele>345.20001220703</ele>
        <time>2017-02-12T14:03:51.000Z</time>
      </trkpt>
      <trkpt lat="43.38895" lon="5.39225">
        <ele>345.20001220703</ele>
        <time>2017-02-12T14:03:58.000Z</time>
      </trkpt>
      <trkpt lat="43.38893" lon="5.39218">
        <ele>344.39999389648</ele>
        <time>2017-02-12T14:04:04.000Z</time>
      </trkpt>
      <trkpt lat="43.38892" lon="5.39217">
        <ele>344.20001220703</ele>
        <time>2017-02-12T14:04:05.000Z</time>
      </trkpt>
      <trkpt lat="43.3889" lon="5.39212">
        <ele>344.20001220703</ele>
        <time>2017-02-12T14:04:10.000Z</time>
      </trkpt>
      <trkpt lat="43.38888" lon="5.39202">
        <ele>343.39999389648</ele>
        <time>2017-02-12T14:04:19.000Z</time>
      </trkpt>
      <trkpt lat="43.38885" lon="5.3919">
        <ele>342.20001220703</ele>
        <time>2017-02-12T14:04:28.000Z</time>
      </trkpt>
      <trkpt lat="43.38884" lon="5.39189">
        <ele>342</ele>
        <time>2017-02-12T14:04:29.000Z</time>
      </trkpt>
      <trkpt lat="43.38882" lon="5.39181">
        <ele>341.20001220703</ele>
        <time>2017-02-12T14:04:35.000Z</time>
      </trkpt>
      <trkpt lat="43.3888" lon="5.39176">
        <ele>340.79998779297</ele>
        <time>2017-02-12T14:04:40.000Z</time>
      </trkpt>
      <trkpt lat="43.38879" lon="5.39171">
        <ele>340.20001220703</ele>
        <time>2017-02-12T14:04:44.000Z</time>
      </trkpt>
      <trkpt lat="43.38877" lon="5.3916">
        <ele>339.60000610352</ele>
        <time>2017-02-12T14:04:52.000Z</time>
      </trkpt>
      <trkpt lat="43.38876" lon="5.39151">
        <ele>339.79998779297</ele>
        <time>2017-02-12T14:04:59.000Z</time>
      </trkpt>
      <trkpt lat="43.38876" lon="5.3915">
        <ele>339.79998779297</ele>
        <time>2017-02-12T14:05:00.000Z</time>
      </trkpt>
      <trkpt lat="43.38874" lon="5.39144">
        <ele>339.60000610352</ele>
        <time>2017-02-12T14:05:04.000Z</time>
      </trkpt>
      <trkpt lat="43.38872" lon="5.3914">
        <ele>339</ele>
        <time>2017-02-12T14:05:07.000Z</time>
      </trkpt>
      <trkpt lat="43.38871" lon="5.39138">
        <ele>339</ele>
        <time>2017-02-12T14:05:09.000Z</time>
      </trkpt>
      <trkpt lat="43.38871" lon="5.39137">
        <ele>339</ele>
        <time>2017-02-12T14:05:10.000Z</time>
      </trkpt>
      <trkpt lat="43.38869" lon="5.3913">
        <ele>339.20001220703</ele>
        <time>2017-02-12T14:05:15.000Z</time>
      </trkpt>
      <trkpt lat="43.38867" lon="5.39119">
        <ele>338.60000610352</ele>
        <time>2017-02-12T14:05:23.000Z</time>
      </trkpt>
      <trkpt lat="43.38865" lon="5.3911">
        <ele>338.20001220703</ele>
        <time>2017-02-12T14:05:30.000Z</time>
      </trkpt>
      <trkpt lat="43.38864" lon="5.39109">
        <ele>338</ele>
        <time>2017-02-12T14:05:31.000Z</time>
      </trkpt>
      <trkpt lat="43.38863" lon="5.39102">
        <ele>337.60000610352</ele>
        <time>2017-02-12T14:05:36.000Z</time>
      </trkpt>
      <trkpt lat="43.38861" lon="5.39099">
        <ele>337.79998779297</ele>
        <time>2017-02-12T14:05:39.000Z</time>
      </trkpt>
      <trkpt lat="43.3886" lon="5.39093">
        <ele>338.20001220703</ele>
        <time>2017-02-12T14:05:44.000Z</time>
      </trkpt>
      <trkpt lat="43.38859" lon="5.3909">
        <ele>338.20001220703</ele>
        <time>2017-02-12T14:05:46.000Z</time>
      </trkpt>
      <trkpt lat="43.38857" lon="5.39084">
        <ele>338.60000610352</ele>
        <time>2017-02-12T14:05:52.000Z</time>
      </trkpt>
      <trkpt lat="43.38857" lon="5.39081">
        <ele>339.20001220703</ele>
        <time>2017-02-12T14:05:55.000Z</time>
      </trkpt>
      <trkpt lat="43.38857" lon="5.39077">
        <ele>339.79998779297</ele>
        <time>2017-02-12T14:06:00.000Z</time>
      </trkpt>
      <trkpt lat="43.38858" lon="5.39067">
        <ele>339</ele>
        <time>2017-02-12T14:06:07.000Z</time>
      </trkpt>
      <trkpt lat="43.38856" lon="5.39062">
        <ele>339.20001220703</ele>
        <time>2017-02-12T14:06:14.000Z</time>
      </trkpt>
      <trkpt lat="43.38855" lon="5.39055">
        <ele>339</ele>
        <time>2017-02-12T14:06:21.000Z</time>
      </trkpt>
      <trkpt lat="43.38855" lon="5.39052">
        <ele>338.60000610352</ele>
        <time>2017-02-12T14:06:24.000Z</time>
      </trkpt>
      <trkpt lat="43.38856" lon="5.39048">
        <ele>338.60000610352</ele>
        <time>2017-02-12T14:06:27.000Z</time>
      </trkpt>
      <trkpt lat="43.38855" lon="5.39036">
        <ele>338.39999389648</ele>
        <time>2017-02-12T14:06:36.000Z</time>
      </trkpt>
      <trkpt lat="43.38854" lon="5.39025">
        <ele>338.20001220703</ele>
        <time>2017-02-12T14:06:44.000Z</time>
      </trkpt>
      <trkpt lat="43.38854" lon="5.39016">
        <ele>338.39999389648</ele>
        <time>2017-02-12T14:06:51.000Z</time>
      </trkpt>
      <trkpt lat="43.38854" lon="5.39015">
        <ele>338.39999389648</ele>
        <time>2017-02-12T14:06:52.000Z</time>
      </trkpt>
      <trkpt lat="43.38854" lon="5.39009">
        <ele>338.20001220703</ele>
        <time>2017-02-12T14:06:56.000Z</time>
      </trkpt>
      <trkpt lat="43.38854" lon="5.39008">
        <ele>338.20001220703</ele>
        <time>2017-02-12T14:06:57.000Z</time>
      </trkpt>
      <trkpt lat="43.38854" lon="5.39007">
        <ele>338</ele>
        <time>2017-02-12T14:06:58.000Z</time>
      </trkpt>
      <trkpt lat="43.38851" lon="5.38997">
        <ele>337.79998779297</ele>
        <time>2017-02-12T14:07:05.000Z</time>
      </trkpt>
      <trkpt lat="43.38848" lon="5.38992">
        <ele>337.79998779297</ele>
        <time>2017-02-12T14:07:10.000Z</time>
      </trkpt>
      <trkpt lat="43.38846" lon="5.3899">
        <ele>338.20001220703</ele>
        <time>2017-02-12T14:07:12.000Z</time>
      </trkpt>
      <trkpt lat="43.38844" lon="5.38986">
        <ele>338.20001220703</ele>
        <time>2017-02-12T14:07:16.000Z</time>
      </trkpt>
      <trkpt lat="43.38843" lon="5.38983">
        <ele>338.20001220703</ele>
        <time>2017-02-12T14:07:19.000Z</time>
      </trkpt>
      <trkpt lat="43.38842" lon="5.3898">
        <ele>338</ele>
        <time>2017-02-12T14:07:23.000Z</time>
      </trkpt>
      <trkpt lat="43.38841" lon="5.38978">
        <ele>337.79998779297</ele>
        <time>2017-02-12T14:07:28.000Z</time>
      </trkpt>
    </trkseg>
  </trk>
</gpx>